<?xml version="1.0" encoding="UTF-8" standalone="no" ?>
<gpx xmlns="http://www.topografix.com/GPX/1/1" xmlns:xsi="http://www.w3.org/2001/XMLSchema-instance" xsi:schemaLocation="http://www.topografix.com/GPX/1/1 http://www.topografix.com/GPX/1/1/gpx.xsd" version="1.1" creator="VisuGPX - https://www.visugpx.com">
  <metadata>
    <name>St Seurin de Bg</name>
  </metadata>
  <trk>
    <name><![CDATA[St Seurin de Bg_1]]></name>
    <extensions>
      <line xmlns="http://www.topografix.com/GPX/gpx_style/0/2">
        <color>0000FF</color>
        <width>4</width>
      </line>
    </extensions>
    <trkseg>
      <trkpt lat="45.05135" lon="-0.58289">
        <ele>30.2</ele>
        <time>2024-11-23T08:00:24Z</time>
      </trkpt>
      <trkpt lat="45.05134" lon="-0.5829">
        <ele>30.2</ele>
        <time>2024-11-23T08:00:25Z</time>
      </trkpt>
      <trkpt lat="45.05133" lon="-0.58291">
        <ele>30.2</ele>
        <time>2024-11-23T08:00:26Z</time>
      </trkpt>
      <trkpt lat="45.05133" lon="-0.58293">
        <ele>30.2</ele>
        <time>2024-11-23T08:00:27Z</time>
      </trkpt>
      <trkpt lat="45.05133" lon="-0.58294">
        <ele>30.2</ele>
        <time>2024-11-23T08:00:28Z</time>
      </trkpt>
      <trkpt lat="45.05132" lon="-0.58294">
        <ele>30.2</ele>
        <time>2024-11-23T08:00:29Z</time>
      </trkpt>
      <trkpt lat="45.05133" lon="-0.58295">
        <ele>30.2</ele>
        <time>2024-11-23T08:00:30Z</time>
      </trkpt>
      <trkpt lat="45.05133" lon="-0.58295">
        <ele>30.2</ele>
        <time>2024-11-23T08:00:31Z</time>
      </trkpt>
      <trkpt lat="45.05133" lon="-0.58296">
        <ele>30.2</ele>
        <time>2024-11-23T08:00:32Z</time>
      </trkpt>
      <trkpt lat="45.05133" lon="-0.58296">
        <ele>30.2</ele>
        <time>2024-11-23T08:00:33Z</time>
      </trkpt>
      <trkpt lat="45.05134" lon="-0.58297">
        <ele>30.2</ele>
        <time>2024-11-23T08:00:34Z</time>
      </trkpt>
      <trkpt lat="45.05135" lon="-0.58298">
        <ele>30.3</ele>
        <time>2024-11-23T08:00:35Z</time>
      </trkpt>
      <trkpt lat="45.05136" lon="-0.58299">
        <ele>30.3</ele>
        <time>2024-11-23T08:00:36Z</time>
      </trkpt>
      <trkpt lat="45.05137" lon="-0.58299">
        <ele>30.3</ele>
        <time>2024-11-23T08:00:37Z</time>
      </trkpt>
      <trkpt lat="45.05138" lon="-0.58299">
        <ele>30.3</ele>
        <time>2024-11-23T08:00:38Z</time>
      </trkpt>
      <trkpt lat="45.05139" lon="-0.58299">
        <ele>30.3</ele>
        <time>2024-11-23T08:00:39Z</time>
      </trkpt>
      <trkpt lat="45.0514" lon="-0.58297">
        <ele>30.3</ele>
        <time>2024-11-23T08:00:40Z</time>
      </trkpt>
      <trkpt lat="45.05142" lon="-0.58296">
        <ele>30.3</ele>
        <time>2024-11-23T08:00:41Z</time>
      </trkpt>
      <trkpt lat="45.05143" lon="-0.58295">
        <ele>30.3</ele>
        <time>2024-11-23T08:00:42Z</time>
      </trkpt>
      <trkpt lat="45.05143" lon="-0.58294">
        <ele>30.3</ele>
        <time>2024-11-23T08:00:43Z</time>
      </trkpt>
      <trkpt lat="45.05145" lon="-0.58292">
        <ele>30.4</ele>
        <time>2024-11-23T08:00:44Z</time>
      </trkpt>
      <trkpt lat="45.05146" lon="-0.58292">
        <ele>30.4</ele>
        <time>2024-11-23T08:00:45Z</time>
      </trkpt>
      <trkpt lat="45.05146" lon="-0.58291">
        <ele>30.4</ele>
        <time>2024-11-23T08:00:46Z</time>
      </trkpt>
      <trkpt lat="45.05148" lon="-0.5829">
        <ele>30.4</ele>
        <time>2024-11-23T08:00:47Z</time>
      </trkpt>
      <trkpt lat="45.05149" lon="-0.58289">
        <ele>30.4</ele>
        <time>2024-11-23T08:00:48Z</time>
      </trkpt>
      <trkpt lat="45.0515" lon="-0.58287">
        <ele>30.5</ele>
        <time>2024-11-23T08:00:49Z</time>
      </trkpt>
      <trkpt lat="45.05151" lon="-0.58286">
        <ele>30.5</ele>
        <time>2024-11-23T08:00:50Z</time>
      </trkpt>
      <trkpt lat="45.05152" lon="-0.58286">
        <ele>30.5</ele>
        <time>2024-11-23T08:00:51Z</time>
      </trkpt>
      <trkpt lat="45.05154" lon="-0.58284">
        <ele>30.5</ele>
        <time>2024-11-23T08:00:52Z</time>
      </trkpt>
      <trkpt lat="45.05154" lon="-0.58283">
        <ele>30.5</ele>
        <time>2024-11-23T08:00:53Z</time>
      </trkpt>
      <trkpt lat="45.05155" lon="-0.58282">
        <ele>30.6</ele>
        <time>2024-11-23T08:00:54Z</time>
      </trkpt>
      <trkpt lat="45.05156" lon="-0.58282">
        <ele>30.6</ele>
        <time>2024-11-23T08:00:55Z</time>
      </trkpt>
      <trkpt lat="45.05157" lon="-0.58281">
        <ele>30.6</ele>
        <time>2024-11-23T08:00:56Z</time>
      </trkpt>
      <trkpt lat="45.05158" lon="-0.5828">
        <ele>30.6</ele>
        <time>2024-11-23T08:00:57Z</time>
      </trkpt>
      <trkpt lat="45.0516" lon="-0.58279">
        <ele>30.6</ele>
        <time>2024-11-23T08:00:58Z</time>
      </trkpt>
      <trkpt lat="45.05161" lon="-0.58278">
        <ele>30.6</ele>
        <time>2024-11-23T08:00:59Z</time>
      </trkpt>
      <trkpt lat="45.05161" lon="-0.58277">
        <ele>30.6</ele>
        <time>2024-11-23T08:01:00Z</time>
      </trkpt>
      <trkpt lat="45.05163" lon="-0.58275">
        <ele>30.6</ele>
        <time>2024-11-23T08:01:01Z</time>
      </trkpt>
      <trkpt lat="45.05163" lon="-0.58275">
        <ele>30.6</ele>
        <time>2024-11-23T08:01:02Z</time>
      </trkpt>
      <trkpt lat="45.05164" lon="-0.58274">
        <ele>30.6</ele>
        <time>2024-11-23T08:01:03Z</time>
      </trkpt>
      <trkpt lat="45.05165" lon="-0.58272">
        <ele>30.6</ele>
        <time>2024-11-23T08:01:04Z</time>
      </trkpt>
      <trkpt lat="45.05166" lon="-0.58271">
        <ele>30.6</ele>
        <time>2024-11-23T08:01:05Z</time>
      </trkpt>
      <trkpt lat="45.05166" lon="-0.5827">
        <ele>30.6</ele>
        <time>2024-11-23T08:01:06Z</time>
      </trkpt>
      <trkpt lat="45.05168" lon="-0.58267">
        <ele>30.6</ele>
        <time>2024-11-23T08:01:07Z</time>
      </trkpt>
      <trkpt lat="45.05168" lon="-0.58266">
        <ele>30.6</ele>
        <time>2024-11-23T08:01:08Z</time>
      </trkpt>
      <trkpt lat="45.05169" lon="-0.58265">
        <ele>30.6</ele>
        <time>2024-11-23T08:01:09Z</time>
      </trkpt>
      <trkpt lat="45.0517" lon="-0.58263">
        <ele>30.6</ele>
        <time>2024-11-23T08:01:10Z</time>
      </trkpt>
      <trkpt lat="45.0517" lon="-0.58262">
        <ele>30.7</ele>
        <time>2024-11-23T08:01:11Z</time>
      </trkpt>
      <trkpt lat="45.05171" lon="-0.58261">
        <ele>30.7</ele>
        <time>2024-11-23T08:01:12Z</time>
      </trkpt>
      <trkpt lat="45.05172" lon="-0.58259">
        <ele>30.7</ele>
        <time>2024-11-23T08:01:13Z</time>
      </trkpt>
      <trkpt lat="45.05173" lon="-0.58258">
        <ele>30.7</ele>
        <time>2024-11-23T08:01:14Z</time>
      </trkpt>
      <trkpt lat="45.05174" lon="-0.58255">
        <ele>30.7</ele>
        <time>2024-11-23T08:01:15Z</time>
      </trkpt>
      <trkpt lat="45.05174" lon="-0.58254">
        <ele>30.7</ele>
        <time>2024-11-23T08:01:16Z</time>
      </trkpt>
      <trkpt lat="45.05175" lon="-0.58253">
        <ele>30.7</ele>
        <time>2024-11-23T08:01:17Z</time>
      </trkpt>
      <trkpt lat="45.05175" lon="-0.58251">
        <ele>30.8</ele>
        <time>2024-11-23T08:01:18Z</time>
      </trkpt>
      <trkpt lat="45.05175" lon="-0.58251">
        <ele>30.8</ele>
        <time>2024-11-23T08:01:19Z</time>
      </trkpt>
      <trkpt lat="45.05175" lon="-0.58251">
        <ele>30.8</ele>
        <time>2024-11-23T08:01:20Z</time>
      </trkpt>
      <trkpt lat="45.05175" lon="-0.58251">
        <ele>30.8</ele>
        <time>2024-11-23T08:01:21Z</time>
      </trkpt>
      <trkpt lat="45.05176" lon="-0.5825">
        <ele>30.8</ele>
        <time>2024-11-23T08:01:22Z</time>
      </trkpt>
      <trkpt lat="45.05176" lon="-0.5825">
        <ele>30.8</ele>
        <time>2024-11-23T08:01:23Z</time>
      </trkpt>
      <trkpt lat="45.05176" lon="-0.5825">
        <ele>30.8</ele>
        <time>2024-11-23T08:01:24Z</time>
      </trkpt>
      <trkpt lat="45.05176" lon="-0.5825">
        <ele>30.8</ele>
        <time>2024-11-23T08:01:25Z</time>
      </trkpt>
      <trkpt lat="45.05176" lon="-0.5825">
        <ele>30.8</ele>
        <time>2024-11-23T08:01:26Z</time>
      </trkpt>
      <trkpt lat="45.05176" lon="-0.58249">
        <ele>30.8</ele>
        <time>2024-11-23T08:01:27Z</time>
      </trkpt>
      <trkpt lat="45.05176" lon="-0.58249">
        <ele>30.8</ele>
        <time>2024-11-23T08:01:28Z</time>
      </trkpt>
      <trkpt lat="45.05176" lon="-0.58249">
        <ele>30.8</ele>
        <time>2024-11-23T08:01:29Z</time>
      </trkpt>
      <trkpt lat="45.05176" lon="-0.58249">
        <ele>30.8</ele>
        <time>2024-11-23T08:01:30Z</time>
      </trkpt>
      <trkpt lat="45.05176" lon="-0.58248">
        <ele>30.8</ele>
        <time>2024-11-23T08:01:31Z</time>
      </trkpt>
      <trkpt lat="45.05176" lon="-0.58248">
        <ele>30.8</ele>
        <time>2024-11-23T08:01:32Z</time>
      </trkpt>
      <trkpt lat="45.05177" lon="-0.58244">
        <ele>30.8</ele>
        <time>2024-11-23T08:01:33Z</time>
      </trkpt>
      <trkpt lat="45.05177" lon="-0.5824">
        <ele>30.9</ele>
        <time>2024-11-23T08:01:34Z</time>
      </trkpt>
      <trkpt lat="45.05177" lon="-0.58239">
        <ele>30.9</ele>
        <time>2024-11-23T08:01:35Z</time>
      </trkpt>
      <trkpt lat="45.05177" lon="-0.58238">
        <ele>30.9</ele>
        <time>2024-11-23T08:01:36Z</time>
      </trkpt>
      <trkpt lat="45.05177" lon="-0.58236">
        <ele>30.9</ele>
        <time>2024-11-23T08:01:37Z</time>
      </trkpt>
      <trkpt lat="45.05178" lon="-0.58234">
        <ele>31</ele>
        <time>2024-11-23T08:01:38Z</time>
      </trkpt>
      <trkpt lat="45.05178" lon="-0.58231">
        <ele>31</ele>
        <time>2024-11-23T08:01:39Z</time>
      </trkpt>
      <trkpt lat="45.05178" lon="-0.5823">
        <ele>31</ele>
        <time>2024-11-23T08:01:40Z</time>
      </trkpt>
      <trkpt lat="45.05178" lon="-0.58229">
        <ele>31.1</ele>
        <time>2024-11-23T08:01:41Z</time>
      </trkpt>
      <trkpt lat="45.05178" lon="-0.58227">
        <ele>31.1</ele>
        <time>2024-11-23T08:01:42Z</time>
      </trkpt>
      <trkpt lat="45.05178" lon="-0.58225">
        <ele>31.1</ele>
        <time>2024-11-23T08:01:43Z</time>
      </trkpt>
      <trkpt lat="45.05178" lon="-0.58222">
        <ele>31.2</ele>
        <time>2024-11-23T08:01:44Z</time>
      </trkpt>
      <trkpt lat="45.05178" lon="-0.5822">
        <ele>31.2</ele>
        <time>2024-11-23T08:01:45Z</time>
      </trkpt>
      <trkpt lat="45.05178" lon="-0.58219">
        <ele>31.3</ele>
        <time>2024-11-23T08:01:46Z</time>
      </trkpt>
      <trkpt lat="45.05178" lon="-0.58217">
        <ele>31.3</ele>
        <time>2024-11-23T08:01:47Z</time>
      </trkpt>
      <trkpt lat="45.05178" lon="-0.58215">
        <ele>31.4</ele>
        <time>2024-11-23T08:01:48Z</time>
      </trkpt>
      <trkpt lat="45.05178" lon="-0.58213">
        <ele>31.4</ele>
        <time>2024-11-23T08:01:49Z</time>
      </trkpt>
      <trkpt lat="45.05178" lon="-0.58211">
        <ele>31.5</ele>
        <time>2024-11-23T08:01:50Z</time>
      </trkpt>
      <trkpt lat="45.05177" lon="-0.58209">
        <ele>31.6</ele>
        <time>2024-11-23T08:01:51Z</time>
      </trkpt>
      <trkpt lat="45.05178" lon="-0.58207">
        <ele>31.6</ele>
        <time>2024-11-23T08:01:52Z</time>
      </trkpt>
      <trkpt lat="45.05178" lon="-0.58206">
        <ele>31.7</ele>
        <time>2024-11-23T08:01:53Z</time>
      </trkpt>
      <trkpt lat="45.05178" lon="-0.58203">
        <ele>31.8</ele>
        <time>2024-11-23T08:01:54Z</time>
      </trkpt>
      <trkpt lat="45.05178" lon="-0.58201">
        <ele>31.8</ele>
        <time>2024-11-23T08:01:55Z</time>
      </trkpt>
      <trkpt lat="45.05178" lon="-0.58199">
        <ele>31.9</ele>
        <time>2024-11-23T08:01:56Z</time>
      </trkpt>
      <trkpt lat="45.05178" lon="-0.58196">
        <ele>32</ele>
        <time>2024-11-23T08:01:57Z</time>
      </trkpt>
      <trkpt lat="45.05179" lon="-0.58194">
        <ele>32.1</ele>
        <time>2024-11-23T08:01:58Z</time>
      </trkpt>
      <trkpt lat="45.05179" lon="-0.58192">
        <ele>32.2</ele>
        <time>2024-11-23T08:01:59Z</time>
      </trkpt>
      <trkpt lat="45.05179" lon="-0.5819">
        <ele>32.3</ele>
        <time>2024-11-23T08:02:00Z</time>
      </trkpt>
      <trkpt lat="45.05179" lon="-0.58188">
        <ele>32.4</ele>
        <time>2024-11-23T08:02:01Z</time>
      </trkpt>
      <trkpt lat="45.05179" lon="-0.58186">
        <ele>32.5</ele>
        <time>2024-11-23T08:02:02Z</time>
      </trkpt>
      <trkpt lat="45.05178" lon="-0.58183">
        <ele>32.6</ele>
        <time>2024-11-23T08:02:03Z</time>
      </trkpt>
      <trkpt lat="45.05179" lon="-0.58181">
        <ele>32.7</ele>
        <time>2024-11-23T08:02:04Z</time>
      </trkpt>
      <trkpt lat="45.05179" lon="-0.58178">
        <ele>32.8</ele>
        <time>2024-11-23T08:02:05Z</time>
      </trkpt>
      <trkpt lat="45.05179" lon="-0.58177">
        <ele>32.9</ele>
        <time>2024-11-23T08:02:06Z</time>
      </trkpt>
      <trkpt lat="45.05179" lon="-0.58176">
        <ele>32.9</ele>
        <time>2024-11-23T08:02:07Z</time>
      </trkpt>
      <trkpt lat="45.05179" lon="-0.58173">
        <ele>33</ele>
        <time>2024-11-23T08:02:08Z</time>
      </trkpt>
      <trkpt lat="45.05179" lon="-0.58171">
        <ele>33.1</ele>
        <time>2024-11-23T08:02:09Z</time>
      </trkpt>
      <trkpt lat="45.05179" lon="-0.58168">
        <ele>33.3</ele>
        <time>2024-11-23T08:02:10Z</time>
      </trkpt>
      <trkpt lat="45.05179" lon="-0.58167">
        <ele>33.3</ele>
        <time>2024-11-23T08:02:11Z</time>
      </trkpt>
      <trkpt lat="45.05179" lon="-0.58166">
        <ele>33.4</ele>
        <time>2024-11-23T08:02:12Z</time>
      </trkpt>
      <trkpt lat="45.05179" lon="-0.58164">
        <ele>33.5</ele>
        <time>2024-11-23T08:02:13Z</time>
      </trkpt>
      <trkpt lat="45.05179" lon="-0.58162">
        <ele>33.6</ele>
        <time>2024-11-23T08:02:14Z</time>
      </trkpt>
      <trkpt lat="45.05179" lon="-0.58159">
        <ele>33.7</ele>
        <time>2024-11-23T08:02:15Z</time>
      </trkpt>
      <trkpt lat="45.05179" lon="-0.58157">
        <ele>33.7</ele>
        <time>2024-11-23T08:02:16Z</time>
      </trkpt>
      <trkpt lat="45.05179" lon="-0.58156">
        <ele>33.8</ele>
        <time>2024-11-23T08:02:17Z</time>
      </trkpt>
      <trkpt lat="45.05179" lon="-0.58153">
        <ele>33.9</ele>
        <time>2024-11-23T08:02:18Z</time>
      </trkpt>
      <trkpt lat="45.0518" lon="-0.58151">
        <ele>34</ele>
        <time>2024-11-23T08:02:19Z</time>
      </trkpt>
      <trkpt lat="45.0518" lon="-0.58149">
        <ele>34.1</ele>
        <time>2024-11-23T08:02:20Z</time>
      </trkpt>
      <trkpt lat="45.05179" lon="-0.58146">
        <ele>34.2</ele>
        <time>2024-11-23T08:02:21Z</time>
      </trkpt>
      <trkpt lat="45.05179" lon="-0.58145">
        <ele>34.3</ele>
        <time>2024-11-23T08:02:22Z</time>
      </trkpt>
      <trkpt lat="45.05179" lon="-0.58144">
        <ele>34.4</ele>
        <time>2024-11-23T08:02:23Z</time>
      </trkpt>
      <trkpt lat="45.05179" lon="-0.58142">
        <ele>34.5</ele>
        <time>2024-11-23T08:02:24Z</time>
      </trkpt>
      <trkpt lat="45.05179" lon="-0.5814">
        <ele>34.6</ele>
        <time>2024-11-23T08:02:25Z</time>
      </trkpt>
      <trkpt lat="45.0518" lon="-0.58137">
        <ele>34.7</ele>
        <time>2024-11-23T08:02:26Z</time>
      </trkpt>
      <trkpt lat="45.0518" lon="-0.58135">
        <ele>34.8</ele>
        <time>2024-11-23T08:02:27Z</time>
      </trkpt>
      <trkpt lat="45.0518" lon="-0.58132">
        <ele>34.9</ele>
        <time>2024-11-23T08:02:28Z</time>
      </trkpt>
      <trkpt lat="45.0518" lon="-0.58131">
        <ele>34.9</ele>
        <time>2024-11-23T08:02:29Z</time>
      </trkpt>
      <trkpt lat="45.0518" lon="-0.5813">
        <ele>35</ele>
        <time>2024-11-23T08:02:30Z</time>
      </trkpt>
      <trkpt lat="45.0518" lon="-0.58128">
        <ele>35.1</ele>
        <time>2024-11-23T08:02:31Z</time>
      </trkpt>
      <trkpt lat="45.0518" lon="-0.58126">
        <ele>35.2</ele>
        <time>2024-11-23T08:02:32Z</time>
      </trkpt>
      <trkpt lat="45.0518" lon="-0.58123">
        <ele>35.3</ele>
        <time>2024-11-23T08:02:33Z</time>
      </trkpt>
      <trkpt lat="45.0518" lon="-0.58121">
        <ele>35.4</ele>
        <time>2024-11-23T08:02:34Z</time>
      </trkpt>
      <trkpt lat="45.0518" lon="-0.58119">
        <ele>35.5</ele>
        <time>2024-11-23T08:02:35Z</time>
      </trkpt>
      <trkpt lat="45.0518" lon="-0.58117">
        <ele>35.6</ele>
        <time>2024-11-23T08:02:36Z</time>
      </trkpt>
      <trkpt lat="45.0518" lon="-0.58115">
        <ele>35.6</ele>
        <time>2024-11-23T08:02:37Z</time>
      </trkpt>
      <trkpt lat="45.0518" lon="-0.58113">
        <ele>35.7</ele>
        <time>2024-11-23T08:02:38Z</time>
      </trkpt>
      <trkpt lat="45.0518" lon="-0.5811">
        <ele>35.8</ele>
        <time>2024-11-23T08:02:39Z</time>
      </trkpt>
      <trkpt lat="45.05181" lon="-0.58108">
        <ele>35.9</ele>
        <time>2024-11-23T08:02:40Z</time>
      </trkpt>
      <trkpt lat="45.05181" lon="-0.58106">
        <ele>36</ele>
        <time>2024-11-23T08:02:41Z</time>
      </trkpt>
      <trkpt lat="45.05181" lon="-0.58104">
        <ele>36.1</ele>
        <time>2024-11-23T08:02:42Z</time>
      </trkpt>
      <trkpt lat="45.05181" lon="-0.58102">
        <ele>36.2</ele>
        <time>2024-11-23T08:02:43Z</time>
      </trkpt>
      <trkpt lat="45.05181" lon="-0.581">
        <ele>36.3</ele>
        <time>2024-11-23T08:02:44Z</time>
      </trkpt>
      <trkpt lat="45.05181" lon="-0.58098">
        <ele>36.4</ele>
        <time>2024-11-23T08:02:45Z</time>
      </trkpt>
      <trkpt lat="45.05182" lon="-0.58096">
        <ele>36.5</ele>
        <time>2024-11-23T08:02:46Z</time>
      </trkpt>
      <trkpt lat="45.05182" lon="-0.58094">
        <ele>36.6</ele>
        <time>2024-11-23T08:02:47Z</time>
      </trkpt>
      <trkpt lat="45.05182" lon="-0.58091">
        <ele>36.7</ele>
        <time>2024-11-23T08:02:48Z</time>
      </trkpt>
      <trkpt lat="45.05182" lon="-0.58089">
        <ele>36.8</ele>
        <time>2024-11-23T08:02:49Z</time>
      </trkpt>
      <trkpt lat="45.05183" lon="-0.58087">
        <ele>36.9</ele>
        <time>2024-11-23T08:02:50Z</time>
      </trkpt>
      <trkpt lat="45.05183" lon="-0.58085">
        <ele>37</ele>
        <time>2024-11-23T08:02:51Z</time>
      </trkpt>
      <trkpt lat="45.05183" lon="-0.58082">
        <ele>37.1</ele>
        <time>2024-11-23T08:02:52Z</time>
      </trkpt>
      <trkpt lat="45.05183" lon="-0.5808">
        <ele>37.2</ele>
        <time>2024-11-23T08:02:53Z</time>
      </trkpt>
      <trkpt lat="45.05184" lon="-0.58078">
        <ele>37.3</ele>
        <time>2024-11-23T08:02:54Z</time>
      </trkpt>
      <trkpt lat="45.05184" lon="-0.58076">
        <ele>37.4</ele>
        <time>2024-11-23T08:02:55Z</time>
      </trkpt>
      <trkpt lat="45.05184" lon="-0.58074">
        <ele>37.5</ele>
        <time>2024-11-23T08:02:56Z</time>
      </trkpt>
      <trkpt lat="45.05185" lon="-0.58072">
        <ele>37.6</ele>
        <time>2024-11-23T08:02:57Z</time>
      </trkpt>
      <trkpt lat="45.05185" lon="-0.5807">
        <ele>37.7</ele>
        <time>2024-11-23T08:02:58Z</time>
      </trkpt>
      <trkpt lat="45.05185" lon="-0.58068">
        <ele>37.8</ele>
        <time>2024-11-23T08:02:59Z</time>
      </trkpt>
      <trkpt lat="45.05186" lon="-0.58066">
        <ele>37.9</ele>
        <time>2024-11-23T08:03:00Z</time>
      </trkpt>
      <trkpt lat="45.05187" lon="-0.58064">
        <ele>38</ele>
        <time>2024-11-23T08:03:01Z</time>
      </trkpt>
      <trkpt lat="45.05187" lon="-0.58062">
        <ele>38.2</ele>
        <time>2024-11-23T08:03:02Z</time>
      </trkpt>
      <trkpt lat="45.05188" lon="-0.5806">
        <ele>38.2</ele>
        <time>2024-11-23T08:03:03Z</time>
      </trkpt>
      <trkpt lat="45.05188" lon="-0.58058">
        <ele>38.3</ele>
        <time>2024-11-23T08:03:04Z</time>
      </trkpt>
      <trkpt lat="45.05189" lon="-0.58056">
        <ele>38.4</ele>
        <time>2024-11-23T08:03:05Z</time>
      </trkpt>
      <trkpt lat="45.0519" lon="-0.58055">
        <ele>38.5</ele>
        <time>2024-11-23T08:03:06Z</time>
      </trkpt>
      <trkpt lat="45.05191" lon="-0.58053">
        <ele>38.6</ele>
        <time>2024-11-23T08:03:07Z</time>
      </trkpt>
      <trkpt lat="45.05192" lon="-0.58051">
        <ele>38.8</ele>
        <time>2024-11-23T08:03:08Z</time>
      </trkpt>
      <trkpt lat="45.05193" lon="-0.58049">
        <ele>38.9</ele>
        <time>2024-11-23T08:03:09Z</time>
      </trkpt>
      <trkpt lat="45.05193" lon="-0.58047">
        <ele>38.9</ele>
        <time>2024-11-23T08:03:10Z</time>
      </trkpt>
      <trkpt lat="45.05194" lon="-0.58046">
        <ele>39</ele>
        <time>2024-11-23T08:03:11Z</time>
      </trkpt>
      <trkpt lat="45.05196" lon="-0.58044">
        <ele>39.2</ele>
        <time>2024-11-23T08:03:12Z</time>
      </trkpt>
      <trkpt lat="45.05197" lon="-0.58041">
        <ele>39.3</ele>
        <time>2024-11-23T08:03:13Z</time>
      </trkpt>
      <trkpt lat="45.05198" lon="-0.5804">
        <ele>39.4</ele>
        <time>2024-11-23T08:03:14Z</time>
      </trkpt>
      <trkpt lat="45.05198" lon="-0.5804">
        <ele>39.4</ele>
        <time>2024-11-23T08:03:15Z</time>
      </trkpt>
      <trkpt lat="45.05199" lon="-0.58038">
        <ele>39.5</ele>
        <time>2024-11-23T08:03:16Z</time>
      </trkpt>
      <trkpt lat="45.05201" lon="-0.58037">
        <ele>39.6</ele>
        <time>2024-11-23T08:03:17Z</time>
      </trkpt>
      <trkpt lat="45.05202" lon="-0.58036">
        <ele>39.7</ele>
        <time>2024-11-23T08:03:18Z</time>
      </trkpt>
      <trkpt lat="45.05203" lon="-0.58034">
        <ele>39.8</ele>
        <time>2024-11-23T08:03:19Z</time>
      </trkpt>
      <trkpt lat="45.05205" lon="-0.58034">
        <ele>39.8</ele>
        <time>2024-11-23T08:03:20Z</time>
      </trkpt>
      <trkpt lat="45.05206" lon="-0.58033">
        <ele>39.9</ele>
        <time>2024-11-23T08:03:21Z</time>
      </trkpt>
      <trkpt lat="45.05207" lon="-0.58032">
        <ele>40</ele>
        <time>2024-11-23T08:03:22Z</time>
      </trkpt>
      <trkpt lat="45.05209" lon="-0.58031">
        <ele>40.1</ele>
        <time>2024-11-23T08:03:23Z</time>
      </trkpt>
      <trkpt lat="45.0521" lon="-0.58031">
        <ele>40.2</ele>
        <time>2024-11-23T08:03:24Z</time>
      </trkpt>
      <trkpt lat="45.05212" lon="-0.5803">
        <ele>40.3</ele>
        <time>2024-11-23T08:03:25Z</time>
      </trkpt>
      <trkpt lat="45.05214" lon="-0.5803">
        <ele>40.3</ele>
        <time>2024-11-23T08:03:26Z</time>
      </trkpt>
      <trkpt lat="45.05215" lon="-0.58029">
        <ele>40.4</ele>
        <time>2024-11-23T08:03:27Z</time>
      </trkpt>
      <trkpt lat="45.05216" lon="-0.58028">
        <ele>40.5</ele>
        <time>2024-11-23T08:03:28Z</time>
      </trkpt>
      <trkpt lat="45.05218" lon="-0.58028">
        <ele>40.5</ele>
        <time>2024-11-23T08:03:29Z</time>
      </trkpt>
      <trkpt lat="45.0522" lon="-0.58027">
        <ele>40.6</ele>
        <time>2024-11-23T08:03:30Z</time>
      </trkpt>
      <trkpt lat="45.05221" lon="-0.58027">
        <ele>40.7</ele>
        <time>2024-11-23T08:03:31Z</time>
      </trkpt>
      <trkpt lat="45.05223" lon="-0.58027">
        <ele>40.7</ele>
        <time>2024-11-23T08:03:32Z</time>
      </trkpt>
      <trkpt lat="45.05224" lon="-0.58026">
        <ele>40.8</ele>
        <time>2024-11-23T08:03:33Z</time>
      </trkpt>
      <trkpt lat="45.05226" lon="-0.58026">
        <ele>40.8</ele>
        <time>2024-11-23T08:03:34Z</time>
      </trkpt>
      <trkpt lat="45.05227" lon="-0.58025">
        <ele>40.9</ele>
        <time>2024-11-23T08:03:35Z</time>
      </trkpt>
      <trkpt lat="45.05229" lon="-0.58025">
        <ele>40.9</ele>
        <time>2024-11-23T08:03:36Z</time>
      </trkpt>
      <trkpt lat="45.0523" lon="-0.58025">
        <ele>41</ele>
        <time>2024-11-23T08:03:37Z</time>
      </trkpt>
      <trkpt lat="45.05232" lon="-0.58024">
        <ele>41.1</ele>
        <time>2024-11-23T08:03:38Z</time>
      </trkpt>
      <trkpt lat="45.05233" lon="-0.58024">
        <ele>41.1</ele>
        <time>2024-11-23T08:03:39Z</time>
      </trkpt>
      <trkpt lat="45.05234" lon="-0.58024">
        <ele>41.1</ele>
        <time>2024-11-23T08:03:40Z</time>
      </trkpt>
      <trkpt lat="45.05236" lon="-0.58024">
        <ele>41.2</ele>
        <time>2024-11-23T08:03:41Z</time>
      </trkpt>
      <trkpt lat="45.05237" lon="-0.58023">
        <ele>41.3</ele>
        <time>2024-11-23T08:03:42Z</time>
      </trkpt>
      <trkpt lat="45.05239" lon="-0.58023">
        <ele>41.3</ele>
        <time>2024-11-23T08:03:43Z</time>
      </trkpt>
      <trkpt lat="45.0524" lon="-0.58023">
        <ele>41.4</ele>
        <time>2024-11-23T08:03:44Z</time>
      </trkpt>
      <trkpt lat="45.05242" lon="-0.58022">
        <ele>41.4</ele>
        <time>2024-11-23T08:03:45Z</time>
      </trkpt>
      <trkpt lat="45.05243" lon="-0.58022">
        <ele>41.5</ele>
        <time>2024-11-23T08:03:46Z</time>
      </trkpt>
      <trkpt lat="45.05245" lon="-0.58021">
        <ele>41.5</ele>
        <time>2024-11-23T08:03:47Z</time>
      </trkpt>
      <trkpt lat="45.05247" lon="-0.58021">
        <ele>41.6</ele>
        <time>2024-11-23T08:03:48Z</time>
      </trkpt>
      <trkpt lat="45.05248" lon="-0.5802">
        <ele>41.7</ele>
        <time>2024-11-23T08:03:49Z</time>
      </trkpt>
      <trkpt lat="45.0525" lon="-0.5802">
        <ele>41.7</ele>
        <time>2024-11-23T08:03:50Z</time>
      </trkpt>
      <trkpt lat="45.05251" lon="-0.5802">
        <ele>41.8</ele>
        <time>2024-11-23T08:03:51Z</time>
      </trkpt>
      <trkpt lat="45.05253" lon="-0.5802">
        <ele>41.8</ele>
        <time>2024-11-23T08:03:52Z</time>
      </trkpt>
      <trkpt lat="45.05254" lon="-0.58019">
        <ele>41.9</ele>
        <time>2024-11-23T08:03:53Z</time>
      </trkpt>
      <trkpt lat="45.05255" lon="-0.58019">
        <ele>41.9</ele>
        <time>2024-11-23T08:03:54Z</time>
      </trkpt>
      <trkpt lat="45.05257" lon="-0.58019">
        <ele>42</ele>
        <time>2024-11-23T08:03:55Z</time>
      </trkpt>
      <trkpt lat="45.05259" lon="-0.58018">
        <ele>42.1</ele>
        <time>2024-11-23T08:03:56Z</time>
      </trkpt>
      <trkpt lat="45.0526" lon="-0.58018">
        <ele>42.1</ele>
        <time>2024-11-23T08:03:57Z</time>
      </trkpt>
      <trkpt lat="45.05262" lon="-0.58019">
        <ele>42.2</ele>
        <time>2024-11-23T08:03:58Z</time>
      </trkpt>
      <trkpt lat="45.05264" lon="-0.58018">
        <ele>42.3</ele>
        <time>2024-11-23T08:03:59Z</time>
      </trkpt>
      <trkpt lat="45.05265" lon="-0.58018">
        <ele>42.3</ele>
        <time>2024-11-23T08:04:00Z</time>
      </trkpt>
      <trkpt lat="45.05266" lon="-0.58018">
        <ele>42.3</ele>
        <time>2024-11-23T08:04:01Z</time>
      </trkpt>
      <trkpt lat="45.05268" lon="-0.58018">
        <ele>42.4</ele>
        <time>2024-11-23T08:04:02Z</time>
      </trkpt>
      <trkpt lat="45.05269" lon="-0.58017">
        <ele>42.4</ele>
        <time>2024-11-23T08:04:03Z</time>
      </trkpt>
      <trkpt lat="45.0527" lon="-0.58017">
        <ele>42.4</ele>
        <time>2024-11-23T08:04:04Z</time>
      </trkpt>
      <trkpt lat="45.05272" lon="-0.58016">
        <ele>42.5</ele>
        <time>2024-11-23T08:04:05Z</time>
      </trkpt>
      <trkpt lat="45.05274" lon="-0.58016">
        <ele>42.5</ele>
        <time>2024-11-23T08:04:06Z</time>
      </trkpt>
      <trkpt lat="45.05275" lon="-0.58015">
        <ele>42.6</ele>
        <time>2024-11-23T08:04:07Z</time>
      </trkpt>
      <trkpt lat="45.05277" lon="-0.58015">
        <ele>42.6</ele>
        <time>2024-11-23T08:04:08Z</time>
      </trkpt>
      <trkpt lat="45.05278" lon="-0.58015">
        <ele>42.6</ele>
        <time>2024-11-23T08:04:09Z</time>
      </trkpt>
      <trkpt lat="45.05279" lon="-0.58014">
        <ele>42.7</ele>
        <time>2024-11-23T08:04:10Z</time>
      </trkpt>
      <trkpt lat="45.05281" lon="-0.58013">
        <ele>42.7</ele>
        <time>2024-11-23T08:04:11Z</time>
      </trkpt>
      <trkpt lat="45.05282" lon="-0.58012">
        <ele>42.8</ele>
        <time>2024-11-23T08:04:12Z</time>
      </trkpt>
      <trkpt lat="45.05283" lon="-0.58011">
        <ele>42.8</ele>
        <time>2024-11-23T08:04:13Z</time>
      </trkpt>
      <trkpt lat="45.05285" lon="-0.5801">
        <ele>42.9</ele>
        <time>2024-11-23T08:04:14Z</time>
      </trkpt>
      <trkpt lat="45.05286" lon="-0.58009">
        <ele>42.9</ele>
        <time>2024-11-23T08:04:15Z</time>
      </trkpt>
      <trkpt lat="45.05287" lon="-0.58008">
        <ele>42.9</ele>
        <time>2024-11-23T08:04:16Z</time>
      </trkpt>
      <trkpt lat="45.05289" lon="-0.58007">
        <ele>43</ele>
        <time>2024-11-23T08:04:17Z</time>
      </trkpt>
      <trkpt lat="45.0529" lon="-0.58005">
        <ele>43</ele>
        <time>2024-11-23T08:04:18Z</time>
      </trkpt>
      <trkpt lat="45.05291" lon="-0.58004">
        <ele>43.1</ele>
        <time>2024-11-23T08:04:19Z</time>
      </trkpt>
      <trkpt lat="45.05294" lon="-0.58003">
        <ele>43.1</ele>
        <time>2024-11-23T08:04:20Z</time>
      </trkpt>
      <trkpt lat="45.05295" lon="-0.58003">
        <ele>43.2</ele>
        <time>2024-11-23T08:04:21Z</time>
      </trkpt>
      <trkpt lat="45.05296" lon="-0.58003">
        <ele>43.2</ele>
        <time>2024-11-23T08:04:22Z</time>
      </trkpt>
      <trkpt lat="45.05297" lon="-0.58002">
        <ele>43.2</ele>
        <time>2024-11-23T08:04:23Z</time>
      </trkpt>
      <trkpt lat="45.05298" lon="-0.58002">
        <ele>43.3</ele>
        <time>2024-11-23T08:04:24Z</time>
      </trkpt>
      <trkpt lat="45.053" lon="-0.58001">
        <ele>43.3</ele>
        <time>2024-11-23T08:04:25Z</time>
      </trkpt>
      <trkpt lat="45.05302" lon="-0.58001">
        <ele>43.4</ele>
        <time>2024-11-23T08:04:26Z</time>
      </trkpt>
      <trkpt lat="45.05303" lon="-0.58001">
        <ele>43.4</ele>
        <time>2024-11-23T08:04:27Z</time>
      </trkpt>
      <trkpt lat="45.05305" lon="-0.58001">
        <ele>43.5</ele>
        <time>2024-11-23T08:04:28Z</time>
      </trkpt>
      <trkpt lat="45.05307" lon="-0.58001">
        <ele>43.5</ele>
        <time>2024-11-23T08:04:29Z</time>
      </trkpt>
      <trkpt lat="45.05308" lon="-0.58001">
        <ele>43.6</ele>
        <time>2024-11-23T08:04:30Z</time>
      </trkpt>
      <trkpt lat="45.0531" lon="-0.58001">
        <ele>43.6</ele>
        <time>2024-11-23T08:04:31Z</time>
      </trkpt>
      <trkpt lat="45.05312" lon="-0.58001">
        <ele>43.7</ele>
        <time>2024-11-23T08:04:32Z</time>
      </trkpt>
      <trkpt lat="45.05313" lon="-0.58">
        <ele>43.7</ele>
        <time>2024-11-23T08:04:33Z</time>
      </trkpt>
      <trkpt lat="45.05315" lon="-0.58">
        <ele>43.8</ele>
        <time>2024-11-23T08:04:34Z</time>
      </trkpt>
      <trkpt lat="45.05316" lon="-0.58">
        <ele>43.8</ele>
        <time>2024-11-23T08:04:35Z</time>
      </trkpt>
      <trkpt lat="45.05317" lon="-0.58">
        <ele>43.9</ele>
        <time>2024-11-23T08:04:36Z</time>
      </trkpt>
      <trkpt lat="45.05319" lon="-0.58">
        <ele>43.9</ele>
        <time>2024-11-23T08:04:37Z</time>
      </trkpt>
      <trkpt lat="45.0532" lon="-0.58">
        <ele>44</ele>
        <time>2024-11-23T08:04:38Z</time>
      </trkpt>
      <trkpt lat="45.05322" lon="-0.58">
        <ele>44</ele>
        <time>2024-11-23T08:04:39Z</time>
      </trkpt>
      <trkpt lat="45.05323" lon="-0.57999">
        <ele>44.1</ele>
        <time>2024-11-23T08:04:40Z</time>
      </trkpt>
      <trkpt lat="45.05325" lon="-0.58">
        <ele>44.1</ele>
        <time>2024-11-23T08:04:41Z</time>
      </trkpt>
      <trkpt lat="45.05327" lon="-0.58">
        <ele>44.2</ele>
        <time>2024-11-23T08:04:42Z</time>
      </trkpt>
      <trkpt lat="45.05328" lon="-0.57999">
        <ele>44.2</ele>
        <time>2024-11-23T08:04:43Z</time>
      </trkpt>
      <trkpt lat="45.05329" lon="-0.57999">
        <ele>44.3</ele>
        <time>2024-11-23T08:04:44Z</time>
      </trkpt>
      <trkpt lat="45.05331" lon="-0.57998">
        <ele>44.3</ele>
        <time>2024-11-23T08:04:45Z</time>
      </trkpt>
      <trkpt lat="45.05332" lon="-0.57998">
        <ele>44.4</ele>
        <time>2024-11-23T08:04:46Z</time>
      </trkpt>
      <trkpt lat="45.05334" lon="-0.57998">
        <ele>44.4</ele>
        <time>2024-11-23T08:04:47Z</time>
      </trkpt>
      <trkpt lat="45.05335" lon="-0.57998">
        <ele>44.5</ele>
        <time>2024-11-23T08:04:48Z</time>
      </trkpt>
      <trkpt lat="45.05337" lon="-0.57997">
        <ele>44.6</ele>
        <time>2024-11-23T08:04:49Z</time>
      </trkpt>
      <trkpt lat="45.05338" lon="-0.57997">
        <ele>44.6</ele>
        <time>2024-11-23T08:04:50Z</time>
      </trkpt>
      <trkpt lat="45.05339" lon="-0.57997">
        <ele>44.7</ele>
        <time>2024-11-23T08:04:51Z</time>
      </trkpt>
      <trkpt lat="45.0534" lon="-0.57997">
        <ele>44.7</ele>
        <time>2024-11-23T08:04:52Z</time>
      </trkpt>
      <trkpt lat="45.05342" lon="-0.57997">
        <ele>44.8</ele>
        <time>2024-11-23T08:04:53Z</time>
      </trkpt>
      <trkpt lat="45.05343" lon="-0.57997">
        <ele>44.8</ele>
        <time>2024-11-23T08:04:54Z</time>
      </trkpt>
      <trkpt lat="45.05345" lon="-0.57996">
        <ele>44.9</ele>
        <time>2024-11-23T08:04:55Z</time>
      </trkpt>
      <trkpt lat="45.05347" lon="-0.57996">
        <ele>44.9</ele>
        <time>2024-11-23T08:04:56Z</time>
      </trkpt>
      <trkpt lat="45.05348" lon="-0.57996">
        <ele>45</ele>
        <time>2024-11-23T08:04:57Z</time>
      </trkpt>
      <trkpt lat="45.05348" lon="-0.57996">
        <ele>45</ele>
        <time>2024-11-23T08:04:58Z</time>
      </trkpt>
      <trkpt lat="45.0535" lon="-0.57996">
        <ele>45.1</ele>
        <time>2024-11-23T08:04:59Z</time>
      </trkpt>
      <trkpt lat="45.05351" lon="-0.57996">
        <ele>45.1</ele>
        <time>2024-11-23T08:05:00Z</time>
      </trkpt>
      <trkpt lat="45.05353" lon="-0.57996">
        <ele>45.2</ele>
        <time>2024-11-23T08:05:01Z</time>
      </trkpt>
      <trkpt lat="45.05354" lon="-0.57995">
        <ele>45.2</ele>
        <time>2024-11-23T08:05:02Z</time>
      </trkpt>
      <trkpt lat="45.05356" lon="-0.57995">
        <ele>45.2</ele>
        <time>2024-11-23T08:05:03Z</time>
      </trkpt>
      <trkpt lat="45.05358" lon="-0.57995">
        <ele>45.3</ele>
        <time>2024-11-23T08:05:04Z</time>
      </trkpt>
      <trkpt lat="45.05359" lon="-0.57995">
        <ele>45.3</ele>
        <time>2024-11-23T08:05:05Z</time>
      </trkpt>
      <trkpt lat="45.05361" lon="-0.57995">
        <ele>45.3</ele>
        <time>2024-11-23T08:05:06Z</time>
      </trkpt>
      <trkpt lat="45.05362" lon="-0.57996">
        <ele>45.3</ele>
        <time>2024-11-23T08:05:07Z</time>
      </trkpt>
      <trkpt lat="45.05363" lon="-0.57995">
        <ele>45.4</ele>
        <time>2024-11-23T08:05:08Z</time>
      </trkpt>
      <trkpt lat="45.05365" lon="-0.57996">
        <ele>45.4</ele>
        <time>2024-11-23T08:05:09Z</time>
      </trkpt>
      <trkpt lat="45.05367" lon="-0.57997">
        <ele>45.4</ele>
        <time>2024-11-23T08:05:10Z</time>
      </trkpt>
      <trkpt lat="45.05368" lon="-0.57997">
        <ele>45.4</ele>
        <time>2024-11-23T08:05:11Z</time>
      </trkpt>
      <trkpt lat="45.05369" lon="-0.57998">
        <ele>45.4</ele>
        <time>2024-11-23T08:05:12Z</time>
      </trkpt>
      <trkpt lat="45.05371" lon="-0.57999">
        <ele>45.4</ele>
        <time>2024-11-23T08:05:13Z</time>
      </trkpt>
      <trkpt lat="45.05373" lon="-0.58">
        <ele>45.4</ele>
        <time>2024-11-23T08:05:14Z</time>
      </trkpt>
      <trkpt lat="45.05374" lon="-0.58001">
        <ele>45.3</ele>
        <time>2024-11-23T08:05:15Z</time>
      </trkpt>
      <trkpt lat="45.05375" lon="-0.58002">
        <ele>45.3</ele>
        <time>2024-11-23T08:05:16Z</time>
      </trkpt>
      <trkpt lat="45.05377" lon="-0.58003">
        <ele>45.3</ele>
        <time>2024-11-23T08:05:17Z</time>
      </trkpt>
      <trkpt lat="45.05378" lon="-0.58004">
        <ele>45.3</ele>
        <time>2024-11-23T08:05:18Z</time>
      </trkpt>
      <trkpt lat="45.05379" lon="-0.58005">
        <ele>45.2</ele>
        <time>2024-11-23T08:05:19Z</time>
      </trkpt>
      <trkpt lat="45.05381" lon="-0.58006">
        <ele>45.2</ele>
        <time>2024-11-23T08:05:20Z</time>
      </trkpt>
      <trkpt lat="45.05382" lon="-0.58008">
        <ele>45.1</ele>
        <time>2024-11-23T08:05:21Z</time>
      </trkpt>
      <trkpt lat="45.05383" lon="-0.58009">
        <ele>45.1</ele>
        <time>2024-11-23T08:05:22Z</time>
      </trkpt>
      <trkpt lat="45.05385" lon="-0.58009">
        <ele>45.1</ele>
        <time>2024-11-23T08:05:23Z</time>
      </trkpt>
      <trkpt lat="45.05386" lon="-0.5801">
        <ele>45</ele>
        <time>2024-11-23T08:05:24Z</time>
      </trkpt>
      <trkpt lat="45.05388" lon="-0.58012">
        <ele>45</ele>
        <time>2024-11-23T08:05:25Z</time>
      </trkpt>
      <trkpt lat="45.05388" lon="-0.58013">
        <ele>44.9</ele>
        <time>2024-11-23T08:05:26Z</time>
      </trkpt>
      <trkpt lat="45.05389" lon="-0.58013">
        <ele>44.9</ele>
        <time>2024-11-23T08:05:27Z</time>
      </trkpt>
      <trkpt lat="45.0539" lon="-0.58014">
        <ele>44.9</ele>
        <time>2024-11-23T08:05:28Z</time>
      </trkpt>
      <trkpt lat="45.05391" lon="-0.58014">
        <ele>44.8</ele>
        <time>2024-11-23T08:05:29Z</time>
      </trkpt>
      <trkpt lat="45.05392" lon="-0.58015">
        <ele>44.8</ele>
        <time>2024-11-23T08:05:30Z</time>
      </trkpt>
      <trkpt lat="45.05394" lon="-0.58017">
        <ele>44.8</ele>
        <time>2024-11-23T08:05:31Z</time>
      </trkpt>
      <trkpt lat="45.05395" lon="-0.58017">
        <ele>44.7</ele>
        <time>2024-11-23T08:05:32Z</time>
      </trkpt>
      <trkpt lat="45.05397" lon="-0.58018">
        <ele>44.7</ele>
        <time>2024-11-23T08:05:33Z</time>
      </trkpt>
      <trkpt lat="45.05398" lon="-0.58018">
        <ele>44.6</ele>
        <time>2024-11-23T08:05:34Z</time>
      </trkpt>
      <trkpt lat="45.05399" lon="-0.58019">
        <ele>44.6</ele>
        <time>2024-11-23T08:05:35Z</time>
      </trkpt>
      <trkpt lat="45.054" lon="-0.5802">
        <ele>44.6</ele>
        <time>2024-11-23T08:05:36Z</time>
      </trkpt>
      <trkpt lat="45.05401" lon="-0.58021">
        <ele>44.5</ele>
        <time>2024-11-23T08:05:37Z</time>
      </trkpt>
      <trkpt lat="45.05403" lon="-0.58022">
        <ele>44.5</ele>
        <time>2024-11-23T08:05:38Z</time>
      </trkpt>
      <trkpt lat="45.05404" lon="-0.58023">
        <ele>44.5</ele>
        <time>2024-11-23T08:05:39Z</time>
      </trkpt>
      <trkpt lat="45.05405" lon="-0.58023">
        <ele>44.4</ele>
        <time>2024-11-23T08:05:40Z</time>
      </trkpt>
      <trkpt lat="45.05407" lon="-0.58023">
        <ele>44.4</ele>
        <time>2024-11-23T08:05:41Z</time>
      </trkpt>
      <trkpt lat="45.05409" lon="-0.58024">
        <ele>44.3</ele>
        <time>2024-11-23T08:05:42Z</time>
      </trkpt>
      <trkpt lat="45.0541" lon="-0.58024">
        <ele>44.3</ele>
        <time>2024-11-23T08:05:43Z</time>
      </trkpt>
      <trkpt lat="45.05411" lon="-0.58025">
        <ele>44.3</ele>
        <time>2024-11-23T08:05:44Z</time>
      </trkpt>
      <trkpt lat="45.05412" lon="-0.58029">
        <ele>44.2</ele>
        <time>2024-11-23T08:05:45Z</time>
      </trkpt>
      <trkpt lat="45.05412" lon="-0.5803">
        <ele>44.2</ele>
        <time>2024-11-23T08:05:46Z</time>
      </trkpt>
      <trkpt lat="45.05414" lon="-0.58034">
        <ele>44.1</ele>
        <time>2024-11-23T08:05:47Z</time>
      </trkpt>
      <trkpt lat="45.05415" lon="-0.58035">
        <ele>44.1</ele>
        <time>2024-11-23T08:05:48Z</time>
      </trkpt>
      <trkpt lat="45.05417" lon="-0.58035">
        <ele>44</ele>
        <time>2024-11-23T08:05:50Z</time>
      </trkpt>
      <trkpt lat="45.05418" lon="-0.58036">
        <ele>44</ele>
        <time>2024-11-23T08:05:51Z</time>
      </trkpt>
      <trkpt lat="45.05419" lon="-0.58037">
        <ele>44</ele>
        <time>2024-11-23T08:05:52Z</time>
      </trkpt>
      <trkpt lat="45.0542" lon="-0.58037">
        <ele>43.9</ele>
        <time>2024-11-23T08:05:53Z</time>
      </trkpt>
      <trkpt lat="45.05421" lon="-0.58036">
        <ele>43.9</ele>
        <time>2024-11-23T08:05:54Z</time>
      </trkpt>
      <trkpt lat="45.05423" lon="-0.58036">
        <ele>43.9</ele>
        <time>2024-11-23T08:05:55Z</time>
      </trkpt>
      <trkpt lat="45.05424" lon="-0.58036">
        <ele>43.9</ele>
        <time>2024-11-23T08:05:56Z</time>
      </trkpt>
      <trkpt lat="45.05425" lon="-0.58036">
        <ele>43.8</ele>
        <time>2024-11-23T08:05:57Z</time>
      </trkpt>
      <trkpt lat="45.05428" lon="-0.58036">
        <ele>43.8</ele>
        <time>2024-11-23T08:05:58Z</time>
      </trkpt>
      <trkpt lat="45.05428" lon="-0.58036">
        <ele>43.8</ele>
        <time>2024-11-23T08:05:59Z</time>
      </trkpt>
      <trkpt lat="45.05429" lon="-0.58036">
        <ele>43.8</ele>
        <time>2024-11-23T08:06:00Z</time>
      </trkpt>
      <trkpt lat="45.05431" lon="-0.58037">
        <ele>43.7</ele>
        <time>2024-11-23T08:06:01Z</time>
      </trkpt>
      <trkpt lat="45.05432" lon="-0.58037">
        <ele>43.7</ele>
        <time>2024-11-23T08:06:02Z</time>
      </trkpt>
      <trkpt lat="45.05434" lon="-0.58037">
        <ele>43.7</ele>
        <time>2024-11-23T08:06:03Z</time>
      </trkpt>
      <trkpt lat="45.05435" lon="-0.58038">
        <ele>43.7</ele>
        <time>2024-11-23T08:06:04Z</time>
      </trkpt>
      <trkpt lat="45.05436" lon="-0.58038">
        <ele>43.7</ele>
        <time>2024-11-23T08:06:05Z</time>
      </trkpt>
      <trkpt lat="45.05438" lon="-0.58038">
        <ele>43.7</ele>
        <time>2024-11-23T08:06:06Z</time>
      </trkpt>
      <trkpt lat="45.05439" lon="-0.58038">
        <ele>43.7</ele>
        <time>2024-11-23T08:06:07Z</time>
      </trkpt>
      <trkpt lat="45.05441" lon="-0.58038">
        <ele>43.7</ele>
        <time>2024-11-23T08:06:08Z</time>
      </trkpt>
      <trkpt lat="45.05443" lon="-0.58038">
        <ele>43.7</ele>
        <time>2024-11-23T08:06:09Z</time>
      </trkpt>
      <trkpt lat="45.05444" lon="-0.58038">
        <ele>43.7</ele>
        <time>2024-11-23T08:06:10Z</time>
      </trkpt>
      <trkpt lat="45.05446" lon="-0.58038">
        <ele>43.7</ele>
        <time>2024-11-23T08:06:11Z</time>
      </trkpt>
      <trkpt lat="45.05447" lon="-0.58038">
        <ele>43.7</ele>
        <time>2024-11-23T08:06:12Z</time>
      </trkpt>
      <trkpt lat="45.05449" lon="-0.58038">
        <ele>43.7</ele>
        <time>2024-11-23T08:06:13Z</time>
      </trkpt>
      <trkpt lat="45.0545" lon="-0.58038">
        <ele>43.7</ele>
        <time>2024-11-23T08:06:14Z</time>
      </trkpt>
      <trkpt lat="45.05451" lon="-0.58038">
        <ele>43.7</ele>
        <time>2024-11-23T08:06:15Z</time>
      </trkpt>
      <trkpt lat="45.05453" lon="-0.58038">
        <ele>43.6</ele>
        <time>2024-11-23T08:06:16Z</time>
      </trkpt>
      <trkpt lat="45.05454" lon="-0.58038">
        <ele>43.6</ele>
        <time>2024-11-23T08:06:17Z</time>
      </trkpt>
      <trkpt lat="45.05468" lon="-0.58028">
        <ele>43.5</ele>
        <time>2024-11-23T08:06:18Z</time>
      </trkpt>
      <trkpt lat="45.05481" lon="-0.58018">
        <ele>43.5</ele>
        <time>2024-11-23T08:07:07Z</time>
      </trkpt>
      <trkpt lat="45.05494" lon="-0.58009">
        <ele>43.7</ele>
        <time>2024-11-23T08:07:08Z</time>
      </trkpt>
      <trkpt lat="45.05507" lon="-0.57999">
        <ele>44.1</ele>
        <time>2024-11-23T08:07:09Z</time>
      </trkpt>
      <trkpt lat="45.0552" lon="-0.5799">
        <ele>44.7</ele>
        <time>2024-11-23T08:07:10Z</time>
      </trkpt>
      <trkpt lat="45.05521" lon="-0.57987">
        <ele>44.8</ele>
        <time>2024-11-23T08:07:11Z</time>
      </trkpt>
      <trkpt lat="45.05522" lon="-0.57986">
        <ele>44.8</ele>
        <time>2024-11-23T08:07:12Z</time>
      </trkpt>
      <trkpt lat="45.05522" lon="-0.57985">
        <ele>44.9</ele>
        <time>2024-11-23T08:07:13Z</time>
      </trkpt>
      <trkpt lat="45.05523" lon="-0.57983">
        <ele>45</ele>
        <time>2024-11-23T08:07:14Z</time>
      </trkpt>
      <trkpt lat="45.05524" lon="-0.57982">
        <ele>45.1</ele>
        <time>2024-11-23T08:07:15Z</time>
      </trkpt>
      <trkpt lat="45.05524" lon="-0.57981">
        <ele>45.1</ele>
        <time>2024-11-23T08:07:16Z</time>
      </trkpt>
      <trkpt lat="45.05525" lon="-0.57979">
        <ele>45.2</ele>
        <time>2024-11-23T08:07:17Z</time>
      </trkpt>
      <trkpt lat="45.05526" lon="-0.57978">
        <ele>45.3</ele>
        <time>2024-11-23T08:07:18Z</time>
      </trkpt>
      <trkpt lat="45.05529" lon="-0.5797">
        <ele>45.8</ele>
        <time>2024-11-23T08:07:22Z</time>
      </trkpt>
      <trkpt lat="45.05529" lon="-0.57969">
        <ele>45.9</ele>
        <time>2024-11-23T08:07:23Z</time>
      </trkpt>
      <trkpt lat="45.0553" lon="-0.57968">
        <ele>46</ele>
        <time>2024-11-23T08:07:24Z</time>
      </trkpt>
      <trkpt lat="45.05531" lon="-0.57966">
        <ele>46.1</ele>
        <time>2024-11-23T08:07:25Z</time>
      </trkpt>
      <trkpt lat="45.05531" lon="-0.57965">
        <ele>46.3</ele>
        <time>2024-11-23T08:07:26Z</time>
      </trkpt>
      <trkpt lat="45.05532" lon="-0.57963">
        <ele>46.4</ele>
        <time>2024-11-23T08:07:27Z</time>
      </trkpt>
      <trkpt lat="45.05532" lon="-0.57961">
        <ele>46.5</ele>
        <time>2024-11-23T08:07:28Z</time>
      </trkpt>
      <trkpt lat="45.05533" lon="-0.57959">
        <ele>46.7</ele>
        <time>2024-11-23T08:07:29Z</time>
      </trkpt>
      <trkpt lat="45.05533" lon="-0.57957">
        <ele>46.8</ele>
        <time>2024-11-23T08:07:30Z</time>
      </trkpt>
      <trkpt lat="45.05534" lon="-0.57954">
        <ele>47.1</ele>
        <time>2024-11-23T08:07:31Z</time>
      </trkpt>
      <trkpt lat="45.05535" lon="-0.57953">
        <ele>47.2</ele>
        <time>2024-11-23T08:07:32Z</time>
      </trkpt>
      <trkpt lat="45.05535" lon="-0.57952">
        <ele>47.2</ele>
        <time>2024-11-23T08:07:33Z</time>
      </trkpt>
      <trkpt lat="45.05536" lon="-0.5795">
        <ele>47.5</ele>
        <time>2024-11-23T08:07:34Z</time>
      </trkpt>
      <trkpt lat="45.05536" lon="-0.57948">
        <ele>47.6</ele>
        <time>2024-11-23T08:07:35Z</time>
      </trkpt>
      <trkpt lat="45.05537" lon="-0.57947">
        <ele>47.7</ele>
        <time>2024-11-23T08:07:36Z</time>
      </trkpt>
      <trkpt lat="45.05537" lon="-0.57945">
        <ele>47.8</ele>
        <time>2024-11-23T08:07:37Z</time>
      </trkpt>
      <trkpt lat="45.05538" lon="-0.57944">
        <ele>48</ele>
        <time>2024-11-23T08:07:38Z</time>
      </trkpt>
      <trkpt lat="45.05538" lon="-0.57941">
        <ele>48.2</ele>
        <time>2024-11-23T08:07:39Z</time>
      </trkpt>
      <trkpt lat="45.05538" lon="-0.57939">
        <ele>48.3</ele>
        <time>2024-11-23T08:07:40Z</time>
      </trkpt>
      <trkpt lat="45.05539" lon="-0.57938">
        <ele>48.5</ele>
        <time>2024-11-23T08:07:41Z</time>
      </trkpt>
      <trkpt lat="45.05539" lon="-0.57937">
        <ele>48.6</ele>
        <time>2024-11-23T08:07:42Z</time>
      </trkpt>
      <trkpt lat="45.05539" lon="-0.57935">
        <ele>48.7</ele>
        <time>2024-11-23T08:07:43Z</time>
      </trkpt>
      <trkpt lat="45.0554" lon="-0.57933">
        <ele>48.9</ele>
        <time>2024-11-23T08:07:44Z</time>
      </trkpt>
      <trkpt lat="45.0554" lon="-0.57932">
        <ele>49.1</ele>
        <time>2024-11-23T08:07:45Z</time>
      </trkpt>
      <trkpt lat="45.05541" lon="-0.5793">
        <ele>49.2</ele>
        <time>2024-11-23T08:07:46Z</time>
      </trkpt>
      <trkpt lat="45.05541" lon="-0.57928">
        <ele>49.4</ele>
        <time>2024-11-23T08:07:47Z</time>
      </trkpt>
      <trkpt lat="45.05541" lon="-0.57927">
        <ele>49.5</ele>
        <time>2024-11-23T08:07:48Z</time>
      </trkpt>
      <trkpt lat="45.05542" lon="-0.57926">
        <ele>49.6</ele>
        <time>2024-11-23T08:07:49Z</time>
      </trkpt>
      <trkpt lat="45.05542" lon="-0.57925">
        <ele>49.7</ele>
        <time>2024-11-23T08:07:50Z</time>
      </trkpt>
      <trkpt lat="45.05542" lon="-0.57923">
        <ele>49.9</ele>
        <time>2024-11-23T08:07:51Z</time>
      </trkpt>
      <trkpt lat="45.05543" lon="-0.57922">
        <ele>50</ele>
        <time>2024-11-23T08:07:52Z</time>
      </trkpt>
      <trkpt lat="45.05543" lon="-0.5792">
        <ele>50.2</ele>
        <time>2024-11-23T08:07:53Z</time>
      </trkpt>
      <trkpt lat="45.05543" lon="-0.57919">
        <ele>50.3</ele>
        <time>2024-11-23T08:07:54Z</time>
      </trkpt>
      <trkpt lat="45.05544" lon="-0.57918">
        <ele>50.4</ele>
        <time>2024-11-23T08:07:55Z</time>
      </trkpt>
      <trkpt lat="45.05544" lon="-0.57916">
        <ele>50.6</ele>
        <time>2024-11-23T08:07:56Z</time>
      </trkpt>
      <trkpt lat="45.05544" lon="-0.57915">
        <ele>50.7</ele>
        <time>2024-11-23T08:07:57Z</time>
      </trkpt>
      <trkpt lat="45.05544" lon="-0.57913">
        <ele>50.8</ele>
        <time>2024-11-23T08:07:58Z</time>
      </trkpt>
      <trkpt lat="45.05544" lon="-0.57912">
        <ele>51</ele>
        <time>2024-11-23T08:07:59Z</time>
      </trkpt>
      <trkpt lat="45.05545" lon="-0.5791">
        <ele>51.1</ele>
        <time>2024-11-23T08:08:00Z</time>
      </trkpt>
      <trkpt lat="45.05545" lon="-0.57908">
        <ele>51.3</ele>
        <time>2024-11-23T08:08:01Z</time>
      </trkpt>
      <trkpt lat="45.05545" lon="-0.57907">
        <ele>51.5</ele>
        <time>2024-11-23T08:08:02Z</time>
      </trkpt>
      <trkpt lat="45.05545" lon="-0.57905">
        <ele>51.6</ele>
        <time>2024-11-23T08:08:03Z</time>
      </trkpt>
      <trkpt lat="45.05545" lon="-0.57904">
        <ele>51.8</ele>
        <time>2024-11-23T08:08:04Z</time>
      </trkpt>
      <trkpt lat="45.05546" lon="-0.57903">
        <ele>51.9</ele>
        <time>2024-11-23T08:08:05Z</time>
      </trkpt>
      <trkpt lat="45.05546" lon="-0.57901">
        <ele>52.1</ele>
        <time>2024-11-23T08:08:06Z</time>
      </trkpt>
      <trkpt lat="45.05546" lon="-0.57899">
        <ele>52.2</ele>
        <time>2024-11-23T08:08:07Z</time>
      </trkpt>
      <trkpt lat="45.05546" lon="-0.57898">
        <ele>52.3</ele>
        <time>2024-11-23T08:08:08Z</time>
      </trkpt>
      <trkpt lat="45.05547" lon="-0.57896">
        <ele>52.5</ele>
        <time>2024-11-23T08:08:09Z</time>
      </trkpt>
      <trkpt lat="45.05547" lon="-0.57895">
        <ele>52.7</ele>
        <time>2024-11-23T08:08:10Z</time>
      </trkpt>
      <trkpt lat="45.05547" lon="-0.57893">
        <ele>52.8</ele>
        <time>2024-11-23T08:08:11Z</time>
      </trkpt>
      <trkpt lat="45.05547" lon="-0.57892">
        <ele>53</ele>
        <time>2024-11-23T08:08:12Z</time>
      </trkpt>
      <trkpt lat="45.05548" lon="-0.5789">
        <ele>53.1</ele>
        <time>2024-11-23T08:08:13Z</time>
      </trkpt>
      <trkpt lat="45.05548" lon="-0.57889">
        <ele>53.3</ele>
        <time>2024-11-23T08:08:14Z</time>
      </trkpt>
      <trkpt lat="45.05548" lon="-0.57887">
        <ele>53.4</ele>
        <time>2024-11-23T08:08:15Z</time>
      </trkpt>
      <trkpt lat="45.05548" lon="-0.57886">
        <ele>53.6</ele>
        <time>2024-11-23T08:08:16Z</time>
      </trkpt>
      <trkpt lat="45.05548" lon="-0.57884">
        <ele>53.7</ele>
        <time>2024-11-23T08:08:17Z</time>
      </trkpt>
      <trkpt lat="45.05548" lon="-0.57883">
        <ele>53.9</ele>
        <time>2024-11-23T08:08:18Z</time>
      </trkpt>
      <trkpt lat="45.05549" lon="-0.57881">
        <ele>54</ele>
        <time>2024-11-23T08:08:19Z</time>
      </trkpt>
      <trkpt lat="45.05549" lon="-0.57879">
        <ele>54.2</ele>
        <time>2024-11-23T08:08:20Z</time>
      </trkpt>
      <trkpt lat="45.05549" lon="-0.57878">
        <ele>54.3</ele>
        <time>2024-11-23T08:08:21Z</time>
      </trkpt>
      <trkpt lat="45.0555" lon="-0.57876">
        <ele>54.5</ele>
        <time>2024-11-23T08:08:22Z</time>
      </trkpt>
      <trkpt lat="45.0555" lon="-0.57875">
        <ele>54.6</ele>
        <time>2024-11-23T08:08:23Z</time>
      </trkpt>
      <trkpt lat="45.0555" lon="-0.57873">
        <ele>54.8</ele>
        <time>2024-11-23T08:08:24Z</time>
      </trkpt>
      <trkpt lat="45.05551" lon="-0.57872">
        <ele>54.9</ele>
        <time>2024-11-23T08:08:25Z</time>
      </trkpt>
      <trkpt lat="45.05551" lon="-0.5787">
        <ele>55.1</ele>
        <time>2024-11-23T08:08:26Z</time>
      </trkpt>
      <trkpt lat="45.05551" lon="-0.57869">
        <ele>55.2</ele>
        <time>2024-11-23T08:08:27Z</time>
      </trkpt>
      <trkpt lat="45.05551" lon="-0.57867">
        <ele>55.3</ele>
        <time>2024-11-23T08:08:28Z</time>
      </trkpt>
      <trkpt lat="45.05551" lon="-0.57866">
        <ele>55.4</ele>
        <time>2024-11-23T08:08:29Z</time>
      </trkpt>
      <trkpt lat="45.05551" lon="-0.57864">
        <ele>55.6</ele>
        <time>2024-11-23T08:08:30Z</time>
      </trkpt>
      <trkpt lat="45.05551" lon="-0.57862">
        <ele>55.7</ele>
        <time>2024-11-23T08:08:31Z</time>
      </trkpt>
      <trkpt lat="45.05551" lon="-0.57861">
        <ele>55.8</ele>
        <time>2024-11-23T08:08:32Z</time>
      </trkpt>
      <trkpt lat="45.05552" lon="-0.57859">
        <ele>56</ele>
        <time>2024-11-23T08:08:33Z</time>
      </trkpt>
      <trkpt lat="45.05552" lon="-0.57858">
        <ele>56.1</ele>
        <time>2024-11-23T08:08:34Z</time>
      </trkpt>
      <trkpt lat="45.05552" lon="-0.57856">
        <ele>56.3</ele>
        <time>2024-11-23T08:08:35Z</time>
      </trkpt>
      <trkpt lat="45.05552" lon="-0.57855">
        <ele>56.4</ele>
        <time>2024-11-23T08:08:36Z</time>
      </trkpt>
      <trkpt lat="45.05553" lon="-0.57853">
        <ele>56.6</ele>
        <time>2024-11-23T08:08:37Z</time>
      </trkpt>
      <trkpt lat="45.05553" lon="-0.57852">
        <ele>56.7</ele>
        <time>2024-11-23T08:08:38Z</time>
      </trkpt>
      <trkpt lat="45.05553" lon="-0.5785">
        <ele>56.8</ele>
        <time>2024-11-23T08:08:39Z</time>
      </trkpt>
      <trkpt lat="45.05553" lon="-0.57848">
        <ele>57</ele>
        <time>2024-11-23T08:08:40Z</time>
      </trkpt>
      <trkpt lat="45.05553" lon="-0.57847">
        <ele>57.1</ele>
        <time>2024-11-23T08:08:41Z</time>
      </trkpt>
      <trkpt lat="45.05554" lon="-0.57845">
        <ele>57.3</ele>
        <time>2024-11-23T08:08:42Z</time>
      </trkpt>
      <trkpt lat="45.05554" lon="-0.57844">
        <ele>57.4</ele>
        <time>2024-11-23T08:08:43Z</time>
      </trkpt>
      <trkpt lat="45.05554" lon="-0.57843">
        <ele>57.5</ele>
        <time>2024-11-23T08:08:44Z</time>
      </trkpt>
      <trkpt lat="45.05554" lon="-0.57841">
        <ele>57.6</ele>
        <time>2024-11-23T08:08:45Z</time>
      </trkpt>
      <trkpt lat="45.05555" lon="-0.57839">
        <ele>57.8</ele>
        <time>2024-11-23T08:08:46Z</time>
      </trkpt>
      <trkpt lat="45.05555" lon="-0.57838">
        <ele>57.9</ele>
        <time>2024-11-23T08:08:47Z</time>
      </trkpt>
      <trkpt lat="45.05555" lon="-0.57837">
        <ele>58</ele>
        <time>2024-11-23T08:08:48Z</time>
      </trkpt>
      <trkpt lat="45.05555" lon="-0.57835">
        <ele>58.2</ele>
        <time>2024-11-23T08:08:49Z</time>
      </trkpt>
      <trkpt lat="45.05555" lon="-0.57834">
        <ele>58.3</ele>
        <time>2024-11-23T08:08:50Z</time>
      </trkpt>
      <trkpt lat="45.05556" lon="-0.57832">
        <ele>58.4</ele>
        <time>2024-11-23T08:08:51Z</time>
      </trkpt>
      <trkpt lat="45.05556" lon="-0.5783">
        <ele>58.6</ele>
        <time>2024-11-23T08:08:52Z</time>
      </trkpt>
      <trkpt lat="45.05556" lon="-0.57829">
        <ele>58.7</ele>
        <time>2024-11-23T08:08:53Z</time>
      </trkpt>
      <trkpt lat="45.05556" lon="-0.57826">
        <ele>58.9</ele>
        <time>2024-11-23T08:08:54Z</time>
      </trkpt>
      <trkpt lat="45.05556" lon="-0.57825">
        <ele>59</ele>
        <time>2024-11-23T08:08:55Z</time>
      </trkpt>
      <trkpt lat="45.05557" lon="-0.57824">
        <ele>59.1</ele>
        <time>2024-11-23T08:08:56Z</time>
      </trkpt>
      <trkpt lat="45.05557" lon="-0.57822">
        <ele>59.2</ele>
        <time>2024-11-23T08:08:57Z</time>
      </trkpt>
      <trkpt lat="45.05557" lon="-0.57821">
        <ele>59.3</ele>
        <time>2024-11-23T08:08:58Z</time>
      </trkpt>
      <trkpt lat="45.05557" lon="-0.57819">
        <ele>59.4</ele>
        <time>2024-11-23T08:08:59Z</time>
      </trkpt>
      <trkpt lat="45.05557" lon="-0.57818">
        <ele>59.5</ele>
        <time>2024-11-23T08:09:00Z</time>
      </trkpt>
      <trkpt lat="45.05557" lon="-0.57816">
        <ele>59.7</ele>
        <time>2024-11-23T08:09:01Z</time>
      </trkpt>
      <trkpt lat="45.05557" lon="-0.57815">
        <ele>59.8</ele>
        <time>2024-11-23T08:09:02Z</time>
      </trkpt>
      <trkpt lat="45.05558" lon="-0.57813">
        <ele>59.9</ele>
        <time>2024-11-23T08:09:03Z</time>
      </trkpt>
      <trkpt lat="45.05558" lon="-0.57812">
        <ele>60</ele>
        <time>2024-11-23T08:09:04Z</time>
      </trkpt>
      <trkpt lat="45.05558" lon="-0.5781">
        <ele>60.1</ele>
        <time>2024-11-23T08:09:05Z</time>
      </trkpt>
      <trkpt lat="45.05559" lon="-0.57809">
        <ele>60.2</ele>
        <time>2024-11-23T08:09:06Z</time>
      </trkpt>
      <trkpt lat="45.05559" lon="-0.57807">
        <ele>60.3</ele>
        <time>2024-11-23T08:09:07Z</time>
      </trkpt>
      <trkpt lat="45.05559" lon="-0.57806">
        <ele>60.4</ele>
        <time>2024-11-23T08:09:08Z</time>
      </trkpt>
      <trkpt lat="45.0556" lon="-0.57805">
        <ele>60.5</ele>
        <time>2024-11-23T08:09:09Z</time>
      </trkpt>
      <trkpt lat="45.0556" lon="-0.57803">
        <ele>60.6</ele>
        <time>2024-11-23T08:09:10Z</time>
      </trkpt>
      <trkpt lat="45.05561" lon="-0.57801">
        <ele>60.7</ele>
        <time>2024-11-23T08:09:11Z</time>
      </trkpt>
      <trkpt lat="45.05561" lon="-0.578">
        <ele>60.8</ele>
        <time>2024-11-23T08:09:12Z</time>
      </trkpt>
      <trkpt lat="45.05561" lon="-0.57798">
        <ele>60.9</ele>
        <time>2024-11-23T08:09:13Z</time>
      </trkpt>
      <trkpt lat="45.05561" lon="-0.57796">
        <ele>61</ele>
        <time>2024-11-23T08:09:14Z</time>
      </trkpt>
      <trkpt lat="45.05561" lon="-0.57794">
        <ele>61.1</ele>
        <time>2024-11-23T08:09:15Z</time>
      </trkpt>
      <trkpt lat="45.05562" lon="-0.57792">
        <ele>61.3</ele>
        <time>2024-11-23T08:09:16Z</time>
      </trkpt>
      <trkpt lat="45.05562" lon="-0.5779">
        <ele>61.4</ele>
        <time>2024-11-23T08:09:17Z</time>
      </trkpt>
      <trkpt lat="45.05562" lon="-0.57788">
        <ele>61.5</ele>
        <time>2024-11-23T08:09:18Z</time>
      </trkpt>
      <trkpt lat="45.05563" lon="-0.57787">
        <ele>61.6</ele>
        <time>2024-11-23T08:09:19Z</time>
      </trkpt>
      <trkpt lat="45.05563" lon="-0.57786">
        <ele>61.7</ele>
        <time>2024-11-23T08:09:20Z</time>
      </trkpt>
      <trkpt lat="45.05564" lon="-0.57784">
        <ele>61.8</ele>
        <time>2024-11-23T08:09:21Z</time>
      </trkpt>
      <trkpt lat="45.05565" lon="-0.57781">
        <ele>62</ele>
        <time>2024-11-23T08:09:22Z</time>
      </trkpt>
      <trkpt lat="45.05565" lon="-0.5778">
        <ele>62.1</ele>
        <time>2024-11-23T08:09:23Z</time>
      </trkpt>
      <trkpt lat="45.05566" lon="-0.57779">
        <ele>62.2</ele>
        <time>2024-11-23T08:09:24Z</time>
      </trkpt>
      <trkpt lat="45.05567" lon="-0.57777">
        <ele>62.3</ele>
        <time>2024-11-23T08:09:25Z</time>
      </trkpt>
      <trkpt lat="45.05567" lon="-0.57775">
        <ele>62.4</ele>
        <time>2024-11-23T08:09:26Z</time>
      </trkpt>
      <trkpt lat="45.05569" lon="-0.57773">
        <ele>62.6</ele>
        <time>2024-11-23T08:09:27Z</time>
      </trkpt>
      <trkpt lat="45.05569" lon="-0.57772">
        <ele>62.7</ele>
        <time>2024-11-23T08:09:28Z</time>
      </trkpt>
      <trkpt lat="45.0557" lon="-0.57771">
        <ele>62.8</ele>
        <time>2024-11-23T08:09:29Z</time>
      </trkpt>
      <trkpt lat="45.05571" lon="-0.57768">
        <ele>62.9</ele>
        <time>2024-11-23T08:09:30Z</time>
      </trkpt>
      <trkpt lat="45.05571" lon="-0.57767">
        <ele>63</ele>
        <time>2024-11-23T08:09:31Z</time>
      </trkpt>
      <trkpt lat="45.05571" lon="-0.57766">
        <ele>63.1</ele>
        <time>2024-11-23T08:09:32Z</time>
      </trkpt>
      <trkpt lat="45.05572" lon="-0.57763">
        <ele>63.3</ele>
        <time>2024-11-23T08:09:33Z</time>
      </trkpt>
      <trkpt lat="45.05572" lon="-0.57762">
        <ele>63.4</ele>
        <time>2024-11-23T08:09:34Z</time>
      </trkpt>
      <trkpt lat="45.05573" lon="-0.57761">
        <ele>63.4</ele>
        <time>2024-11-23T08:09:35Z</time>
      </trkpt>
      <trkpt lat="45.05573" lon="-0.57759">
        <ele>63.5</ele>
        <time>2024-11-23T08:09:36Z</time>
      </trkpt>
      <trkpt lat="45.05573" lon="-0.57757">
        <ele>63.6</ele>
        <time>2024-11-23T08:09:37Z</time>
      </trkpt>
      <trkpt lat="45.05574" lon="-0.57756">
        <ele>63.7</ele>
        <time>2024-11-23T08:09:38Z</time>
      </trkpt>
      <trkpt lat="45.05575" lon="-0.57753">
        <ele>63.9</ele>
        <time>2024-11-23T08:09:39Z</time>
      </trkpt>
      <trkpt lat="45.05575" lon="-0.57752">
        <ele>64</ele>
        <time>2024-11-23T08:09:40Z</time>
      </trkpt>
      <trkpt lat="45.05575" lon="-0.57751">
        <ele>64.1</ele>
        <time>2024-11-23T08:09:41Z</time>
      </trkpt>
      <trkpt lat="45.05576" lon="-0.5775">
        <ele>64.2</ele>
        <time>2024-11-23T08:09:42Z</time>
      </trkpt>
      <trkpt lat="45.05576" lon="-0.57748">
        <ele>64.3</ele>
        <time>2024-11-23T08:09:43Z</time>
      </trkpt>
      <trkpt lat="45.05577" lon="-0.57747">
        <ele>64.3</ele>
        <time>2024-11-23T08:09:44Z</time>
      </trkpt>
      <trkpt lat="45.05578" lon="-0.57744">
        <ele>64.5</ele>
        <time>2024-11-23T08:09:45Z</time>
      </trkpt>
      <trkpt lat="45.05578" lon="-0.57743">
        <ele>64.6</ele>
        <time>2024-11-23T08:09:46Z</time>
      </trkpt>
      <trkpt lat="45.05578" lon="-0.57742">
        <ele>64.7</ele>
        <time>2024-11-23T08:09:47Z</time>
      </trkpt>
      <trkpt lat="45.05579" lon="-0.5774">
        <ele>64.8</ele>
        <time>2024-11-23T08:09:48Z</time>
      </trkpt>
      <trkpt lat="45.0558" lon="-0.57738">
        <ele>64.9</ele>
        <time>2024-11-23T08:09:49Z</time>
      </trkpt>
      <trkpt lat="45.0558" lon="-0.57737">
        <ele>65.1</ele>
        <time>2024-11-23T08:09:50Z</time>
      </trkpt>
      <trkpt lat="45.05581" lon="-0.57734">
        <ele>65.2</ele>
        <time>2024-11-23T08:09:51Z</time>
      </trkpt>
      <trkpt lat="45.05582" lon="-0.57732">
        <ele>65.4</ele>
        <time>2024-11-23T08:09:52Z</time>
      </trkpt>
      <trkpt lat="45.05582" lon="-0.5773">
        <ele>65.5</ele>
        <time>2024-11-23T08:09:53Z</time>
      </trkpt>
      <trkpt lat="45.05583" lon="-0.57728">
        <ele>65.7</ele>
        <time>2024-11-23T08:09:54Z</time>
      </trkpt>
      <trkpt lat="45.05583" lon="-0.57727">
        <ele>65.8</ele>
        <time>2024-11-23T08:09:55Z</time>
      </trkpt>
      <trkpt lat="45.05584" lon="-0.57724">
        <ele>66</ele>
        <time>2024-11-23T08:09:56Z</time>
      </trkpt>
      <trkpt lat="45.05584" lon="-0.57723">
        <ele>66.1</ele>
        <time>2024-11-23T08:09:57Z</time>
      </trkpt>
      <trkpt lat="45.05585" lon="-0.57722">
        <ele>66.2</ele>
        <time>2024-11-23T08:09:58Z</time>
      </trkpt>
      <trkpt lat="45.05586" lon="-0.57719">
        <ele>66.4</ele>
        <time>2024-11-23T08:09:59Z</time>
      </trkpt>
      <trkpt lat="45.05586" lon="-0.57718">
        <ele>66.5</ele>
        <time>2024-11-23T08:10:00Z</time>
      </trkpt>
      <trkpt lat="45.05586" lon="-0.57716">
        <ele>66.6</ele>
        <time>2024-11-23T08:10:01Z</time>
      </trkpt>
      <trkpt lat="45.05587" lon="-0.57714">
        <ele>66.8</ele>
        <time>2024-11-23T08:10:02Z</time>
      </trkpt>
      <trkpt lat="45.05587" lon="-0.57713">
        <ele>66.9</ele>
        <time>2024-11-23T08:10:03Z</time>
      </trkpt>
      <trkpt lat="45.05588" lon="-0.57712">
        <ele>66.9</ele>
        <time>2024-11-23T08:10:04Z</time>
      </trkpt>
      <trkpt lat="45.05588" lon="-0.5771">
        <ele>67.1</ele>
        <time>2024-11-23T08:10:05Z</time>
      </trkpt>
      <trkpt lat="45.05589" lon="-0.57708">
        <ele>67.2</ele>
        <time>2024-11-23T08:10:06Z</time>
      </trkpt>
      <trkpt lat="45.05589" lon="-0.57707">
        <ele>67.3</ele>
        <time>2024-11-23T08:10:07Z</time>
      </trkpt>
      <trkpt lat="45.0559" lon="-0.57706">
        <ele>67.4</ele>
        <time>2024-11-23T08:10:08Z</time>
      </trkpt>
      <trkpt lat="45.0559" lon="-0.57704">
        <ele>67.6</ele>
        <time>2024-11-23T08:10:09Z</time>
      </trkpt>
      <trkpt lat="45.05591" lon="-0.57703">
        <ele>67.7</ele>
        <time>2024-11-23T08:10:10Z</time>
      </trkpt>
      <trkpt lat="45.05592" lon="-0.57701">
        <ele>67.8</ele>
        <time>2024-11-23T08:10:11Z</time>
      </trkpt>
      <trkpt lat="45.05593" lon="-0.577">
        <ele>67.9</ele>
        <time>2024-11-23T08:10:12Z</time>
      </trkpt>
      <trkpt lat="45.05593" lon="-0.57699">
        <ele>68.1</ele>
        <time>2024-11-23T08:10:13Z</time>
      </trkpt>
      <trkpt lat="45.05594" lon="-0.57698">
        <ele>68.2</ele>
        <time>2024-11-23T08:10:14Z</time>
      </trkpt>
      <trkpt lat="45.05595" lon="-0.57697">
        <ele>68.3</ele>
        <time>2024-11-23T08:10:15Z</time>
      </trkpt>
      <trkpt lat="45.05596" lon="-0.57693">
        <ele>68.6</ele>
        <time>2024-11-23T08:10:16Z</time>
      </trkpt>
      <trkpt lat="45.05596" lon="-0.57692">
        <ele>68.7</ele>
        <time>2024-11-23T08:10:17Z</time>
      </trkpt>
      <trkpt lat="45.05597" lon="-0.57691">
        <ele>68.7</ele>
        <time>2024-11-23T08:10:18Z</time>
      </trkpt>
      <trkpt lat="45.05597" lon="-0.57689">
        <ele>69</ele>
        <time>2024-11-23T08:10:19Z</time>
      </trkpt>
      <trkpt lat="45.05598" lon="-0.57687">
        <ele>69.1</ele>
        <time>2024-11-23T08:10:20Z</time>
      </trkpt>
      <trkpt lat="45.05598" lon="-0.57686">
        <ele>69.2</ele>
        <time>2024-11-23T08:10:21Z</time>
      </trkpt>
      <trkpt lat="45.05599" lon="-0.57685">
        <ele>69.3</ele>
        <time>2024-11-23T08:10:22Z</time>
      </trkpt>
      <trkpt lat="45.05599" lon="-0.57683">
        <ele>69.4</ele>
        <time>2024-11-23T08:10:23Z</time>
      </trkpt>
      <trkpt lat="45.056" lon="-0.57682">
        <ele>69.6</ele>
        <time>2024-11-23T08:10:24Z</time>
      </trkpt>
      <trkpt lat="45.056" lon="-0.5768">
        <ele>69.7</ele>
        <time>2024-11-23T08:10:25Z</time>
      </trkpt>
      <trkpt lat="45.056" lon="-0.57678">
        <ele>69.9</ele>
        <time>2024-11-23T08:10:26Z</time>
      </trkpt>
      <trkpt lat="45.05601" lon="-0.57675">
        <ele>70.1</ele>
        <time>2024-11-23T08:10:27Z</time>
      </trkpt>
      <trkpt lat="45.05601" lon="-0.57674">
        <ele>70.3</ele>
        <time>2024-11-23T08:10:28Z</time>
      </trkpt>
      <trkpt lat="45.05601" lon="-0.57673">
        <ele>70.4</ele>
        <time>2024-11-23T08:10:29Z</time>
      </trkpt>
      <trkpt lat="45.05602" lon="-0.5767">
        <ele>70.6</ele>
        <time>2024-11-23T08:10:30Z</time>
      </trkpt>
      <trkpt lat="45.05602" lon="-0.57668">
        <ele>70.7</ele>
        <time>2024-11-23T08:10:31Z</time>
      </trkpt>
      <trkpt lat="45.05602" lon="-0.57667">
        <ele>70.9</ele>
        <time>2024-11-23T08:10:32Z</time>
      </trkpt>
      <trkpt lat="45.05602" lon="-0.57664">
        <ele>71.1</ele>
        <time>2024-11-23T08:10:33Z</time>
      </trkpt>
      <trkpt lat="45.05602" lon="-0.57663">
        <ele>71.2</ele>
        <time>2024-11-23T08:10:34Z</time>
      </trkpt>
      <trkpt lat="45.05601" lon="-0.57662">
        <ele>71.3</ele>
        <time>2024-11-23T08:10:35Z</time>
      </trkpt>
      <trkpt lat="45.05601" lon="-0.5766">
        <ele>71.4</ele>
        <time>2024-11-23T08:10:36Z</time>
      </trkpt>
      <trkpt lat="45.05601" lon="-0.57659">
        <ele>71.6</ele>
        <time>2024-11-23T08:10:37Z</time>
      </trkpt>
      <trkpt lat="45.056" lon="-0.57658">
        <ele>71.7</ele>
        <time>2024-11-23T08:10:38Z</time>
      </trkpt>
      <trkpt lat="45.056" lon="-0.57655">
        <ele>72</ele>
        <time>2024-11-23T08:10:39Z</time>
      </trkpt>
      <trkpt lat="45.05599" lon="-0.57653">
        <ele>72.1</ele>
        <time>2024-11-23T08:10:40Z</time>
      </trkpt>
      <trkpt lat="45.05599" lon="-0.57652">
        <ele>72.2</ele>
        <time>2024-11-23T08:10:41Z</time>
      </trkpt>
      <trkpt lat="45.05599" lon="-0.57651">
        <ele>72.3</ele>
        <time>2024-11-23T08:10:42Z</time>
      </trkpt>
      <trkpt lat="45.05599" lon="-0.57649">
        <ele>72.4</ele>
        <time>2024-11-23T08:10:43Z</time>
      </trkpt>
      <trkpt lat="45.05599" lon="-0.57647">
        <ele>72.6</ele>
        <time>2024-11-23T08:10:44Z</time>
      </trkpt>
      <trkpt lat="45.05599" lon="-0.57645">
        <ele>72.7</ele>
        <time>2024-11-23T08:10:45Z</time>
      </trkpt>
      <trkpt lat="45.05599" lon="-0.57643">
        <ele>72.9</ele>
        <time>2024-11-23T08:10:46Z</time>
      </trkpt>
      <trkpt lat="45.05599" lon="-0.5764">
        <ele>73.1</ele>
        <time>2024-11-23T08:10:47Z</time>
      </trkpt>
      <trkpt lat="45.05599" lon="-0.57639">
        <ele>73.2</ele>
        <time>2024-11-23T08:10:48Z</time>
      </trkpt>
      <trkpt lat="45.05599" lon="-0.57638">
        <ele>73.3</ele>
        <time>2024-11-23T08:10:49Z</time>
      </trkpt>
      <trkpt lat="45.05599" lon="-0.57636">
        <ele>73.4</ele>
        <time>2024-11-23T08:10:50Z</time>
      </trkpt>
      <trkpt lat="45.05599" lon="-0.57634">
        <ele>73.5</ele>
        <time>2024-11-23T08:10:51Z</time>
      </trkpt>
      <trkpt lat="45.05599" lon="-0.57632">
        <ele>73.6</ele>
        <time>2024-11-23T08:10:52Z</time>
      </trkpt>
      <trkpt lat="45.056" lon="-0.57631">
        <ele>73.8</ele>
        <time>2024-11-23T08:10:53Z</time>
      </trkpt>
      <trkpt lat="45.056" lon="-0.57629">
        <ele>73.9</ele>
        <time>2024-11-23T08:10:54Z</time>
      </trkpt>
      <trkpt lat="45.05601" lon="-0.57627">
        <ele>74</ele>
        <time>2024-11-23T08:10:55Z</time>
      </trkpt>
      <trkpt lat="45.05601" lon="-0.57625">
        <ele>74.1</ele>
        <time>2024-11-23T08:10:56Z</time>
      </trkpt>
      <trkpt lat="45.05602" lon="-0.57622">
        <ele>74.3</ele>
        <time>2024-11-23T08:10:57Z</time>
      </trkpt>
      <trkpt lat="45.05602" lon="-0.57621">
        <ele>74.4</ele>
        <time>2024-11-23T08:10:58Z</time>
      </trkpt>
      <trkpt lat="45.05603" lon="-0.5762">
        <ele>74.4</ele>
        <time>2024-11-23T08:10:59Z</time>
      </trkpt>
      <trkpt lat="45.05603" lon="-0.57618">
        <ele>74.5</ele>
        <time>2024-11-23T08:11:00Z</time>
      </trkpt>
      <trkpt lat="45.05603" lon="-0.57616">
        <ele>74.6</ele>
        <time>2024-11-23T08:11:01Z</time>
      </trkpt>
      <trkpt lat="45.05604" lon="-0.57615">
        <ele>74.7</ele>
        <time>2024-11-23T08:11:02Z</time>
      </trkpt>
      <trkpt lat="45.05604" lon="-0.57612">
        <ele>74.8</ele>
        <time>2024-11-23T08:11:03Z</time>
      </trkpt>
      <trkpt lat="45.05605" lon="-0.57611">
        <ele>74.9</ele>
        <time>2024-11-23T08:11:04Z</time>
      </trkpt>
      <trkpt lat="45.05606" lon="-0.57609">
        <ele>75</ele>
        <time>2024-11-23T08:11:05Z</time>
      </trkpt>
      <trkpt lat="45.05607" lon="-0.57607">
        <ele>75.1</ele>
        <time>2024-11-23T08:11:06Z</time>
      </trkpt>
      <trkpt lat="45.05607" lon="-0.57606">
        <ele>75.2</ele>
        <time>2024-11-23T08:11:07Z</time>
      </trkpt>
      <trkpt lat="45.05608" lon="-0.57604">
        <ele>75.3</ele>
        <time>2024-11-23T08:11:08Z</time>
      </trkpt>
      <trkpt lat="45.05609" lon="-0.57602">
        <ele>75.4</ele>
        <time>2024-11-23T08:11:09Z</time>
      </trkpt>
      <trkpt lat="45.05609" lon="-0.576">
        <ele>75.4</ele>
        <time>2024-11-23T08:11:10Z</time>
      </trkpt>
      <trkpt lat="45.0561" lon="-0.57599">
        <ele>75.5</ele>
        <time>2024-11-23T08:11:11Z</time>
      </trkpt>
      <trkpt lat="45.05611" lon="-0.57596">
        <ele>75.6</ele>
        <time>2024-11-23T08:11:12Z</time>
      </trkpt>
      <trkpt lat="45.05612" lon="-0.57595">
        <ele>75.7</ele>
        <time>2024-11-23T08:11:13Z</time>
      </trkpt>
      <trkpt lat="45.05612" lon="-0.57594">
        <ele>75.7</ele>
        <time>2024-11-23T08:11:14Z</time>
      </trkpt>
      <trkpt lat="45.05613" lon="-0.57591">
        <ele>75.8</ele>
        <time>2024-11-23T08:11:15Z</time>
      </trkpt>
      <trkpt lat="45.05614" lon="-0.5759">
        <ele>75.9</ele>
        <time>2024-11-23T08:11:16Z</time>
      </trkpt>
      <trkpt lat="45.05614" lon="-0.57589">
        <ele>75.9</ele>
        <time>2024-11-23T08:11:17Z</time>
      </trkpt>
      <trkpt lat="45.05615" lon="-0.57586">
        <ele>76</ele>
        <time>2024-11-23T08:11:18Z</time>
      </trkpt>
      <trkpt lat="45.05616" lon="-0.57585">
        <ele>76.1</ele>
        <time>2024-11-23T08:11:19Z</time>
      </trkpt>
      <trkpt lat="45.05616" lon="-0.57584">
        <ele>76.1</ele>
        <time>2024-11-23T08:11:20Z</time>
      </trkpt>
      <trkpt lat="45.05617" lon="-0.57582">
        <ele>76.2</ele>
        <time>2024-11-23T08:11:21Z</time>
      </trkpt>
      <trkpt lat="45.05617" lon="-0.5758">
        <ele>76.2</ele>
        <time>2024-11-23T08:11:22Z</time>
      </trkpt>
      <trkpt lat="45.05618" lon="-0.57578">
        <ele>76.3</ele>
        <time>2024-11-23T08:11:23Z</time>
      </trkpt>
      <trkpt lat="45.05619" lon="-0.57576">
        <ele>76.4</ele>
        <time>2024-11-23T08:11:24Z</time>
      </trkpt>
      <trkpt lat="45.05619" lon="-0.57574">
        <ele>76.4</ele>
        <time>2024-11-23T08:11:25Z</time>
      </trkpt>
      <trkpt lat="45.0562" lon="-0.57572">
        <ele>76.5</ele>
        <time>2024-11-23T08:11:26Z</time>
      </trkpt>
      <trkpt lat="45.05621" lon="-0.5757">
        <ele>76.6</ele>
        <time>2024-11-23T08:11:27Z</time>
      </trkpt>
      <trkpt lat="45.05621" lon="-0.57568">
        <ele>76.6</ele>
        <time>2024-11-23T08:11:28Z</time>
      </trkpt>
      <trkpt lat="45.05622" lon="-0.57566">
        <ele>76.7</ele>
        <time>2024-11-23T08:11:29Z</time>
      </trkpt>
      <trkpt lat="45.05622" lon="-0.57564">
        <ele>76.7</ele>
        <time>2024-11-23T08:11:30Z</time>
      </trkpt>
      <trkpt lat="45.05623" lon="-0.57562">
        <ele>76.8</ele>
        <time>2024-11-23T08:11:31Z</time>
      </trkpt>
      <trkpt lat="45.05623" lon="-0.57561">
        <ele>76.8</ele>
        <time>2024-11-23T08:11:32Z</time>
      </trkpt>
      <trkpt lat="45.05624" lon="-0.57558">
        <ele>76.9</ele>
        <time>2024-11-23T08:11:33Z</time>
      </trkpt>
      <trkpt lat="45.05625" lon="-0.57557">
        <ele>76.9</ele>
        <time>2024-11-23T08:11:34Z</time>
      </trkpt>
      <trkpt lat="45.05644" lon="-0.57423">
        <ele>78.4</ele>
        <time>2024-11-23T08:12:38Z</time>
      </trkpt>
      <trkpt lat="45.05644" lon="-0.57422">
        <ele>78.4</ele>
        <time>2024-11-23T08:12:39Z</time>
      </trkpt>
      <trkpt lat="45.05644" lon="-0.5742">
        <ele>78.4</ele>
        <time>2024-11-23T08:12:40Z</time>
      </trkpt>
      <trkpt lat="45.05645" lon="-0.57418">
        <ele>78.4</ele>
        <time>2024-11-23T08:12:41Z</time>
      </trkpt>
      <trkpt lat="45.05645" lon="-0.57417">
        <ele>78.3</ele>
        <time>2024-11-23T08:12:42Z</time>
      </trkpt>
      <trkpt lat="45.05646" lon="-0.57415">
        <ele>78.3</ele>
        <time>2024-11-23T08:12:43Z</time>
      </trkpt>
      <trkpt lat="45.05647" lon="-0.57413">
        <ele>78.3</ele>
        <time>2024-11-23T08:12:44Z</time>
      </trkpt>
      <trkpt lat="45.05648" lon="-0.57412">
        <ele>78.3</ele>
        <time>2024-11-23T08:12:45Z</time>
      </trkpt>
      <trkpt lat="45.0565" lon="-0.57411">
        <ele>78.2</ele>
        <time>2024-11-23T08:12:46Z</time>
      </trkpt>
      <trkpt lat="45.05651" lon="-0.5741">
        <ele>78.2</ele>
        <time>2024-11-23T08:12:47Z</time>
      </trkpt>
      <trkpt lat="45.05653" lon="-0.57409">
        <ele>78.2</ele>
        <time>2024-11-23T08:12:48Z</time>
      </trkpt>
      <trkpt lat="45.05655" lon="-0.57409">
        <ele>78.1</ele>
        <time>2024-11-23T08:12:49Z</time>
      </trkpt>
      <trkpt lat="45.05727" lon="-0.5738">
        <ele>77.4</ele>
        <time>2024-11-23T08:13:37Z</time>
      </trkpt>
      <trkpt lat="45.05731" lon="-0.57379">
        <ele>77.4</ele>
        <time>2024-11-23T08:13:38Z</time>
      </trkpt>
      <trkpt lat="45.05733" lon="-0.57379">
        <ele>77.4</ele>
        <time>2024-11-23T08:13:39Z</time>
      </trkpt>
      <trkpt lat="45.05734" lon="-0.57378">
        <ele>77.5</ele>
        <time>2024-11-23T08:13:40Z</time>
      </trkpt>
      <trkpt lat="45.05735" lon="-0.57377">
        <ele>77.5</ele>
        <time>2024-11-23T08:13:41Z</time>
      </trkpt>
      <trkpt lat="45.05737" lon="-0.57377">
        <ele>77.5</ele>
        <time>2024-11-23T08:13:42Z</time>
      </trkpt>
      <trkpt lat="45.05738" lon="-0.57376">
        <ele>77.6</ele>
        <time>2024-11-23T08:13:43Z</time>
      </trkpt>
      <trkpt lat="45.0574" lon="-0.57375">
        <ele>77.6</ele>
        <time>2024-11-23T08:13:44Z</time>
      </trkpt>
      <trkpt lat="45.05741" lon="-0.57375">
        <ele>77.6</ele>
        <time>2024-11-23T08:13:45Z</time>
      </trkpt>
      <trkpt lat="45.05743" lon="-0.57374">
        <ele>77.6</ele>
        <time>2024-11-23T08:13:46Z</time>
      </trkpt>
      <trkpt lat="45.05744" lon="-0.57374">
        <ele>77.7</ele>
        <time>2024-11-23T08:13:47Z</time>
      </trkpt>
      <trkpt lat="45.05746" lon="-0.57374">
        <ele>77.7</ele>
        <time>2024-11-23T08:13:48Z</time>
      </trkpt>
      <trkpt lat="45.05752" lon="-0.57371">
        <ele>77.9</ele>
        <time>2024-11-23T08:13:49Z</time>
      </trkpt>
      <trkpt lat="45.05757" lon="-0.57369">
        <ele>78.1</ele>
        <time>2024-11-23T08:14:04Z</time>
      </trkpt>
      <trkpt lat="45.05762" lon="-0.57367">
        <ele>78.3</ele>
        <time>2024-11-23T08:14:05Z</time>
      </trkpt>
      <trkpt lat="45.05768" lon="-0.57365">
        <ele>78.4</ele>
        <time>2024-11-23T08:14:06Z</time>
      </trkpt>
      <trkpt lat="45.05773" lon="-0.57363">
        <ele>78.6</ele>
        <time>2024-11-23T08:14:07Z</time>
      </trkpt>
      <trkpt lat="45.05774" lon="-0.57362">
        <ele>78.7</ele>
        <time>2024-11-23T08:14:08Z</time>
      </trkpt>
      <trkpt lat="45.05776" lon="-0.57361">
        <ele>78.8</ele>
        <time>2024-11-23T08:14:09Z</time>
      </trkpt>
      <trkpt lat="45.05777" lon="-0.5736">
        <ele>78.8</ele>
        <time>2024-11-23T08:14:10Z</time>
      </trkpt>
      <trkpt lat="45.05779" lon="-0.57359">
        <ele>78.9</ele>
        <time>2024-11-23T08:14:11Z</time>
      </trkpt>
      <trkpt lat="45.05781" lon="-0.57358">
        <ele>78.9</ele>
        <time>2024-11-23T08:14:12Z</time>
      </trkpt>
      <trkpt lat="45.05782" lon="-0.57358">
        <ele>79</ele>
        <time>2024-11-23T08:14:13Z</time>
      </trkpt>
      <trkpt lat="45.05783" lon="-0.57358">
        <ele>79</ele>
        <time>2024-11-23T08:14:14Z</time>
      </trkpt>
      <trkpt lat="45.05784" lon="-0.57357">
        <ele>79.1</ele>
        <time>2024-11-23T08:14:15Z</time>
      </trkpt>
      <trkpt lat="45.05785" lon="-0.57357">
        <ele>79.1</ele>
        <time>2024-11-23T08:14:16Z</time>
      </trkpt>
      <trkpt lat="45.05787" lon="-0.57356">
        <ele>79.1</ele>
        <time>2024-11-23T08:14:17Z</time>
      </trkpt>
      <trkpt lat="45.05788" lon="-0.57355">
        <ele>79.2</ele>
        <time>2024-11-23T08:14:18Z</time>
      </trkpt>
      <trkpt lat="45.0579" lon="-0.57355">
        <ele>79.2</ele>
        <time>2024-11-23T08:14:19Z</time>
      </trkpt>
      <trkpt lat="45.05791" lon="-0.57355">
        <ele>79.3</ele>
        <time>2024-11-23T08:14:20Z</time>
      </trkpt>
      <trkpt lat="45.05793" lon="-0.57354">
        <ele>79.3</ele>
        <time>2024-11-23T08:14:21Z</time>
      </trkpt>
      <trkpt lat="45.05794" lon="-0.57354">
        <ele>79.3</ele>
        <time>2024-11-23T08:14:22Z</time>
      </trkpt>
      <trkpt lat="45.05795" lon="-0.57354">
        <ele>79.4</ele>
        <time>2024-11-23T08:14:23Z</time>
      </trkpt>
      <trkpt lat="45.05796" lon="-0.57354">
        <ele>79.4</ele>
        <time>2024-11-23T08:14:24Z</time>
      </trkpt>
      <trkpt lat="45.05798" lon="-0.57353">
        <ele>79.4</ele>
        <time>2024-11-23T08:14:25Z</time>
      </trkpt>
      <trkpt lat="45.05799" lon="-0.57353">
        <ele>79.5</ele>
        <time>2024-11-23T08:14:26Z</time>
      </trkpt>
      <trkpt lat="45.05801" lon="-0.57352">
        <ele>79.5</ele>
        <time>2024-11-23T08:14:27Z</time>
      </trkpt>
      <trkpt lat="45.05802" lon="-0.57352">
        <ele>79.6</ele>
        <time>2024-11-23T08:14:28Z</time>
      </trkpt>
      <trkpt lat="45.05804" lon="-0.57351">
        <ele>79.6</ele>
        <time>2024-11-23T08:14:29Z</time>
      </trkpt>
      <trkpt lat="45.05805" lon="-0.5735">
        <ele>79.6</ele>
        <time>2024-11-23T08:14:30Z</time>
      </trkpt>
      <trkpt lat="45.05806" lon="-0.5735">
        <ele>79.7</ele>
        <time>2024-11-23T08:14:31Z</time>
      </trkpt>
      <trkpt lat="45.05808" lon="-0.57349">
        <ele>79.7</ele>
        <time>2024-11-23T08:14:32Z</time>
      </trkpt>
      <trkpt lat="45.05809" lon="-0.57349">
        <ele>79.7</ele>
        <time>2024-11-23T08:14:33Z</time>
      </trkpt>
      <trkpt lat="45.05811" lon="-0.57348">
        <ele>79.8</ele>
        <time>2024-11-23T08:14:34Z</time>
      </trkpt>
      <trkpt lat="45.05812" lon="-0.57348">
        <ele>79.8</ele>
        <time>2024-11-23T08:14:35Z</time>
      </trkpt>
      <trkpt lat="45.05814" lon="-0.57347">
        <ele>79.9</ele>
        <time>2024-11-23T08:14:36Z</time>
      </trkpt>
      <trkpt lat="45.05815" lon="-0.57346">
        <ele>79.9</ele>
        <time>2024-11-23T08:14:37Z</time>
      </trkpt>
      <trkpt lat="45.05817" lon="-0.57346">
        <ele>80</ele>
        <time>2024-11-23T08:14:38Z</time>
      </trkpt>
      <trkpt lat="45.05818" lon="-0.57345">
        <ele>80</ele>
        <time>2024-11-23T08:14:39Z</time>
      </trkpt>
      <trkpt lat="45.0582" lon="-0.57345">
        <ele>80.1</ele>
        <time>2024-11-23T08:14:40Z</time>
      </trkpt>
      <trkpt lat="45.05822" lon="-0.57345">
        <ele>80.1</ele>
        <time>2024-11-23T08:14:41Z</time>
      </trkpt>
      <trkpt lat="45.05823" lon="-0.57345">
        <ele>80.2</ele>
        <time>2024-11-23T08:14:42Z</time>
      </trkpt>
      <trkpt lat="45.05825" lon="-0.57344">
        <ele>80.2</ele>
        <time>2024-11-23T08:14:43Z</time>
      </trkpt>
      <trkpt lat="45.05827" lon="-0.57343">
        <ele>80.3</ele>
        <time>2024-11-23T08:14:44Z</time>
      </trkpt>
      <trkpt lat="45.05828" lon="-0.57343">
        <ele>80.3</ele>
        <time>2024-11-23T08:14:45Z</time>
      </trkpt>
      <trkpt lat="45.0583" lon="-0.57343">
        <ele>80.3</ele>
        <time>2024-11-23T08:14:46Z</time>
      </trkpt>
      <trkpt lat="45.05831" lon="-0.57342">
        <ele>80.4</ele>
        <time>2024-11-23T08:14:47Z</time>
      </trkpt>
      <trkpt lat="45.05832" lon="-0.57342">
        <ele>80.4</ele>
        <time>2024-11-23T08:14:48Z</time>
      </trkpt>
      <trkpt lat="45.05834" lon="-0.57342">
        <ele>80.5</ele>
        <time>2024-11-23T08:14:49Z</time>
      </trkpt>
      <trkpt lat="45.05836" lon="-0.57341">
        <ele>80.5</ele>
        <time>2024-11-23T08:14:50Z</time>
      </trkpt>
      <trkpt lat="45.05837" lon="-0.57341">
        <ele>80.6</ele>
        <time>2024-11-23T08:14:51Z</time>
      </trkpt>
      <trkpt lat="45.05838" lon="-0.5734">
        <ele>80.6</ele>
        <time>2024-11-23T08:14:52Z</time>
      </trkpt>
      <trkpt lat="45.0584" lon="-0.5734">
        <ele>80.6</ele>
        <time>2024-11-23T08:14:53Z</time>
      </trkpt>
      <trkpt lat="45.05842" lon="-0.57339">
        <ele>80.7</ele>
        <time>2024-11-23T08:14:54Z</time>
      </trkpt>
      <trkpt lat="45.05843" lon="-0.57339">
        <ele>80.7</ele>
        <time>2024-11-23T08:14:55Z</time>
      </trkpt>
      <trkpt lat="45.05844" lon="-0.57338">
        <ele>80.8</ele>
        <time>2024-11-23T08:14:56Z</time>
      </trkpt>
      <trkpt lat="45.05846" lon="-0.57339">
        <ele>80.8</ele>
        <time>2024-11-23T08:14:57Z</time>
      </trkpt>
      <trkpt lat="45.05847" lon="-0.57339">
        <ele>80.8</ele>
        <time>2024-11-23T08:14:58Z</time>
      </trkpt>
      <trkpt lat="45.05849" lon="-0.5734">
        <ele>80.9</ele>
        <time>2024-11-23T08:14:59Z</time>
      </trkpt>
      <trkpt lat="45.0585" lon="-0.57341">
        <ele>80.9</ele>
        <time>2024-11-23T08:15:00Z</time>
      </trkpt>
      <trkpt lat="45.05851" lon="-0.57342">
        <ele>81</ele>
        <time>2024-11-23T08:15:01Z</time>
      </trkpt>
      <trkpt lat="45.05852" lon="-0.57344">
        <ele>81</ele>
        <time>2024-11-23T08:15:02Z</time>
      </trkpt>
      <trkpt lat="45.05853" lon="-0.57345">
        <ele>81</ele>
        <time>2024-11-23T08:15:03Z</time>
      </trkpt>
      <trkpt lat="45.05854" lon="-0.57346">
        <ele>81</ele>
        <time>2024-11-23T08:15:04Z</time>
      </trkpt>
      <trkpt lat="45.05856" lon="-0.57344">
        <ele>81.1</ele>
        <time>2024-11-23T08:15:05Z</time>
      </trkpt>
      <trkpt lat="45.05857" lon="-0.57339">
        <ele>81.2</ele>
        <time>2024-11-23T08:15:06Z</time>
      </trkpt>
      <trkpt lat="45.05854" lon="-0.57335">
        <ele>81.2</ele>
        <time>2024-11-23T08:15:07Z</time>
      </trkpt>
      <trkpt lat="45.05851" lon="-0.57334">
        <ele>81.2</ele>
        <time>2024-11-23T08:15:08Z</time>
      </trkpt>
      <trkpt lat="45.0585" lon="-0.57333">
        <ele>81.2</ele>
        <time>2024-11-23T08:15:09Z</time>
      </trkpt>
      <trkpt lat="45.05848" lon="-0.57331">
        <ele>81.2</ele>
        <time>2024-11-23T08:15:10Z</time>
      </trkpt>
      <trkpt lat="45.05847" lon="-0.5733">
        <ele>81.2</ele>
        <time>2024-11-23T08:15:11Z</time>
      </trkpt>
      <trkpt lat="45.05846" lon="-0.57328">
        <ele>81.1</ele>
        <time>2024-11-23T08:15:12Z</time>
      </trkpt>
      <trkpt lat="45.05845" lon="-0.57327">
        <ele>81.1</ele>
        <time>2024-11-23T08:15:13Z</time>
      </trkpt>
      <trkpt lat="45.05844" lon="-0.57325">
        <ele>81.1</ele>
        <time>2024-11-23T08:15:14Z</time>
      </trkpt>
      <trkpt lat="45.05843" lon="-0.57323">
        <ele>81.1</ele>
        <time>2024-11-23T08:15:15Z</time>
      </trkpt>
      <trkpt lat="45.05842" lon="-0.57321">
        <ele>81.1</ele>
        <time>2024-11-23T08:15:16Z</time>
      </trkpt>
      <trkpt lat="45.05841" lon="-0.57319">
        <ele>81.1</ele>
        <time>2024-11-23T08:15:17Z</time>
      </trkpt>
      <trkpt lat="45.0584" lon="-0.57317">
        <ele>81.1</ele>
        <time>2024-11-23T08:15:18Z</time>
      </trkpt>
      <trkpt lat="45.05839" lon="-0.57316">
        <ele>81.1</ele>
        <time>2024-11-23T08:15:19Z</time>
      </trkpt>
      <trkpt lat="45.05839" lon="-0.57314">
        <ele>81.1</ele>
        <time>2024-11-23T08:15:20Z</time>
      </trkpt>
      <trkpt lat="45.05839" lon="-0.57312">
        <ele>81.1</ele>
        <time>2024-11-23T08:15:21Z</time>
      </trkpt>
      <trkpt lat="45.05838" lon="-0.57309">
        <ele>81.1</ele>
        <time>2024-11-23T08:15:22Z</time>
      </trkpt>
      <trkpt lat="45.05838" lon="-0.57307">
        <ele>81.1</ele>
        <time>2024-11-23T08:15:23Z</time>
      </trkpt>
      <trkpt lat="45.05837" lon="-0.57306">
        <ele>81.1</ele>
        <time>2024-11-23T08:15:24Z</time>
      </trkpt>
      <trkpt lat="45.05836" lon="-0.57304">
        <ele>81.1</ele>
        <time>2024-11-23T08:15:25Z</time>
      </trkpt>
      <trkpt lat="45.05836" lon="-0.57302">
        <ele>81.1</ele>
        <time>2024-11-23T08:15:26Z</time>
      </trkpt>
      <trkpt lat="45.05835" lon="-0.573">
        <ele>81.1</ele>
        <time>2024-11-23T08:15:27Z</time>
      </trkpt>
      <trkpt lat="45.05835" lon="-0.57298">
        <ele>81.1</ele>
        <time>2024-11-23T08:15:28Z</time>
      </trkpt>
      <trkpt lat="45.05836" lon="-0.57295">
        <ele>80.9</ele>
        <time>2024-11-23T08:15:29Z</time>
      </trkpt>
      <trkpt lat="45.05837" lon="-0.57293">
        <ele>80.8</ele>
        <time>2024-11-23T08:15:30Z</time>
      </trkpt>
      <trkpt lat="45.05838" lon="-0.57292">
        <ele>80.7</ele>
        <time>2024-11-23T08:15:31Z</time>
      </trkpt>
      <trkpt lat="45.05839" lon="-0.5729">
        <ele>80.6</ele>
        <time>2024-11-23T08:15:32Z</time>
      </trkpt>
      <trkpt lat="45.05841" lon="-0.57289">
        <ele>80.5</ele>
        <time>2024-11-23T08:15:33Z</time>
      </trkpt>
      <trkpt lat="45.05842" lon="-0.57288">
        <ele>80.5</ele>
        <time>2024-11-23T08:15:34Z</time>
      </trkpt>
      <trkpt lat="45.05843" lon="-0.57287">
        <ele>80.4</ele>
        <time>2024-11-23T08:15:35Z</time>
      </trkpt>
      <trkpt lat="45.05845" lon="-0.57286">
        <ele>80.4</ele>
        <time>2024-11-23T08:15:36Z</time>
      </trkpt>
      <trkpt lat="45.05846" lon="-0.57285">
        <ele>80.3</ele>
        <time>2024-11-23T08:15:37Z</time>
      </trkpt>
      <trkpt lat="45.05848" lon="-0.57283">
        <ele>80.2</ele>
        <time>2024-11-23T08:15:38Z</time>
      </trkpt>
      <trkpt lat="45.05848" lon="-0.57283">
        <ele>80.2</ele>
        <time>2024-11-23T08:15:39Z</time>
      </trkpt>
      <trkpt lat="45.05849" lon="-0.57283">
        <ele>80.2</ele>
        <time>2024-11-23T08:15:40Z</time>
      </trkpt>
      <trkpt lat="45.05851" lon="-0.57283">
        <ele>80.1</ele>
        <time>2024-11-23T08:15:41Z</time>
      </trkpt>
      <trkpt lat="45.05851" lon="-0.57283">
        <ele>80.1</ele>
        <time>2024-11-23T08:15:42Z</time>
      </trkpt>
      <trkpt lat="45.05853" lon="-0.57281">
        <ele>80</ele>
        <time>2024-11-23T08:15:43Z</time>
      </trkpt>
      <trkpt lat="45.05855" lon="-0.57281">
        <ele>80</ele>
        <time>2024-11-23T08:15:44Z</time>
      </trkpt>
      <trkpt lat="45.05856" lon="-0.5728">
        <ele>79.9</ele>
        <time>2024-11-23T08:15:45Z</time>
      </trkpt>
      <trkpt lat="45.05857" lon="-0.57279">
        <ele>79.9</ele>
        <time>2024-11-23T08:15:46Z</time>
      </trkpt>
      <trkpt lat="45.05859" lon="-0.57278">
        <ele>79.8</ele>
        <time>2024-11-23T08:15:47Z</time>
      </trkpt>
      <trkpt lat="45.0586" lon="-0.57279">
        <ele>79.8</ele>
        <time>2024-11-23T08:15:48Z</time>
      </trkpt>
      <trkpt lat="45.05871" lon="-0.57288">
        <ele>79</ele>
        <time>2024-11-23T08:15:49Z</time>
      </trkpt>
      <trkpt lat="45.0588" lon="-0.57297">
        <ele>78.6</ele>
        <time>2024-11-23T08:16:39Z</time>
      </trkpt>
      <trkpt lat="45.05889" lon="-0.57305">
        <ele>78.5</ele>
        <time>2024-11-23T08:16:40Z</time>
      </trkpt>
      <trkpt lat="45.05899" lon="-0.57314">
        <ele>78.8</ele>
        <time>2024-11-23T08:16:41Z</time>
      </trkpt>
      <trkpt lat="45.05908" lon="-0.57323">
        <ele>79.3</ele>
        <time>2024-11-23T08:16:42Z</time>
      </trkpt>
      <trkpt lat="45.05909" lon="-0.57324">
        <ele>79.3</ele>
        <time>2024-11-23T08:16:43Z</time>
      </trkpt>
      <trkpt lat="45.0591" lon="-0.57325">
        <ele>79.2</ele>
        <time>2024-11-23T08:16:44Z</time>
      </trkpt>
      <trkpt lat="45.0591" lon="-0.57326">
        <ele>79.2</ele>
        <time>2024-11-23T08:16:45Z</time>
      </trkpt>
      <trkpt lat="45.05912" lon="-0.57328">
        <ele>79.5</ele>
        <time>2024-11-23T08:16:46Z</time>
      </trkpt>
      <trkpt lat="45.05912" lon="-0.57329">
        <ele>79.5</ele>
        <time>2024-11-23T08:16:47Z</time>
      </trkpt>
      <trkpt lat="45.05913" lon="-0.5733">
        <ele>79.4</ele>
        <time>2024-11-23T08:16:48Z</time>
      </trkpt>
      <trkpt lat="45.05919" lon="-0.57326">
        <ele>79</ele>
        <time>2024-11-23T08:16:49Z</time>
      </trkpt>
      <trkpt lat="45.05925" lon="-0.57321">
        <ele>78.6</ele>
        <time>2024-11-23T08:17:19Z</time>
      </trkpt>
      <trkpt lat="45.0593" lon="-0.57315">
        <ele>78.2</ele>
        <time>2024-11-23T08:17:20Z</time>
      </trkpt>
      <trkpt lat="45.05935" lon="-0.5731">
        <ele>77.7</ele>
        <time>2024-11-23T08:17:21Z</time>
      </trkpt>
      <trkpt lat="45.05936" lon="-0.57309">
        <ele>77.7</ele>
        <time>2024-11-23T08:17:22Z</time>
      </trkpt>
      <trkpt lat="45.05937" lon="-0.57308">
        <ele>77.2</ele>
        <time>2024-11-23T08:17:23Z</time>
      </trkpt>
      <trkpt lat="45.05938" lon="-0.57307">
        <ele>77.2</ele>
        <time>2024-11-23T08:17:24Z</time>
      </trkpt>
      <trkpt lat="45.05938" lon="-0.57306">
        <ele>77.2</ele>
        <time>2024-11-23T08:17:25Z</time>
      </trkpt>
      <trkpt lat="45.05939" lon="-0.57306">
        <ele>77.2</ele>
        <time>2024-11-23T08:17:26Z</time>
      </trkpt>
      <trkpt lat="45.0594" lon="-0.57305">
        <ele>76.7</ele>
        <time>2024-11-23T08:17:27Z</time>
      </trkpt>
      <trkpt lat="45.05941" lon="-0.57304">
        <ele>76.7</ele>
        <time>2024-11-23T08:17:28Z</time>
      </trkpt>
      <trkpt lat="45.05942" lon="-0.57303">
        <ele>76.7</ele>
        <time>2024-11-23T08:17:29Z</time>
      </trkpt>
      <trkpt lat="45.05943" lon="-0.57302">
        <ele>76.7</ele>
        <time>2024-11-23T08:17:30Z</time>
      </trkpt>
      <trkpt lat="45.05943" lon="-0.57301">
        <ele>76.6</ele>
        <time>2024-11-23T08:17:31Z</time>
      </trkpt>
      <trkpt lat="45.05944" lon="-0.573">
        <ele>76.2</ele>
        <time>2024-11-23T08:17:32Z</time>
      </trkpt>
      <trkpt lat="45.05945" lon="-0.57299">
        <ele>76.2</ele>
        <time>2024-11-23T08:17:33Z</time>
      </trkpt>
      <trkpt lat="45.0595" lon="-0.57291">
        <ele>75.4</ele>
        <time>2024-11-23T08:17:34Z</time>
      </trkpt>
      <trkpt lat="45.05955" lon="-0.57285">
        <ele>75</ele>
        <time>2024-11-23T08:18:08Z</time>
      </trkpt>
      <trkpt lat="45.0596" lon="-0.57278">
        <ele>74.3</ele>
        <time>2024-11-23T08:18:09Z</time>
      </trkpt>
      <trkpt lat="45.05964" lon="-0.57272">
        <ele>73.8</ele>
        <time>2024-11-23T08:18:10Z</time>
      </trkpt>
      <trkpt lat="45.05968" lon="-0.5727">
        <ele>73.3</ele>
        <time>2024-11-23T08:18:11Z</time>
      </trkpt>
      <trkpt lat="45.05971" lon="-0.57269">
        <ele>73.2</ele>
        <time>2024-11-23T08:18:12Z</time>
      </trkpt>
      <trkpt lat="45.05975" lon="-0.57269">
        <ele>73.1</ele>
        <time>2024-11-23T08:18:13Z</time>
      </trkpt>
      <trkpt lat="45.05978" lon="-0.57268">
        <ele>73</ele>
        <time>2024-11-23T08:18:14Z</time>
      </trkpt>
      <trkpt lat="45.05982" lon="-0.57267">
        <ele>72.9</ele>
        <time>2024-11-23T08:18:15Z</time>
      </trkpt>
      <trkpt lat="45.05986" lon="-0.57266">
        <ele>72.3</ele>
        <time>2024-11-23T08:18:16Z</time>
      </trkpt>
      <trkpt lat="45.05989" lon="-0.57265">
        <ele>72.1</ele>
        <time>2024-11-23T08:18:17Z</time>
      </trkpt>
      <trkpt lat="45.05993" lon="-0.57264">
        <ele>72</ele>
        <time>2024-11-23T08:18:18Z</time>
      </trkpt>
      <trkpt lat="45.05996" lon="-0.57263">
        <ele>71.8</ele>
        <time>2024-11-23T08:18:19Z</time>
      </trkpt>
      <trkpt lat="45.06" lon="-0.57262">
        <ele>71.3</ele>
        <time>2024-11-23T08:19:10Z</time>
      </trkpt>
      <trkpt lat="45.06003" lon="-0.57261">
        <ele>71.2</ele>
        <time>2024-11-23T08:19:11Z</time>
      </trkpt>
      <trkpt lat="45.06007" lon="-0.5726">
        <ele>71</ele>
        <time>2024-11-23T08:19:12Z</time>
      </trkpt>
      <trkpt lat="45.0601" lon="-0.57259">
        <ele>70.9</ele>
        <time>2024-11-23T08:19:13Z</time>
      </trkpt>
      <trkpt lat="45.06011" lon="-0.57259">
        <ele>70.9</ele>
        <time>2024-11-23T08:19:14Z</time>
      </trkpt>
      <trkpt lat="45.06012" lon="-0.57259">
        <ele>70.9</ele>
        <time>2024-11-23T08:19:15Z</time>
      </trkpt>
      <trkpt lat="45.06013" lon="-0.57258">
        <ele>70.8</ele>
        <time>2024-11-23T08:19:16Z</time>
      </trkpt>
      <trkpt lat="45.06013" lon="-0.57257">
        <ele>70.5</ele>
        <time>2024-11-23T08:19:17Z</time>
      </trkpt>
      <trkpt lat="45.06014" lon="-0.57255">
        <ele>70.5</ele>
        <time>2024-11-23T08:19:18Z</time>
      </trkpt>
      <trkpt lat="45.06014" lon="-0.57254">
        <ele>70.5</ele>
        <time>2024-11-23T08:19:19Z</time>
      </trkpt>
      <trkpt lat="45.06044" lon="-0.57251">
        <ele>70.5</ele>
        <time>2024-11-23T08:19:51Z</time>
      </trkpt>
      <trkpt lat="45.06045" lon="-0.57251">
        <ele>70.4</ele>
        <time>2024-11-23T08:19:52Z</time>
      </trkpt>
      <trkpt lat="45.06046" lon="-0.57251">
        <ele>70.4</ele>
        <time>2024-11-23T08:19:53Z</time>
      </trkpt>
      <trkpt lat="45.06047" lon="-0.57251">
        <ele>70.4</ele>
        <time>2024-11-23T08:19:54Z</time>
      </trkpt>
      <trkpt lat="45.06048" lon="-0.57251">
        <ele>70.4</ele>
        <time>2024-11-23T08:19:55Z</time>
      </trkpt>
      <trkpt lat="45.06049" lon="-0.57252">
        <ele>70.4</ele>
        <time>2024-11-23T08:19:56Z</time>
      </trkpt>
      <trkpt lat="45.0605" lon="-0.57252">
        <ele>70.4</ele>
        <time>2024-11-23T08:19:57Z</time>
      </trkpt>
      <trkpt lat="45.06051" lon="-0.57252">
        <ele>70.3</ele>
        <time>2024-11-23T08:19:58Z</time>
      </trkpt>
      <trkpt lat="45.06052" lon="-0.57252">
        <ele>70.3</ele>
        <time>2024-11-23T08:19:59Z</time>
      </trkpt>
      <trkpt lat="45.06053" lon="-0.57253">
        <ele>70.3</ele>
        <time>2024-11-23T08:20:00Z</time>
      </trkpt>
      <trkpt lat="45.06054" lon="-0.57254">
        <ele>70.6</ele>
        <time>2024-11-23T08:20:01Z</time>
      </trkpt>
      <trkpt lat="45.06054" lon="-0.57255">
        <ele>70.6</ele>
        <time>2024-11-23T08:20:02Z</time>
      </trkpt>
      <trkpt lat="45.06055" lon="-0.57256">
        <ele>70.6</ele>
        <time>2024-11-23T08:20:03Z</time>
      </trkpt>
      <trkpt lat="45.06056" lon="-0.57258">
        <ele>70.9</ele>
        <time>2024-11-23T08:20:04Z</time>
      </trkpt>
      <trkpt lat="45.06056" lon="-0.57259">
        <ele>70.8</ele>
        <time>2024-11-23T08:20:05Z</time>
      </trkpt>
      <trkpt lat="45.06084" lon="-0.57299">
        <ele>74.1</ele>
        <time>2024-11-23T08:20:59Z</time>
      </trkpt>
      <trkpt lat="45.06085" lon="-0.57299">
        <ele>74.1</ele>
        <time>2024-11-23T08:21:00Z</time>
      </trkpt>
      <trkpt lat="45.06085" lon="-0.57298">
        <ele>74.5</ele>
        <time>2024-11-23T08:21:01Z</time>
      </trkpt>
      <trkpt lat="45.06086" lon="-0.57298">
        <ele>74.5</ele>
        <time>2024-11-23T08:21:02Z</time>
      </trkpt>
      <trkpt lat="45.06087" lon="-0.57293">
        <ele>74.3</ele>
        <time>2024-11-23T08:21:03Z</time>
      </trkpt>
      <trkpt lat="45.06087" lon="-0.57289">
        <ele>74.1</ele>
        <time>2024-11-23T08:21:04Z</time>
      </trkpt>
      <trkpt lat="45.06088" lon="-0.57285">
        <ele>74</ele>
        <time>2024-11-23T08:21:05Z</time>
      </trkpt>
      <trkpt lat="45.06088" lon="-0.57281">
        <ele>73.8</ele>
        <time>2024-11-23T08:21:46Z</time>
      </trkpt>
      <trkpt lat="45.06089" lon="-0.57277">
        <ele>74.1</ele>
        <time>2024-11-23T08:21:47Z</time>
      </trkpt>
      <trkpt lat="45.06089" lon="-0.57273">
        <ele>74</ele>
        <time>2024-11-23T08:21:48Z</time>
      </trkpt>
      <trkpt lat="45.06089" lon="-0.57273">
        <ele>73.9</ele>
        <time>2024-11-23T08:21:49Z</time>
      </trkpt>
      <trkpt lat="45.06089" lon="-0.57273">
        <ele>73.9</ele>
        <time>2024-11-23T08:21:50Z</time>
      </trkpt>
      <trkpt lat="45.06089" lon="-0.57272">
        <ele>73.9</ele>
        <time>2024-11-23T08:21:51Z</time>
      </trkpt>
      <trkpt lat="45.06089" lon="-0.57272">
        <ele>73.9</ele>
        <time>2024-11-23T08:21:52Z</time>
      </trkpt>
      <trkpt lat="45.06089" lon="-0.57272">
        <ele>73.9</ele>
        <time>2024-11-23T08:21:53Z</time>
      </trkpt>
      <trkpt lat="45.06089" lon="-0.57272">
        <ele>73.8</ele>
        <time>2024-11-23T08:21:54Z</time>
      </trkpt>
      <trkpt lat="45.06089" lon="-0.57272">
        <ele>73.8</ele>
        <time>2024-11-23T08:21:55Z</time>
      </trkpt>
      <trkpt lat="45.06089" lon="-0.57272">
        <ele>73.8</ele>
        <time>2024-11-23T08:21:56Z</time>
      </trkpt>
      <trkpt lat="45.0609" lon="-0.57272">
        <ele>73.8</ele>
        <time>2024-11-23T08:21:57Z</time>
      </trkpt>
      <trkpt lat="45.0609" lon="-0.57272">
        <ele>73.8</ele>
        <time>2024-11-23T08:21:58Z</time>
      </trkpt>
      <trkpt lat="45.0609" lon="-0.57271">
        <ele>73.8</ele>
        <time>2024-11-23T08:21:59Z</time>
      </trkpt>
      <trkpt lat="45.0609" lon="-0.5727">
        <ele>73.6</ele>
        <time>2024-11-23T08:22:00Z</time>
      </trkpt>
      <trkpt lat="45.0609" lon="-0.57269">
        <ele>73.6</ele>
        <time>2024-11-23T08:22:01Z</time>
      </trkpt>
      <trkpt lat="45.06092" lon="-0.57264">
        <ele>73.9</ele>
        <time>2024-11-23T08:22:02Z</time>
      </trkpt>
      <trkpt lat="45.06094" lon="-0.57259">
        <ele>73.8</ele>
        <time>2024-11-23T08:22:03Z</time>
      </trkpt>
      <trkpt lat="45.06095" lon="-0.57255">
        <ele>74</ele>
        <time>2024-11-23T08:22:04Z</time>
      </trkpt>
      <trkpt lat="45.06097" lon="-0.57251">
        <ele>73.8</ele>
        <time>2024-11-23T08:22:05Z</time>
      </trkpt>
      <trkpt lat="45.06099" lon="-0.57246">
        <ele>73.9</ele>
        <time>2024-11-23T08:22:37Z</time>
      </trkpt>
      <trkpt lat="45.06101" lon="-0.57242">
        <ele>74</ele>
        <time>2024-11-23T08:22:38Z</time>
      </trkpt>
      <trkpt lat="45.06103" lon="-0.57237">
        <ele>73.6</ele>
        <time>2024-11-23T08:22:39Z</time>
      </trkpt>
      <trkpt lat="45.06104" lon="-0.57233">
        <ele>73.4</ele>
        <time>2024-11-23T08:22:40Z</time>
      </trkpt>
      <trkpt lat="45.06104" lon="-0.57233">
        <ele>73.4</ele>
        <time>2024-11-23T08:22:41Z</time>
      </trkpt>
      <trkpt lat="45.06105" lon="-0.57232">
        <ele>73.4</ele>
        <time>2024-11-23T08:22:42Z</time>
      </trkpt>
      <trkpt lat="45.06105" lon="-0.57232">
        <ele>73.4</ele>
        <time>2024-11-23T08:22:43Z</time>
      </trkpt>
      <trkpt lat="45.06105" lon="-0.57232">
        <ele>72.9</ele>
        <time>2024-11-23T08:22:44Z</time>
      </trkpt>
      <trkpt lat="45.06105" lon="-0.57231">
        <ele>72.9</ele>
        <time>2024-11-23T08:22:45Z</time>
      </trkpt>
      <trkpt lat="45.06105" lon="-0.57231">
        <ele>72.9</ele>
        <time>2024-11-23T08:22:46Z</time>
      </trkpt>
      <trkpt lat="45.06105" lon="-0.5723">
        <ele>72.9</ele>
        <time>2024-11-23T08:22:47Z</time>
      </trkpt>
      <trkpt lat="45.06106" lon="-0.57229">
        <ele>72.8</ele>
        <time>2024-11-23T08:22:48Z</time>
      </trkpt>
      <trkpt lat="45.06106" lon="-0.57227">
        <ele>72.3</ele>
        <time>2024-11-23T08:22:49Z</time>
      </trkpt>
      <trkpt lat="45.06107" lon="-0.57227">
        <ele>72.6</ele>
        <time>2024-11-23T08:22:50Z</time>
      </trkpt>
      <trkpt lat="45.06107" lon="-0.57225">
        <ele>72.6</ele>
        <time>2024-11-23T08:22:51Z</time>
      </trkpt>
      <trkpt lat="45.06107" lon="-0.57224">
        <ele>72.5</ele>
        <time>2024-11-23T08:22:52Z</time>
      </trkpt>
      <trkpt lat="45.06108" lon="-0.57223">
        <ele>72</ele>
        <time>2024-11-23T08:22:53Z</time>
      </trkpt>
      <trkpt lat="45.06108" lon="-0.57221">
        <ele>72</ele>
        <time>2024-11-23T08:22:54Z</time>
      </trkpt>
      <trkpt lat="45.06109" lon="-0.5722">
        <ele>71.9</ele>
        <time>2024-11-23T08:22:55Z</time>
      </trkpt>
      <trkpt lat="45.06109" lon="-0.57219">
        <ele>71.3</ele>
        <time>2024-11-23T08:22:56Z</time>
      </trkpt>
      <trkpt lat="45.06109" lon="-0.57218">
        <ele>71.3</ele>
        <time>2024-11-23T08:22:57Z</time>
      </trkpt>
      <trkpt lat="45.06109" lon="-0.57217">
        <ele>71.3</ele>
        <time>2024-11-23T08:22:58Z</time>
      </trkpt>
      <trkpt lat="45.06109" lon="-0.57215">
        <ele>71.3</ele>
        <time>2024-11-23T08:22:59Z</time>
      </trkpt>
      <trkpt lat="45.06109" lon="-0.57215">
        <ele>70.7</ele>
        <time>2024-11-23T08:23:00Z</time>
      </trkpt>
      <trkpt lat="45.0611" lon="-0.57213">
        <ele>70.9</ele>
        <time>2024-11-23T08:23:01Z</time>
      </trkpt>
      <trkpt lat="45.06111" lon="-0.57212">
        <ele>70.9</ele>
        <time>2024-11-23T08:23:02Z</time>
      </trkpt>
      <trkpt lat="45.06112" lon="-0.57211">
        <ele>70.9</ele>
        <time>2024-11-23T08:23:03Z</time>
      </trkpt>
      <trkpt lat="45.06113" lon="-0.5721">
        <ele>70.6</ele>
        <time>2024-11-23T08:23:04Z</time>
      </trkpt>
      <trkpt lat="45.0612" lon="-0.57207">
        <ele>71.1</ele>
        <time>2024-11-23T08:23:05Z</time>
      </trkpt>
      <trkpt lat="45.06127" lon="-0.57204">
        <ele>71.1</ele>
        <time>2024-11-23T08:24:03Z</time>
      </trkpt>
      <trkpt lat="45.06134" lon="-0.572">
        <ele>71.3</ele>
        <time>2024-11-23T08:24:04Z</time>
      </trkpt>
      <trkpt lat="45.06141" lon="-0.57197">
        <ele>71.4</ele>
        <time>2024-11-23T08:24:05Z</time>
      </trkpt>
      <trkpt lat="45.06148" lon="-0.57194">
        <ele>71.8</ele>
        <time>2024-11-23T08:24:53Z</time>
      </trkpt>
      <trkpt lat="45.06155" lon="-0.57191">
        <ele>71.9</ele>
        <time>2024-11-23T08:24:54Z</time>
      </trkpt>
      <trkpt lat="45.06162" lon="-0.57187">
        <ele>71.8</ele>
        <time>2024-11-23T08:24:55Z</time>
      </trkpt>
      <trkpt lat="45.06169" lon="-0.57184">
        <ele>71.7</ele>
        <time>2024-11-23T08:24:56Z</time>
      </trkpt>
      <trkpt lat="45.06169" lon="-0.57183">
        <ele>71.6</ele>
        <time>2024-11-23T08:24:57Z</time>
      </trkpt>
      <trkpt lat="45.06169" lon="-0.57181">
        <ele>71.5</ele>
        <time>2024-11-23T08:24:58Z</time>
      </trkpt>
      <trkpt lat="45.0617" lon="-0.57179">
        <ele>71.4</ele>
        <time>2024-11-23T08:24:59Z</time>
      </trkpt>
      <trkpt lat="45.06171" lon="-0.57177">
        <ele>71.1</ele>
        <time>2024-11-23T08:25:00Z</time>
      </trkpt>
      <trkpt lat="45.06171" lon="-0.57176">
        <ele>71.1</ele>
        <time>2024-11-23T08:25:01Z</time>
      </trkpt>
      <trkpt lat="45.06171" lon="-0.57174">
        <ele>71</ele>
        <time>2024-11-23T08:25:02Z</time>
      </trkpt>
      <trkpt lat="45.06172" lon="-0.57171">
        <ele>70.7</ele>
        <time>2024-11-23T08:25:03Z</time>
      </trkpt>
      <trkpt lat="45.06172" lon="-0.5717">
        <ele>70.6</ele>
        <time>2024-11-23T08:25:04Z</time>
      </trkpt>
      <trkpt lat="45.06173" lon="-0.57169">
        <ele>70.5</ele>
        <time>2024-11-23T08:25:05Z</time>
      </trkpt>
      <trkpt lat="45.06196" lon="-0.57092">
        <ele>63.4</ele>
        <time>2024-11-23T08:25:49Z</time>
      </trkpt>
      <trkpt lat="45.06196" lon="-0.57091">
        <ele>63.3</ele>
        <time>2024-11-23T08:25:50Z</time>
      </trkpt>
      <trkpt lat="45.06197" lon="-0.5709">
        <ele>63.2</ele>
        <time>2024-11-23T08:25:51Z</time>
      </trkpt>
      <trkpt lat="45.06197" lon="-0.57089">
        <ele>63.1</ele>
        <time>2024-11-23T08:25:52Z</time>
      </trkpt>
      <trkpt lat="45.06198" lon="-0.57087">
        <ele>62.9</ele>
        <time>2024-11-23T08:25:53Z</time>
      </trkpt>
      <trkpt lat="45.06198" lon="-0.57085">
        <ele>62.7</ele>
        <time>2024-11-23T08:25:54Z</time>
      </trkpt>
      <trkpt lat="45.06199" lon="-0.57083">
        <ele>62.5</ele>
        <time>2024-11-23T08:25:55Z</time>
      </trkpt>
      <trkpt lat="45.06199" lon="-0.57082">
        <ele>62.3</ele>
        <time>2024-11-23T08:25:56Z</time>
      </trkpt>
      <trkpt lat="45.062" lon="-0.5708">
        <ele>62.2</ele>
        <time>2024-11-23T08:25:57Z</time>
      </trkpt>
      <trkpt lat="45.062" lon="-0.57078">
        <ele>62</ele>
        <time>2024-11-23T08:25:58Z</time>
      </trkpt>
      <trkpt lat="45.06201" lon="-0.57076">
        <ele>61.8</ele>
        <time>2024-11-23T08:25:59Z</time>
      </trkpt>
      <trkpt lat="45.06201" lon="-0.57074">
        <ele>61.6</ele>
        <time>2024-11-23T08:26:00Z</time>
      </trkpt>
      <trkpt lat="45.06202" lon="-0.57073">
        <ele>61.4</ele>
        <time>2024-11-23T08:26:01Z</time>
      </trkpt>
      <trkpt lat="45.06203" lon="-0.57071">
        <ele>61.2</ele>
        <time>2024-11-23T08:26:02Z</time>
      </trkpt>
      <trkpt lat="45.06203" lon="-0.5707">
        <ele>61.1</ele>
        <time>2024-11-23T08:26:03Z</time>
      </trkpt>
      <trkpt lat="45.0621" lon="-0.57062">
        <ele>59.6</ele>
        <time>2024-11-23T08:26:04Z</time>
      </trkpt>
      <trkpt lat="45.06217" lon="-0.57056">
        <ele>58.4</ele>
        <time>2024-11-23T08:26:05Z</time>
      </trkpt>
      <trkpt lat="45.06224" lon="-0.5705">
        <ele>57.1</ele>
        <time>2024-11-23T08:26:36Z</time>
      </trkpt>
      <trkpt lat="45.06231" lon="-0.57044">
        <ele>56</ele>
        <time>2024-11-23T08:26:37Z</time>
      </trkpt>
      <trkpt lat="45.06237" lon="-0.57038">
        <ele>54.8</ele>
        <time>2024-11-23T08:26:38Z</time>
      </trkpt>
      <trkpt lat="45.06244" lon="-0.57032">
        <ele>53.7</ele>
        <time>2024-11-23T08:26:39Z</time>
      </trkpt>
      <trkpt lat="45.06246" lon="-0.57031">
        <ele>53.4</ele>
        <time>2024-11-23T08:26:40Z</time>
      </trkpt>
      <trkpt lat="45.06247" lon="-0.5703">
        <ele>53.3</ele>
        <time>2024-11-23T08:26:41Z</time>
      </trkpt>
      <trkpt lat="45.06248" lon="-0.5703">
        <ele>53.2</ele>
        <time>2024-11-23T08:26:42Z</time>
      </trkpt>
      <trkpt lat="45.0625" lon="-0.57029">
        <ele>52.8</ele>
        <time>2024-11-23T08:26:43Z</time>
      </trkpt>
      <trkpt lat="45.06251" lon="-0.57028">
        <ele>52.7</ele>
        <time>2024-11-23T08:26:44Z</time>
      </trkpt>
      <trkpt lat="45.06252" lon="-0.57028">
        <ele>52.6</ele>
        <time>2024-11-23T08:26:45Z</time>
      </trkpt>
      <trkpt lat="45.06253" lon="-0.57027">
        <ele>52.4</ele>
        <time>2024-11-23T08:26:46Z</time>
      </trkpt>
      <trkpt lat="45.06254" lon="-0.57027">
        <ele>52.2</ele>
        <time>2024-11-23T08:26:47Z</time>
      </trkpt>
      <trkpt lat="45.06255" lon="-0.57026">
        <ele>52.1</ele>
        <time>2024-11-23T08:26:48Z</time>
      </trkpt>
      <trkpt lat="45.06256" lon="-0.57026">
        <ele>51.9</ele>
        <time>2024-11-23T08:26:49Z</time>
      </trkpt>
      <trkpt lat="45.06258" lon="-0.57025">
        <ele>51.6</ele>
        <time>2024-11-23T08:26:50Z</time>
      </trkpt>
      <trkpt lat="45.0626" lon="-0.57024">
        <ele>51.3</ele>
        <time>2024-11-23T08:26:51Z</time>
      </trkpt>
      <trkpt lat="45.06261" lon="-0.57023">
        <ele>51.1</ele>
        <time>2024-11-23T08:26:53Z</time>
      </trkpt>
      <trkpt lat="45.06263" lon="-0.57022">
        <ele>50.9</ele>
        <time>2024-11-23T08:26:54Z</time>
      </trkpt>
      <trkpt lat="45.06265" lon="-0.57021">
        <ele>50.7</ele>
        <time>2024-11-23T08:26:55Z</time>
      </trkpt>
      <trkpt lat="45.06266" lon="-0.57021">
        <ele>50.5</ele>
        <time>2024-11-23T08:26:56Z</time>
      </trkpt>
      <trkpt lat="45.06266" lon="-0.57021">
        <ele>50.4</ele>
        <time>2024-11-23T08:26:57Z</time>
      </trkpt>
      <trkpt lat="45.06269" lon="-0.5702">
        <ele>50.1</ele>
        <time>2024-11-23T08:26:58Z</time>
      </trkpt>
      <trkpt lat="45.0627" lon="-0.57019">
        <ele>49.9</ele>
        <time>2024-11-23T08:26:59Z</time>
      </trkpt>
      <trkpt lat="45.0627" lon="-0.57019">
        <ele>49.8</ele>
        <time>2024-11-23T08:27:00Z</time>
      </trkpt>
      <trkpt lat="45.06272" lon="-0.57018">
        <ele>49.5</ele>
        <time>2024-11-23T08:27:01Z</time>
      </trkpt>
      <trkpt lat="45.06273" lon="-0.57017">
        <ele>49.4</ele>
        <time>2024-11-23T08:27:02Z</time>
      </trkpt>
      <trkpt lat="45.06274" lon="-0.57017">
        <ele>49.3</ele>
        <time>2024-11-23T08:27:03Z</time>
      </trkpt>
      <trkpt lat="45.06275" lon="-0.57016">
        <ele>49.1</ele>
        <time>2024-11-23T08:27:04Z</time>
      </trkpt>
      <trkpt lat="45.06277" lon="-0.57016">
        <ele>48.9</ele>
        <time>2024-11-23T08:27:05Z</time>
      </trkpt>
      <trkpt lat="45.06291" lon="-0.57017">
        <ele>47</ele>
        <time>2024-11-23T08:27:06Z</time>
      </trkpt>
      <trkpt lat="45.06304" lon="-0.57019">
        <ele>45.3</ele>
        <time>2024-11-23T08:28:06Z</time>
      </trkpt>
      <trkpt lat="45.06317" lon="-0.57021">
        <ele>44.2</ele>
        <time>2024-11-23T08:28:07Z</time>
      </trkpt>
      <trkpt lat="45.0633" lon="-0.57022">
        <ele>44.6</ele>
        <time>2024-11-23T08:28:08Z</time>
      </trkpt>
      <trkpt lat="45.06343" lon="-0.57024">
        <ele>45.3</ele>
        <time>2024-11-23T08:28:09Z</time>
      </trkpt>
      <trkpt lat="45.06343" lon="-0.57027">
        <ele>45.3</ele>
        <time>2024-11-23T08:28:10Z</time>
      </trkpt>
      <trkpt lat="45.06343" lon="-0.57028">
        <ele>45.4</ele>
        <time>2024-11-23T08:28:11Z</time>
      </trkpt>
      <trkpt lat="45.06344" lon="-0.57029">
        <ele>45.4</ele>
        <time>2024-11-23T08:28:12Z</time>
      </trkpt>
      <trkpt lat="45.06344" lon="-0.57032">
        <ele>45.5</ele>
        <time>2024-11-23T08:28:13Z</time>
      </trkpt>
      <trkpt lat="45.06344" lon="-0.57033">
        <ele>45.5</ele>
        <time>2024-11-23T08:28:14Z</time>
      </trkpt>
      <trkpt lat="45.06344" lon="-0.57035">
        <ele>45.6</ele>
        <time>2024-11-23T08:28:15Z</time>
      </trkpt>
      <trkpt lat="45.06345" lon="-0.57036">
        <ele>45.6</ele>
        <time>2024-11-23T08:28:16Z</time>
      </trkpt>
      <trkpt lat="45.06345" lon="-0.57038">
        <ele>45.7</ele>
        <time>2024-11-23T08:28:17Z</time>
      </trkpt>
      <trkpt lat="45.06345" lon="-0.5704">
        <ele>45.7</ele>
        <time>2024-11-23T08:28:18Z</time>
      </trkpt>
      <trkpt lat="45.06346" lon="-0.57042">
        <ele>45.8</ele>
        <time>2024-11-23T08:28:19Z</time>
      </trkpt>
      <trkpt lat="45.06346" lon="-0.57045">
        <ele>45.9</ele>
        <time>2024-11-23T08:28:20Z</time>
      </trkpt>
      <trkpt lat="45.06346" lon="-0.57046">
        <ele>45.9</ele>
        <time>2024-11-23T08:28:21Z</time>
      </trkpt>
      <trkpt lat="45.06372" lon="-0.57091">
        <ele>47.6</ele>
        <time>2024-11-23T08:28:57Z</time>
      </trkpt>
      <trkpt lat="45.06374" lon="-0.57092">
        <ele>47.6</ele>
        <time>2024-11-23T08:28:58Z</time>
      </trkpt>
      <trkpt lat="45.06375" lon="-0.57093">
        <ele>47.7</ele>
        <time>2024-11-23T08:28:59Z</time>
      </trkpt>
      <trkpt lat="45.06377" lon="-0.57094">
        <ele>47.7</ele>
        <time>2024-11-23T08:29:00Z</time>
      </trkpt>
      <trkpt lat="45.06378" lon="-0.57095">
        <ele>47.8</ele>
        <time>2024-11-23T08:29:01Z</time>
      </trkpt>
      <trkpt lat="45.0638" lon="-0.57095">
        <ele>47.9</ele>
        <time>2024-11-23T08:29:02Z</time>
      </trkpt>
      <trkpt lat="45.06381" lon="-0.57096">
        <ele>47.9</ele>
        <time>2024-11-23T08:29:03Z</time>
      </trkpt>
      <trkpt lat="45.06383" lon="-0.57096">
        <ele>48</ele>
        <time>2024-11-23T08:29:04Z</time>
      </trkpt>
      <trkpt lat="45.06384" lon="-0.57096">
        <ele>48</ele>
        <time>2024-11-23T08:29:05Z</time>
      </trkpt>
      <trkpt lat="45.06385" lon="-0.57096">
        <ele>48.1</ele>
        <time>2024-11-23T08:29:06Z</time>
      </trkpt>
      <trkpt lat="45.06447" lon="-0.57121">
        <ele>51.9</ele>
        <time>2024-11-23T08:29:54Z</time>
      </trkpt>
      <trkpt lat="45.06448" lon="-0.57123">
        <ele>52.1</ele>
        <time>2024-11-23T08:29:55Z</time>
      </trkpt>
      <trkpt lat="45.0645" lon="-0.57124">
        <ele>52.3</ele>
        <time>2024-11-23T08:29:56Z</time>
      </trkpt>
      <trkpt lat="45.06451" lon="-0.57125">
        <ele>52.4</ele>
        <time>2024-11-23T08:29:57Z</time>
      </trkpt>
      <trkpt lat="45.06453" lon="-0.57126">
        <ele>52.7</ele>
        <time>2024-11-23T08:29:58Z</time>
      </trkpt>
      <trkpt lat="45.06454" lon="-0.57127">
        <ele>52.8</ele>
        <time>2024-11-23T08:29:59Z</time>
      </trkpt>
      <trkpt lat="45.06454" lon="-0.57128">
        <ele>52.9</ele>
        <time>2024-11-23T08:30:00Z</time>
      </trkpt>
      <trkpt lat="45.06456" lon="-0.57131">
        <ele>53.1</ele>
        <time>2024-11-23T08:30:01Z</time>
      </trkpt>
      <trkpt lat="45.06456" lon="-0.57132">
        <ele>53.2</ele>
        <time>2024-11-23T08:30:02Z</time>
      </trkpt>
      <trkpt lat="45.06457" lon="-0.57133">
        <ele>53.3</ele>
        <time>2024-11-23T08:30:03Z</time>
      </trkpt>
      <trkpt lat="45.06458" lon="-0.57135">
        <ele>53.5</ele>
        <time>2024-11-23T08:30:04Z</time>
      </trkpt>
      <trkpt lat="45.06458" lon="-0.57136">
        <ele>53.6</ele>
        <time>2024-11-23T08:30:05Z</time>
      </trkpt>
      <trkpt lat="45.06459" lon="-0.57137">
        <ele>53.7</ele>
        <time>2024-11-23T08:30:06Z</time>
      </trkpt>
      <trkpt lat="45.0646" lon="-0.57139">
        <ele>54</ele>
        <time>2024-11-23T08:30:07Z</time>
      </trkpt>
      <trkpt lat="45.0646" lon="-0.5714">
        <ele>54</ele>
        <time>2024-11-23T08:30:08Z</time>
      </trkpt>
      <trkpt lat="45.06461" lon="-0.57141">
        <ele>54.1</ele>
        <time>2024-11-23T08:30:09Z</time>
      </trkpt>
      <trkpt lat="45.06461" lon="-0.57142">
        <ele>54.2</ele>
        <time>2024-11-23T08:30:10Z</time>
      </trkpt>
      <trkpt lat="45.06462" lon="-0.57144">
        <ele>54.4</ele>
        <time>2024-11-23T08:30:11Z</time>
      </trkpt>
      <trkpt lat="45.06462" lon="-0.57145">
        <ele>54.5</ele>
        <time>2024-11-23T08:30:12Z</time>
      </trkpt>
      <trkpt lat="45.06463" lon="-0.57146">
        <ele>54.6</ele>
        <time>2024-11-23T08:30:13Z</time>
      </trkpt>
      <trkpt lat="45.06464" lon="-0.57148">
        <ele>54.8</ele>
        <time>2024-11-23T08:30:14Z</time>
      </trkpt>
      <trkpt lat="45.06464" lon="-0.57149">
        <ele>54.9</ele>
        <time>2024-11-23T08:30:15Z</time>
      </trkpt>
      <trkpt lat="45.06465" lon="-0.57151">
        <ele>55</ele>
        <time>2024-11-23T08:30:16Z</time>
      </trkpt>
      <trkpt lat="45.06465" lon="-0.57152">
        <ele>55.2</ele>
        <time>2024-11-23T08:30:17Z</time>
      </trkpt>
      <trkpt lat="45.06466" lon="-0.57154">
        <ele>55.3</ele>
        <time>2024-11-23T08:30:18Z</time>
      </trkpt>
      <trkpt lat="45.06466" lon="-0.57156">
        <ele>55.4</ele>
        <time>2024-11-23T08:30:19Z</time>
      </trkpt>
      <trkpt lat="45.06467" lon="-0.57157">
        <ele>55.6</ele>
        <time>2024-11-23T08:30:20Z</time>
      </trkpt>
      <trkpt lat="45.06467" lon="-0.57158">
        <ele>55.7</ele>
        <time>2024-11-23T08:30:21Z</time>
      </trkpt>
      <trkpt lat="45.06468" lon="-0.57161">
        <ele>56</ele>
        <time>2024-11-23T08:30:22Z</time>
      </trkpt>
      <trkpt lat="45.06469" lon="-0.57162">
        <ele>56.1</ele>
        <time>2024-11-23T08:30:23Z</time>
      </trkpt>
      <trkpt lat="45.06469" lon="-0.57163">
        <ele>56.2</ele>
        <time>2024-11-23T08:30:24Z</time>
      </trkpt>
      <trkpt lat="45.0647" lon="-0.57165">
        <ele>56.3</ele>
        <time>2024-11-23T08:30:25Z</time>
      </trkpt>
      <trkpt lat="45.0647" lon="-0.57166">
        <ele>56.5</ele>
        <time>2024-11-23T08:30:26Z</time>
      </trkpt>
      <trkpt lat="45.06471" lon="-0.57168">
        <ele>56.6</ele>
        <time>2024-11-23T08:30:27Z</time>
      </trkpt>
      <trkpt lat="45.06472" lon="-0.57169">
        <ele>56.8</ele>
        <time>2024-11-23T08:30:28Z</time>
      </trkpt>
      <trkpt lat="45.06472" lon="-0.57171">
        <ele>57</ele>
        <time>2024-11-23T08:30:29Z</time>
      </trkpt>
      <trkpt lat="45.06473" lon="-0.57172">
        <ele>57.1</ele>
        <time>2024-11-23T08:30:30Z</time>
      </trkpt>
      <trkpt lat="45.06473" lon="-0.57173">
        <ele>57.3</ele>
        <time>2024-11-23T08:30:31Z</time>
      </trkpt>
      <trkpt lat="45.06474" lon="-0.57175">
        <ele>57.4</ele>
        <time>2024-11-23T08:30:32Z</time>
      </trkpt>
      <trkpt lat="45.06474" lon="-0.57176">
        <ele>57.6</ele>
        <time>2024-11-23T08:30:33Z</time>
      </trkpt>
      <trkpt lat="45.06475" lon="-0.57178">
        <ele>57.7</ele>
        <time>2024-11-23T08:30:34Z</time>
      </trkpt>
      <trkpt lat="45.06475" lon="-0.57179">
        <ele>57.9</ele>
        <time>2024-11-23T08:30:35Z</time>
      </trkpt>
      <trkpt lat="45.06476" lon="-0.57181">
        <ele>58</ele>
        <time>2024-11-23T08:30:36Z</time>
      </trkpt>
      <trkpt lat="45.06477" lon="-0.57184">
        <ele>58.3</ele>
        <time>2024-11-23T08:30:37Z</time>
      </trkpt>
      <trkpt lat="45.06477" lon="-0.57185">
        <ele>58.4</ele>
        <time>2024-11-23T08:30:38Z</time>
      </trkpt>
      <trkpt lat="45.06478" lon="-0.57186">
        <ele>58.5</ele>
        <time>2024-11-23T08:30:39Z</time>
      </trkpt>
      <trkpt lat="45.06478" lon="-0.57187">
        <ele>58.7</ele>
        <time>2024-11-23T08:30:40Z</time>
      </trkpt>
      <trkpt lat="45.06478" lon="-0.57189">
        <ele>58.8</ele>
        <time>2024-11-23T08:30:41Z</time>
      </trkpt>
      <trkpt lat="45.06479" lon="-0.5719">
        <ele>59</ele>
        <time>2024-11-23T08:30:42Z</time>
      </trkpt>
      <trkpt lat="45.0648" lon="-0.57193">
        <ele>59.3</ele>
        <time>2024-11-23T08:30:43Z</time>
      </trkpt>
      <trkpt lat="45.06481" lon="-0.57194">
        <ele>59.4</ele>
        <time>2024-11-23T08:30:44Z</time>
      </trkpt>
      <trkpt lat="45.06481" lon="-0.57195">
        <ele>59.5</ele>
        <time>2024-11-23T08:30:45Z</time>
      </trkpt>
      <trkpt lat="45.06482" lon="-0.57196">
        <ele>59.6</ele>
        <time>2024-11-23T08:30:46Z</time>
      </trkpt>
      <trkpt lat="45.06483" lon="-0.57197">
        <ele>59.8</ele>
        <time>2024-11-23T08:30:47Z</time>
      </trkpt>
      <trkpt lat="45.06483" lon="-0.57199">
        <ele>60</ele>
        <time>2024-11-23T08:30:48Z</time>
      </trkpt>
      <trkpt lat="45.06484" lon="-0.572">
        <ele>60.2</ele>
        <time>2024-11-23T08:30:49Z</time>
      </trkpt>
      <trkpt lat="45.06485" lon="-0.57201">
        <ele>60.3</ele>
        <time>2024-11-23T08:30:50Z</time>
      </trkpt>
      <trkpt lat="45.06486" lon="-0.57203">
        <ele>60.5</ele>
        <time>2024-11-23T08:30:51Z</time>
      </trkpt>
      <trkpt lat="45.06487" lon="-0.57205">
        <ele>60.7</ele>
        <time>2024-11-23T08:30:52Z</time>
      </trkpt>
      <trkpt lat="45.06487" lon="-0.57206">
        <ele>60.9</ele>
        <time>2024-11-23T08:30:53Z</time>
      </trkpt>
      <trkpt lat="45.06488" lon="-0.57207">
        <ele>61</ele>
        <time>2024-11-23T08:30:54Z</time>
      </trkpt>
      <trkpt lat="45.06488" lon="-0.57208">
        <ele>61.1</ele>
        <time>2024-11-23T08:30:55Z</time>
      </trkpt>
      <trkpt lat="45.06488" lon="-0.5721">
        <ele>61.2</ele>
        <time>2024-11-23T08:30:56Z</time>
      </trkpt>
      <trkpt lat="45.06489" lon="-0.57212">
        <ele>61.4</ele>
        <time>2024-11-23T08:30:57Z</time>
      </trkpt>
      <trkpt lat="45.0649" lon="-0.57213">
        <ele>61.5</ele>
        <time>2024-11-23T08:30:58Z</time>
      </trkpt>
      <trkpt lat="45.0649" lon="-0.57215">
        <ele>61.7</ele>
        <time>2024-11-23T08:30:59Z</time>
      </trkpt>
      <trkpt lat="45.06491" lon="-0.57217">
        <ele>61.8</ele>
        <time>2024-11-23T08:31:00Z</time>
      </trkpt>
      <trkpt lat="45.06491" lon="-0.57218">
        <ele>62</ele>
        <time>2024-11-23T08:31:01Z</time>
      </trkpt>
      <trkpt lat="45.06492" lon="-0.5722">
        <ele>62.1</ele>
        <time>2024-11-23T08:31:02Z</time>
      </trkpt>
      <trkpt lat="45.06492" lon="-0.57221">
        <ele>62.2</ele>
        <time>2024-11-23T08:31:03Z</time>
      </trkpt>
      <trkpt lat="45.06493" lon="-0.57223">
        <ele>62.3</ele>
        <time>2024-11-23T08:31:04Z</time>
      </trkpt>
      <trkpt lat="45.06493" lon="-0.57225">
        <ele>62.4</ele>
        <time>2024-11-23T08:31:05Z</time>
      </trkpt>
      <trkpt lat="45.06494" lon="-0.57226">
        <ele>62.5</ele>
        <time>2024-11-23T08:31:06Z</time>
      </trkpt>
      <trkpt lat="45.06495" lon="-0.57228">
        <ele>62.6</ele>
        <time>2024-11-23T08:31:07Z</time>
      </trkpt>
      <trkpt lat="45.06495" lon="-0.57229">
        <ele>62.7</ele>
        <time>2024-11-23T08:31:08Z</time>
      </trkpt>
      <trkpt lat="45.06496" lon="-0.57231">
        <ele>62.9</ele>
        <time>2024-11-23T08:31:09Z</time>
      </trkpt>
      <trkpt lat="45.06496" lon="-0.57232">
        <ele>63</ele>
        <time>2024-11-23T08:31:10Z</time>
      </trkpt>
      <trkpt lat="45.06497" lon="-0.57234">
        <ele>63.1</ele>
        <time>2024-11-23T08:31:11Z</time>
      </trkpt>
      <trkpt lat="45.06497" lon="-0.57236">
        <ele>63.2</ele>
        <time>2024-11-23T08:31:12Z</time>
      </trkpt>
      <trkpt lat="45.06498" lon="-0.57237">
        <ele>63.3</ele>
        <time>2024-11-23T08:31:13Z</time>
      </trkpt>
      <trkpt lat="45.06498" lon="-0.57239">
        <ele>63.4</ele>
        <time>2024-11-23T08:31:14Z</time>
      </trkpt>
      <trkpt lat="45.06498" lon="-0.5724">
        <ele>63.6</ele>
        <time>2024-11-23T08:31:15Z</time>
      </trkpt>
      <trkpt lat="45.06499" lon="-0.57242">
        <ele>63.7</ele>
        <time>2024-11-23T08:31:16Z</time>
      </trkpt>
      <trkpt lat="45.06499" lon="-0.57243">
        <ele>63.8</ele>
        <time>2024-11-23T08:31:17Z</time>
      </trkpt>
      <trkpt lat="45.06499" lon="-0.57245">
        <ele>63.9</ele>
        <time>2024-11-23T08:31:18Z</time>
      </trkpt>
      <trkpt lat="45.065" lon="-0.57247">
        <ele>64.1</ele>
        <time>2024-11-23T08:31:19Z</time>
      </trkpt>
      <trkpt lat="45.065" lon="-0.57248">
        <ele>64.2</ele>
        <time>2024-11-23T08:31:20Z</time>
      </trkpt>
      <trkpt lat="45.065" lon="-0.5725">
        <ele>64.3</ele>
        <time>2024-11-23T08:31:21Z</time>
      </trkpt>
      <trkpt lat="45.06501" lon="-0.57252">
        <ele>64.6</ele>
        <time>2024-11-23T08:31:22Z</time>
      </trkpt>
      <trkpt lat="45.06501" lon="-0.57253">
        <ele>64.7</ele>
        <time>2024-11-23T08:31:23Z</time>
      </trkpt>
      <trkpt lat="45.06501" lon="-0.57255">
        <ele>64.8</ele>
        <time>2024-11-23T08:31:24Z</time>
      </trkpt>
      <trkpt lat="45.06501" lon="-0.57256">
        <ele>64.9</ele>
        <time>2024-11-23T08:31:25Z</time>
      </trkpt>
      <trkpt lat="45.06501" lon="-0.57258">
        <ele>65</ele>
        <time>2024-11-23T08:31:26Z</time>
      </trkpt>
      <trkpt lat="45.06502" lon="-0.57259">
        <ele>65.1</ele>
        <time>2024-11-23T08:31:27Z</time>
      </trkpt>
      <trkpt lat="45.06502" lon="-0.57261">
        <ele>65.3</ele>
        <time>2024-11-23T08:31:28Z</time>
      </trkpt>
      <trkpt lat="45.06502" lon="-0.57263">
        <ele>65.4</ele>
        <time>2024-11-23T08:31:29Z</time>
      </trkpt>
      <trkpt lat="45.06502" lon="-0.57264">
        <ele>65.6</ele>
        <time>2024-11-23T08:31:30Z</time>
      </trkpt>
      <trkpt lat="45.06502" lon="-0.57266">
        <ele>65.7</ele>
        <time>2024-11-23T08:31:31Z</time>
      </trkpt>
      <trkpt lat="45.06502" lon="-0.57267">
        <ele>65.8</ele>
        <time>2024-11-23T08:31:32Z</time>
      </trkpt>
      <trkpt lat="45.06502" lon="-0.57269">
        <ele>65.9</ele>
        <time>2024-11-23T08:31:33Z</time>
      </trkpt>
      <trkpt lat="45.06503" lon="-0.57271">
        <ele>66.1</ele>
        <time>2024-11-23T08:31:34Z</time>
      </trkpt>
      <trkpt lat="45.06503" lon="-0.57272">
        <ele>66.2</ele>
        <time>2024-11-23T08:31:35Z</time>
      </trkpt>
      <trkpt lat="45.06503" lon="-0.57274">
        <ele>66.4</ele>
        <time>2024-11-23T08:31:36Z</time>
      </trkpt>
      <trkpt lat="45.06504" lon="-0.57277">
        <ele>66.7</ele>
        <time>2024-11-23T08:31:37Z</time>
      </trkpt>
      <trkpt lat="45.06504" lon="-0.57278">
        <ele>66.8</ele>
        <time>2024-11-23T08:31:38Z</time>
      </trkpt>
      <trkpt lat="45.06504" lon="-0.57279">
        <ele>66.9</ele>
        <time>2024-11-23T08:31:39Z</time>
      </trkpt>
      <trkpt lat="45.06505" lon="-0.57281">
        <ele>67.1</ele>
        <time>2024-11-23T08:31:40Z</time>
      </trkpt>
      <trkpt lat="45.06505" lon="-0.57283">
        <ele>67.4</ele>
        <time>2024-11-23T08:31:41Z</time>
      </trkpt>
      <trkpt lat="45.06505" lon="-0.57285">
        <ele>67.6</ele>
        <time>2024-11-23T08:31:42Z</time>
      </trkpt>
      <trkpt lat="45.06506" lon="-0.57287">
        <ele>67.8</ele>
        <time>2024-11-23T08:31:43Z</time>
      </trkpt>
      <trkpt lat="45.06506" lon="-0.5729">
        <ele>68.1</ele>
        <time>2024-11-23T08:31:44Z</time>
      </trkpt>
      <trkpt lat="45.06507" lon="-0.57291">
        <ele>68.3</ele>
        <time>2024-11-23T08:31:45Z</time>
      </trkpt>
      <trkpt lat="45.06507" lon="-0.57293">
        <ele>68.5</ele>
        <time>2024-11-23T08:31:46Z</time>
      </trkpt>
      <trkpt lat="45.06507" lon="-0.57295">
        <ele>68.7</ele>
        <time>2024-11-23T08:31:47Z</time>
      </trkpt>
      <trkpt lat="45.06507" lon="-0.57296">
        <ele>68.9</ele>
        <time>2024-11-23T08:31:48Z</time>
      </trkpt>
      <trkpt lat="45.06508" lon="-0.57299">
        <ele>69.3</ele>
        <time>2024-11-23T08:31:49Z</time>
      </trkpt>
      <trkpt lat="45.06508" lon="-0.573">
        <ele>69.4</ele>
        <time>2024-11-23T08:31:50Z</time>
      </trkpt>
      <trkpt lat="45.06509" lon="-0.57303">
        <ele>69.8</ele>
        <time>2024-11-23T08:31:51Z</time>
      </trkpt>
      <trkpt lat="45.06509" lon="-0.57304">
        <ele>69.9</ele>
        <time>2024-11-23T08:31:52Z</time>
      </trkpt>
      <trkpt lat="45.06509" lon="-0.57305">
        <ele>70.1</ele>
        <time>2024-11-23T08:31:53Z</time>
      </trkpt>
      <trkpt lat="45.0651" lon="-0.57307">
        <ele>70.4</ele>
        <time>2024-11-23T08:31:54Z</time>
      </trkpt>
      <trkpt lat="45.0651" lon="-0.57309">
        <ele>70.5</ele>
        <time>2024-11-23T08:31:55Z</time>
      </trkpt>
      <trkpt lat="45.06511" lon="-0.5731">
        <ele>70.8</ele>
        <time>2024-11-23T08:31:56Z</time>
      </trkpt>
      <trkpt lat="45.06511" lon="-0.57312">
        <ele>70.9</ele>
        <time>2024-11-23T08:31:57Z</time>
      </trkpt>
      <trkpt lat="45.06511" lon="-0.57314">
        <ele>71.2</ele>
        <time>2024-11-23T08:31:58Z</time>
      </trkpt>
      <trkpt lat="45.06511" lon="-0.57315">
        <ele>71.4</ele>
        <time>2024-11-23T08:31:59Z</time>
      </trkpt>
      <trkpt lat="45.06512" lon="-0.57316">
        <ele>71.5</ele>
        <time>2024-11-23T08:32:00Z</time>
      </trkpt>
      <trkpt lat="45.06512" lon="-0.57318">
        <ele>71.7</ele>
        <time>2024-11-23T08:32:01Z</time>
      </trkpt>
      <trkpt lat="45.06512" lon="-0.57321">
        <ele>72.1</ele>
        <time>2024-11-23T08:32:02Z</time>
      </trkpt>
      <trkpt lat="45.06513" lon="-0.57322">
        <ele>72.3</ele>
        <time>2024-11-23T08:32:03Z</time>
      </trkpt>
      <trkpt lat="45.06513" lon="-0.57323">
        <ele>72.5</ele>
        <time>2024-11-23T08:32:04Z</time>
      </trkpt>
      <trkpt lat="45.06513" lon="-0.57325">
        <ele>72.6</ele>
        <time>2024-11-23T08:32:05Z</time>
      </trkpt>
      <trkpt lat="45.06514" lon="-0.57326">
        <ele>72.9</ele>
        <time>2024-11-23T08:32:06Z</time>
      </trkpt>
      <trkpt lat="45.06514" lon="-0.57328">
        <ele>73.1</ele>
        <time>2024-11-23T08:32:07Z</time>
      </trkpt>
      <trkpt lat="45.06514" lon="-0.57329">
        <ele>73.3</ele>
        <time>2024-11-23T08:32:08Z</time>
      </trkpt>
      <trkpt lat="45.06514" lon="-0.57331">
        <ele>73.5</ele>
        <time>2024-11-23T08:32:09Z</time>
      </trkpt>
      <trkpt lat="45.06515" lon="-0.57332">
        <ele>73.7</ele>
        <time>2024-11-23T08:32:10Z</time>
      </trkpt>
      <trkpt lat="45.06515" lon="-0.57334">
        <ele>73.9</ele>
        <time>2024-11-23T08:32:11Z</time>
      </trkpt>
      <trkpt lat="45.06515" lon="-0.57335">
        <ele>74.1</ele>
        <time>2024-11-23T08:32:12Z</time>
      </trkpt>
      <trkpt lat="45.06516" lon="-0.57337">
        <ele>74.3</ele>
        <time>2024-11-23T08:32:13Z</time>
      </trkpt>
      <trkpt lat="45.06516" lon="-0.57338">
        <ele>74.6</ele>
        <time>2024-11-23T08:32:14Z</time>
      </trkpt>
      <trkpt lat="45.06516" lon="-0.57339">
        <ele>74.7</ele>
        <time>2024-11-23T08:32:15Z</time>
      </trkpt>
      <trkpt lat="45.06516" lon="-0.57341">
        <ele>74.9</ele>
        <time>2024-11-23T08:32:16Z</time>
      </trkpt>
      <trkpt lat="45.06516" lon="-0.57342">
        <ele>75</ele>
        <time>2024-11-23T08:32:17Z</time>
      </trkpt>
      <trkpt lat="45.06516" lon="-0.57343">
        <ele>75.2</ele>
        <time>2024-11-23T08:32:18Z</time>
      </trkpt>
      <trkpt lat="45.06516" lon="-0.57345">
        <ele>75.4</ele>
        <time>2024-11-23T08:32:19Z</time>
      </trkpt>
      <trkpt lat="45.06517" lon="-0.57346">
        <ele>75.6</ele>
        <time>2024-11-23T08:32:20Z</time>
      </trkpt>
      <trkpt lat="45.06517" lon="-0.57347">
        <ele>75.8</ele>
        <time>2024-11-23T08:32:21Z</time>
      </trkpt>
      <trkpt lat="45.06517" lon="-0.57349">
        <ele>75.9</ele>
        <time>2024-11-23T08:32:22Z</time>
      </trkpt>
      <trkpt lat="45.06517" lon="-0.5735">
        <ele>76.1</ele>
        <time>2024-11-23T08:32:23Z</time>
      </trkpt>
      <trkpt lat="45.06518" lon="-0.57352">
        <ele>76.3</ele>
        <time>2024-11-23T08:32:24Z</time>
      </trkpt>
      <trkpt lat="45.06518" lon="-0.57353">
        <ele>76.5</ele>
        <time>2024-11-23T08:32:25Z</time>
      </trkpt>
      <trkpt lat="45.06519" lon="-0.57354">
        <ele>76.6</ele>
        <time>2024-11-23T08:32:26Z</time>
      </trkpt>
      <trkpt lat="45.06519" lon="-0.57356">
        <ele>76.7</ele>
        <time>2024-11-23T08:32:27Z</time>
      </trkpt>
      <trkpt lat="45.06519" lon="-0.57357">
        <ele>76.8</ele>
        <time>2024-11-23T08:32:28Z</time>
      </trkpt>
      <trkpt lat="45.0652" lon="-0.57359">
        <ele>76.9</ele>
        <time>2024-11-23T08:32:29Z</time>
      </trkpt>
      <trkpt lat="45.0652" lon="-0.5736">
        <ele>77</ele>
        <time>2024-11-23T08:32:30Z</time>
      </trkpt>
      <trkpt lat="45.0652" lon="-0.57361">
        <ele>77</ele>
        <time>2024-11-23T08:32:31Z</time>
      </trkpt>
      <trkpt lat="45.06521" lon="-0.57363">
        <ele>77.1</ele>
        <time>2024-11-23T08:32:32Z</time>
      </trkpt>
      <trkpt lat="45.06521" lon="-0.57364">
        <ele>77.2</ele>
        <time>2024-11-23T08:32:33Z</time>
      </trkpt>
      <trkpt lat="45.06521" lon="-0.57366">
        <ele>77.3</ele>
        <time>2024-11-23T08:32:34Z</time>
      </trkpt>
      <trkpt lat="45.06522" lon="-0.57367">
        <ele>77.3</ele>
        <time>2024-11-23T08:32:35Z</time>
      </trkpt>
      <trkpt lat="45.06522" lon="-0.57369">
        <ele>77.4</ele>
        <time>2024-11-23T08:32:36Z</time>
      </trkpt>
      <trkpt lat="45.06522" lon="-0.57371">
        <ele>77.5</ele>
        <time>2024-11-23T08:32:37Z</time>
      </trkpt>
      <trkpt lat="45.06523" lon="-0.57372">
        <ele>77.5</ele>
        <time>2024-11-23T08:32:38Z</time>
      </trkpt>
      <trkpt lat="45.06523" lon="-0.57374">
        <ele>77.6</ele>
        <time>2024-11-23T08:32:39Z</time>
      </trkpt>
      <trkpt lat="45.06524" lon="-0.57375">
        <ele>77.6</ele>
        <time>2024-11-23T08:32:40Z</time>
      </trkpt>
      <trkpt lat="45.06524" lon="-0.57376">
        <ele>77.7</ele>
        <time>2024-11-23T08:32:41Z</time>
      </trkpt>
      <trkpt lat="45.06525" lon="-0.57378">
        <ele>77.8</ele>
        <time>2024-11-23T08:32:42Z</time>
      </trkpt>
      <trkpt lat="45.06526" lon="-0.57379">
        <ele>77.8</ele>
        <time>2024-11-23T08:32:43Z</time>
      </trkpt>
      <trkpt lat="45.06527" lon="-0.5738">
        <ele>77.9</ele>
        <time>2024-11-23T08:32:44Z</time>
      </trkpt>
      <trkpt lat="45.06527" lon="-0.57381">
        <ele>77.9</ele>
        <time>2024-11-23T08:32:45Z</time>
      </trkpt>
      <trkpt lat="45.06528" lon="-0.57382">
        <ele>78</ele>
        <time>2024-11-23T08:32:46Z</time>
      </trkpt>
      <trkpt lat="45.06529" lon="-0.57383">
        <ele>78</ele>
        <time>2024-11-23T08:32:47Z</time>
      </trkpt>
      <trkpt lat="45.0653" lon="-0.57384">
        <ele>78.1</ele>
        <time>2024-11-23T08:32:48Z</time>
      </trkpt>
      <trkpt lat="45.06531" lon="-0.57386">
        <ele>78.1</ele>
        <time>2024-11-23T08:32:49Z</time>
      </trkpt>
      <trkpt lat="45.06531" lon="-0.57387">
        <ele>78.2</ele>
        <time>2024-11-23T08:32:50Z</time>
      </trkpt>
      <trkpt lat="45.06532" lon="-0.57388">
        <ele>78.2</ele>
        <time>2024-11-23T08:32:51Z</time>
      </trkpt>
      <trkpt lat="45.06532" lon="-0.57389">
        <ele>78.3</ele>
        <time>2024-11-23T08:32:52Z</time>
      </trkpt>
      <trkpt lat="45.06533" lon="-0.5739">
        <ele>78.3</ele>
        <time>2024-11-23T08:32:53Z</time>
      </trkpt>
      <trkpt lat="45.06534" lon="-0.57391">
        <ele>78.3</ele>
        <time>2024-11-23T08:32:54Z</time>
      </trkpt>
      <trkpt lat="45.06535" lon="-0.57392">
        <ele>78.4</ele>
        <time>2024-11-23T08:32:55Z</time>
      </trkpt>
      <trkpt lat="45.06536" lon="-0.57394">
        <ele>78.4</ele>
        <time>2024-11-23T08:32:56Z</time>
      </trkpt>
      <trkpt lat="45.06536" lon="-0.57395">
        <ele>78.5</ele>
        <time>2024-11-23T08:32:57Z</time>
      </trkpt>
      <trkpt lat="45.06537" lon="-0.57396">
        <ele>78.5</ele>
        <time>2024-11-23T08:32:58Z</time>
      </trkpt>
      <trkpt lat="45.06538" lon="-0.57397">
        <ele>78.5</ele>
        <time>2024-11-23T08:32:59Z</time>
      </trkpt>
      <trkpt lat="45.06539" lon="-0.57398">
        <ele>78.6</ele>
        <time>2024-11-23T08:33:00Z</time>
      </trkpt>
      <trkpt lat="45.06539" lon="-0.574">
        <ele>78.6</ele>
        <time>2024-11-23T08:33:01Z</time>
      </trkpt>
      <trkpt lat="45.0654" lon="-0.57401">
        <ele>78.7</ele>
        <time>2024-11-23T08:33:02Z</time>
      </trkpt>
      <trkpt lat="45.06541" lon="-0.57402">
        <ele>78.7</ele>
        <time>2024-11-23T08:33:03Z</time>
      </trkpt>
      <trkpt lat="45.06542" lon="-0.57403">
        <ele>78.7</ele>
        <time>2024-11-23T08:33:04Z</time>
      </trkpt>
      <trkpt lat="45.06542" lon="-0.57404">
        <ele>78.8</ele>
        <time>2024-11-23T08:33:05Z</time>
      </trkpt>
      <trkpt lat="45.06543" lon="-0.57405">
        <ele>78.8</ele>
        <time>2024-11-23T08:33:06Z</time>
      </trkpt>
      <trkpt lat="45.06544" lon="-0.57406">
        <ele>78.8</ele>
        <time>2024-11-23T08:33:07Z</time>
      </trkpt>
      <trkpt lat="45.06545" lon="-0.57407">
        <ele>78.9</ele>
        <time>2024-11-23T08:33:08Z</time>
      </trkpt>
      <trkpt lat="45.06546" lon="-0.57409">
        <ele>78.9</ele>
        <time>2024-11-23T08:33:09Z</time>
      </trkpt>
      <trkpt lat="45.06546" lon="-0.57409">
        <ele>79</ele>
        <time>2024-11-23T08:33:10Z</time>
      </trkpt>
      <trkpt lat="45.06547" lon="-0.5741">
        <ele>79</ele>
        <time>2024-11-23T08:33:11Z</time>
      </trkpt>
      <trkpt lat="45.06548" lon="-0.57411">
        <ele>79</ele>
        <time>2024-11-23T08:33:12Z</time>
      </trkpt>
      <trkpt lat="45.06549" lon="-0.57412">
        <ele>79.1</ele>
        <time>2024-11-23T08:33:13Z</time>
      </trkpt>
      <trkpt lat="45.0655" lon="-0.57413">
        <ele>79.1</ele>
        <time>2024-11-23T08:33:14Z</time>
      </trkpt>
      <trkpt lat="45.0655" lon="-0.57414">
        <ele>79.2</ele>
        <time>2024-11-23T08:33:15Z</time>
      </trkpt>
      <trkpt lat="45.06551" lon="-0.57415">
        <ele>79.2</ele>
        <time>2024-11-23T08:33:16Z</time>
      </trkpt>
      <trkpt lat="45.06552" lon="-0.57415">
        <ele>79.3</ele>
        <time>2024-11-23T08:33:17Z</time>
      </trkpt>
      <trkpt lat="45.06553" lon="-0.57416">
        <ele>79.3</ele>
        <time>2024-11-23T08:33:18Z</time>
      </trkpt>
      <trkpt lat="45.06554" lon="-0.57418">
        <ele>79.3</ele>
        <time>2024-11-23T08:33:19Z</time>
      </trkpt>
      <trkpt lat="45.06554" lon="-0.57418">
        <ele>79.4</ele>
        <time>2024-11-23T08:33:20Z</time>
      </trkpt>
      <trkpt lat="45.06555" lon="-0.57419">
        <ele>79.4</ele>
        <time>2024-11-23T08:33:21Z</time>
      </trkpt>
      <trkpt lat="45.06556" lon="-0.5742">
        <ele>79.4</ele>
        <time>2024-11-23T08:33:22Z</time>
      </trkpt>
      <trkpt lat="45.06556" lon="-0.57421">
        <ele>79.5</ele>
        <time>2024-11-23T08:33:23Z</time>
      </trkpt>
      <trkpt lat="45.06557" lon="-0.57422">
        <ele>79.5</ele>
        <time>2024-11-23T08:33:24Z</time>
      </trkpt>
      <trkpt lat="45.06558" lon="-0.57423">
        <ele>79.6</ele>
        <time>2024-11-23T08:33:25Z</time>
      </trkpt>
      <trkpt lat="45.06558" lon="-0.57424">
        <ele>79.6</ele>
        <time>2024-11-23T08:33:26Z</time>
      </trkpt>
      <trkpt lat="45.06559" lon="-0.57425">
        <ele>79.6</ele>
        <time>2024-11-23T08:33:27Z</time>
      </trkpt>
      <trkpt lat="45.0656" lon="-0.57426">
        <ele>79.7</ele>
        <time>2024-11-23T08:33:28Z</time>
      </trkpt>
      <trkpt lat="45.06561" lon="-0.57427">
        <ele>79.7</ele>
        <time>2024-11-23T08:33:29Z</time>
      </trkpt>
      <trkpt lat="45.06561" lon="-0.57428">
        <ele>79.8</ele>
        <time>2024-11-23T08:33:30Z</time>
      </trkpt>
      <trkpt lat="45.06562" lon="-0.57429">
        <ele>79.8</ele>
        <time>2024-11-23T08:33:31Z</time>
      </trkpt>
      <trkpt lat="45.06563" lon="-0.5743">
        <ele>79.9</ele>
        <time>2024-11-23T08:33:32Z</time>
      </trkpt>
      <trkpt lat="45.06563" lon="-0.57431">
        <ele>79.9</ele>
        <time>2024-11-23T08:33:33Z</time>
      </trkpt>
      <trkpt lat="45.06564" lon="-0.57433">
        <ele>79.9</ele>
        <time>2024-11-23T08:33:34Z</time>
      </trkpt>
      <trkpt lat="45.06564" lon="-0.57433">
        <ele>80</ele>
        <time>2024-11-23T08:33:35Z</time>
      </trkpt>
      <trkpt lat="45.06565" lon="-0.57434">
        <ele>80</ele>
        <time>2024-11-23T08:33:36Z</time>
      </trkpt>
      <trkpt lat="45.06566" lon="-0.57435">
        <ele>80</ele>
        <time>2024-11-23T08:33:37Z</time>
      </trkpt>
      <trkpt lat="45.06566" lon="-0.57436">
        <ele>80.1</ele>
        <time>2024-11-23T08:33:38Z</time>
      </trkpt>
      <trkpt lat="45.06567" lon="-0.57438">
        <ele>80.1</ele>
        <time>2024-11-23T08:33:39Z</time>
      </trkpt>
      <trkpt lat="45.06568" lon="-0.57439">
        <ele>80.2</ele>
        <time>2024-11-23T08:33:40Z</time>
      </trkpt>
      <trkpt lat="45.06568" lon="-0.5744">
        <ele>80.2</ele>
        <time>2024-11-23T08:33:41Z</time>
      </trkpt>
      <trkpt lat="45.06569" lon="-0.57441">
        <ele>80.2</ele>
        <time>2024-11-23T08:33:42Z</time>
      </trkpt>
      <trkpt lat="45.06569" lon="-0.57442">
        <ele>80.2</ele>
        <time>2024-11-23T08:33:43Z</time>
      </trkpt>
      <trkpt lat="45.06569" lon="-0.57444">
        <ele>80.3</ele>
        <time>2024-11-23T08:33:44Z</time>
      </trkpt>
      <trkpt lat="45.06569" lon="-0.57445">
        <ele>80.3</ele>
        <time>2024-11-23T08:33:45Z</time>
      </trkpt>
      <trkpt lat="45.06569" lon="-0.57446">
        <ele>80.3</ele>
        <time>2024-11-23T08:33:46Z</time>
      </trkpt>
      <trkpt lat="45.06568" lon="-0.57447">
        <ele>80.3</ele>
        <time>2024-11-23T08:33:47Z</time>
      </trkpt>
      <trkpt lat="45.06567" lon="-0.57447">
        <ele>80.3</ele>
        <time>2024-11-23T08:33:48Z</time>
      </trkpt>
      <trkpt lat="45.06566" lon="-0.57448">
        <ele>80.3</ele>
        <time>2024-11-23T08:33:49Z</time>
      </trkpt>
      <trkpt lat="45.06565" lon="-0.57449">
        <ele>80.2</ele>
        <time>2024-11-23T08:33:50Z</time>
      </trkpt>
      <trkpt lat="45.06564" lon="-0.5745">
        <ele>80.2</ele>
        <time>2024-11-23T08:33:51Z</time>
      </trkpt>
      <trkpt lat="45.06562" lon="-0.57451">
        <ele>80.2</ele>
        <time>2024-11-23T08:33:52Z</time>
      </trkpt>
      <trkpt lat="45.06561" lon="-0.57451">
        <ele>80.2</ele>
        <time>2024-11-23T08:33:53Z</time>
      </trkpt>
      <trkpt lat="45.0656" lon="-0.57452">
        <ele>80.2</ele>
        <time>2024-11-23T08:33:54Z</time>
      </trkpt>
      <trkpt lat="45.06558" lon="-0.57452">
        <ele>80.2</ele>
        <time>2024-11-23T08:33:55Z</time>
      </trkpt>
      <trkpt lat="45.06557" lon="-0.57453">
        <ele>80.2</ele>
        <time>2024-11-23T08:33:56Z</time>
      </trkpt>
      <trkpt lat="45.06557" lon="-0.57453">
        <ele>80.2</ele>
        <time>2024-11-23T08:33:57Z</time>
      </trkpt>
      <trkpt lat="45.06556" lon="-0.57454">
        <ele>80.2</ele>
        <time>2024-11-23T08:33:58Z</time>
      </trkpt>
      <trkpt lat="45.06555" lon="-0.57455">
        <ele>80.2</ele>
        <time>2024-11-23T08:33:59Z</time>
      </trkpt>
      <trkpt lat="45.06554" lon="-0.57456">
        <ele>80.2</ele>
        <time>2024-11-23T08:34:00Z</time>
      </trkpt>
      <trkpt lat="45.06552" lon="-0.57457">
        <ele>80.2</ele>
        <time>2024-11-23T08:34:01Z</time>
      </trkpt>
      <trkpt lat="45.06551" lon="-0.57457">
        <ele>80.2</ele>
        <time>2024-11-23T08:34:02Z</time>
      </trkpt>
      <trkpt lat="45.0655" lon="-0.57458">
        <ele>80.2</ele>
        <time>2024-11-23T08:34:03Z</time>
      </trkpt>
      <trkpt lat="45.06549" lon="-0.57458">
        <ele>80.2</ele>
        <time>2024-11-23T08:34:04Z</time>
      </trkpt>
      <trkpt lat="45.06548" lon="-0.57459">
        <ele>80.2</ele>
        <time>2024-11-23T08:34:05Z</time>
      </trkpt>
      <trkpt lat="45.06547" lon="-0.5746">
        <ele>80.2</ele>
        <time>2024-11-23T08:34:06Z</time>
      </trkpt>
      <trkpt lat="45.06546" lon="-0.5746">
        <ele>80.2</ele>
        <time>2024-11-23T08:34:07Z</time>
      </trkpt>
      <trkpt lat="45.06545" lon="-0.57461">
        <ele>80.2</ele>
        <time>2024-11-23T08:34:08Z</time>
      </trkpt>
      <trkpt lat="45.06544" lon="-0.57461">
        <ele>80.2</ele>
        <time>2024-11-23T08:34:09Z</time>
      </trkpt>
      <trkpt lat="45.06543" lon="-0.57462">
        <ele>80.2</ele>
        <time>2024-11-23T08:34:10Z</time>
      </trkpt>
      <trkpt lat="45.06543" lon="-0.57463">
        <ele>80.2</ele>
        <time>2024-11-23T08:34:11Z</time>
      </trkpt>
      <trkpt lat="45.06542" lon="-0.57463">
        <ele>80.2</ele>
        <time>2024-11-23T08:34:12Z</time>
      </trkpt>
      <trkpt lat="45.06541" lon="-0.57464">
        <ele>80.2</ele>
        <time>2024-11-23T08:34:13Z</time>
      </trkpt>
      <trkpt lat="45.0654" lon="-0.57465">
        <ele>80.2</ele>
        <time>2024-11-23T08:34:14Z</time>
      </trkpt>
      <trkpt lat="45.06538" lon="-0.57465">
        <ele>80.2</ele>
        <time>2024-11-23T08:34:15Z</time>
      </trkpt>
      <trkpt lat="45.06537" lon="-0.57465">
        <ele>80.2</ele>
        <time>2024-11-23T08:34:16Z</time>
      </trkpt>
      <trkpt lat="45.06536" lon="-0.57466">
        <ele>80.2</ele>
        <time>2024-11-23T08:34:17Z</time>
      </trkpt>
      <trkpt lat="45.06535" lon="-0.57466">
        <ele>80.2</ele>
        <time>2024-11-23T08:34:18Z</time>
      </trkpt>
      <trkpt lat="45.06533" lon="-0.57467">
        <ele>80.2</ele>
        <time>2024-11-23T08:34:19Z</time>
      </trkpt>
      <trkpt lat="45.06532" lon="-0.57467">
        <ele>80.2</ele>
        <time>2024-11-23T08:34:20Z</time>
      </trkpt>
      <trkpt lat="45.06531" lon="-0.57468">
        <ele>80.3</ele>
        <time>2024-11-23T08:34:21Z</time>
      </trkpt>
      <trkpt lat="45.06529" lon="-0.57469">
        <ele>80.3</ele>
        <time>2024-11-23T08:34:22Z</time>
      </trkpt>
      <trkpt lat="45.06528" lon="-0.57469">
        <ele>80.3</ele>
        <time>2024-11-23T08:34:23Z</time>
      </trkpt>
      <trkpt lat="45.06527" lon="-0.5747">
        <ele>80.3</ele>
        <time>2024-11-23T08:34:24Z</time>
      </trkpt>
      <trkpt lat="45.06526" lon="-0.5747">
        <ele>80.3</ele>
        <time>2024-11-23T08:34:25Z</time>
      </trkpt>
      <trkpt lat="45.06525" lon="-0.57471">
        <ele>80.3</ele>
        <time>2024-11-23T08:34:26Z</time>
      </trkpt>
      <trkpt lat="45.06524" lon="-0.57471">
        <ele>80.3</ele>
        <time>2024-11-23T08:34:27Z</time>
      </trkpt>
      <trkpt lat="45.06522" lon="-0.57473">
        <ele>80.3</ele>
        <time>2024-11-23T08:34:28Z</time>
      </trkpt>
      <trkpt lat="45.06521" lon="-0.57473">
        <ele>80.3</ele>
        <time>2024-11-23T08:34:29Z</time>
      </trkpt>
      <trkpt lat="45.0652" lon="-0.57474">
        <ele>80.3</ele>
        <time>2024-11-23T08:34:30Z</time>
      </trkpt>
      <trkpt lat="45.06518" lon="-0.57475">
        <ele>80.3</ele>
        <time>2024-11-23T08:34:31Z</time>
      </trkpt>
      <trkpt lat="45.06518" lon="-0.57476">
        <ele>80.3</ele>
        <time>2024-11-23T08:34:32Z</time>
      </trkpt>
      <trkpt lat="45.06517" lon="-0.57476">
        <ele>80.3</ele>
        <time>2024-11-23T08:34:33Z</time>
      </trkpt>
      <trkpt lat="45.06515" lon="-0.57478">
        <ele>80.3</ele>
        <time>2024-11-23T08:34:34Z</time>
      </trkpt>
      <trkpt lat="45.06514" lon="-0.57478">
        <ele>80.3</ele>
        <time>2024-11-23T08:34:35Z</time>
      </trkpt>
      <trkpt lat="45.06513" lon="-0.57479">
        <ele>80.3</ele>
        <time>2024-11-23T08:34:36Z</time>
      </trkpt>
      <trkpt lat="45.06511" lon="-0.5748">
        <ele>80.4</ele>
        <time>2024-11-23T08:34:37Z</time>
      </trkpt>
      <trkpt lat="45.0651" lon="-0.5748">
        <ele>80.4</ele>
        <time>2024-11-23T08:34:38Z</time>
      </trkpt>
      <trkpt lat="45.06509" lon="-0.57481">
        <ele>80.4</ele>
        <time>2024-11-23T08:34:39Z</time>
      </trkpt>
      <trkpt lat="45.06507" lon="-0.57482">
        <ele>80.4</ele>
        <time>2024-11-23T08:34:40Z</time>
      </trkpt>
      <trkpt lat="45.06507" lon="-0.57482">
        <ele>80.4</ele>
        <time>2024-11-23T08:34:41Z</time>
      </trkpt>
      <trkpt lat="45.06506" lon="-0.57483">
        <ele>80.4</ele>
        <time>2024-11-23T08:34:42Z</time>
      </trkpt>
      <trkpt lat="45.06505" lon="-0.57483">
        <ele>80.4</ele>
        <time>2024-11-23T08:34:43Z</time>
      </trkpt>
      <trkpt lat="45.06503" lon="-0.57483">
        <ele>80.5</ele>
        <time>2024-11-23T08:34:44Z</time>
      </trkpt>
      <trkpt lat="45.06501" lon="-0.57483">
        <ele>80.5</ele>
        <time>2024-11-23T08:34:45Z</time>
      </trkpt>
      <trkpt lat="45.065" lon="-0.57484">
        <ele>80.5</ele>
        <time>2024-11-23T08:34:46Z</time>
      </trkpt>
      <trkpt lat="45.06499" lon="-0.57484">
        <ele>80.5</ele>
        <time>2024-11-23T08:34:47Z</time>
      </trkpt>
      <trkpt lat="45.06498" lon="-0.57484">
        <ele>80.5</ele>
        <time>2024-11-23T08:34:48Z</time>
      </trkpt>
      <trkpt lat="45.06496" lon="-0.57485">
        <ele>80.5</ele>
        <time>2024-11-23T08:34:49Z</time>
      </trkpt>
      <trkpt lat="45.06495" lon="-0.57486">
        <ele>80.5</ele>
        <time>2024-11-23T08:34:50Z</time>
      </trkpt>
      <trkpt lat="45.06494" lon="-0.57486">
        <ele>80.6</ele>
        <time>2024-11-23T08:34:51Z</time>
      </trkpt>
      <trkpt lat="45.06492" lon="-0.57487">
        <ele>80.6</ele>
        <time>2024-11-23T08:34:52Z</time>
      </trkpt>
      <trkpt lat="45.06491" lon="-0.57488">
        <ele>80.6</ele>
        <time>2024-11-23T08:34:53Z</time>
      </trkpt>
      <trkpt lat="45.06489" lon="-0.57489">
        <ele>80.6</ele>
        <time>2024-11-23T08:34:54Z</time>
      </trkpt>
      <trkpt lat="45.06488" lon="-0.57489">
        <ele>80.6</ele>
        <time>2024-11-23T08:34:55Z</time>
      </trkpt>
      <trkpt lat="45.06486" lon="-0.5749">
        <ele>80.6</ele>
        <time>2024-11-23T08:34:56Z</time>
      </trkpt>
      <trkpt lat="45.06485" lon="-0.57491">
        <ele>80.7</ele>
        <time>2024-11-23T08:34:57Z</time>
      </trkpt>
      <trkpt lat="45.06484" lon="-0.57492">
        <ele>80.7</ele>
        <time>2024-11-23T08:34:58Z</time>
      </trkpt>
      <trkpt lat="45.06482" lon="-0.57492">
        <ele>80.7</ele>
        <time>2024-11-23T08:34:59Z</time>
      </trkpt>
      <trkpt lat="45.06481" lon="-0.57493">
        <ele>80.7</ele>
        <time>2024-11-23T08:35:00Z</time>
      </trkpt>
      <trkpt lat="45.0648" lon="-0.57494">
        <ele>80.7</ele>
        <time>2024-11-23T08:35:01Z</time>
      </trkpt>
      <trkpt lat="45.06478" lon="-0.57495">
        <ele>80.7</ele>
        <time>2024-11-23T08:35:02Z</time>
      </trkpt>
      <trkpt lat="45.06477" lon="-0.57495">
        <ele>80.8</ele>
        <time>2024-11-23T08:35:03Z</time>
      </trkpt>
      <trkpt lat="45.06476" lon="-0.57496">
        <ele>80.8</ele>
        <time>2024-11-23T08:35:04Z</time>
      </trkpt>
      <trkpt lat="45.06475" lon="-0.57497">
        <ele>80.8</ele>
        <time>2024-11-23T08:35:05Z</time>
      </trkpt>
      <trkpt lat="45.06473" lon="-0.57497">
        <ele>80.8</ele>
        <time>2024-11-23T08:35:06Z</time>
      </trkpt>
      <trkpt lat="45.06472" lon="-0.57498">
        <ele>80.8</ele>
        <time>2024-11-23T08:35:07Z</time>
      </trkpt>
      <trkpt lat="45.06471" lon="-0.57498">
        <ele>80.9</ele>
        <time>2024-11-23T08:35:08Z</time>
      </trkpt>
      <trkpt lat="45.06469" lon="-0.57498">
        <ele>80.9</ele>
        <time>2024-11-23T08:35:09Z</time>
      </trkpt>
      <trkpt lat="45.06468" lon="-0.57499">
        <ele>80.9</ele>
        <time>2024-11-23T08:35:10Z</time>
      </trkpt>
      <trkpt lat="45.06466" lon="-0.575">
        <ele>80.9</ele>
        <time>2024-11-23T08:35:11Z</time>
      </trkpt>
      <trkpt lat="45.06465" lon="-0.575">
        <ele>81</ele>
        <time>2024-11-23T08:35:12Z</time>
      </trkpt>
      <trkpt lat="45.06463" lon="-0.57501">
        <ele>81</ele>
        <time>2024-11-23T08:35:13Z</time>
      </trkpt>
      <trkpt lat="45.06462" lon="-0.57502">
        <ele>81</ele>
        <time>2024-11-23T08:35:14Z</time>
      </trkpt>
      <trkpt lat="45.06461" lon="-0.57502">
        <ele>81</ele>
        <time>2024-11-23T08:35:15Z</time>
      </trkpt>
      <trkpt lat="45.06459" lon="-0.57503">
        <ele>81.1</ele>
        <time>2024-11-23T08:35:16Z</time>
      </trkpt>
      <trkpt lat="45.06458" lon="-0.57504">
        <ele>81.1</ele>
        <time>2024-11-23T08:35:17Z</time>
      </trkpt>
      <trkpt lat="45.06457" lon="-0.57504">
        <ele>81.1</ele>
        <time>2024-11-23T08:35:18Z</time>
      </trkpt>
      <trkpt lat="45.06455" lon="-0.57505">
        <ele>81.2</ele>
        <time>2024-11-23T08:35:19Z</time>
      </trkpt>
      <trkpt lat="45.06454" lon="-0.57506">
        <ele>81.2</ele>
        <time>2024-11-23T08:35:20Z</time>
      </trkpt>
      <trkpt lat="45.06452" lon="-0.57507">
        <ele>81.3</ele>
        <time>2024-11-23T08:35:21Z</time>
      </trkpt>
      <trkpt lat="45.06451" lon="-0.57508">
        <ele>81.3</ele>
        <time>2024-11-23T08:35:22Z</time>
      </trkpt>
      <trkpt lat="45.0645" lon="-0.57509">
        <ele>81.3</ele>
        <time>2024-11-23T08:35:23Z</time>
      </trkpt>
      <trkpt lat="45.06449" lon="-0.57509">
        <ele>81.4</ele>
        <time>2024-11-23T08:35:24Z</time>
      </trkpt>
      <trkpt lat="45.06447" lon="-0.5751">
        <ele>81.4</ele>
        <time>2024-11-23T08:35:25Z</time>
      </trkpt>
      <trkpt lat="45.06446" lon="-0.57511">
        <ele>81.4</ele>
        <time>2024-11-23T08:35:26Z</time>
      </trkpt>
      <trkpt lat="45.06444" lon="-0.57512">
        <ele>81.5</ele>
        <time>2024-11-23T08:35:27Z</time>
      </trkpt>
      <trkpt lat="45.06443" lon="-0.57513">
        <ele>81.5</ele>
        <time>2024-11-23T08:35:28Z</time>
      </trkpt>
      <trkpt lat="45.06442" lon="-0.57514">
        <ele>81.6</ele>
        <time>2024-11-23T08:35:29Z</time>
      </trkpt>
      <trkpt lat="45.06441" lon="-0.57515">
        <ele>81.6</ele>
        <time>2024-11-23T08:35:30Z</time>
      </trkpt>
      <trkpt lat="45.06439" lon="-0.57516">
        <ele>81.7</ele>
        <time>2024-11-23T08:35:31Z</time>
      </trkpt>
      <trkpt lat="45.06438" lon="-0.57517">
        <ele>81.7</ele>
        <time>2024-11-23T08:35:32Z</time>
      </trkpt>
      <trkpt lat="45.06436" lon="-0.57518">
        <ele>81.8</ele>
        <time>2024-11-23T08:35:33Z</time>
      </trkpt>
      <trkpt lat="45.06435" lon="-0.57519">
        <ele>81.8</ele>
        <time>2024-11-23T08:35:34Z</time>
      </trkpt>
      <trkpt lat="45.06434" lon="-0.57519">
        <ele>81.9</ele>
        <time>2024-11-23T08:35:35Z</time>
      </trkpt>
      <trkpt lat="45.06433" lon="-0.5752">
        <ele>81.9</ele>
        <time>2024-11-23T08:35:36Z</time>
      </trkpt>
      <trkpt lat="45.06431" lon="-0.57521">
        <ele>82</ele>
        <time>2024-11-23T08:35:37Z</time>
      </trkpt>
      <trkpt lat="45.0643" lon="-0.57522">
        <ele>82</ele>
        <time>2024-11-23T08:35:38Z</time>
      </trkpt>
      <trkpt lat="45.06429" lon="-0.57523">
        <ele>82.1</ele>
        <time>2024-11-23T08:35:39Z</time>
      </trkpt>
      <trkpt lat="45.06427" lon="-0.57524">
        <ele>82.1</ele>
        <time>2024-11-23T08:35:40Z</time>
      </trkpt>
      <trkpt lat="45.06426" lon="-0.57524">
        <ele>82.2</ele>
        <time>2024-11-23T08:35:41Z</time>
      </trkpt>
      <trkpt lat="45.06376" lon="-0.57539">
        <ele>82.9</ele>
        <time>2024-11-23T08:36:09Z</time>
      </trkpt>
      <trkpt lat="45.06369" lon="-0.5754">
        <ele>82.8</ele>
        <time>2024-11-23T08:36:10Z</time>
      </trkpt>
      <trkpt lat="45.06361" lon="-0.5754">
        <ele>82.8</ele>
        <time>2024-11-23T08:36:11Z</time>
      </trkpt>
      <trkpt lat="45.06354" lon="-0.5754">
        <ele>82.7</ele>
        <time>2024-11-23T08:36:42Z</time>
      </trkpt>
      <trkpt lat="45.06346" lon="-0.57541">
        <ele>82.7</ele>
        <time>2024-11-23T08:36:43Z</time>
      </trkpt>
      <trkpt lat="45.06339" lon="-0.57541">
        <ele>82.7</ele>
        <time>2024-11-23T08:36:44Z</time>
      </trkpt>
      <trkpt lat="45.06331" lon="-0.57541">
        <ele>82.2</ele>
        <time>2024-11-23T08:36:45Z</time>
      </trkpt>
      <trkpt lat="45.06329" lon="-0.57543">
        <ele>82.1</ele>
        <time>2024-11-23T08:36:46Z</time>
      </trkpt>
      <trkpt lat="45.06329" lon="-0.57544">
        <ele>82</ele>
        <time>2024-11-23T08:36:47Z</time>
      </trkpt>
      <trkpt lat="45.06328" lon="-0.57545">
        <ele>81.9</ele>
        <time>2024-11-23T08:36:48Z</time>
      </trkpt>
      <trkpt lat="45.06327" lon="-0.57547">
        <ele>81.8</ele>
        <time>2024-11-23T08:36:49Z</time>
      </trkpt>
      <trkpt lat="45.06326" lon="-0.57548">
        <ele>81.7</ele>
        <time>2024-11-23T08:36:50Z</time>
      </trkpt>
      <trkpt lat="45.06325" lon="-0.5755">
        <ele>81.6</ele>
        <time>2024-11-23T08:36:51Z</time>
      </trkpt>
      <trkpt lat="45.06323" lon="-0.57551">
        <ele>81.5</ele>
        <time>2024-11-23T08:36:52Z</time>
      </trkpt>
      <trkpt lat="45.06322" lon="-0.57553">
        <ele>81.4</ele>
        <time>2024-11-23T08:36:53Z</time>
      </trkpt>
      <trkpt lat="45.06321" lon="-0.57554">
        <ele>81.3</ele>
        <time>2024-11-23T08:36:54Z</time>
      </trkpt>
      <trkpt lat="45.0632" lon="-0.57556">
        <ele>81.2</ele>
        <time>2024-11-23T08:36:55Z</time>
      </trkpt>
      <trkpt lat="45.06319" lon="-0.57557">
        <ele>81.1</ele>
        <time>2024-11-23T08:36:56Z</time>
      </trkpt>
      <trkpt lat="45.06287" lon="-0.57602">
        <ele>78.6</ele>
        <time>2024-11-23T08:37:27Z</time>
      </trkpt>
      <trkpt lat="45.06286" lon="-0.57603">
        <ele>78.5</ele>
        <time>2024-11-23T08:37:28Z</time>
      </trkpt>
      <trkpt lat="45.06286" lon="-0.57603">
        <ele>78.5</ele>
        <time>2024-11-23T08:37:29Z</time>
      </trkpt>
      <trkpt lat="45.06285" lon="-0.57604">
        <ele>78.4</ele>
        <time>2024-11-23T08:37:30Z</time>
      </trkpt>
      <trkpt lat="45.06283" lon="-0.57605">
        <ele>78.3</ele>
        <time>2024-11-23T08:37:31Z</time>
      </trkpt>
      <trkpt lat="45.06282" lon="-0.57606">
        <ele>78.2</ele>
        <time>2024-11-23T08:37:32Z</time>
      </trkpt>
      <trkpt lat="45.06281" lon="-0.57607">
        <ele>78.2</ele>
        <time>2024-11-23T08:37:33Z</time>
      </trkpt>
      <trkpt lat="45.0628" lon="-0.57608">
        <ele>78.1</ele>
        <time>2024-11-23T08:37:34Z</time>
      </trkpt>
      <trkpt lat="45.06278" lon="-0.5761">
        <ele>78</ele>
        <time>2024-11-23T08:37:35Z</time>
      </trkpt>
      <trkpt lat="45.06277" lon="-0.5761">
        <ele>77.9</ele>
        <time>2024-11-23T08:37:36Z</time>
      </trkpt>
      <trkpt lat="45.06276" lon="-0.5761">
        <ele>77.9</ele>
        <time>2024-11-23T08:37:37Z</time>
      </trkpt>
      <trkpt lat="45.06274" lon="-0.57612">
        <ele>77.8</ele>
        <time>2024-11-23T08:37:38Z</time>
      </trkpt>
      <trkpt lat="45.06273" lon="-0.57612">
        <ele>77.8</ele>
        <time>2024-11-23T08:37:39Z</time>
      </trkpt>
      <trkpt lat="45.06272" lon="-0.57612">
        <ele>77.8</ele>
        <time>2024-11-23T08:37:40Z</time>
      </trkpt>
      <trkpt lat="45.0627" lon="-0.57614">
        <ele>77.8</ele>
        <time>2024-11-23T08:37:41Z</time>
      </trkpt>
      <trkpt lat="45.06269" lon="-0.57614">
        <ele>77.7</ele>
        <time>2024-11-23T08:37:42Z</time>
      </trkpt>
      <trkpt lat="45.06268" lon="-0.57615">
        <ele>77.7</ele>
        <time>2024-11-23T08:37:43Z</time>
      </trkpt>
      <trkpt lat="45.06266" lon="-0.57616">
        <ele>77.7</ele>
        <time>2024-11-23T08:37:44Z</time>
      </trkpt>
      <trkpt lat="45.06266" lon="-0.57617">
        <ele>77.7</ele>
        <time>2024-11-23T08:37:45Z</time>
      </trkpt>
      <trkpt lat="45.06265" lon="-0.57618">
        <ele>77.7</ele>
        <time>2024-11-23T08:37:46Z</time>
      </trkpt>
      <trkpt lat="45.06264" lon="-0.57619">
        <ele>77.6</ele>
        <time>2024-11-23T08:37:47Z</time>
      </trkpt>
      <trkpt lat="45.06263" lon="-0.5762">
        <ele>77.6</ele>
        <time>2024-11-23T08:37:48Z</time>
      </trkpt>
      <trkpt lat="45.06261" lon="-0.57621">
        <ele>77.6</ele>
        <time>2024-11-23T08:37:49Z</time>
      </trkpt>
      <trkpt lat="45.06261" lon="-0.57623">
        <ele>77.6</ele>
        <time>2024-11-23T08:37:50Z</time>
      </trkpt>
      <trkpt lat="45.0626" lon="-0.57626">
        <ele>77.5</ele>
        <time>2024-11-23T08:37:51Z</time>
      </trkpt>
      <trkpt lat="45.0626" lon="-0.57627">
        <ele>77.5</ele>
        <time>2024-11-23T08:37:52Z</time>
      </trkpt>
      <trkpt lat="45.0626" lon="-0.57628">
        <ele>77.4</ele>
        <time>2024-11-23T08:37:53Z</time>
      </trkpt>
      <trkpt lat="45.0626" lon="-0.5763">
        <ele>77.4</ele>
        <time>2024-11-23T08:37:54Z</time>
      </trkpt>
      <trkpt lat="45.0626" lon="-0.57632">
        <ele>77.3</ele>
        <time>2024-11-23T08:37:55Z</time>
      </trkpt>
      <trkpt lat="45.0626" lon="-0.57634">
        <ele>77.2</ele>
        <time>2024-11-23T08:37:56Z</time>
      </trkpt>
      <trkpt lat="45.0626" lon="-0.57636">
        <ele>77.1</ele>
        <time>2024-11-23T08:37:57Z</time>
      </trkpt>
      <trkpt lat="45.0626" lon="-0.57639">
        <ele>77</ele>
        <time>2024-11-23T08:37:58Z</time>
      </trkpt>
      <trkpt lat="45.06259" lon="-0.5764">
        <ele>77</ele>
        <time>2024-11-23T08:37:59Z</time>
      </trkpt>
      <trkpt lat="45.06259" lon="-0.57641">
        <ele>77</ele>
        <time>2024-11-23T08:38:00Z</time>
      </trkpt>
      <trkpt lat="45.06259" lon="-0.57644">
        <ele>76.8</ele>
        <time>2024-11-23T08:38:01Z</time>
      </trkpt>
      <trkpt lat="45.06258" lon="-0.57645">
        <ele>76.8</ele>
        <time>2024-11-23T08:38:02Z</time>
      </trkpt>
      <trkpt lat="45.06258" lon="-0.57647">
        <ele>76.8</ele>
        <time>2024-11-23T08:38:03Z</time>
      </trkpt>
      <trkpt lat="45.06257" lon="-0.57648">
        <ele>76.7</ele>
        <time>2024-11-23T08:38:04Z</time>
      </trkpt>
      <trkpt lat="45.06257" lon="-0.5765">
        <ele>76.6</ele>
        <time>2024-11-23T08:38:05Z</time>
      </trkpt>
      <trkpt lat="45.06256" lon="-0.57652">
        <ele>76.5</ele>
        <time>2024-11-23T08:38:06Z</time>
      </trkpt>
      <trkpt lat="45.06255" lon="-0.57654">
        <ele>76.5</ele>
        <time>2024-11-23T08:38:07Z</time>
      </trkpt>
      <trkpt lat="45.06255" lon="-0.57658">
        <ele>76.3</ele>
        <time>2024-11-23T08:38:08Z</time>
      </trkpt>
      <trkpt lat="45.06254" lon="-0.57659">
        <ele>76.3</ele>
        <time>2024-11-23T08:38:09Z</time>
      </trkpt>
      <trkpt lat="45.06254" lon="-0.5766">
        <ele>76.2</ele>
        <time>2024-11-23T08:38:10Z</time>
      </trkpt>
      <trkpt lat="45.06254" lon="-0.57662">
        <ele>76.2</ele>
        <time>2024-11-23T08:38:11Z</time>
      </trkpt>
      <trkpt lat="45.06253" lon="-0.57664">
        <ele>76.1</ele>
        <time>2024-11-23T08:38:12Z</time>
      </trkpt>
      <trkpt lat="45.06253" lon="-0.57666">
        <ele>76</ele>
        <time>2024-11-23T08:38:13Z</time>
      </trkpt>
      <trkpt lat="45.06252" lon="-0.57668">
        <ele>75.9</ele>
        <time>2024-11-23T08:38:14Z</time>
      </trkpt>
      <trkpt lat="45.06251" lon="-0.57671">
        <ele>75.8</ele>
        <time>2024-11-23T08:38:15Z</time>
      </trkpt>
      <trkpt lat="45.06251" lon="-0.57672">
        <ele>75.7</ele>
        <time>2024-11-23T08:38:16Z</time>
      </trkpt>
      <trkpt lat="45.0625" lon="-0.57673">
        <ele>75.7</ele>
        <time>2024-11-23T08:38:17Z</time>
      </trkpt>
      <trkpt lat="45.0625" lon="-0.57675">
        <ele>75.6</ele>
        <time>2024-11-23T08:38:18Z</time>
      </trkpt>
      <trkpt lat="45.06249" lon="-0.57676">
        <ele>75.5</ele>
        <time>2024-11-23T08:38:19Z</time>
      </trkpt>
      <trkpt lat="45.06248" lon="-0.57679">
        <ele>75.4</ele>
        <time>2024-11-23T08:38:20Z</time>
      </trkpt>
      <trkpt lat="45.06248" lon="-0.5768">
        <ele>75.3</ele>
        <time>2024-11-23T08:38:21Z</time>
      </trkpt>
      <trkpt lat="45.06248" lon="-0.57681">
        <ele>75.3</ele>
        <time>2024-11-23T08:38:22Z</time>
      </trkpt>
      <trkpt lat="45.06247" lon="-0.57683">
        <ele>75.2</ele>
        <time>2024-11-23T08:38:23Z</time>
      </trkpt>
      <trkpt lat="45.06246" lon="-0.57685">
        <ele>75.1</ele>
        <time>2024-11-23T08:38:24Z</time>
      </trkpt>
      <trkpt lat="45.06246" lon="-0.57686">
        <ele>75</ele>
        <time>2024-11-23T08:38:25Z</time>
      </trkpt>
      <trkpt lat="45.06246" lon="-0.57688">
        <ele>75</ele>
        <time>2024-11-23T08:38:26Z</time>
      </trkpt>
      <trkpt lat="45.06245" lon="-0.5769">
        <ele>74.9</ele>
        <time>2024-11-23T08:38:27Z</time>
      </trkpt>
      <trkpt lat="45.06245" lon="-0.57693">
        <ele>74.7</ele>
        <time>2024-11-23T08:38:28Z</time>
      </trkpt>
      <trkpt lat="45.06245" lon="-0.57694">
        <ele>74.7</ele>
        <time>2024-11-23T08:38:29Z</time>
      </trkpt>
      <trkpt lat="45.06244" lon="-0.57696">
        <ele>74.6</ele>
        <time>2024-11-23T08:38:30Z</time>
      </trkpt>
      <trkpt lat="45.06244" lon="-0.57698">
        <ele>74.5</ele>
        <time>2024-11-23T08:38:31Z</time>
      </trkpt>
      <trkpt lat="45.06243" lon="-0.57699">
        <ele>74.4</ele>
        <time>2024-11-23T08:38:32Z</time>
      </trkpt>
      <trkpt lat="45.06243" lon="-0.57701">
        <ele>74.3</ele>
        <time>2024-11-23T08:38:33Z</time>
      </trkpt>
      <trkpt lat="45.06242" lon="-0.57703">
        <ele>74.2</ele>
        <time>2024-11-23T08:38:34Z</time>
      </trkpt>
      <trkpt lat="45.06241" lon="-0.57705">
        <ele>74.1</ele>
        <time>2024-11-23T08:38:35Z</time>
      </trkpt>
      <trkpt lat="45.06241" lon="-0.57707">
        <ele>74</ele>
        <time>2024-11-23T08:38:36Z</time>
      </trkpt>
      <trkpt lat="45.0624" lon="-0.5771">
        <ele>73.8</ele>
        <time>2024-11-23T08:38:37Z</time>
      </trkpt>
      <trkpt lat="45.06239" lon="-0.57711">
        <ele>73.8</ele>
        <time>2024-11-23T08:38:38Z</time>
      </trkpt>
      <trkpt lat="45.06239" lon="-0.57712">
        <ele>73.7</ele>
        <time>2024-11-23T08:38:39Z</time>
      </trkpt>
      <trkpt lat="45.06239" lon="-0.57714">
        <ele>73.6</ele>
        <time>2024-11-23T08:38:40Z</time>
      </trkpt>
      <trkpt lat="45.06238" lon="-0.57716">
        <ele>73.5</ele>
        <time>2024-11-23T08:38:41Z</time>
      </trkpt>
      <trkpt lat="45.06238" lon="-0.57719">
        <ele>73.3</ele>
        <time>2024-11-23T08:38:42Z</time>
      </trkpt>
      <trkpt lat="45.06237" lon="-0.5772">
        <ele>73.3</ele>
        <time>2024-11-23T08:38:43Z</time>
      </trkpt>
      <trkpt lat="45.06237" lon="-0.57721">
        <ele>73.2</ele>
        <time>2024-11-23T08:38:44Z</time>
      </trkpt>
      <trkpt lat="45.06237" lon="-0.57723">
        <ele>73.1</ele>
        <time>2024-11-23T08:38:45Z</time>
      </trkpt>
      <trkpt lat="45.06236" lon="-0.57724">
        <ele>73</ele>
        <time>2024-11-23T08:38:46Z</time>
      </trkpt>
      <trkpt lat="45.06235" lon="-0.57726">
        <ele>72.9</ele>
        <time>2024-11-23T08:38:47Z</time>
      </trkpt>
      <trkpt lat="45.06235" lon="-0.57728">
        <ele>72.8</ele>
        <time>2024-11-23T08:38:48Z</time>
      </trkpt>
      <trkpt lat="45.06235" lon="-0.57731">
        <ele>72.7</ele>
        <time>2024-11-23T08:38:49Z</time>
      </trkpt>
      <trkpt lat="45.06234" lon="-0.57732">
        <ele>72.6</ele>
        <time>2024-11-23T08:38:50Z</time>
      </trkpt>
      <trkpt lat="45.06234" lon="-0.57733">
        <ele>72.6</ele>
        <time>2024-11-23T08:38:51Z</time>
      </trkpt>
      <trkpt lat="45.06233" lon="-0.57735">
        <ele>72.5</ele>
        <time>2024-11-23T08:38:52Z</time>
      </trkpt>
      <trkpt lat="45.06233" lon="-0.57737">
        <ele>72.4</ele>
        <time>2024-11-23T08:38:53Z</time>
      </trkpt>
      <trkpt lat="45.06233" lon="-0.57739">
        <ele>72.3</ele>
        <time>2024-11-23T08:38:54Z</time>
      </trkpt>
      <trkpt lat="45.06232" lon="-0.57741">
        <ele>72.2</ele>
        <time>2024-11-23T08:38:55Z</time>
      </trkpt>
      <trkpt lat="45.06232" lon="-0.57743">
        <ele>72.1</ele>
        <time>2024-11-23T08:38:56Z</time>
      </trkpt>
      <trkpt lat="45.06232" lon="-0.57745">
        <ele>72</ele>
        <time>2024-11-23T08:38:57Z</time>
      </trkpt>
      <trkpt lat="45.06231" lon="-0.57748">
        <ele>71.8</ele>
        <time>2024-11-23T08:38:58Z</time>
      </trkpt>
      <trkpt lat="45.06231" lon="-0.5775">
        <ele>71.7</ele>
        <time>2024-11-23T08:38:59Z</time>
      </trkpt>
      <trkpt lat="45.06231" lon="-0.57751">
        <ele>71.7</ele>
        <time>2024-11-23T08:39:00Z</time>
      </trkpt>
      <trkpt lat="45.06231" lon="-0.57753">
        <ele>71.6</ele>
        <time>2024-11-23T08:39:01Z</time>
      </trkpt>
      <trkpt lat="45.06231" lon="-0.57755">
        <ele>71.5</ele>
        <time>2024-11-23T08:39:02Z</time>
      </trkpt>
      <trkpt lat="45.0623" lon="-0.57757">
        <ele>71.4</ele>
        <time>2024-11-23T08:39:03Z</time>
      </trkpt>
      <trkpt lat="45.0623" lon="-0.57759">
        <ele>71.3</ele>
        <time>2024-11-23T08:39:04Z</time>
      </trkpt>
      <trkpt lat="45.06229" lon="-0.57762">
        <ele>71.1</ele>
        <time>2024-11-23T08:39:05Z</time>
      </trkpt>
      <trkpt lat="45.06229" lon="-0.57763">
        <ele>71.1</ele>
        <time>2024-11-23T08:39:06Z</time>
      </trkpt>
      <trkpt lat="45.06229" lon="-0.57764">
        <ele>71</ele>
        <time>2024-11-23T08:39:07Z</time>
      </trkpt>
      <trkpt lat="45.06228" lon="-0.57766">
        <ele>70.9</ele>
        <time>2024-11-23T08:39:08Z</time>
      </trkpt>
      <trkpt lat="45.06228" lon="-0.57768">
        <ele>70.8</ele>
        <time>2024-11-23T08:39:09Z</time>
      </trkpt>
      <trkpt lat="45.06227" lon="-0.57771">
        <ele>70.7</ele>
        <time>2024-11-23T08:39:10Z</time>
      </trkpt>
      <trkpt lat="45.06227" lon="-0.57772">
        <ele>70.6</ele>
        <time>2024-11-23T08:39:11Z</time>
      </trkpt>
      <trkpt lat="45.06227" lon="-0.57773">
        <ele>70.6</ele>
        <time>2024-11-23T08:39:12Z</time>
      </trkpt>
      <trkpt lat="45.06226" lon="-0.57776">
        <ele>70.4</ele>
        <time>2024-11-23T08:39:13Z</time>
      </trkpt>
      <trkpt lat="45.06226" lon="-0.57777">
        <ele>70.4</ele>
        <time>2024-11-23T08:39:14Z</time>
      </trkpt>
      <trkpt lat="45.06226" lon="-0.57778">
        <ele>70.3</ele>
        <time>2024-11-23T08:39:15Z</time>
      </trkpt>
      <trkpt lat="45.06226" lon="-0.5778">
        <ele>70.2</ele>
        <time>2024-11-23T08:39:16Z</time>
      </trkpt>
      <trkpt lat="45.06226" lon="-0.57782">
        <ele>70.1</ele>
        <time>2024-11-23T08:39:17Z</time>
      </trkpt>
      <trkpt lat="45.06226" lon="-0.57785">
        <ele>70</ele>
        <time>2024-11-23T08:39:18Z</time>
      </trkpt>
      <trkpt lat="45.06225" lon="-0.57786">
        <ele>70</ele>
        <time>2024-11-23T08:39:19Z</time>
      </trkpt>
      <trkpt lat="45.06222" lon="-0.57802">
        <ele>69.3</ele>
        <time>2024-11-23T08:39:27Z</time>
      </trkpt>
      <trkpt lat="45.06222" lon="-0.57802">
        <ele>69.3</ele>
        <time>2024-11-23T08:39:28Z</time>
      </trkpt>
      <trkpt lat="45.06221" lon="-0.57804">
        <ele>69.2</ele>
        <time>2024-11-23T08:39:29Z</time>
      </trkpt>
      <trkpt lat="45.06221" lon="-0.57806">
        <ele>69.2</ele>
        <time>2024-11-23T08:39:30Z</time>
      </trkpt>
      <trkpt lat="45.06221" lon="-0.57808">
        <ele>69.1</ele>
        <time>2024-11-23T08:39:31Z</time>
      </trkpt>
      <trkpt lat="45.0622" lon="-0.57809">
        <ele>69</ele>
        <time>2024-11-23T08:39:32Z</time>
      </trkpt>
      <trkpt lat="45.0622" lon="-0.57811">
        <ele>69</ele>
        <time>2024-11-23T08:39:33Z</time>
      </trkpt>
      <trkpt lat="45.0622" lon="-0.57812">
        <ele>68.9</ele>
        <time>2024-11-23T08:39:34Z</time>
      </trkpt>
      <trkpt lat="45.0622" lon="-0.57812">
        <ele>68.9</ele>
        <time>2024-11-23T08:39:35Z</time>
      </trkpt>
      <trkpt lat="45.0622" lon="-0.57812">
        <ele>68.9</ele>
        <time>2024-11-23T08:39:36Z</time>
      </trkpt>
      <trkpt lat="45.0622" lon="-0.57812">
        <ele>68.9</ele>
        <time>2024-11-23T08:39:37Z</time>
      </trkpt>
      <trkpt lat="45.0622" lon="-0.57812">
        <ele>68.9</ele>
        <time>2024-11-23T08:39:38Z</time>
      </trkpt>
      <trkpt lat="45.0622" lon="-0.57812">
        <ele>68.9</ele>
        <time>2024-11-23T08:39:39Z</time>
      </trkpt>
      <trkpt lat="45.0622" lon="-0.57812">
        <ele>68.9</ele>
        <time>2024-11-23T08:39:40Z</time>
      </trkpt>
      <trkpt lat="45.0622" lon="-0.57812">
        <ele>68.9</ele>
        <time>2024-11-23T08:39:41Z</time>
      </trkpt>
      <trkpt lat="45.0622" lon="-0.57812">
        <ele>68.9</ele>
        <time>2024-11-23T08:39:42Z</time>
      </trkpt>
      <trkpt lat="45.0622" lon="-0.57812">
        <ele>68.9</ele>
        <time>2024-11-23T08:39:43Z</time>
      </trkpt>
      <trkpt lat="45.0622" lon="-0.57812">
        <ele>68.9</ele>
        <time>2024-11-23T08:39:44Z</time>
      </trkpt>
      <trkpt lat="45.0622" lon="-0.57812">
        <ele>68.9</ele>
        <time>2024-11-23T08:39:45Z</time>
      </trkpt>
      <trkpt lat="45.06219" lon="-0.57814">
        <ele>68.8</ele>
        <time>2024-11-23T08:39:46Z</time>
      </trkpt>
      <trkpt lat="45.06219" lon="-0.57815">
        <ele>68.7</ele>
        <time>2024-11-23T08:39:47Z</time>
      </trkpt>
      <trkpt lat="45.06218" lon="-0.57817">
        <ele>68.7</ele>
        <time>2024-11-23T08:39:48Z</time>
      </trkpt>
      <trkpt lat="45.06218" lon="-0.57818">
        <ele>68.6</ele>
        <time>2024-11-23T08:39:49Z</time>
      </trkpt>
      <trkpt lat="45.06218" lon="-0.57819">
        <ele>68.6</ele>
        <time>2024-11-23T08:39:50Z</time>
      </trkpt>
      <trkpt lat="45.06218" lon="-0.5782">
        <ele>68.5</ele>
        <time>2024-11-23T08:39:51Z</time>
      </trkpt>
      <trkpt lat="45.06217" lon="-0.57822">
        <ele>68.5</ele>
        <time>2024-11-23T08:39:52Z</time>
      </trkpt>
      <trkpt lat="45.06217" lon="-0.57823">
        <ele>68.5</ele>
        <time>2024-11-23T08:39:53Z</time>
      </trkpt>
      <trkpt lat="45.06217" lon="-0.57825">
        <ele>68.4</ele>
        <time>2024-11-23T08:39:54Z</time>
      </trkpt>
      <trkpt lat="45.06216" lon="-0.57826">
        <ele>68.4</ele>
        <time>2024-11-23T08:39:55Z</time>
      </trkpt>
      <trkpt lat="45.06216" lon="-0.57828">
        <ele>68.3</ele>
        <time>2024-11-23T08:39:56Z</time>
      </trkpt>
      <trkpt lat="45.06216" lon="-0.57829">
        <ele>68.3</ele>
        <time>2024-11-23T08:39:57Z</time>
      </trkpt>
      <trkpt lat="45.06216" lon="-0.57831">
        <ele>68.2</ele>
        <time>2024-11-23T08:39:58Z</time>
      </trkpt>
      <trkpt lat="45.06216" lon="-0.57832">
        <ele>68.2</ele>
        <time>2024-11-23T08:39:59Z</time>
      </trkpt>
      <trkpt lat="45.06216" lon="-0.57834">
        <ele>68.1</ele>
        <time>2024-11-23T08:40:00Z</time>
      </trkpt>
      <trkpt lat="45.06216" lon="-0.57835">
        <ele>68.1</ele>
        <time>2024-11-23T08:40:01Z</time>
      </trkpt>
      <trkpt lat="45.06216" lon="-0.57837">
        <ele>68</ele>
        <time>2024-11-23T08:40:02Z</time>
      </trkpt>
      <trkpt lat="45.06215" lon="-0.57838">
        <ele>68</ele>
        <time>2024-11-23T08:40:03Z</time>
      </trkpt>
      <trkpt lat="45.06215" lon="-0.5784">
        <ele>68</ele>
        <time>2024-11-23T08:40:04Z</time>
      </trkpt>
      <trkpt lat="45.06215" lon="-0.57842">
        <ele>67.9</ele>
        <time>2024-11-23T08:40:05Z</time>
      </trkpt>
      <trkpt lat="45.06214" lon="-0.57844">
        <ele>67.8</ele>
        <time>2024-11-23T08:40:06Z</time>
      </trkpt>
      <trkpt lat="45.06214" lon="-0.57846">
        <ele>67.8</ele>
        <time>2024-11-23T08:40:07Z</time>
      </trkpt>
      <trkpt lat="45.06213" lon="-0.57847">
        <ele>67.8</ele>
        <time>2024-11-23T08:40:08Z</time>
      </trkpt>
      <trkpt lat="45.06213" lon="-0.57848">
        <ele>67.7</ele>
        <time>2024-11-23T08:40:09Z</time>
      </trkpt>
      <trkpt lat="45.06212" lon="-0.57849">
        <ele>67.7</ele>
        <time>2024-11-23T08:40:10Z</time>
      </trkpt>
      <trkpt lat="45.06212" lon="-0.57851">
        <ele>67.6</ele>
        <time>2024-11-23T08:40:11Z</time>
      </trkpt>
      <trkpt lat="45.06212" lon="-0.57853">
        <ele>67.6</ele>
        <time>2024-11-23T08:40:12Z</time>
      </trkpt>
      <trkpt lat="45.06211" lon="-0.57855">
        <ele>67.5</ele>
        <time>2024-11-23T08:40:13Z</time>
      </trkpt>
      <trkpt lat="45.06211" lon="-0.57857">
        <ele>67.5</ele>
        <time>2024-11-23T08:40:14Z</time>
      </trkpt>
      <trkpt lat="45.06211" lon="-0.57859">
        <ele>67.4</ele>
        <time>2024-11-23T08:40:15Z</time>
      </trkpt>
      <trkpt lat="45.06211" lon="-0.57862">
        <ele>67.3</ele>
        <time>2024-11-23T08:40:16Z</time>
      </trkpt>
      <trkpt lat="45.06211" lon="-0.57863">
        <ele>67.3</ele>
        <time>2024-11-23T08:40:17Z</time>
      </trkpt>
      <trkpt lat="45.0621" lon="-0.57865">
        <ele>67.2</ele>
        <time>2024-11-23T08:40:18Z</time>
      </trkpt>
      <trkpt lat="45.0621" lon="-0.57866">
        <ele>67.2</ele>
        <time>2024-11-23T08:40:19Z</time>
      </trkpt>
      <trkpt lat="45.06209" lon="-0.57868">
        <ele>67.1</ele>
        <time>2024-11-23T08:40:20Z</time>
      </trkpt>
      <trkpt lat="45.06209" lon="-0.5787">
        <ele>67.1</ele>
        <time>2024-11-23T08:40:21Z</time>
      </trkpt>
      <trkpt lat="45.06209" lon="-0.57871">
        <ele>67</ele>
        <time>2024-11-23T08:40:22Z</time>
      </trkpt>
      <trkpt lat="45.06209" lon="-0.57873">
        <ele>67</ele>
        <time>2024-11-23T08:40:23Z</time>
      </trkpt>
      <trkpt lat="45.06209" lon="-0.57875">
        <ele>66.9</ele>
        <time>2024-11-23T08:40:24Z</time>
      </trkpt>
      <trkpt lat="45.06209" lon="-0.57877">
        <ele>66.9</ele>
        <time>2024-11-23T08:40:25Z</time>
      </trkpt>
      <trkpt lat="45.06209" lon="-0.5788">
        <ele>66.8</ele>
        <time>2024-11-23T08:40:26Z</time>
      </trkpt>
      <trkpt lat="45.06209" lon="-0.57881">
        <ele>66.8</ele>
        <time>2024-11-23T08:40:27Z</time>
      </trkpt>
      <trkpt lat="45.06209" lon="-0.57883">
        <ele>66.7</ele>
        <time>2024-11-23T08:40:28Z</time>
      </trkpt>
      <trkpt lat="45.06209" lon="-0.57885">
        <ele>66.7</ele>
        <time>2024-11-23T08:40:29Z</time>
      </trkpt>
      <trkpt lat="45.06209" lon="-0.57886">
        <ele>66.6</ele>
        <time>2024-11-23T08:40:30Z</time>
      </trkpt>
      <trkpt lat="45.0621" lon="-0.57889">
        <ele>66.5</ele>
        <time>2024-11-23T08:40:31Z</time>
      </trkpt>
      <trkpt lat="45.0621" lon="-0.57891">
        <ele>66.5</ele>
        <time>2024-11-23T08:40:32Z</time>
      </trkpt>
      <trkpt lat="45.0621" lon="-0.57892">
        <ele>66.5</ele>
        <time>2024-11-23T08:40:33Z</time>
      </trkpt>
      <trkpt lat="45.06211" lon="-0.57894">
        <ele>66.4</ele>
        <time>2024-11-23T08:40:34Z</time>
      </trkpt>
      <trkpt lat="45.06211" lon="-0.57896">
        <ele>66.3</ele>
        <time>2024-11-23T08:40:35Z</time>
      </trkpt>
      <trkpt lat="45.06212" lon="-0.57897">
        <ele>66.3</ele>
        <time>2024-11-23T08:40:36Z</time>
      </trkpt>
      <trkpt lat="45.06212" lon="-0.57899">
        <ele>66.2</ele>
        <time>2024-11-23T08:40:37Z</time>
      </trkpt>
      <trkpt lat="45.06213" lon="-0.57902">
        <ele>66.1</ele>
        <time>2024-11-23T08:40:38Z</time>
      </trkpt>
      <trkpt lat="45.06213" lon="-0.57903">
        <ele>66.1</ele>
        <time>2024-11-23T08:40:39Z</time>
      </trkpt>
      <trkpt lat="45.06214" lon="-0.57904">
        <ele>66.1</ele>
        <time>2024-11-23T08:40:40Z</time>
      </trkpt>
      <trkpt lat="45.06214" lon="-0.57906">
        <ele>66</ele>
        <time>2024-11-23T08:40:41Z</time>
      </trkpt>
      <trkpt lat="45.06215" lon="-0.57907">
        <ele>65.9</ele>
        <time>2024-11-23T08:40:42Z</time>
      </trkpt>
      <trkpt lat="45.06217" lon="-0.5791">
        <ele>65.8</ele>
        <time>2024-11-23T08:40:43Z</time>
      </trkpt>
      <trkpt lat="45.06217" lon="-0.5791">
        <ele>65.8</ele>
        <time>2024-11-23T08:40:44Z</time>
      </trkpt>
      <trkpt lat="45.06218" lon="-0.57911">
        <ele>65.7</ele>
        <time>2024-11-23T08:40:45Z</time>
      </trkpt>
      <trkpt lat="45.06219" lon="-0.57914">
        <ele>65.6</ele>
        <time>2024-11-23T08:40:46Z</time>
      </trkpt>
      <trkpt lat="45.0622" lon="-0.57915">
        <ele>65.6</ele>
        <time>2024-11-23T08:40:47Z</time>
      </trkpt>
      <trkpt lat="45.0622" lon="-0.57916">
        <ele>65.5</ele>
        <time>2024-11-23T08:40:48Z</time>
      </trkpt>
      <trkpt lat="45.06221" lon="-0.57918">
        <ele>65.5</ele>
        <time>2024-11-23T08:40:49Z</time>
      </trkpt>
      <trkpt lat="45.06222" lon="-0.57919">
        <ele>65.4</ele>
        <time>2024-11-23T08:40:50Z</time>
      </trkpt>
      <trkpt lat="45.06223" lon="-0.57922">
        <ele>65.3</ele>
        <time>2024-11-23T08:40:51Z</time>
      </trkpt>
      <trkpt lat="45.06223" lon="-0.57923">
        <ele>65.3</ele>
        <time>2024-11-23T08:40:52Z</time>
      </trkpt>
      <trkpt lat="45.06224" lon="-0.57924">
        <ele>65.2</ele>
        <time>2024-11-23T08:40:53Z</time>
      </trkpt>
      <trkpt lat="45.06225" lon="-0.57927">
        <ele>65.1</ele>
        <time>2024-11-23T08:40:54Z</time>
      </trkpt>
      <trkpt lat="45.06226" lon="-0.57928">
        <ele>65.1</ele>
        <time>2024-11-23T08:40:55Z</time>
      </trkpt>
      <trkpt lat="45.06226" lon="-0.57929">
        <ele>65</ele>
        <time>2024-11-23T08:40:56Z</time>
      </trkpt>
      <trkpt lat="45.06227" lon="-0.57931">
        <ele>64.9</ele>
        <time>2024-11-23T08:40:57Z</time>
      </trkpt>
      <trkpt lat="45.06228" lon="-0.57933">
        <ele>64.9</ele>
        <time>2024-11-23T08:40:58Z</time>
      </trkpt>
      <trkpt lat="45.06229" lon="-0.57935">
        <ele>64.8</ele>
        <time>2024-11-23T08:40:59Z</time>
      </trkpt>
      <trkpt lat="45.06229" lon="-0.57936">
        <ele>64.8</ele>
        <time>2024-11-23T08:41:00Z</time>
      </trkpt>
      <trkpt lat="45.06229" lon="-0.57938">
        <ele>64.7</ele>
        <time>2024-11-23T08:41:01Z</time>
      </trkpt>
      <trkpt lat="45.0623" lon="-0.5794">
        <ele>64.7</ele>
        <time>2024-11-23T08:41:02Z</time>
      </trkpt>
      <trkpt lat="45.0623" lon="-0.57941">
        <ele>64.6</ele>
        <time>2024-11-23T08:41:03Z</time>
      </trkpt>
      <trkpt lat="45.06231" lon="-0.57942">
        <ele>64.6</ele>
        <time>2024-11-23T08:41:04Z</time>
      </trkpt>
      <trkpt lat="45.06231" lon="-0.57945">
        <ele>64.5</ele>
        <time>2024-11-23T08:41:05Z</time>
      </trkpt>
      <trkpt lat="45.06231" lon="-0.57946">
        <ele>64.5</ele>
        <time>2024-11-23T08:41:06Z</time>
      </trkpt>
      <trkpt lat="45.06232" lon="-0.57948">
        <ele>64.4</ele>
        <time>2024-11-23T08:41:07Z</time>
      </trkpt>
      <trkpt lat="45.06232" lon="-0.57951">
        <ele>64.4</ele>
        <time>2024-11-23T08:41:08Z</time>
      </trkpt>
      <trkpt lat="45.06232" lon="-0.57952">
        <ele>64.3</ele>
        <time>2024-11-23T08:41:09Z</time>
      </trkpt>
      <trkpt lat="45.06232" lon="-0.57953">
        <ele>64.3</ele>
        <time>2024-11-23T08:41:10Z</time>
      </trkpt>
      <trkpt lat="45.06232" lon="-0.57956">
        <ele>64.2</ele>
        <time>2024-11-23T08:41:11Z</time>
      </trkpt>
      <trkpt lat="45.06233" lon="-0.57957">
        <ele>64.2</ele>
        <time>2024-11-23T08:41:12Z</time>
      </trkpt>
      <trkpt lat="45.06233" lon="-0.57959">
        <ele>64.1</ele>
        <time>2024-11-23T08:41:13Z</time>
      </trkpt>
      <trkpt lat="45.06233" lon="-0.57961">
        <ele>64.1</ele>
        <time>2024-11-23T08:41:14Z</time>
      </trkpt>
      <trkpt lat="45.06233" lon="-0.57963">
        <ele>64</ele>
        <time>2024-11-23T08:41:15Z</time>
      </trkpt>
      <trkpt lat="45.06233" lon="-0.57965">
        <ele>64</ele>
        <time>2024-11-23T08:41:16Z</time>
      </trkpt>
      <trkpt lat="45.06232" lon="-0.57967">
        <ele>63.9</ele>
        <time>2024-11-23T08:41:17Z</time>
      </trkpt>
      <trkpt lat="45.06232" lon="-0.57969">
        <ele>63.9</ele>
        <time>2024-11-23T08:41:18Z</time>
      </trkpt>
      <trkpt lat="45.06232" lon="-0.5797">
        <ele>63.8</ele>
        <time>2024-11-23T08:41:19Z</time>
      </trkpt>
      <trkpt lat="45.0623" lon="-0.57989">
        <ele>63.4</ele>
        <time>2024-11-23T08:41:20Z</time>
      </trkpt>
      <trkpt lat="45.06228" lon="-0.58004">
        <ele>63.1</ele>
        <time>2024-11-23T08:41:21Z</time>
      </trkpt>
      <trkpt lat="45.06226" lon="-0.5802">
        <ele>62.8</ele>
        <time>2024-11-23T08:42:09Z</time>
      </trkpt>
      <trkpt lat="45.06224" lon="-0.58036">
        <ele>62.7</ele>
        <time>2024-11-23T08:42:10Z</time>
      </trkpt>
      <trkpt lat="45.06222" lon="-0.58052">
        <ele>62.5</ele>
        <time>2024-11-23T08:42:11Z</time>
      </trkpt>
      <trkpt lat="45.06219" lon="-0.58067">
        <ele>62.5</ele>
        <time>2024-11-23T08:42:12Z</time>
      </trkpt>
      <trkpt lat="45.06219" lon="-0.5807">
        <ele>62.5</ele>
        <time>2024-11-23T08:42:13Z</time>
      </trkpt>
      <trkpt lat="45.06219" lon="-0.58072">
        <ele>62.5</ele>
        <time>2024-11-23T08:42:14Z</time>
      </trkpt>
      <trkpt lat="45.06219" lon="-0.58073">
        <ele>62.5</ele>
        <time>2024-11-23T08:42:15Z</time>
      </trkpt>
      <trkpt lat="45.06219" lon="-0.58074">
        <ele>62.5</ele>
        <time>2024-11-23T08:42:16Z</time>
      </trkpt>
      <trkpt lat="45.06219" lon="-0.58076">
        <ele>62.5</ele>
        <time>2024-11-23T08:42:17Z</time>
      </trkpt>
      <trkpt lat="45.06219" lon="-0.58078">
        <ele>62.5</ele>
        <time>2024-11-23T08:42:18Z</time>
      </trkpt>
      <trkpt lat="45.06219" lon="-0.58079">
        <ele>62.5</ele>
        <time>2024-11-23T08:42:19Z</time>
      </trkpt>
      <trkpt lat="45.06218" lon="-0.58081">
        <ele>62.5</ele>
        <time>2024-11-23T08:42:20Z</time>
      </trkpt>
      <trkpt lat="45.06218" lon="-0.58083">
        <ele>62.5</ele>
        <time>2024-11-23T08:42:21Z</time>
      </trkpt>
      <trkpt lat="45.06195" lon="-0.58171">
        <ele>61.1</ele>
        <time>2024-11-23T08:43:09Z</time>
      </trkpt>
      <trkpt lat="45.06194" lon="-0.58173">
        <ele>61</ele>
        <time>2024-11-23T08:43:10Z</time>
      </trkpt>
      <trkpt lat="45.06193" lon="-0.58175">
        <ele>60.9</ele>
        <time>2024-11-23T08:43:11Z</time>
      </trkpt>
      <trkpt lat="45.06191" lon="-0.58177">
        <ele>60.8</ele>
        <time>2024-11-23T08:43:12Z</time>
      </trkpt>
      <trkpt lat="45.0619" lon="-0.58179">
        <ele>60.7</ele>
        <time>2024-11-23T08:43:13Z</time>
      </trkpt>
      <trkpt lat="45.06189" lon="-0.58181">
        <ele>60.6</ele>
        <time>2024-11-23T08:43:14Z</time>
      </trkpt>
      <trkpt lat="45.06188" lon="-0.58183">
        <ele>60.5</ele>
        <time>2024-11-23T08:43:15Z</time>
      </trkpt>
      <trkpt lat="45.06187" lon="-0.58185">
        <ele>60.5</ele>
        <time>2024-11-23T08:43:16Z</time>
      </trkpt>
      <trkpt lat="45.06186" lon="-0.58186">
        <ele>60.4</ele>
        <time>2024-11-23T08:43:17Z</time>
      </trkpt>
      <trkpt lat="45.06185" lon="-0.58188">
        <ele>60.3</ele>
        <time>2024-11-23T08:43:18Z</time>
      </trkpt>
      <trkpt lat="45.06184" lon="-0.5819">
        <ele>60.2</ele>
        <time>2024-11-23T08:43:19Z</time>
      </trkpt>
      <trkpt lat="45.06183" lon="-0.58191">
        <ele>60.1</ele>
        <time>2024-11-23T08:43:20Z</time>
      </trkpt>
      <trkpt lat="45.06176" lon="-0.58201">
        <ele>59.7</ele>
        <time>2024-11-23T08:43:21Z</time>
      </trkpt>
      <trkpt lat="45.06171" lon="-0.5821">
        <ele>59.3</ele>
        <time>2024-11-23T08:43:45Z</time>
      </trkpt>
      <trkpt lat="45.06166" lon="-0.58218">
        <ele>58.9</ele>
        <time>2024-11-23T08:43:46Z</time>
      </trkpt>
      <trkpt lat="45.06161" lon="-0.58227">
        <ele>58.5</ele>
        <time>2024-11-23T08:43:47Z</time>
      </trkpt>
      <trkpt lat="45.06155" lon="-0.58236">
        <ele>58.1</ele>
        <time>2024-11-23T08:43:48Z</time>
      </trkpt>
      <trkpt lat="45.06154" lon="-0.58237">
        <ele>58.1</ele>
        <time>2024-11-23T08:43:49Z</time>
      </trkpt>
      <trkpt lat="45.06153" lon="-0.58239">
        <ele>58</ele>
        <time>2024-11-23T08:43:50Z</time>
      </trkpt>
      <trkpt lat="45.06143" lon="-0.58256">
        <ele>57.4</ele>
        <time>2024-11-23T08:43:51Z</time>
      </trkpt>
      <trkpt lat="45.06134" lon="-0.58272">
        <ele>56.9</ele>
        <time>2024-11-23T08:44:39Z</time>
      </trkpt>
      <trkpt lat="45.06125" lon="-0.58288">
        <ele>56.4</ele>
        <time>2024-11-23T08:44:40Z</time>
      </trkpt>
      <trkpt lat="45.06116" lon="-0.58304">
        <ele>55.9</ele>
        <time>2024-11-23T08:44:41Z</time>
      </trkpt>
      <trkpt lat="45.06107" lon="-0.58319">
        <ele>55.4</ele>
        <time>2024-11-23T08:44:42Z</time>
      </trkpt>
      <trkpt lat="45.06106" lon="-0.58321">
        <ele>55.4</ele>
        <time>2024-11-23T08:44:43Z</time>
      </trkpt>
      <trkpt lat="45.06105" lon="-0.58323">
        <ele>55.3</ele>
        <time>2024-11-23T08:44:44Z</time>
      </trkpt>
      <trkpt lat="45.06104" lon="-0.58325">
        <ele>55.2</ele>
        <time>2024-11-23T08:44:45Z</time>
      </trkpt>
      <trkpt lat="45.06103" lon="-0.58326">
        <ele>55.1</ele>
        <time>2024-11-23T08:44:46Z</time>
      </trkpt>
      <trkpt lat="45.06102" lon="-0.58328">
        <ele>55.1</ele>
        <time>2024-11-23T08:44:47Z</time>
      </trkpt>
      <trkpt lat="45.06101" lon="-0.58329">
        <ele>55</ele>
        <time>2024-11-23T08:44:48Z</time>
      </trkpt>
      <trkpt lat="45.06099" lon="-0.58332">
        <ele>54.9</ele>
        <time>2024-11-23T08:44:49Z</time>
      </trkpt>
      <trkpt lat="45.06099" lon="-0.58333">
        <ele>54.8</ele>
        <time>2024-11-23T08:44:50Z</time>
      </trkpt>
      <trkpt lat="45.06098" lon="-0.58334">
        <ele>54.8</ele>
        <time>2024-11-23T08:44:51Z</time>
      </trkpt>
      <trkpt lat="45.06034" lon="-0.58379">
        <ele>51.6</ele>
        <time>2024-11-23T08:45:39Z</time>
      </trkpt>
      <trkpt lat="45.06034" lon="-0.5838">
        <ele>51.5</ele>
        <time>2024-11-23T08:45:40Z</time>
      </trkpt>
      <trkpt lat="45.06033" lon="-0.58381">
        <ele>51.5</ele>
        <time>2024-11-23T08:45:41Z</time>
      </trkpt>
      <trkpt lat="45.06033" lon="-0.58382">
        <ele>51.4</ele>
        <time>2024-11-23T08:45:42Z</time>
      </trkpt>
      <trkpt lat="45.06033" lon="-0.58384">
        <ele>51.7</ele>
        <time>2024-11-23T08:45:43Z</time>
      </trkpt>
      <trkpt lat="45.06033" lon="-0.58386">
        <ele>51.8</ele>
        <time>2024-11-23T08:45:44Z</time>
      </trkpt>
      <trkpt lat="45.06034" lon="-0.58389">
        <ele>52</ele>
        <time>2024-11-23T08:45:45Z</time>
      </trkpt>
      <trkpt lat="45.06035" lon="-0.5839">
        <ele>52</ele>
        <time>2024-11-23T08:45:46Z</time>
      </trkpt>
      <trkpt lat="45.06035" lon="-0.58391">
        <ele>52.1</ele>
        <time>2024-11-23T08:45:47Z</time>
      </trkpt>
      <trkpt lat="45.06036" lon="-0.58392">
        <ele>52.2</ele>
        <time>2024-11-23T08:45:48Z</time>
      </trkpt>
      <trkpt lat="45.06037" lon="-0.58394">
        <ele>52.3</ele>
        <time>2024-11-23T08:45:49Z</time>
      </trkpt>
      <trkpt lat="45.06041" lon="-0.58403">
        <ele>53</ele>
        <time>2024-11-23T08:45:50Z</time>
      </trkpt>
      <trkpt lat="45.06044" lon="-0.58411">
        <ele>53.5</ele>
        <time>2024-11-23T08:45:51Z</time>
      </trkpt>
      <trkpt lat="45.06047" lon="-0.58419">
        <ele>54</ele>
        <time>2024-11-23T08:46:17Z</time>
      </trkpt>
      <trkpt lat="45.0605" lon="-0.58427">
        <ele>54.5</ele>
        <time>2024-11-23T08:46:18Z</time>
      </trkpt>
      <trkpt lat="45.06053" lon="-0.58434">
        <ele>55.1</ele>
        <time>2024-11-23T08:46:19Z</time>
      </trkpt>
      <trkpt lat="45.06056" lon="-0.58442">
        <ele>55.7</ele>
        <time>2024-11-23T08:46:20Z</time>
      </trkpt>
      <trkpt lat="45.06062" lon="-0.58456">
        <ele>56.8</ele>
        <time>2024-11-23T08:46:21Z</time>
      </trkpt>
      <trkpt lat="45.06068" lon="-0.58467">
        <ele>57.7</ele>
        <time>2024-11-23T08:46:52Z</time>
      </trkpt>
      <trkpt lat="45.06074" lon="-0.58479">
        <ele>58.6</ele>
        <time>2024-11-23T08:46:53Z</time>
      </trkpt>
      <trkpt lat="45.0608" lon="-0.5849">
        <ele>59.5</ele>
        <time>2024-11-23T08:46:54Z</time>
      </trkpt>
      <trkpt lat="45.06082" lon="-0.58493">
        <ele>59.7</ele>
        <time>2024-11-23T08:46:55Z</time>
      </trkpt>
      <trkpt lat="45.06082" lon="-0.58493">
        <ele>59.8</ele>
        <time>2024-11-23T08:46:56Z</time>
      </trkpt>
      <trkpt lat="45.06083" lon="-0.58494">
        <ele>59.9</ele>
        <time>2024-11-23T08:46:57Z</time>
      </trkpt>
      <trkpt lat="45.06084" lon="-0.58497">
        <ele>60.1</ele>
        <time>2024-11-23T08:46:58Z</time>
      </trkpt>
      <trkpt lat="45.06085" lon="-0.58498">
        <ele>60.1</ele>
        <time>2024-11-23T08:46:59Z</time>
      </trkpt>
      <trkpt lat="45.06085" lon="-0.58498">
        <ele>60.2</ele>
        <time>2024-11-23T08:47:00Z</time>
      </trkpt>
      <trkpt lat="45.06086" lon="-0.585">
        <ele>60.3</ele>
        <time>2024-11-23T08:47:01Z</time>
      </trkpt>
      <trkpt lat="45.06087" lon="-0.58501">
        <ele>60.5</ele>
        <time>2024-11-23T08:47:02Z</time>
      </trkpt>
      <trkpt lat="45.06088" lon="-0.58503">
        <ele>60.6</ele>
        <time>2024-11-23T08:47:03Z</time>
      </trkpt>
      <trkpt lat="45.06088" lon="-0.58504">
        <ele>60.7</ele>
        <time>2024-11-23T08:47:04Z</time>
      </trkpt>
      <trkpt lat="45.06089" lon="-0.58505">
        <ele>60.8</ele>
        <time>2024-11-23T08:47:05Z</time>
      </trkpt>
      <trkpt lat="45.06095" lon="-0.58515">
        <ele>61.6</ele>
        <time>2024-11-23T08:47:06Z</time>
      </trkpt>
      <trkpt lat="45.061" lon="-0.58525">
        <ele>62.4</ele>
        <time>2024-11-23T08:47:37Z</time>
      </trkpt>
      <trkpt lat="45.06105" lon="-0.58534">
        <ele>63.2</ele>
        <time>2024-11-23T08:47:38Z</time>
      </trkpt>
      <trkpt lat="45.06111" lon="-0.58543">
        <ele>63.9</ele>
        <time>2024-11-23T08:47:39Z</time>
      </trkpt>
      <trkpt lat="45.06116" lon="-0.58552">
        <ele>64.5</ele>
        <time>2024-11-23T08:47:40Z</time>
      </trkpt>
      <trkpt lat="45.06117" lon="-0.58554">
        <ele>64.6</ele>
        <time>2024-11-23T08:47:41Z</time>
      </trkpt>
      <trkpt lat="45.06118" lon="-0.58556">
        <ele>64.7</ele>
        <time>2024-11-23T08:47:42Z</time>
      </trkpt>
      <trkpt lat="45.06119" lon="-0.58558">
        <ele>64.9</ele>
        <time>2024-11-23T08:47:43Z</time>
      </trkpt>
      <trkpt lat="45.06119" lon="-0.58559">
        <ele>64.9</ele>
        <time>2024-11-23T08:47:44Z</time>
      </trkpt>
      <trkpt lat="45.0612" lon="-0.5856">
        <ele>65</ele>
        <time>2024-11-23T08:47:45Z</time>
      </trkpt>
      <trkpt lat="45.06121" lon="-0.58562">
        <ele>65.1</ele>
        <time>2024-11-23T08:47:46Z</time>
      </trkpt>
      <trkpt lat="45.06121" lon="-0.58563">
        <ele>65.2</ele>
        <time>2024-11-23T08:47:47Z</time>
      </trkpt>
      <trkpt lat="45.06122" lon="-0.58564">
        <ele>65.3</ele>
        <time>2024-11-23T08:47:48Z</time>
      </trkpt>
      <trkpt lat="45.06123" lon="-0.58567">
        <ele>65.4</ele>
        <time>2024-11-23T08:47:49Z</time>
      </trkpt>
      <trkpt lat="45.06124" lon="-0.58567">
        <ele>65.4</ele>
        <time>2024-11-23T08:47:50Z</time>
      </trkpt>
      <trkpt lat="45.06124" lon="-0.58568">
        <ele>65.5</ele>
        <time>2024-11-23T08:47:51Z</time>
      </trkpt>
      <trkpt lat="45.06151" lon="-0.58615">
        <ele>68.8</ele>
        <time>2024-11-23T08:48:23Z</time>
      </trkpt>
      <trkpt lat="45.06152" lon="-0.58616">
        <ele>68.9</ele>
        <time>2024-11-23T08:48:24Z</time>
      </trkpt>
      <trkpt lat="45.06152" lon="-0.58617">
        <ele>69</ele>
        <time>2024-11-23T08:48:25Z</time>
      </trkpt>
      <trkpt lat="45.06153" lon="-0.58618">
        <ele>69</ele>
        <time>2024-11-23T08:48:26Z</time>
      </trkpt>
      <trkpt lat="45.06154" lon="-0.5862">
        <ele>69.2</ele>
        <time>2024-11-23T08:48:27Z</time>
      </trkpt>
      <trkpt lat="45.06154" lon="-0.58621">
        <ele>69.2</ele>
        <time>2024-11-23T08:48:28Z</time>
      </trkpt>
      <trkpt lat="45.06155" lon="-0.58622">
        <ele>69.3</ele>
        <time>2024-11-23T08:48:29Z</time>
      </trkpt>
      <trkpt lat="45.06156" lon="-0.58624">
        <ele>69.5</ele>
        <time>2024-11-23T08:48:30Z</time>
      </trkpt>
      <trkpt lat="45.06156" lon="-0.58626">
        <ele>69.6</ele>
        <time>2024-11-23T08:48:31Z</time>
      </trkpt>
      <trkpt lat="45.06157" lon="-0.58627">
        <ele>69.7</ele>
        <time>2024-11-23T08:48:32Z</time>
      </trkpt>
      <trkpt lat="45.06158" lon="-0.58629">
        <ele>69.9</ele>
        <time>2024-11-23T08:48:33Z</time>
      </trkpt>
      <trkpt lat="45.06158" lon="-0.5863">
        <ele>69.9</ele>
        <time>2024-11-23T08:48:34Z</time>
      </trkpt>
      <trkpt lat="45.06159" lon="-0.58631">
        <ele>70</ele>
        <time>2024-11-23T08:48:35Z</time>
      </trkpt>
      <trkpt lat="45.0616" lon="-0.58633">
        <ele>70.1</ele>
        <time>2024-11-23T08:48:36Z</time>
      </trkpt>
      <trkpt lat="45.0616" lon="-0.58634">
        <ele>70.3</ele>
        <time>2024-11-23T08:48:37Z</time>
      </trkpt>
      <trkpt lat="45.06186" lon="-0.5868">
        <ele>72.2</ele>
        <time>2024-11-23T08:49:08Z</time>
      </trkpt>
      <trkpt lat="45.06187" lon="-0.58682">
        <ele>72.2</ele>
        <time>2024-11-23T08:49:09Z</time>
      </trkpt>
      <trkpt lat="45.06188" lon="-0.58684">
        <ele>72.3</ele>
        <time>2024-11-23T08:49:10Z</time>
      </trkpt>
      <trkpt lat="45.06189" lon="-0.58686">
        <ele>72.3</ele>
        <time>2024-11-23T08:49:11Z</time>
      </trkpt>
      <trkpt lat="45.0619" lon="-0.58687">
        <ele>72.3</ele>
        <time>2024-11-23T08:49:12Z</time>
      </trkpt>
      <trkpt lat="45.06191" lon="-0.5869">
        <ele>72.3</ele>
        <time>2024-11-23T08:49:13Z</time>
      </trkpt>
      <trkpt lat="45.06192" lon="-0.58692">
        <ele>72.3</ele>
        <time>2024-11-23T08:49:14Z</time>
      </trkpt>
      <trkpt lat="45.06193" lon="-0.58693">
        <ele>72.2</ele>
        <time>2024-11-23T08:49:15Z</time>
      </trkpt>
      <trkpt lat="45.06195" lon="-0.58695">
        <ele>72.2</ele>
        <time>2024-11-23T08:49:16Z</time>
      </trkpt>
      <trkpt lat="45.06196" lon="-0.58697">
        <ele>72.2</ele>
        <time>2024-11-23T08:49:17Z</time>
      </trkpt>
      <trkpt lat="45.06197" lon="-0.58698">
        <ele>72.2</ele>
        <time>2024-11-23T08:49:18Z</time>
      </trkpt>
      <trkpt lat="45.06197" lon="-0.587">
        <ele>72.2</ele>
        <time>2024-11-23T08:49:19Z</time>
      </trkpt>
      <trkpt lat="45.06198" lon="-0.58701">
        <ele>72.2</ele>
        <time>2024-11-23T08:49:20Z</time>
      </trkpt>
      <trkpt lat="45.06199" lon="-0.58703">
        <ele>72.2</ele>
        <time>2024-11-23T08:49:21Z</time>
      </trkpt>
      <trkpt lat="45.062" lon="-0.58704">
        <ele>72.1</ele>
        <time>2024-11-23T08:49:22Z</time>
      </trkpt>
      <trkpt lat="45.06201" lon="-0.58706">
        <ele>72.1</ele>
        <time>2024-11-23T08:49:23Z</time>
      </trkpt>
      <trkpt lat="45.06203" lon="-0.58711">
        <ele>72.1</ele>
        <time>2024-11-23T08:49:25Z</time>
      </trkpt>
      <trkpt lat="45.06204" lon="-0.58712">
        <ele>72.1</ele>
        <time>2024-11-23T08:49:26Z</time>
      </trkpt>
      <trkpt lat="45.06205" lon="-0.58714">
        <ele>72</ele>
        <time>2024-11-23T08:49:27Z</time>
      </trkpt>
      <trkpt lat="45.06205" lon="-0.58716">
        <ele>72</ele>
        <time>2024-11-23T08:49:28Z</time>
      </trkpt>
      <trkpt lat="45.06207" lon="-0.58718">
        <ele>72</ele>
        <time>2024-11-23T08:49:29Z</time>
      </trkpt>
      <trkpt lat="45.06207" lon="-0.58719">
        <ele>72</ele>
        <time>2024-11-23T08:49:30Z</time>
      </trkpt>
      <trkpt lat="45.06208" lon="-0.5872">
        <ele>72</ele>
        <time>2024-11-23T08:49:31Z</time>
      </trkpt>
      <trkpt lat="45.06209" lon="-0.58722">
        <ele>72</ele>
        <time>2024-11-23T08:49:32Z</time>
      </trkpt>
      <trkpt lat="45.0621" lon="-0.58724">
        <ele>71.9</ele>
        <time>2024-11-23T08:49:33Z</time>
      </trkpt>
      <trkpt lat="45.06211" lon="-0.58726">
        <ele>71.9</ele>
        <time>2024-11-23T08:49:34Z</time>
      </trkpt>
      <trkpt lat="45.06212" lon="-0.58727">
        <ele>71.9</ele>
        <time>2024-11-23T08:49:35Z</time>
      </trkpt>
      <trkpt lat="45.06213" lon="-0.58729">
        <ele>71.9</ele>
        <time>2024-11-23T08:49:36Z</time>
      </trkpt>
      <trkpt lat="45.06214" lon="-0.58731">
        <ele>71.9</ele>
        <time>2024-11-23T08:49:37Z</time>
      </trkpt>
      <trkpt lat="45.06214" lon="-0.58732">
        <ele>71.9</ele>
        <time>2024-11-23T08:49:38Z</time>
      </trkpt>
      <trkpt lat="45.0626" lon="-0.5881">
        <ele>72</ele>
        <time>2024-11-23T08:50:26Z</time>
      </trkpt>
      <trkpt lat="45.06261" lon="-0.58812">
        <ele>72</ele>
        <time>2024-11-23T08:50:27Z</time>
      </trkpt>
      <trkpt lat="45.06262" lon="-0.58814">
        <ele>71.9</ele>
        <time>2024-11-23T08:50:28Z</time>
      </trkpt>
      <trkpt lat="45.06262" lon="-0.58815">
        <ele>71.9</ele>
        <time>2024-11-23T08:50:29Z</time>
      </trkpt>
      <trkpt lat="45.06263" lon="-0.58817">
        <ele>71.9</ele>
        <time>2024-11-23T08:50:30Z</time>
      </trkpt>
      <trkpt lat="45.06264" lon="-0.58819">
        <ele>71.8</ele>
        <time>2024-11-23T08:50:31Z</time>
      </trkpt>
      <trkpt lat="45.06265" lon="-0.58822">
        <ele>71.8</ele>
        <time>2024-11-23T08:50:32Z</time>
      </trkpt>
      <trkpt lat="45.06266" lon="-0.58823">
        <ele>71.8</ele>
        <time>2024-11-23T08:50:33Z</time>
      </trkpt>
      <trkpt lat="45.06267" lon="-0.58824">
        <ele>71.7</ele>
        <time>2024-11-23T08:50:34Z</time>
      </trkpt>
      <trkpt lat="45.06268" lon="-0.58825">
        <ele>71.7</ele>
        <time>2024-11-23T08:50:35Z</time>
      </trkpt>
      <trkpt lat="45.06268" lon="-0.58827">
        <ele>71.6</ele>
        <time>2024-11-23T08:50:36Z</time>
      </trkpt>
      <trkpt lat="45.06267" lon="-0.58838">
        <ele>71.4</ele>
        <time>2024-11-23T08:50:37Z</time>
      </trkpt>
      <trkpt lat="45.06266" lon="-0.58848">
        <ele>71.1</ele>
        <time>2024-11-23T08:50:38Z</time>
      </trkpt>
      <trkpt lat="45.06264" lon="-0.58857">
        <ele>70.9</ele>
        <time>2024-11-23T08:51:07Z</time>
      </trkpt>
      <trkpt lat="45.06262" lon="-0.58867">
        <ele>70.7</ele>
        <time>2024-11-23T08:51:08Z</time>
      </trkpt>
      <trkpt lat="45.0626" lon="-0.58876">
        <ele>70.6</ele>
        <time>2024-11-23T08:51:09Z</time>
      </trkpt>
      <trkpt lat="45.0626" lon="-0.58878">
        <ele>70.5</ele>
        <time>2024-11-23T08:51:10Z</time>
      </trkpt>
      <trkpt lat="45.06259" lon="-0.5888">
        <ele>70.5</ele>
        <time>2024-11-23T08:51:11Z</time>
      </trkpt>
      <trkpt lat="45.06258" lon="-0.58882">
        <ele>70.4</ele>
        <time>2024-11-23T08:51:12Z</time>
      </trkpt>
      <trkpt lat="45.06258" lon="-0.58884">
        <ele>70.4</ele>
        <time>2024-11-23T08:51:13Z</time>
      </trkpt>
      <trkpt lat="45.06257" lon="-0.58886">
        <ele>70.3</ele>
        <time>2024-11-23T08:51:14Z</time>
      </trkpt>
      <trkpt lat="45.06257" lon="-0.58889">
        <ele>70.3</ele>
        <time>2024-11-23T08:51:15Z</time>
      </trkpt>
      <trkpt lat="45.06257" lon="-0.58892">
        <ele>70.2</ele>
        <time>2024-11-23T08:51:16Z</time>
      </trkpt>
      <trkpt lat="45.06257" lon="-0.58894">
        <ele>70.2</ele>
        <time>2024-11-23T08:51:17Z</time>
      </trkpt>
      <trkpt lat="45.06257" lon="-0.58895">
        <ele>70.1</ele>
        <time>2024-11-23T08:51:18Z</time>
      </trkpt>
      <trkpt lat="45.06257" lon="-0.58898">
        <ele>70.1</ele>
        <time>2024-11-23T08:51:19Z</time>
      </trkpt>
      <trkpt lat="45.06258" lon="-0.58899">
        <ele>70.1</ele>
        <time>2024-11-23T08:51:20Z</time>
      </trkpt>
      <trkpt lat="45.06258" lon="-0.58902">
        <ele>70</ele>
        <time>2024-11-23T08:51:21Z</time>
      </trkpt>
      <trkpt lat="45.06259" lon="-0.58904">
        <ele>70</ele>
        <time>2024-11-23T08:51:22Z</time>
      </trkpt>
      <trkpt lat="45.0626" lon="-0.58906">
        <ele>69.9</ele>
        <time>2024-11-23T08:51:23Z</time>
      </trkpt>
      <trkpt lat="45.0626" lon="-0.58907">
        <ele>69.9</ele>
        <time>2024-11-23T08:51:24Z</time>
      </trkpt>
      <trkpt lat="45.06285" lon="-0.58968">
        <ele>68.1</ele>
        <time>2024-11-23T08:51:57Z</time>
      </trkpt>
      <trkpt lat="45.06286" lon="-0.58969">
        <ele>68.1</ele>
        <time>2024-11-23T08:51:58Z</time>
      </trkpt>
      <trkpt lat="45.06286" lon="-0.5897">
        <ele>68</ele>
        <time>2024-11-23T08:51:59Z</time>
      </trkpt>
      <trkpt lat="45.06287" lon="-0.58972">
        <ele>68</ele>
        <time>2024-11-23T08:52:00Z</time>
      </trkpt>
      <trkpt lat="45.06288" lon="-0.58975">
        <ele>67.9</ele>
        <time>2024-11-23T08:52:01Z</time>
      </trkpt>
      <trkpt lat="45.06288" lon="-0.58976">
        <ele>67.8</ele>
        <time>2024-11-23T08:52:02Z</time>
      </trkpt>
      <trkpt lat="45.06289" lon="-0.58977">
        <ele>67.8</ele>
        <time>2024-11-23T08:52:03Z</time>
      </trkpt>
      <trkpt lat="45.06289" lon="-0.58979">
        <ele>67.7</ele>
        <time>2024-11-23T08:52:04Z</time>
      </trkpt>
      <trkpt lat="45.0629" lon="-0.58981">
        <ele>67.6</ele>
        <time>2024-11-23T08:52:05Z</time>
      </trkpt>
      <trkpt lat="45.06291" lon="-0.58983">
        <ele>67.6</ele>
        <time>2024-11-23T08:52:06Z</time>
      </trkpt>
      <trkpt lat="45.06292" lon="-0.58984">
        <ele>67.5</ele>
        <time>2024-11-23T08:52:07Z</time>
      </trkpt>
      <trkpt lat="45.06293" lon="-0.58986">
        <ele>67.4</ele>
        <time>2024-11-23T08:52:08Z</time>
      </trkpt>
      <trkpt lat="45.06293" lon="-0.58988">
        <ele>67.4</ele>
        <time>2024-11-23T08:52:09Z</time>
      </trkpt>
      <trkpt lat="45.06348" lon="-0.59099">
        <ele>61.7</ele>
        <time>2024-11-23T08:53:13Z</time>
      </trkpt>
      <trkpt lat="45.06349" lon="-0.591">
        <ele>61.7</ele>
        <time>2024-11-23T08:53:14Z</time>
      </trkpt>
      <trkpt lat="45.0635" lon="-0.59101">
        <ele>61.6</ele>
        <time>2024-11-23T08:53:15Z</time>
      </trkpt>
      <trkpt lat="45.06351" lon="-0.59103">
        <ele>61.5</ele>
        <time>2024-11-23T08:53:16Z</time>
      </trkpt>
      <trkpt lat="45.06351" lon="-0.59104">
        <ele>61.5</ele>
        <time>2024-11-23T08:53:17Z</time>
      </trkpt>
      <trkpt lat="45.06352" lon="-0.59106">
        <ele>61.4</ele>
        <time>2024-11-23T08:53:18Z</time>
      </trkpt>
      <trkpt lat="45.06353" lon="-0.59108">
        <ele>61.3</ele>
        <time>2024-11-23T08:53:19Z</time>
      </trkpt>
      <trkpt lat="45.06354" lon="-0.5911">
        <ele>61.2</ele>
        <time>2024-11-23T08:53:20Z</time>
      </trkpt>
      <trkpt lat="45.06355" lon="-0.59111">
        <ele>61.2</ele>
        <time>2024-11-23T08:53:21Z</time>
      </trkpt>
      <trkpt lat="45.06356" lon="-0.59113">
        <ele>61</ele>
        <time>2024-11-23T08:53:22Z</time>
      </trkpt>
      <trkpt lat="45.06357" lon="-0.59114">
        <ele>61</ele>
        <time>2024-11-23T08:53:23Z</time>
      </trkpt>
      <trkpt lat="45.06358" lon="-0.59114">
        <ele>61</ele>
        <time>2024-11-23T08:53:24Z</time>
      </trkpt>
      <trkpt lat="45.06379" lon="-0.59109">
        <ele>60.6</ele>
        <time>2024-11-23T08:53:42Z</time>
      </trkpt>
      <trkpt lat="45.0638" lon="-0.59109">
        <ele>60.6</ele>
        <time>2024-11-23T08:53:43Z</time>
      </trkpt>
      <trkpt lat="45.0638" lon="-0.5911">
        <ele>60.6</ele>
        <time>2024-11-23T08:53:44Z</time>
      </trkpt>
      <trkpt lat="45.06382" lon="-0.59111">
        <ele>60.6</ele>
        <time>2024-11-23T08:53:45Z</time>
      </trkpt>
      <trkpt lat="45.06383" lon="-0.59112">
        <ele>60.5</ele>
        <time>2024-11-23T08:53:46Z</time>
      </trkpt>
      <trkpt lat="45.06383" lon="-0.59112">
        <ele>60.6</ele>
        <time>2024-11-23T08:53:47Z</time>
      </trkpt>
      <trkpt lat="45.06386" lon="-0.59109">
        <ele>60.5</ele>
        <time>2024-11-23T08:53:48Z</time>
      </trkpt>
      <trkpt lat="45.06387" lon="-0.59105">
        <ele>60.4</ele>
        <time>2024-11-23T08:53:49Z</time>
      </trkpt>
      <trkpt lat="45.06389" lon="-0.59102">
        <ele>60.3</ele>
        <time>2024-11-23T08:53:50Z</time>
      </trkpt>
      <trkpt lat="45.0639" lon="-0.59098">
        <ele>60.3</ele>
        <time>2024-11-23T08:53:51Z</time>
      </trkpt>
      <trkpt lat="45.06392" lon="-0.59094">
        <ele>60.2</ele>
        <time>2024-11-23T08:53:52Z</time>
      </trkpt>
      <trkpt lat="45.06394" lon="-0.59091">
        <ele>60.2</ele>
        <time>2024-11-23T08:53:53Z</time>
      </trkpt>
      <trkpt lat="45.06395" lon="-0.59087">
        <ele>60.2</ele>
        <time>2024-11-23T08:53:54Z</time>
      </trkpt>
      <trkpt lat="45.06397" lon="-0.59083">
        <ele>60.2</ele>
        <time>2024-11-23T08:54:29Z</time>
      </trkpt>
      <trkpt lat="45.06398" lon="-0.5908">
        <ele>60.1</ele>
        <time>2024-11-23T08:54:30Z</time>
      </trkpt>
      <trkpt lat="45.064" lon="-0.59076">
        <ele>60.1</ele>
        <time>2024-11-23T08:54:31Z</time>
      </trkpt>
      <trkpt lat="45.064" lon="-0.59075">
        <ele>60.1</ele>
        <time>2024-11-23T08:54:32Z</time>
      </trkpt>
      <trkpt lat="45.06401" lon="-0.59074">
        <ele>60.1</ele>
        <time>2024-11-23T08:54:33Z</time>
      </trkpt>
      <trkpt lat="45.06402" lon="-0.59072">
        <ele>60.1</ele>
        <time>2024-11-23T08:54:34Z</time>
      </trkpt>
      <trkpt lat="45.06403" lon="-0.59071">
        <ele>60.1</ele>
        <time>2024-11-23T08:54:35Z</time>
      </trkpt>
      <trkpt lat="45.06403" lon="-0.5907">
        <ele>60.1</ele>
        <time>2024-11-23T08:54:36Z</time>
      </trkpt>
      <trkpt lat="45.06404" lon="-0.59069">
        <ele>60.1</ele>
        <time>2024-11-23T08:54:37Z</time>
      </trkpt>
      <trkpt lat="45.06414" lon="-0.5906">
        <ele>60.3</ele>
        <time>2024-11-23T08:54:38Z</time>
      </trkpt>
      <trkpt lat="45.06422" lon="-0.59052">
        <ele>60.5</ele>
        <time>2024-11-23T08:54:39Z</time>
      </trkpt>
      <trkpt lat="45.06431" lon="-0.59044">
        <ele>61</ele>
        <time>2024-11-23T08:55:27Z</time>
      </trkpt>
      <trkpt lat="45.0644" lon="-0.59036">
        <ele>61.4</ele>
        <time>2024-11-23T08:55:28Z</time>
      </trkpt>
      <trkpt lat="45.06448" lon="-0.59028">
        <ele>62</ele>
        <time>2024-11-23T08:55:29Z</time>
      </trkpt>
      <trkpt lat="45.06457" lon="-0.5902">
        <ele>62.5</ele>
        <time>2024-11-23T08:55:30Z</time>
      </trkpt>
      <trkpt lat="45.06458" lon="-0.59019">
        <ele>62.6</ele>
        <time>2024-11-23T08:55:31Z</time>
      </trkpt>
      <trkpt lat="45.06459" lon="-0.59019">
        <ele>62.6</ele>
        <time>2024-11-23T08:55:32Z</time>
      </trkpt>
      <trkpt lat="45.06461" lon="-0.5902">
        <ele>62.6</ele>
        <time>2024-11-23T08:55:33Z</time>
      </trkpt>
      <trkpt lat="45.06462" lon="-0.59022">
        <ele>62.6</ele>
        <time>2024-11-23T08:55:34Z</time>
      </trkpt>
      <trkpt lat="45.06463" lon="-0.59022">
        <ele>62.6</ele>
        <time>2024-11-23T08:55:35Z</time>
      </trkpt>
      <trkpt lat="45.06464" lon="-0.59022">
        <ele>62.7</ele>
        <time>2024-11-23T08:55:36Z</time>
      </trkpt>
      <trkpt lat="45.06467" lon="-0.59019">
        <ele>62.8</ele>
        <time>2024-11-23T08:55:37Z</time>
      </trkpt>
      <trkpt lat="45.06467" lon="-0.59018">
        <ele>62.9</ele>
        <time>2024-11-23T08:55:38Z</time>
      </trkpt>
      <trkpt lat="45.06468" lon="-0.59018">
        <ele>62.9</ele>
        <time>2024-11-23T08:55:39Z</time>
      </trkpt>
      <trkpt lat="45.06469" lon="-0.59017">
        <ele>62.9</ele>
        <time>2024-11-23T08:55:40Z</time>
      </trkpt>
      <trkpt lat="45.06471" lon="-0.59017">
        <ele>63.1</ele>
        <time>2024-11-23T08:55:41Z</time>
      </trkpt>
      <trkpt lat="45.06472" lon="-0.59016">
        <ele>63.1</ele>
        <time>2024-11-23T08:55:42Z</time>
      </trkpt>
      <trkpt lat="45.06473" lon="-0.59015">
        <ele>63.1</ele>
        <time>2024-11-23T08:55:43Z</time>
      </trkpt>
      <trkpt lat="45.06474" lon="-0.59014">
        <ele>63.2</ele>
        <time>2024-11-23T08:55:44Z</time>
      </trkpt>
      <trkpt lat="45.06475" lon="-0.59013">
        <ele>63.3</ele>
        <time>2024-11-23T08:55:45Z</time>
      </trkpt>
      <trkpt lat="45.06476" lon="-0.59012">
        <ele>63.3</ele>
        <time>2024-11-23T08:55:46Z</time>
      </trkpt>
      <trkpt lat="45.06476" lon="-0.59011">
        <ele>63.4</ele>
        <time>2024-11-23T08:55:47Z</time>
      </trkpt>
      <trkpt lat="45.06478" lon="-0.5901">
        <ele>63.4</ele>
        <time>2024-11-23T08:55:48Z</time>
      </trkpt>
      <trkpt lat="45.06479" lon="-0.59009">
        <ele>63.4</ele>
        <time>2024-11-23T08:55:49Z</time>
      </trkpt>
      <trkpt lat="45.0648" lon="-0.59009">
        <ele>63.6</ele>
        <time>2024-11-23T08:55:50Z</time>
      </trkpt>
      <trkpt lat="45.06482" lon="-0.59008">
        <ele>63.7</ele>
        <time>2024-11-23T08:55:51Z</time>
      </trkpt>
      <trkpt lat="45.06483" lon="-0.59007">
        <ele>63.8</ele>
        <time>2024-11-23T08:55:52Z</time>
      </trkpt>
      <trkpt lat="45.06483" lon="-0.59006">
        <ele>63.8</ele>
        <time>2024-11-23T08:55:53Z</time>
      </trkpt>
      <trkpt lat="45.06484" lon="-0.59006">
        <ele>63.8</ele>
        <time>2024-11-23T08:55:54Z</time>
      </trkpt>
      <trkpt lat="45.06485" lon="-0.59005">
        <ele>64</ele>
        <time>2024-11-23T08:55:55Z</time>
      </trkpt>
      <trkpt lat="45.06486" lon="-0.59004">
        <ele>64.1</ele>
        <time>2024-11-23T08:55:56Z</time>
      </trkpt>
      <trkpt lat="45.06487" lon="-0.59003">
        <ele>64.1</ele>
        <time>2024-11-23T08:55:57Z</time>
      </trkpt>
      <trkpt lat="45.06488" lon="-0.59002">
        <ele>64.1</ele>
        <time>2024-11-23T08:55:58Z</time>
      </trkpt>
      <trkpt lat="45.06489" lon="-0.59001">
        <ele>64.2</ele>
        <time>2024-11-23T08:55:59Z</time>
      </trkpt>
      <trkpt lat="45.0649" lon="-0.59">
        <ele>64.3</ele>
        <time>2024-11-23T08:56:00Z</time>
      </trkpt>
      <trkpt lat="45.06491" lon="-0.58999">
        <ele>64.3</ele>
        <time>2024-11-23T08:56:01Z</time>
      </trkpt>
      <trkpt lat="45.06492" lon="-0.58999">
        <ele>64.5</ele>
        <time>2024-11-23T08:56:02Z</time>
      </trkpt>
      <trkpt lat="45.06493" lon="-0.58998">
        <ele>64.5</ele>
        <time>2024-11-23T08:56:03Z</time>
      </trkpt>
      <trkpt lat="45.06494" lon="-0.58998">
        <ele>64.5</ele>
        <time>2024-11-23T08:56:04Z</time>
      </trkpt>
      <trkpt lat="45.06495" lon="-0.58997">
        <ele>64.7</ele>
        <time>2024-11-23T08:56:05Z</time>
      </trkpt>
      <trkpt lat="45.06496" lon="-0.58997">
        <ele>64.7</ele>
        <time>2024-11-23T08:56:06Z</time>
      </trkpt>
      <trkpt lat="45.06497" lon="-0.58996">
        <ele>64.7</ele>
        <time>2024-11-23T08:56:07Z</time>
      </trkpt>
      <trkpt lat="45.06498" lon="-0.58995">
        <ele>65</ele>
        <time>2024-11-23T08:56:08Z</time>
      </trkpt>
      <trkpt lat="45.06499" lon="-0.58995">
        <ele>65</ele>
        <time>2024-11-23T08:56:09Z</time>
      </trkpt>
      <trkpt lat="45.065" lon="-0.58994">
        <ele>65</ele>
        <time>2024-11-23T08:56:10Z</time>
      </trkpt>
      <trkpt lat="45.06502" lon="-0.58993">
        <ele>65.2</ele>
        <time>2024-11-23T08:56:11Z</time>
      </trkpt>
      <trkpt lat="45.06504" lon="-0.58992">
        <ele>65.4</ele>
        <time>2024-11-23T08:56:12Z</time>
      </trkpt>
      <trkpt lat="45.06504" lon="-0.58992">
        <ele>65.4</ele>
        <time>2024-11-23T08:56:13Z</time>
      </trkpt>
      <trkpt lat="45.06505" lon="-0.58992">
        <ele>65.4</ele>
        <time>2024-11-23T08:56:14Z</time>
      </trkpt>
      <trkpt lat="45.06507" lon="-0.58991">
        <ele>65.7</ele>
        <time>2024-11-23T08:56:15Z</time>
      </trkpt>
      <trkpt lat="45.06508" lon="-0.58991">
        <ele>65.7</ele>
        <time>2024-11-23T08:56:16Z</time>
      </trkpt>
      <trkpt lat="45.06509" lon="-0.5899">
        <ele>65.7</ele>
        <time>2024-11-23T08:56:17Z</time>
      </trkpt>
      <trkpt lat="45.06511" lon="-0.58989">
        <ele>65.9</ele>
        <time>2024-11-23T08:56:18Z</time>
      </trkpt>
      <trkpt lat="45.06512" lon="-0.58989">
        <ele>65.9</ele>
        <time>2024-11-23T08:56:19Z</time>
      </trkpt>
      <trkpt lat="45.06512" lon="-0.58989">
        <ele>65.9</ele>
        <time>2024-11-23T08:56:20Z</time>
      </trkpt>
      <trkpt lat="45.06514" lon="-0.58988">
        <ele>66.1</ele>
        <time>2024-11-23T08:56:21Z</time>
      </trkpt>
      <trkpt lat="45.06515" lon="-0.58987">
        <ele>66.1</ele>
        <time>2024-11-23T08:56:22Z</time>
      </trkpt>
      <trkpt lat="45.06516" lon="-0.58987">
        <ele>66.3</ele>
        <time>2024-11-23T08:56:23Z</time>
      </trkpt>
      <trkpt lat="45.06517" lon="-0.58986">
        <ele>66.3</ele>
        <time>2024-11-23T08:56:24Z</time>
      </trkpt>
      <trkpt lat="45.06518" lon="-0.58986">
        <ele>66.3</ele>
        <time>2024-11-23T08:56:25Z</time>
      </trkpt>
      <trkpt lat="45.0652" lon="-0.58985">
        <ele>66.4</ele>
        <time>2024-11-23T08:56:26Z</time>
      </trkpt>
      <trkpt lat="45.06521" lon="-0.58984">
        <ele>66.4</ele>
        <time>2024-11-23T08:56:27Z</time>
      </trkpt>
      <trkpt lat="45.06522" lon="-0.58984">
        <ele>66.6</ele>
        <time>2024-11-23T08:56:28Z</time>
      </trkpt>
      <trkpt lat="45.06524" lon="-0.58983">
        <ele>66.6</ele>
        <time>2024-11-23T08:56:29Z</time>
      </trkpt>
      <trkpt lat="45.06525" lon="-0.58982">
        <ele>66.6</ele>
        <time>2024-11-23T08:56:30Z</time>
      </trkpt>
      <trkpt lat="45.06525" lon="-0.58982">
        <ele>66.7</ele>
        <time>2024-11-23T08:56:31Z</time>
      </trkpt>
      <trkpt lat="45.06527" lon="-0.58981">
        <ele>66.7</ele>
        <time>2024-11-23T08:56:32Z</time>
      </trkpt>
      <trkpt lat="45.06528" lon="-0.58981">
        <ele>66.7</ele>
        <time>2024-11-23T08:56:33Z</time>
      </trkpt>
      <trkpt lat="45.06529" lon="-0.5898">
        <ele>66.9</ele>
        <time>2024-11-23T08:56:34Z</time>
      </trkpt>
      <trkpt lat="45.06531" lon="-0.5898">
        <ele>67</ele>
        <time>2024-11-23T08:56:35Z</time>
      </trkpt>
      <trkpt lat="45.06532" lon="-0.5898">
        <ele>67</ele>
        <time>2024-11-23T08:56:36Z</time>
      </trkpt>
      <trkpt lat="45.06532" lon="-0.58979">
        <ele>67</ele>
        <time>2024-11-23T08:56:37Z</time>
      </trkpt>
      <trkpt lat="45.06534" lon="-0.58979">
        <ele>67</ele>
        <time>2024-11-23T08:56:38Z</time>
      </trkpt>
      <trkpt lat="45.06535" lon="-0.58979">
        <ele>67.2</ele>
        <time>2024-11-23T08:56:39Z</time>
      </trkpt>
      <trkpt lat="45.06536" lon="-0.58978">
        <ele>67.2</ele>
        <time>2024-11-23T08:56:40Z</time>
      </trkpt>
      <trkpt lat="45.06537" lon="-0.58978">
        <ele>67.3</ele>
        <time>2024-11-23T08:56:41Z</time>
      </trkpt>
      <trkpt lat="45.06539" lon="-0.58977">
        <ele>67.3</ele>
        <time>2024-11-23T08:56:42Z</time>
      </trkpt>
      <trkpt lat="45.0654" lon="-0.58977">
        <ele>67.3</ele>
        <time>2024-11-23T08:56:43Z</time>
      </trkpt>
      <trkpt lat="45.06541" lon="-0.58976">
        <ele>67.4</ele>
        <time>2024-11-23T08:56:44Z</time>
      </trkpt>
      <trkpt lat="45.06542" lon="-0.58976">
        <ele>67.4</ele>
        <time>2024-11-23T08:56:45Z</time>
      </trkpt>
      <trkpt lat="45.06543" lon="-0.58976">
        <ele>67.6</ele>
        <time>2024-11-23T08:56:46Z</time>
      </trkpt>
      <trkpt lat="45.06544" lon="-0.58975">
        <ele>67.6</ele>
        <time>2024-11-23T08:56:47Z</time>
      </trkpt>
      <trkpt lat="45.06545" lon="-0.58975">
        <ele>67.6</ele>
        <time>2024-11-23T08:56:48Z</time>
      </trkpt>
      <trkpt lat="45.06546" lon="-0.58974">
        <ele>67.7</ele>
        <time>2024-11-23T08:56:49Z</time>
      </trkpt>
      <trkpt lat="45.06547" lon="-0.58974">
        <ele>67.7</ele>
        <time>2024-11-23T08:56:50Z</time>
      </trkpt>
      <trkpt lat="45.06548" lon="-0.58974">
        <ele>67.7</ele>
        <time>2024-11-23T08:56:51Z</time>
      </trkpt>
      <trkpt lat="45.06548" lon="-0.58975">
        <ele>67.7</ele>
        <time>2024-11-23T08:56:52Z</time>
      </trkpt>
      <trkpt lat="45.06547" lon="-0.58974">
        <ele>67.7</ele>
        <time>2024-11-23T08:56:53Z</time>
      </trkpt>
      <trkpt lat="45.06547" lon="-0.58975">
        <ele>67.7</ele>
        <time>2024-11-23T08:56:54Z</time>
      </trkpt>
      <trkpt lat="45.06547" lon="-0.58975">
        <ele>67.7</ele>
        <time>2024-11-23T08:56:55Z</time>
      </trkpt>
      <trkpt lat="45.06547" lon="-0.58975">
        <ele>67.7</ele>
        <time>2024-11-23T08:56:56Z</time>
      </trkpt>
      <trkpt lat="45.06547" lon="-0.58975">
        <ele>67.7</ele>
        <time>2024-11-23T08:56:57Z</time>
      </trkpt>
      <trkpt lat="45.06547" lon="-0.58975">
        <ele>67.7</ele>
        <time>2024-11-23T08:56:58Z</time>
      </trkpt>
      <trkpt lat="45.06547" lon="-0.58975">
        <ele>67.7</ele>
        <time>2024-11-23T08:56:59Z</time>
      </trkpt>
      <trkpt lat="45.06548" lon="-0.58974">
        <ele>67.7</ele>
        <time>2024-11-23T08:57:00Z</time>
      </trkpt>
      <trkpt lat="45.06548" lon="-0.58974">
        <ele>67.7</ele>
        <time>2024-11-23T08:57:01Z</time>
      </trkpt>
      <trkpt lat="45.0655" lon="-0.58975">
        <ele>67.8</ele>
        <time>2024-11-23T08:57:02Z</time>
      </trkpt>
      <trkpt lat="45.06551" lon="-0.58975">
        <ele>67.8</ele>
        <time>2024-11-23T08:57:03Z</time>
      </trkpt>
      <trkpt lat="45.06552" lon="-0.58975">
        <ele>67.8</ele>
        <time>2024-11-23T08:57:04Z</time>
      </trkpt>
      <trkpt lat="45.06555" lon="-0.58974">
        <ele>68</ele>
        <time>2024-11-23T08:57:05Z</time>
      </trkpt>
      <trkpt lat="45.06556" lon="-0.58974">
        <ele>68.1</ele>
        <time>2024-11-23T08:57:06Z</time>
      </trkpt>
      <trkpt lat="45.06558" lon="-0.58973">
        <ele>68.1</ele>
        <time>2024-11-23T08:57:07Z</time>
      </trkpt>
      <trkpt lat="45.06559" lon="-0.58973">
        <ele>68.3</ele>
        <time>2024-11-23T08:57:08Z</time>
      </trkpt>
      <trkpt lat="45.06561" lon="-0.58973">
        <ele>68.3</ele>
        <time>2024-11-23T08:57:09Z</time>
      </trkpt>
      <trkpt lat="45.06562" lon="-0.58973">
        <ele>68.4</ele>
        <time>2024-11-23T08:57:10Z</time>
      </trkpt>
      <trkpt lat="45.06564" lon="-0.58973">
        <ele>68.4</ele>
        <time>2024-11-23T08:57:11Z</time>
      </trkpt>
      <trkpt lat="45.06566" lon="-0.58972">
        <ele>68.5</ele>
        <time>2024-11-23T08:57:12Z</time>
      </trkpt>
      <trkpt lat="45.06568" lon="-0.58972">
        <ele>68.6</ele>
        <time>2024-11-23T08:57:13Z</time>
      </trkpt>
      <trkpt lat="45.06568" lon="-0.58971">
        <ele>68.6</ele>
        <time>2024-11-23T08:57:14Z</time>
      </trkpt>
      <trkpt lat="45.06569" lon="-0.58971">
        <ele>68.6</ele>
        <time>2024-11-23T08:57:15Z</time>
      </trkpt>
      <trkpt lat="45.06571" lon="-0.5897">
        <ele>68.7</ele>
        <time>2024-11-23T08:57:16Z</time>
      </trkpt>
      <trkpt lat="45.06572" lon="-0.5897">
        <ele>68.7</ele>
        <time>2024-11-23T08:57:17Z</time>
      </trkpt>
      <trkpt lat="45.06574" lon="-0.58969">
        <ele>68.8</ele>
        <time>2024-11-23T08:57:18Z</time>
      </trkpt>
      <trkpt lat="45.06575" lon="-0.58968">
        <ele>68.8</ele>
        <time>2024-11-23T08:57:19Z</time>
      </trkpt>
      <trkpt lat="45.06576" lon="-0.58968">
        <ele>68.8</ele>
        <time>2024-11-23T08:57:20Z</time>
      </trkpt>
      <trkpt lat="45.06577" lon="-0.58968">
        <ele>68.9</ele>
        <time>2024-11-23T08:57:21Z</time>
      </trkpt>
      <trkpt lat="45.06578" lon="-0.58967">
        <ele>68.9</ele>
        <time>2024-11-23T08:57:22Z</time>
      </trkpt>
      <trkpt lat="45.06579" lon="-0.58967">
        <ele>68.9</ele>
        <time>2024-11-23T08:57:23Z</time>
      </trkpt>
      <trkpt lat="45.06581" lon="-0.58966">
        <ele>68.9</ele>
        <time>2024-11-23T08:57:24Z</time>
      </trkpt>
      <trkpt lat="45.06582" lon="-0.58966">
        <ele>68.9</ele>
        <time>2024-11-23T08:57:25Z</time>
      </trkpt>
      <trkpt lat="45.06583" lon="-0.58965">
        <ele>69</ele>
        <time>2024-11-23T08:57:26Z</time>
      </trkpt>
      <trkpt lat="45.06584" lon="-0.58964">
        <ele>69</ele>
        <time>2024-11-23T08:57:27Z</time>
      </trkpt>
      <trkpt lat="45.06585" lon="-0.58964">
        <ele>69</ele>
        <time>2024-11-23T08:57:28Z</time>
      </trkpt>
      <trkpt lat="45.06586" lon="-0.58963">
        <ele>69</ele>
        <time>2024-11-23T08:57:29Z</time>
      </trkpt>
      <trkpt lat="45.06588" lon="-0.58963">
        <ele>69</ele>
        <time>2024-11-23T08:57:30Z</time>
      </trkpt>
      <trkpt lat="45.06589" lon="-0.58962">
        <ele>69</ele>
        <time>2024-11-23T08:57:31Z</time>
      </trkpt>
      <trkpt lat="45.0659" lon="-0.58962">
        <ele>69</ele>
        <time>2024-11-23T08:57:32Z</time>
      </trkpt>
      <trkpt lat="45.06591" lon="-0.58962">
        <ele>69</ele>
        <time>2024-11-23T08:57:33Z</time>
      </trkpt>
      <trkpt lat="45.06592" lon="-0.58962">
        <ele>69</ele>
        <time>2024-11-23T08:57:34Z</time>
      </trkpt>
      <trkpt lat="45.06593" lon="-0.58961">
        <ele>69</ele>
        <time>2024-11-23T08:57:35Z</time>
      </trkpt>
      <trkpt lat="45.06595" lon="-0.58961">
        <ele>69.1</ele>
        <time>2024-11-23T08:57:36Z</time>
      </trkpt>
      <trkpt lat="45.06597" lon="-0.5896">
        <ele>69</ele>
        <time>2024-11-23T08:57:37Z</time>
      </trkpt>
      <trkpt lat="45.06597" lon="-0.5896">
        <ele>69</ele>
        <time>2024-11-23T08:57:38Z</time>
      </trkpt>
      <trkpt lat="45.06598" lon="-0.5896">
        <ele>69</ele>
        <time>2024-11-23T08:57:39Z</time>
      </trkpt>
      <trkpt lat="45.066" lon="-0.5896">
        <ele>69</ele>
        <time>2024-11-23T08:57:40Z</time>
      </trkpt>
      <trkpt lat="45.06601" lon="-0.58959">
        <ele>69</ele>
        <time>2024-11-23T08:57:41Z</time>
      </trkpt>
      <trkpt lat="45.06602" lon="-0.58959">
        <ele>69</ele>
        <time>2024-11-23T08:57:42Z</time>
      </trkpt>
      <trkpt lat="45.06603" lon="-0.58959">
        <ele>69</ele>
        <time>2024-11-23T08:57:43Z</time>
      </trkpt>
      <trkpt lat="45.06604" lon="-0.58959">
        <ele>69</ele>
        <time>2024-11-23T08:57:44Z</time>
      </trkpt>
      <trkpt lat="45.06606" lon="-0.58959">
        <ele>69</ele>
        <time>2024-11-23T08:57:45Z</time>
      </trkpt>
      <trkpt lat="45.06607" lon="-0.58959">
        <ele>69</ele>
        <time>2024-11-23T08:57:46Z</time>
      </trkpt>
      <trkpt lat="45.06608" lon="-0.58958">
        <ele>69</ele>
        <time>2024-11-23T08:57:47Z</time>
      </trkpt>
      <trkpt lat="45.06609" lon="-0.58958">
        <ele>69</ele>
        <time>2024-11-23T08:57:48Z</time>
      </trkpt>
      <trkpt lat="45.06611" lon="-0.58958">
        <ele>69</ele>
        <time>2024-11-23T08:57:49Z</time>
      </trkpt>
      <trkpt lat="45.06612" lon="-0.58958">
        <ele>69</ele>
        <time>2024-11-23T08:57:50Z</time>
      </trkpt>
      <trkpt lat="45.06613" lon="-0.58957">
        <ele>69</ele>
        <time>2024-11-23T08:57:51Z</time>
      </trkpt>
      <trkpt lat="45.06614" lon="-0.58957">
        <ele>69</ele>
        <time>2024-11-23T08:57:52Z</time>
      </trkpt>
      <trkpt lat="45.06615" lon="-0.58956">
        <ele>69</ele>
        <time>2024-11-23T08:57:53Z</time>
      </trkpt>
      <trkpt lat="45.06617" lon="-0.58956">
        <ele>69</ele>
        <time>2024-11-23T08:57:54Z</time>
      </trkpt>
      <trkpt lat="45.06618" lon="-0.58956">
        <ele>69</ele>
        <time>2024-11-23T08:57:55Z</time>
      </trkpt>
      <trkpt lat="45.06619" lon="-0.58956">
        <ele>69</ele>
        <time>2024-11-23T08:57:56Z</time>
      </trkpt>
      <trkpt lat="45.06621" lon="-0.58955">
        <ele>69</ele>
        <time>2024-11-23T08:57:57Z</time>
      </trkpt>
      <trkpt lat="45.06622" lon="-0.58955">
        <ele>68.9</ele>
        <time>2024-11-23T08:57:58Z</time>
      </trkpt>
      <trkpt lat="45.06623" lon="-0.58955">
        <ele>68.9</ele>
        <time>2024-11-23T08:57:59Z</time>
      </trkpt>
      <trkpt lat="45.06625" lon="-0.58954">
        <ele>68.9</ele>
        <time>2024-11-23T08:58:00Z</time>
      </trkpt>
      <trkpt lat="45.06626" lon="-0.58954">
        <ele>68.9</ele>
        <time>2024-11-23T08:58:01Z</time>
      </trkpt>
      <trkpt lat="45.06627" lon="-0.58954">
        <ele>68.9</ele>
        <time>2024-11-23T08:58:02Z</time>
      </trkpt>
      <trkpt lat="45.06628" lon="-0.58953">
        <ele>68.9</ele>
        <time>2024-11-23T08:58:03Z</time>
      </trkpt>
      <trkpt lat="45.06629" lon="-0.58953">
        <ele>68.9</ele>
        <time>2024-11-23T08:58:04Z</time>
      </trkpt>
      <trkpt lat="45.06631" lon="-0.58953">
        <ele>68.9</ele>
        <time>2024-11-23T08:58:05Z</time>
      </trkpt>
      <trkpt lat="45.06632" lon="-0.58952">
        <ele>68.9</ele>
        <time>2024-11-23T08:58:06Z</time>
      </trkpt>
      <trkpt lat="45.06633" lon="-0.58952">
        <ele>68.9</ele>
        <time>2024-11-23T08:58:07Z</time>
      </trkpt>
      <trkpt lat="45.06635" lon="-0.58952">
        <ele>68.9</ele>
        <time>2024-11-23T08:58:08Z</time>
      </trkpt>
      <trkpt lat="45.06636" lon="-0.58952">
        <ele>68.9</ele>
        <time>2024-11-23T08:58:09Z</time>
      </trkpt>
      <trkpt lat="45.06637" lon="-0.58952">
        <ele>68.9</ele>
        <time>2024-11-23T08:58:10Z</time>
      </trkpt>
      <trkpt lat="45.06638" lon="-0.58951">
        <ele>68.9</ele>
        <time>2024-11-23T08:58:11Z</time>
      </trkpt>
      <trkpt lat="45.06639" lon="-0.58951">
        <ele>68.9</ele>
        <time>2024-11-23T08:58:12Z</time>
      </trkpt>
      <trkpt lat="45.0664" lon="-0.58951">
        <ele>68.8</ele>
        <time>2024-11-23T08:58:13Z</time>
      </trkpt>
      <trkpt lat="45.06641" lon="-0.58951">
        <ele>68.8</ele>
        <time>2024-11-23T08:58:14Z</time>
      </trkpt>
      <trkpt lat="45.06643" lon="-0.58951">
        <ele>68.8</ele>
        <time>2024-11-23T08:58:15Z</time>
      </trkpt>
      <trkpt lat="45.06644" lon="-0.58951">
        <ele>68.8</ele>
        <time>2024-11-23T08:58:16Z</time>
      </trkpt>
      <trkpt lat="45.06646" lon="-0.5895">
        <ele>68.8</ele>
        <time>2024-11-23T08:58:17Z</time>
      </trkpt>
      <trkpt lat="45.06647" lon="-0.5895">
        <ele>68.8</ele>
        <time>2024-11-23T08:58:18Z</time>
      </trkpt>
      <trkpt lat="45.06648" lon="-0.5895">
        <ele>68.8</ele>
        <time>2024-11-23T08:58:19Z</time>
      </trkpt>
      <trkpt lat="45.06649" lon="-0.5895">
        <ele>68.8</ele>
        <time>2024-11-23T08:58:20Z</time>
      </trkpt>
      <trkpt lat="45.0665" lon="-0.5895">
        <ele>68.7</ele>
        <time>2024-11-23T08:58:21Z</time>
      </trkpt>
      <trkpt lat="45.06652" lon="-0.58949">
        <ele>68.7</ele>
        <time>2024-11-23T08:58:22Z</time>
      </trkpt>
      <trkpt lat="45.06653" lon="-0.58949">
        <ele>68.7</ele>
        <time>2024-11-23T08:58:23Z</time>
      </trkpt>
      <trkpt lat="45.06654" lon="-0.58949">
        <ele>68.7</ele>
        <time>2024-11-23T08:58:24Z</time>
      </trkpt>
      <trkpt lat="45.06656" lon="-0.58949">
        <ele>68.6</ele>
        <time>2024-11-23T08:58:25Z</time>
      </trkpt>
      <trkpt lat="45.06657" lon="-0.58949">
        <ele>68.7</ele>
        <time>2024-11-23T08:58:26Z</time>
      </trkpt>
      <trkpt lat="45.06659" lon="-0.58948">
        <ele>68.7</ele>
        <time>2024-11-23T08:58:27Z</time>
      </trkpt>
      <trkpt lat="45.0666" lon="-0.58948">
        <ele>68.7</ele>
        <time>2024-11-23T08:58:28Z</time>
      </trkpt>
      <trkpt lat="45.06662" lon="-0.58948">
        <ele>68.6</ele>
        <time>2024-11-23T08:58:29Z</time>
      </trkpt>
      <trkpt lat="45.06663" lon="-0.58947">
        <ele>68.6</ele>
        <time>2024-11-23T08:58:30Z</time>
      </trkpt>
      <trkpt lat="45.06663" lon="-0.58947">
        <ele>68.6</ele>
        <time>2024-11-23T08:58:31Z</time>
      </trkpt>
      <trkpt lat="45.06665" lon="-0.58947">
        <ele>68.6</ele>
        <time>2024-11-23T08:58:32Z</time>
      </trkpt>
      <trkpt lat="45.06666" lon="-0.58947">
        <ele>68.6</ele>
        <time>2024-11-23T08:58:33Z</time>
      </trkpt>
      <trkpt lat="45.06667" lon="-0.58947">
        <ele>68.5</ele>
        <time>2024-11-23T08:58:34Z</time>
      </trkpt>
      <trkpt lat="45.06669" lon="-0.58946">
        <ele>68.5</ele>
        <time>2024-11-23T08:58:35Z</time>
      </trkpt>
      <trkpt lat="45.0667" lon="-0.58946">
        <ele>68.4</ele>
        <time>2024-11-23T08:58:36Z</time>
      </trkpt>
      <trkpt lat="45.06672" lon="-0.58946">
        <ele>68.4</ele>
        <time>2024-11-23T08:58:37Z</time>
      </trkpt>
      <trkpt lat="45.06673" lon="-0.58946">
        <ele>68.4</ele>
        <time>2024-11-23T08:58:38Z</time>
      </trkpt>
      <trkpt lat="45.06675" lon="-0.58946">
        <ele>68.4</ele>
        <time>2024-11-23T08:58:39Z</time>
      </trkpt>
      <trkpt lat="45.06676" lon="-0.58946">
        <ele>68.4</ele>
        <time>2024-11-23T08:58:40Z</time>
      </trkpt>
      <trkpt lat="45.06677" lon="-0.58945">
        <ele>68.3</ele>
        <time>2024-11-23T08:58:41Z</time>
      </trkpt>
      <trkpt lat="45.06679" lon="-0.58945">
        <ele>68.2</ele>
        <time>2024-11-23T08:58:42Z</time>
      </trkpt>
      <trkpt lat="45.0668" lon="-0.58945">
        <ele>68.2</ele>
        <time>2024-11-23T08:58:43Z</time>
      </trkpt>
      <trkpt lat="45.06682" lon="-0.58945">
        <ele>68.2</ele>
        <time>2024-11-23T08:58:44Z</time>
      </trkpt>
      <trkpt lat="45.06683" lon="-0.58945">
        <ele>68.2</ele>
        <time>2024-11-23T08:58:45Z</time>
      </trkpt>
      <trkpt lat="45.06685" lon="-0.58945">
        <ele>68.2</ele>
        <time>2024-11-23T08:58:46Z</time>
      </trkpt>
      <trkpt lat="45.06686" lon="-0.58945">
        <ele>68.1</ele>
        <time>2024-11-23T08:58:47Z</time>
      </trkpt>
      <trkpt lat="45.06688" lon="-0.58944">
        <ele>68.2</ele>
        <time>2024-11-23T08:58:48Z</time>
      </trkpt>
      <trkpt lat="45.06689" lon="-0.58944">
        <ele>68.1</ele>
        <time>2024-11-23T08:58:49Z</time>
      </trkpt>
      <trkpt lat="45.0669" lon="-0.58944">
        <ele>68.1</ele>
        <time>2024-11-23T08:58:50Z</time>
      </trkpt>
      <trkpt lat="45.06691" lon="-0.58944">
        <ele>68.1</ele>
        <time>2024-11-23T08:58:51Z</time>
      </trkpt>
      <trkpt lat="45.06693" lon="-0.58944">
        <ele>68.1</ele>
        <time>2024-11-23T08:58:52Z</time>
      </trkpt>
      <trkpt lat="45.06694" lon="-0.58943">
        <ele>68.1</ele>
        <time>2024-11-23T08:58:53Z</time>
      </trkpt>
      <trkpt lat="45.06695" lon="-0.58943">
        <ele>68</ele>
        <time>2024-11-23T08:58:54Z</time>
      </trkpt>
      <trkpt lat="45.06696" lon="-0.58943">
        <ele>68</ele>
        <time>2024-11-23T08:58:55Z</time>
      </trkpt>
      <trkpt lat="45.06697" lon="-0.58943">
        <ele>68</ele>
        <time>2024-11-23T08:58:56Z</time>
      </trkpt>
      <trkpt lat="45.06699" lon="-0.58942">
        <ele>67.9</ele>
        <time>2024-11-23T08:58:57Z</time>
      </trkpt>
      <trkpt lat="45.06701" lon="-0.58941">
        <ele>67.9</ele>
        <time>2024-11-23T08:58:58Z</time>
      </trkpt>
      <trkpt lat="45.06702" lon="-0.58941">
        <ele>67.9</ele>
        <time>2024-11-23T08:58:59Z</time>
      </trkpt>
      <trkpt lat="45.06703" lon="-0.5894">
        <ele>67.9</ele>
        <time>2024-11-23T08:59:00Z</time>
      </trkpt>
      <trkpt lat="45.06704" lon="-0.5894">
        <ele>67.8</ele>
        <time>2024-11-23T08:59:01Z</time>
      </trkpt>
      <trkpt lat="45.06705" lon="-0.5894">
        <ele>67.9</ele>
        <time>2024-11-23T08:59:02Z</time>
      </trkpt>
      <trkpt lat="45.06707" lon="-0.58939">
        <ele>67.8</ele>
        <time>2024-11-23T08:59:03Z</time>
      </trkpt>
      <trkpt lat="45.06708" lon="-0.58939">
        <ele>67.8</ele>
        <time>2024-11-23T08:59:04Z</time>
      </trkpt>
      <trkpt lat="45.0671" lon="-0.5894">
        <ele>67.8</ele>
        <time>2024-11-23T08:59:05Z</time>
      </trkpt>
      <trkpt lat="45.06711" lon="-0.5894">
        <ele>67.7</ele>
        <time>2024-11-23T08:59:06Z</time>
      </trkpt>
      <trkpt lat="45.06713" lon="-0.58942">
        <ele>67.7</ele>
        <time>2024-11-23T08:59:07Z</time>
      </trkpt>
      <trkpt lat="45.06714" lon="-0.58943">
        <ele>67.7</ele>
        <time>2024-11-23T08:59:08Z</time>
      </trkpt>
      <trkpt lat="45.06716" lon="-0.58944">
        <ele>67.7</ele>
        <time>2024-11-23T08:59:09Z</time>
      </trkpt>
      <trkpt lat="45.06716" lon="-0.58945">
        <ele>67.6</ele>
        <time>2024-11-23T08:59:10Z</time>
      </trkpt>
      <trkpt lat="45.06717" lon="-0.58945">
        <ele>67.6</ele>
        <time>2024-11-23T08:59:11Z</time>
      </trkpt>
      <trkpt lat="45.06719" lon="-0.58946">
        <ele>67.6</ele>
        <time>2024-11-23T08:59:12Z</time>
      </trkpt>
      <trkpt lat="45.0672" lon="-0.58947">
        <ele>67.6</ele>
        <time>2024-11-23T08:59:13Z</time>
      </trkpt>
      <trkpt lat="45.06721" lon="-0.58948">
        <ele>67.6</ele>
        <time>2024-11-23T08:59:14Z</time>
      </trkpt>
      <trkpt lat="45.06722" lon="-0.58949">
        <ele>67.5</ele>
        <time>2024-11-23T08:59:15Z</time>
      </trkpt>
      <trkpt lat="45.06724" lon="-0.5895">
        <ele>67.5</ele>
        <time>2024-11-23T08:59:16Z</time>
      </trkpt>
      <trkpt lat="45.06725" lon="-0.58951">
        <ele>67.4</ele>
        <time>2024-11-23T08:59:17Z</time>
      </trkpt>
      <trkpt lat="45.06727" lon="-0.58951">
        <ele>67.4</ele>
        <time>2024-11-23T08:59:18Z</time>
      </trkpt>
      <trkpt lat="45.06728" lon="-0.58952">
        <ele>67.4</ele>
        <time>2024-11-23T08:59:19Z</time>
      </trkpt>
      <trkpt lat="45.06729" lon="-0.58952">
        <ele>67.3</ele>
        <time>2024-11-23T08:59:20Z</time>
      </trkpt>
      <trkpt lat="45.06731" lon="-0.58953">
        <ele>67.3</ele>
        <time>2024-11-23T08:59:21Z</time>
      </trkpt>
      <trkpt lat="45.06732" lon="-0.58954">
        <ele>67.2</ele>
        <time>2024-11-23T08:59:22Z</time>
      </trkpt>
      <trkpt lat="45.06734" lon="-0.58955">
        <ele>67.2</ele>
        <time>2024-11-23T08:59:23Z</time>
      </trkpt>
      <trkpt lat="45.06735" lon="-0.58956">
        <ele>67.1</ele>
        <time>2024-11-23T08:59:24Z</time>
      </trkpt>
      <trkpt lat="45.06736" lon="-0.58956">
        <ele>67.1</ele>
        <time>2024-11-23T08:59:25Z</time>
      </trkpt>
      <trkpt lat="45.06759" lon="-0.58968">
        <ele>66.6</ele>
        <time>2024-11-23T08:59:39Z</time>
      </trkpt>
      <trkpt lat="45.0676" lon="-0.58969">
        <ele>66.6</ele>
        <time>2024-11-23T08:59:40Z</time>
      </trkpt>
      <trkpt lat="45.06761" lon="-0.5897">
        <ele>66.5</ele>
        <time>2024-11-23T08:59:41Z</time>
      </trkpt>
      <trkpt lat="45.06763" lon="-0.5897">
        <ele>66.5</ele>
        <time>2024-11-23T08:59:42Z</time>
      </trkpt>
      <trkpt lat="45.06764" lon="-0.58971">
        <ele>66.5</ele>
        <time>2024-11-23T08:59:43Z</time>
      </trkpt>
      <trkpt lat="45.06765" lon="-0.58972">
        <ele>66.5</ele>
        <time>2024-11-23T08:59:44Z</time>
      </trkpt>
      <trkpt lat="45.06767" lon="-0.58973">
        <ele>66.5</ele>
        <time>2024-11-23T08:59:45Z</time>
      </trkpt>
      <trkpt lat="45.06768" lon="-0.58973">
        <ele>66.5</ele>
        <time>2024-11-23T08:59:46Z</time>
      </trkpt>
      <trkpt lat="45.0677" lon="-0.58974">
        <ele>66.5</ele>
        <time>2024-11-23T08:59:47Z</time>
      </trkpt>
      <trkpt lat="45.06771" lon="-0.58975">
        <ele>66.5</ele>
        <time>2024-11-23T08:59:48Z</time>
      </trkpt>
      <trkpt lat="45.06773" lon="-0.58976">
        <ele>66.5</ele>
        <time>2024-11-23T08:59:49Z</time>
      </trkpt>
      <trkpt lat="45.06774" lon="-0.58976">
        <ele>66.5</ele>
        <time>2024-11-23T08:59:50Z</time>
      </trkpt>
      <trkpt lat="45.06776" lon="-0.58977">
        <ele>66.5</ele>
        <time>2024-11-23T08:59:51Z</time>
      </trkpt>
      <trkpt lat="45.06778" lon="-0.58977">
        <ele>66.5</ele>
        <time>2024-11-23T08:59:52Z</time>
      </trkpt>
      <trkpt lat="45.06779" lon="-0.58978">
        <ele>66.5</ele>
        <time>2024-11-23T08:59:53Z</time>
      </trkpt>
      <trkpt lat="45.06781" lon="-0.58978">
        <ele>66.5</ele>
        <time>2024-11-23T08:59:54Z</time>
      </trkpt>
      <trkpt lat="45.06782" lon="-0.58979">
        <ele>66.5</ele>
        <time>2024-11-23T08:59:55Z</time>
      </trkpt>
      <trkpt lat="45.06844" lon="-0.59009">
        <ele>67.7</ele>
        <time>2024-11-23T09:00:41Z</time>
      </trkpt>
      <trkpt lat="45.06846" lon="-0.5901">
        <ele>67.7</ele>
        <time>2024-11-23T09:00:42Z</time>
      </trkpt>
      <trkpt lat="45.06848" lon="-0.59011">
        <ele>67.7</ele>
        <time>2024-11-23T09:00:43Z</time>
      </trkpt>
      <trkpt lat="45.0685" lon="-0.59013">
        <ele>67.7</ele>
        <time>2024-11-23T09:00:44Z</time>
      </trkpt>
      <trkpt lat="45.06852" lon="-0.59013">
        <ele>67.8</ele>
        <time>2024-11-23T09:00:45Z</time>
      </trkpt>
      <trkpt lat="45.06853" lon="-0.59014">
        <ele>67.8</ele>
        <time>2024-11-23T09:00:46Z</time>
      </trkpt>
      <trkpt lat="45.06854" lon="-0.59015">
        <ele>67.8</ele>
        <time>2024-11-23T09:00:47Z</time>
      </trkpt>
      <trkpt lat="45.06856" lon="-0.59015">
        <ele>67.8</ele>
        <time>2024-11-23T09:00:48Z</time>
      </trkpt>
      <trkpt lat="45.06857" lon="-0.59015">
        <ele>67.8</ele>
        <time>2024-11-23T09:00:49Z</time>
      </trkpt>
      <trkpt lat="45.06859" lon="-0.59016">
        <ele>67.8</ele>
        <time>2024-11-23T09:00:50Z</time>
      </trkpt>
      <trkpt lat="45.0686" lon="-0.59017">
        <ele>67.8</ele>
        <time>2024-11-23T09:00:51Z</time>
      </trkpt>
      <trkpt lat="45.06862" lon="-0.59017">
        <ele>67.8</ele>
        <time>2024-11-23T09:00:52Z</time>
      </trkpt>
      <trkpt lat="45.06863" lon="-0.59018">
        <ele>67.8</ele>
        <time>2024-11-23T09:00:53Z</time>
      </trkpt>
      <trkpt lat="45.06865" lon="-0.59018">
        <ele>67.8</ele>
        <time>2024-11-23T09:00:54Z</time>
      </trkpt>
      <trkpt lat="45.06876" lon="-0.59025">
        <ele>67.8</ele>
        <time>2024-11-23T09:00:55Z</time>
      </trkpt>
      <trkpt lat="45.06886" lon="-0.59031">
        <ele>67.9</ele>
        <time>2024-11-23T09:01:26Z</time>
      </trkpt>
      <trkpt lat="45.06896" lon="-0.59037">
        <ele>67.9</ele>
        <time>2024-11-23T09:01:27Z</time>
      </trkpt>
      <trkpt lat="45.06906" lon="-0.59042">
        <ele>67.9</ele>
        <time>2024-11-23T09:01:28Z</time>
      </trkpt>
      <trkpt lat="45.06915" lon="-0.59048">
        <ele>68</ele>
        <time>2024-11-23T09:01:29Z</time>
      </trkpt>
      <trkpt lat="45.06917" lon="-0.59049">
        <ele>68</ele>
        <time>2024-11-23T09:01:30Z</time>
      </trkpt>
      <trkpt lat="45.06918" lon="-0.5905">
        <ele>68</ele>
        <time>2024-11-23T09:01:31Z</time>
      </trkpt>
      <trkpt lat="45.06919" lon="-0.59052">
        <ele>68</ele>
        <time>2024-11-23T09:01:32Z</time>
      </trkpt>
      <trkpt lat="45.0692" lon="-0.59053">
        <ele>68</ele>
        <time>2024-11-23T09:01:33Z</time>
      </trkpt>
      <trkpt lat="45.06921" lon="-0.59054">
        <ele>68</ele>
        <time>2024-11-23T09:01:34Z</time>
      </trkpt>
      <trkpt lat="45.06923" lon="-0.59055">
        <ele>68</ele>
        <time>2024-11-23T09:01:35Z</time>
      </trkpt>
      <trkpt lat="45.06924" lon="-0.59056">
        <ele>68</ele>
        <time>2024-11-23T09:01:36Z</time>
      </trkpt>
      <trkpt lat="45.06925" lon="-0.59058">
        <ele>68</ele>
        <time>2024-11-23T09:01:37Z</time>
      </trkpt>
      <trkpt lat="45.06927" lon="-0.5906">
        <ele>68</ele>
        <time>2024-11-23T09:01:38Z</time>
      </trkpt>
      <trkpt lat="45.06928" lon="-0.59061">
        <ele>68</ele>
        <time>2024-11-23T09:01:39Z</time>
      </trkpt>
      <trkpt lat="45.06929" lon="-0.59062">
        <ele>68</ele>
        <time>2024-11-23T09:01:40Z</time>
      </trkpt>
      <trkpt lat="45.06979" lon="-0.59136">
        <ele>67.9</ele>
        <time>2024-11-23T09:02:28Z</time>
      </trkpt>
      <trkpt lat="45.06981" lon="-0.59139">
        <ele>67.9</ele>
        <time>2024-11-23T09:02:29Z</time>
      </trkpt>
      <trkpt lat="45.06981" lon="-0.5914">
        <ele>67.9</ele>
        <time>2024-11-23T09:02:30Z</time>
      </trkpt>
      <trkpt lat="45.06982" lon="-0.5914">
        <ele>67.9</ele>
        <time>2024-11-23T09:02:31Z</time>
      </trkpt>
      <trkpt lat="45.06983" lon="-0.59143">
        <ele>67.9</ele>
        <time>2024-11-23T09:02:32Z</time>
      </trkpt>
      <trkpt lat="45.06984" lon="-0.59143">
        <ele>67.9</ele>
        <time>2024-11-23T09:02:33Z</time>
      </trkpt>
      <trkpt lat="45.06984" lon="-0.59144">
        <ele>67.9</ele>
        <time>2024-11-23T09:02:34Z</time>
      </trkpt>
      <trkpt lat="45.06985" lon="-0.59146">
        <ele>67.9</ele>
        <time>2024-11-23T09:02:35Z</time>
      </trkpt>
      <trkpt lat="45.06986" lon="-0.59148">
        <ele>67.6</ele>
        <time>2024-11-23T09:02:36Z</time>
      </trkpt>
      <trkpt lat="45.06986" lon="-0.5915">
        <ele>67.6</ele>
        <time>2024-11-23T09:02:37Z</time>
      </trkpt>
      <trkpt lat="45.06986" lon="-0.59153">
        <ele>67.6</ele>
        <time>2024-11-23T09:02:38Z</time>
      </trkpt>
      <trkpt lat="45.06987" lon="-0.59154">
        <ele>67.6</ele>
        <time>2024-11-23T09:02:39Z</time>
      </trkpt>
      <trkpt lat="45.06988" lon="-0.59156">
        <ele>67.5</ele>
        <time>2024-11-23T09:02:40Z</time>
      </trkpt>
      <trkpt lat="45.0701" lon="-0.59216">
        <ele>63</ele>
        <time>2024-11-23T09:03:20Z</time>
      </trkpt>
      <trkpt lat="45.07011" lon="-0.59217">
        <ele>63</ele>
        <time>2024-11-23T09:03:21Z</time>
      </trkpt>
      <trkpt lat="45.07011" lon="-0.59218">
        <ele>63</ele>
        <time>2024-11-23T09:03:22Z</time>
      </trkpt>
      <trkpt lat="45.07011" lon="-0.59219">
        <ele>63.2</ele>
        <time>2024-11-23T09:03:23Z</time>
      </trkpt>
      <trkpt lat="45.07015" lon="-0.59234">
        <ele>63.4</ele>
        <time>2024-11-23T09:03:24Z</time>
      </trkpt>
      <trkpt lat="45.07018" lon="-0.59247">
        <ele>63.6</ele>
        <time>2024-11-23T09:03:25Z</time>
      </trkpt>
      <trkpt lat="45.07021" lon="-0.5926">
        <ele>63.7</ele>
        <time>2024-11-23T09:04:02Z</time>
      </trkpt>
      <trkpt lat="45.07024" lon="-0.59273">
        <ele>63.7</ele>
        <time>2024-11-23T09:04:03Z</time>
      </trkpt>
      <trkpt lat="45.07027" lon="-0.59286">
        <ele>63.7</ele>
        <time>2024-11-23T09:04:04Z</time>
      </trkpt>
      <trkpt lat="45.07027" lon="-0.59288">
        <ele>63.9</ele>
        <time>2024-11-23T09:04:05Z</time>
      </trkpt>
      <trkpt lat="45.07027" lon="-0.5929">
        <ele>63.9</ele>
        <time>2024-11-23T09:04:06Z</time>
      </trkpt>
      <trkpt lat="45.07028" lon="-0.59291">
        <ele>63.4</ele>
        <time>2024-11-23T09:04:07Z</time>
      </trkpt>
      <trkpt lat="45.07029" lon="-0.593">
        <ele>63.7</ele>
        <time>2024-11-23T09:04:08Z</time>
      </trkpt>
      <trkpt lat="45.0703" lon="-0.59308">
        <ele>64.2</ele>
        <time>2024-11-23T09:04:09Z</time>
      </trkpt>
      <trkpt lat="45.07031" lon="-0.59316">
        <ele>64.2</ele>
        <time>2024-11-23T09:04:10Z</time>
      </trkpt>
      <trkpt lat="45.07032" lon="-0.59324">
        <ele>64.8</ele>
        <time>2024-11-23T09:04:44Z</time>
      </trkpt>
      <trkpt lat="45.07033" lon="-0.59332">
        <ele>65.5</ele>
        <time>2024-11-23T09:04:45Z</time>
      </trkpt>
      <trkpt lat="45.07034" lon="-0.5934">
        <ele>66</ele>
        <time>2024-11-23T09:04:46Z</time>
      </trkpt>
      <trkpt lat="45.07032" lon="-0.59341">
        <ele>66</ele>
        <time>2024-11-23T09:04:47Z</time>
      </trkpt>
      <trkpt lat="45.07032" lon="-0.59341">
        <ele>66</ele>
        <time>2024-11-23T09:04:48Z</time>
      </trkpt>
      <trkpt lat="45.07031" lon="-0.59341">
        <ele>66</ele>
        <time>2024-11-23T09:04:49Z</time>
      </trkpt>
      <trkpt lat="45.07032" lon="-0.59348">
        <ele>66.4</ele>
        <time>2024-11-23T09:04:50Z</time>
      </trkpt>
      <trkpt lat="45.07032" lon="-0.59355">
        <ele>66.6</ele>
        <time>2024-11-23T09:04:51Z</time>
      </trkpt>
      <trkpt lat="45.07033" lon="-0.59362">
        <ele>66.8</ele>
        <time>2024-11-23T09:04:52Z</time>
      </trkpt>
      <trkpt lat="45.07033" lon="-0.59369">
        <ele>66.8</ele>
        <time>2024-11-23T09:04:53Z</time>
      </trkpt>
      <trkpt lat="45.07034" lon="-0.59376">
        <ele>66.9</ele>
        <time>2024-11-23T09:04:54Z</time>
      </trkpt>
      <trkpt lat="45.07034" lon="-0.59383">
        <ele>66.4</ele>
        <time>2024-11-23T09:04:55Z</time>
      </trkpt>
      <trkpt lat="45.07035" lon="-0.5939">
        <ele>66.4</ele>
        <time>2024-11-23T09:04:56Z</time>
      </trkpt>
      <trkpt lat="45.07035" lon="-0.59397">
        <ele>66.4</ele>
        <time>2024-11-23T09:05:31Z</time>
      </trkpt>
      <trkpt lat="45.07036" lon="-0.59404">
        <ele>66.4</ele>
        <time>2024-11-23T09:05:32Z</time>
      </trkpt>
      <trkpt lat="45.07036" lon="-0.59411">
        <ele>66.4</ele>
        <time>2024-11-23T09:05:33Z</time>
      </trkpt>
      <trkpt lat="45.07037" lon="-0.59418">
        <ele>65.9</ele>
        <time>2024-11-23T09:05:34Z</time>
      </trkpt>
      <trkpt lat="45.07037" lon="-0.5942">
        <ele>65.9</ele>
        <time>2024-11-23T09:05:35Z</time>
      </trkpt>
      <trkpt lat="45.07037" lon="-0.59421">
        <ele>66.4</ele>
        <time>2024-11-23T09:05:36Z</time>
      </trkpt>
      <trkpt lat="45.07037" lon="-0.59424">
        <ele>66.4</ele>
        <time>2024-11-23T09:05:37Z</time>
      </trkpt>
      <trkpt lat="45.07037" lon="-0.59426">
        <ele>66.5</ele>
        <time>2024-11-23T09:05:38Z</time>
      </trkpt>
      <trkpt lat="45.07037" lon="-0.59427">
        <ele>66.5</ele>
        <time>2024-11-23T09:05:39Z</time>
      </trkpt>
      <trkpt lat="45.07037" lon="-0.59429">
        <ele>66.5</ele>
        <time>2024-11-23T09:05:40Z</time>
      </trkpt>
      <trkpt lat="45.07037" lon="-0.59431">
        <ele>66.5</ele>
        <time>2024-11-23T09:05:41Z</time>
      </trkpt>
      <trkpt lat="45.07036" lon="-0.59432">
        <ele>66.5</ele>
        <time>2024-11-23T09:05:42Z</time>
      </trkpt>
      <trkpt lat="45.07036" lon="-0.59434">
        <ele>66.5</ele>
        <time>2024-11-23T09:05:43Z</time>
      </trkpt>
      <trkpt lat="45.07036" lon="-0.59436">
        <ele>66.5</ele>
        <time>2024-11-23T09:05:44Z</time>
      </trkpt>
      <trkpt lat="45.07036" lon="-0.59438">
        <ele>66.5</ele>
        <time>2024-11-23T09:05:45Z</time>
      </trkpt>
      <trkpt lat="45.07036" lon="-0.59439">
        <ele>66.5</ele>
        <time>2024-11-23T09:05:46Z</time>
      </trkpt>
      <trkpt lat="45.07035" lon="-0.59442">
        <ele>66.5</ele>
        <time>2024-11-23T09:05:47Z</time>
      </trkpt>
      <trkpt lat="45.07035" lon="-0.59444">
        <ele>66.5</ele>
        <time>2024-11-23T09:05:48Z</time>
      </trkpt>
      <trkpt lat="45.07035" lon="-0.59445">
        <ele>66.5</ele>
        <time>2024-11-23T09:05:49Z</time>
      </trkpt>
      <trkpt lat="45.07035" lon="-0.59448">
        <ele>66.5</ele>
        <time>2024-11-23T09:05:50Z</time>
      </trkpt>
      <trkpt lat="45.07035" lon="-0.59449">
        <ele>66.5</ele>
        <time>2024-11-23T09:05:51Z</time>
      </trkpt>
      <trkpt lat="45.07035" lon="-0.5945">
        <ele>66.5</ele>
        <time>2024-11-23T09:05:52Z</time>
      </trkpt>
      <trkpt lat="45.07035" lon="-0.59452">
        <ele>66.5</ele>
        <time>2024-11-23T09:05:53Z</time>
      </trkpt>
      <trkpt lat="45.07035" lon="-0.59454">
        <ele>66.5</ele>
        <time>2024-11-23T09:05:54Z</time>
      </trkpt>
      <trkpt lat="45.07035" lon="-0.59455">
        <ele>66.5</ele>
        <time>2024-11-23T09:05:55Z</time>
      </trkpt>
      <trkpt lat="45.07035" lon="-0.59456">
        <ele>66.5</ele>
        <time>2024-11-23T09:05:56Z</time>
      </trkpt>
      <trkpt lat="45.07036" lon="-0.59457">
        <ele>66.5</ele>
        <time>2024-11-23T09:05:57Z</time>
      </trkpt>
      <trkpt lat="45.07036" lon="-0.59459">
        <ele>66.6</ele>
        <time>2024-11-23T09:05:58Z</time>
      </trkpt>
      <trkpt lat="45.07036" lon="-0.5946">
        <ele>66.5</ele>
        <time>2024-11-23T09:05:59Z</time>
      </trkpt>
      <trkpt lat="45.07035" lon="-0.59461">
        <ele>66.5</ele>
        <time>2024-11-23T09:06:00Z</time>
      </trkpt>
      <trkpt lat="45.07034" lon="-0.59461">
        <ele>66.6</ele>
        <time>2024-11-23T09:06:01Z</time>
      </trkpt>
      <trkpt lat="45.07034" lon="-0.59462">
        <ele>67.1</ele>
        <time>2024-11-23T09:06:02Z</time>
      </trkpt>
      <trkpt lat="45.07033" lon="-0.59464">
        <ele>67.1</ele>
        <time>2024-11-23T09:06:03Z</time>
      </trkpt>
      <trkpt lat="45.07034" lon="-0.59465">
        <ele>67.1</ele>
        <time>2024-11-23T09:06:04Z</time>
      </trkpt>
      <trkpt lat="45.07034" lon="-0.59466">
        <ele>66.6</ele>
        <time>2024-11-23T09:06:05Z</time>
      </trkpt>
      <trkpt lat="45.07034" lon="-0.59466">
        <ele>66.6</ele>
        <time>2024-11-23T09:06:06Z</time>
      </trkpt>
      <trkpt lat="45.07034" lon="-0.59469">
        <ele>66.6</ele>
        <time>2024-11-23T09:06:07Z</time>
      </trkpt>
      <trkpt lat="45.07035" lon="-0.59471">
        <ele>66.6</ele>
        <time>2024-11-23T09:06:08Z</time>
      </trkpt>
      <trkpt lat="45.07035" lon="-0.59472">
        <ele>66.5</ele>
        <time>2024-11-23T09:06:09Z</time>
      </trkpt>
      <trkpt lat="45.07035" lon="-0.59474">
        <ele>66.5</ele>
        <time>2024-11-23T09:06:10Z</time>
      </trkpt>
      <trkpt lat="45.07036" lon="-0.59477">
        <ele>66.5</ele>
        <time>2024-11-23T09:06:11Z</time>
      </trkpt>
      <trkpt lat="45.07037" lon="-0.59481">
        <ele>65.9</ele>
        <time>2024-11-23T09:06:12Z</time>
      </trkpt>
      <trkpt lat="45.07038" lon="-0.59484">
        <ele>65.9</ele>
        <time>2024-11-23T09:06:13Z</time>
      </trkpt>
      <trkpt lat="45.07038" lon="-0.59486">
        <ele>65.9</ele>
        <time>2024-11-23T09:06:14Z</time>
      </trkpt>
      <trkpt lat="45.07038" lon="-0.59487">
        <ele>65.9</ele>
        <time>2024-11-23T09:06:15Z</time>
      </trkpt>
      <trkpt lat="45.07039" lon="-0.59488">
        <ele>65.9</ele>
        <time>2024-11-23T09:06:16Z</time>
      </trkpt>
      <trkpt lat="45.0704" lon="-0.5949">
        <ele>65.9</ele>
        <time>2024-11-23T09:06:17Z</time>
      </trkpt>
      <trkpt lat="45.0704" lon="-0.59491">
        <ele>65.4</ele>
        <time>2024-11-23T09:06:18Z</time>
      </trkpt>
      <trkpt lat="45.07041" lon="-0.59492">
        <ele>65.4</ele>
        <time>2024-11-23T09:06:19Z</time>
      </trkpt>
      <trkpt lat="45.07041" lon="-0.59494">
        <ele>65.3</ele>
        <time>2024-11-23T09:06:20Z</time>
      </trkpt>
      <trkpt lat="45.07041" lon="-0.59496">
        <ele>65.3</ele>
        <time>2024-11-23T09:06:21Z</time>
      </trkpt>
      <trkpt lat="45.07042" lon="-0.59497">
        <ele>65.3</ele>
        <time>2024-11-23T09:06:22Z</time>
      </trkpt>
      <trkpt lat="45.07042" lon="-0.59499">
        <ele>65.3</ele>
        <time>2024-11-23T09:06:23Z</time>
      </trkpt>
      <trkpt lat="45.07042" lon="-0.59501">
        <ele>65.3</ele>
        <time>2024-11-23T09:06:24Z</time>
      </trkpt>
      <trkpt lat="45.07043" lon="-0.59502">
        <ele>65.3</ele>
        <time>2024-11-23T09:06:25Z</time>
      </trkpt>
      <trkpt lat="45.07043" lon="-0.59503">
        <ele>65.3</ele>
        <time>2024-11-23T09:06:26Z</time>
      </trkpt>
      <trkpt lat="45.07043" lon="-0.59505">
        <ele>65.3</ele>
        <time>2024-11-23T09:06:27Z</time>
      </trkpt>
      <trkpt lat="45.07043" lon="-0.59507">
        <ele>64.7</ele>
        <time>2024-11-23T09:06:28Z</time>
      </trkpt>
      <trkpt lat="45.07044" lon="-0.5951">
        <ele>64.7</ele>
        <time>2024-11-23T09:06:29Z</time>
      </trkpt>
      <trkpt lat="45.07044" lon="-0.59511">
        <ele>64.7</ele>
        <time>2024-11-23T09:06:30Z</time>
      </trkpt>
      <trkpt lat="45.07044" lon="-0.59512">
        <ele>64.7</ele>
        <time>2024-11-23T09:06:31Z</time>
      </trkpt>
      <trkpt lat="45.07044" lon="-0.59514">
        <ele>64.7</ele>
        <time>2024-11-23T09:06:32Z</time>
      </trkpt>
      <trkpt lat="45.07044" lon="-0.59516">
        <ele>64.7</ele>
        <time>2024-11-23T09:06:33Z</time>
      </trkpt>
      <trkpt lat="45.07044" lon="-0.59517">
        <ele>64.7</ele>
        <time>2024-11-23T09:06:34Z</time>
      </trkpt>
      <trkpt lat="45.07044" lon="-0.59519">
        <ele>64.7</ele>
        <time>2024-11-23T09:06:35Z</time>
      </trkpt>
      <trkpt lat="45.07044" lon="-0.59521">
        <ele>64.7</ele>
        <time>2024-11-23T09:06:36Z</time>
      </trkpt>
      <trkpt lat="45.07044" lon="-0.59522">
        <ele>64.7</ele>
        <time>2024-11-23T09:06:37Z</time>
      </trkpt>
      <trkpt lat="45.07044" lon="-0.59524">
        <ele>64.7</ele>
        <time>2024-11-23T09:06:38Z</time>
      </trkpt>
      <trkpt lat="45.07044" lon="-0.59525">
        <ele>64.7</ele>
        <time>2024-11-23T09:06:39Z</time>
      </trkpt>
      <trkpt lat="45.07044" lon="-0.59525">
        <ele>64.7</ele>
        <time>2024-11-23T09:06:40Z</time>
      </trkpt>
      <trkpt lat="45.07044" lon="-0.59526">
        <ele>64.7</ele>
        <time>2024-11-23T09:06:41Z</time>
      </trkpt>
      <trkpt lat="45.07044" lon="-0.59526">
        <ele>64.7</ele>
        <time>2024-11-23T09:06:42Z</time>
      </trkpt>
      <trkpt lat="45.07044" lon="-0.59526">
        <ele>64.7</ele>
        <time>2024-11-23T09:06:43Z</time>
      </trkpt>
      <trkpt lat="45.07044" lon="-0.59526">
        <ele>64.7</ele>
        <time>2024-11-23T09:06:44Z</time>
      </trkpt>
      <trkpt lat="45.07044" lon="-0.59526">
        <ele>64.8</ele>
        <time>2024-11-23T09:06:45Z</time>
      </trkpt>
      <trkpt lat="45.07044" lon="-0.59526">
        <ele>64.8</ele>
        <time>2024-11-23T09:06:46Z</time>
      </trkpt>
      <trkpt lat="45.07044" lon="-0.59526">
        <ele>64.8</ele>
        <time>2024-11-23T09:06:47Z</time>
      </trkpt>
      <trkpt lat="45.07044" lon="-0.59527">
        <ele>64.8</ele>
        <time>2024-11-23T09:06:48Z</time>
      </trkpt>
      <trkpt lat="45.07044" lon="-0.59527">
        <ele>64.8</ele>
        <time>2024-11-23T09:06:49Z</time>
      </trkpt>
      <trkpt lat="45.07044" lon="-0.59527">
        <ele>64.8</ele>
        <time>2024-11-23T09:06:50Z</time>
      </trkpt>
      <trkpt lat="45.07044" lon="-0.59527">
        <ele>64.8</ele>
        <time>2024-11-23T09:06:51Z</time>
      </trkpt>
      <trkpt lat="45.07044" lon="-0.59527">
        <ele>64.8</ele>
        <time>2024-11-23T09:06:52Z</time>
      </trkpt>
      <trkpt lat="45.07044" lon="-0.59528">
        <ele>64.8</ele>
        <time>2024-11-23T09:06:53Z</time>
      </trkpt>
      <trkpt lat="45.07044" lon="-0.59528">
        <ele>64.8</ele>
        <time>2024-11-23T09:06:54Z</time>
      </trkpt>
      <trkpt lat="45.07044" lon="-0.59529">
        <ele>64.8</ele>
        <time>2024-11-23T09:06:55Z</time>
      </trkpt>
      <trkpt lat="45.07044" lon="-0.59531">
        <ele>64.8</ele>
        <time>2024-11-23T09:06:56Z</time>
      </trkpt>
      <trkpt lat="45.07045" lon="-0.59533">
        <ele>64.8</ele>
        <time>2024-11-23T09:06:57Z</time>
      </trkpt>
      <trkpt lat="45.07045" lon="-0.59535">
        <ele>64.8</ele>
        <time>2024-11-23T09:06:58Z</time>
      </trkpt>
      <trkpt lat="45.07045" lon="-0.59537">
        <ele>64.8</ele>
        <time>2024-11-23T09:06:59Z</time>
      </trkpt>
      <trkpt lat="45.07045" lon="-0.59539">
        <ele>64.8</ele>
        <time>2024-11-23T09:07:00Z</time>
      </trkpt>
      <trkpt lat="45.07045" lon="-0.59542">
        <ele>64.8</ele>
        <time>2024-11-23T09:07:01Z</time>
      </trkpt>
      <trkpt lat="45.07045" lon="-0.59543">
        <ele>64.8</ele>
        <time>2024-11-23T09:07:02Z</time>
      </trkpt>
      <trkpt lat="45.07044" lon="-0.59545">
        <ele>64.8</ele>
        <time>2024-11-23T09:07:03Z</time>
      </trkpt>
      <trkpt lat="45.07044" lon="-0.59548">
        <ele>64.8</ele>
        <time>2024-11-23T09:07:04Z</time>
      </trkpt>
      <trkpt lat="45.07044" lon="-0.59549">
        <ele>64.8</ele>
        <time>2024-11-23T09:07:05Z</time>
      </trkpt>
      <trkpt lat="45.07044" lon="-0.5955">
        <ele>64.7</ele>
        <time>2024-11-23T09:07:06Z</time>
      </trkpt>
      <trkpt lat="45.07043" lon="-0.59552">
        <ele>64.7</ele>
        <time>2024-11-23T09:07:07Z</time>
      </trkpt>
      <trkpt lat="45.07043" lon="-0.59554">
        <ele>64.7</ele>
        <time>2024-11-23T09:07:08Z</time>
      </trkpt>
      <trkpt lat="45.07043" lon="-0.59555">
        <ele>64.7</ele>
        <time>2024-11-23T09:07:09Z</time>
      </trkpt>
      <trkpt lat="45.07043" lon="-0.59557">
        <ele>64.7</ele>
        <time>2024-11-23T09:07:10Z</time>
      </trkpt>
      <trkpt lat="45.07043" lon="-0.59559">
        <ele>64.7</ele>
        <time>2024-11-23T09:07:11Z</time>
      </trkpt>
      <trkpt lat="45.07043" lon="-0.59561">
        <ele>64.7</ele>
        <time>2024-11-23T09:07:12Z</time>
      </trkpt>
      <trkpt lat="45.07043" lon="-0.59563">
        <ele>65.2</ele>
        <time>2024-11-23T09:07:13Z</time>
      </trkpt>
      <trkpt lat="45.07043" lon="-0.59564">
        <ele>65.2</ele>
        <time>2024-11-23T09:07:14Z</time>
      </trkpt>
      <trkpt lat="45.07043" lon="-0.59567">
        <ele>65.2</ele>
        <time>2024-11-23T09:07:15Z</time>
      </trkpt>
      <trkpt lat="45.07043" lon="-0.59568">
        <ele>65.2</ele>
        <time>2024-11-23T09:07:16Z</time>
      </trkpt>
      <trkpt lat="45.07043" lon="-0.59569">
        <ele>65.2</ele>
        <time>2024-11-23T09:07:17Z</time>
      </trkpt>
      <trkpt lat="45.07043" lon="-0.59571">
        <ele>65.2</ele>
        <time>2024-11-23T09:07:18Z</time>
      </trkpt>
      <trkpt lat="45.07043" lon="-0.59572">
        <ele>65.2</ele>
        <time>2024-11-23T09:07:19Z</time>
      </trkpt>
      <trkpt lat="45.07042" lon="-0.59574">
        <ele>65.2</ele>
        <time>2024-11-23T09:07:20Z</time>
      </trkpt>
      <trkpt lat="45.07042" lon="-0.59577">
        <ele>65.2</ele>
        <time>2024-11-23T09:07:21Z</time>
      </trkpt>
      <trkpt lat="45.07043" lon="-0.59579">
        <ele>65.2</ele>
        <time>2024-11-23T09:07:22Z</time>
      </trkpt>
      <trkpt lat="45.07043" lon="-0.5958">
        <ele>65.2</ele>
        <time>2024-11-23T09:07:23Z</time>
      </trkpt>
      <trkpt lat="45.07043" lon="-0.59582">
        <ele>65.2</ele>
        <time>2024-11-23T09:07:24Z</time>
      </trkpt>
      <trkpt lat="45.07043" lon="-0.59583">
        <ele>65.2</ele>
        <time>2024-11-23T09:07:25Z</time>
      </trkpt>
      <trkpt lat="45.07043" lon="-0.59585">
        <ele>65.2</ele>
        <time>2024-11-23T09:07:26Z</time>
      </trkpt>
      <trkpt lat="45.07043" lon="-0.59587">
        <ele>64.7</ele>
        <time>2024-11-23T09:07:27Z</time>
      </trkpt>
      <trkpt lat="45.07043" lon="-0.59589">
        <ele>64.6</ele>
        <time>2024-11-23T09:07:28Z</time>
      </trkpt>
      <trkpt lat="45.07043" lon="-0.59591">
        <ele>64.6</ele>
        <time>2024-11-23T09:07:29Z</time>
      </trkpt>
      <trkpt lat="45.07043" lon="-0.59593">
        <ele>64.6</ele>
        <time>2024-11-23T09:07:30Z</time>
      </trkpt>
      <trkpt lat="45.07043" lon="-0.59594">
        <ele>64.6</ele>
        <time>2024-11-23T09:07:31Z</time>
      </trkpt>
      <trkpt lat="45.07044" lon="-0.59596">
        <ele>64.7</ele>
        <time>2024-11-23T09:07:32Z</time>
      </trkpt>
      <trkpt lat="45.07044" lon="-0.59598">
        <ele>64.6</ele>
        <time>2024-11-23T09:07:33Z</time>
      </trkpt>
      <trkpt lat="45.07044" lon="-0.59601">
        <ele>64.6</ele>
        <time>2024-11-23T09:07:34Z</time>
      </trkpt>
      <trkpt lat="45.07044" lon="-0.59603">
        <ele>64.6</ele>
        <time>2024-11-23T09:07:35Z</time>
      </trkpt>
      <trkpt lat="45.07044" lon="-0.59604">
        <ele>64.6</ele>
        <time>2024-11-23T09:07:36Z</time>
      </trkpt>
      <trkpt lat="45.07044" lon="-0.59606">
        <ele>64.6</ele>
        <time>2024-11-23T09:07:37Z</time>
      </trkpt>
      <trkpt lat="45.07044" lon="-0.59608">
        <ele>64.6</ele>
        <time>2024-11-23T09:07:38Z</time>
      </trkpt>
      <trkpt lat="45.07044" lon="-0.59609">
        <ele>64.6</ele>
        <time>2024-11-23T09:07:39Z</time>
      </trkpt>
      <trkpt lat="45.07043" lon="-0.5961">
        <ele>64.6</ele>
        <time>2024-11-23T09:07:40Z</time>
      </trkpt>
      <trkpt lat="45.07043" lon="-0.59612">
        <ele>65.1</ele>
        <time>2024-11-23T09:07:41Z</time>
      </trkpt>
      <trkpt lat="45.07043" lon="-0.59613">
        <ele>65.1</ele>
        <time>2024-11-23T09:07:42Z</time>
      </trkpt>
      <trkpt lat="45.07042" lon="-0.59615">
        <ele>65.1</ele>
        <time>2024-11-23T09:07:43Z</time>
      </trkpt>
      <trkpt lat="45.07041" lon="-0.59616">
        <ele>65.1</ele>
        <time>2024-11-23T09:07:44Z</time>
      </trkpt>
      <trkpt lat="45.0704" lon="-0.59619">
        <ele>65.1</ele>
        <time>2024-11-23T09:07:45Z</time>
      </trkpt>
      <trkpt lat="45.0704" lon="-0.5962">
        <ele>65.6</ele>
        <time>2024-11-23T09:07:46Z</time>
      </trkpt>
      <trkpt lat="45.07039" lon="-0.59621">
        <ele>65.6</ele>
        <time>2024-11-23T09:07:47Z</time>
      </trkpt>
      <trkpt lat="45.07038" lon="-0.59622">
        <ele>65.6</ele>
        <time>2024-11-23T09:07:48Z</time>
      </trkpt>
      <trkpt lat="45.07037" lon="-0.59623">
        <ele>65.6</ele>
        <time>2024-11-23T09:07:49Z</time>
      </trkpt>
      <trkpt lat="45.07037" lon="-0.59624">
        <ele>66.1</ele>
        <time>2024-11-23T09:07:50Z</time>
      </trkpt>
      <trkpt lat="45.07036" lon="-0.59624">
        <ele>66.1</ele>
        <time>2024-11-23T09:07:51Z</time>
      </trkpt>
      <trkpt lat="45.07035" lon="-0.59625">
        <ele>66.1</ele>
        <time>2024-11-23T09:07:52Z</time>
      </trkpt>
      <trkpt lat="45.07034" lon="-0.59627">
        <ele>66.1</ele>
        <time>2024-11-23T09:07:53Z</time>
      </trkpt>
      <trkpt lat="45.07033" lon="-0.5963">
        <ele>66.6</ele>
        <time>2024-11-23T09:07:54Z</time>
      </trkpt>
      <trkpt lat="45.07033" lon="-0.59631">
        <ele>66.6</ele>
        <time>2024-11-23T09:07:55Z</time>
      </trkpt>
      <trkpt lat="45.07032" lon="-0.59632">
        <ele>66.6</ele>
        <time>2024-11-23T09:07:56Z</time>
      </trkpt>
      <trkpt lat="45.07032" lon="-0.59634">
        <ele>66.6</ele>
        <time>2024-11-23T09:07:57Z</time>
      </trkpt>
      <trkpt lat="45.07032" lon="-0.59636">
        <ele>66.6</ele>
        <time>2024-11-23T09:07:58Z</time>
      </trkpt>
      <trkpt lat="45.07032" lon="-0.59638">
        <ele>66.6</ele>
        <time>2024-11-23T09:07:59Z</time>
      </trkpt>
      <trkpt lat="45.07032" lon="-0.59639">
        <ele>66.6</ele>
        <time>2024-11-23T09:08:00Z</time>
      </trkpt>
      <trkpt lat="45.07032" lon="-0.59641">
        <ele>66.6</ele>
        <time>2024-11-23T09:08:01Z</time>
      </trkpt>
      <trkpt lat="45.07032" lon="-0.59643">
        <ele>66.6</ele>
        <time>2024-11-23T09:08:02Z</time>
      </trkpt>
      <trkpt lat="45.07032" lon="-0.59645">
        <ele>66.7</ele>
        <time>2024-11-23T09:08:03Z</time>
      </trkpt>
      <trkpt lat="45.07033" lon="-0.59646">
        <ele>66.7</ele>
        <time>2024-11-23T09:08:04Z</time>
      </trkpt>
      <trkpt lat="45.07033" lon="-0.59648">
        <ele>66.7</ele>
        <time>2024-11-23T09:08:05Z</time>
      </trkpt>
      <trkpt lat="45.07033" lon="-0.59649">
        <ele>66.8</ele>
        <time>2024-11-23T09:08:06Z</time>
      </trkpt>
      <trkpt lat="45.07033" lon="-0.59652">
        <ele>66.8</ele>
        <time>2024-11-23T09:08:07Z</time>
      </trkpt>
      <trkpt lat="45.07033" lon="-0.59654">
        <ele>66.8</ele>
        <time>2024-11-23T09:08:08Z</time>
      </trkpt>
      <trkpt lat="45.07033" lon="-0.59655">
        <ele>66.8</ele>
        <time>2024-11-23T09:08:09Z</time>
      </trkpt>
      <trkpt lat="45.07032" lon="-0.59658">
        <ele>66.9</ele>
        <time>2024-11-23T09:08:10Z</time>
      </trkpt>
      <trkpt lat="45.07032" lon="-0.59659">
        <ele>66.9</ele>
        <time>2024-11-23T09:08:11Z</time>
      </trkpt>
      <trkpt lat="45.07032" lon="-0.5966">
        <ele>66.9</ele>
        <time>2024-11-23T09:08:12Z</time>
      </trkpt>
      <trkpt lat="45.07031" lon="-0.59662">
        <ele>67.4</ele>
        <time>2024-11-23T09:08:13Z</time>
      </trkpt>
      <trkpt lat="45.0703" lon="-0.59664">
        <ele>67.4</ele>
        <time>2024-11-23T09:08:14Z</time>
      </trkpt>
      <trkpt lat="45.0703" lon="-0.59666">
        <ele>67.4</ele>
        <time>2024-11-23T09:08:15Z</time>
      </trkpt>
      <trkpt lat="45.07029" lon="-0.59667">
        <ele>67.4</ele>
        <time>2024-11-23T09:08:16Z</time>
      </trkpt>
      <trkpt lat="45.07028" lon="-0.59669">
        <ele>67.4</ele>
        <time>2024-11-23T09:08:17Z</time>
      </trkpt>
      <trkpt lat="45.07027" lon="-0.59672">
        <ele>67.8</ele>
        <time>2024-11-23T09:08:18Z</time>
      </trkpt>
      <trkpt lat="45.07026" lon="-0.59675">
        <ele>67.8</ele>
        <time>2024-11-23T09:08:19Z</time>
      </trkpt>
      <trkpt lat="45.07026" lon="-0.59676">
        <ele>67.8</ele>
        <time>2024-11-23T09:08:20Z</time>
      </trkpt>
      <trkpt lat="45.07026" lon="-0.59677">
        <ele>67.9</ele>
        <time>2024-11-23T09:08:21Z</time>
      </trkpt>
      <trkpt lat="45.07025" lon="-0.59679">
        <ele>67.9</ele>
        <time>2024-11-23T09:08:22Z</time>
      </trkpt>
      <trkpt lat="45.07024" lon="-0.59681">
        <ele>68.2</ele>
        <time>2024-11-23T09:08:23Z</time>
      </trkpt>
      <trkpt lat="45.07023" lon="-0.59683">
        <ele>68.1</ele>
        <time>2024-11-23T09:08:24Z</time>
      </trkpt>
      <trkpt lat="45.07023" lon="-0.59685">
        <ele>68.1</ele>
        <time>2024-11-23T09:08:25Z</time>
      </trkpt>
      <trkpt lat="45.07022" lon="-0.59687">
        <ele>68.1</ele>
        <time>2024-11-23T09:08:26Z</time>
      </trkpt>
      <trkpt lat="45.07022" lon="-0.59689">
        <ele>68.3</ele>
        <time>2024-11-23T09:08:27Z</time>
      </trkpt>
      <trkpt lat="45.07021" lon="-0.59691">
        <ele>68.3</ele>
        <time>2024-11-23T09:08:28Z</time>
      </trkpt>
      <trkpt lat="45.0702" lon="-0.59692">
        <ele>68.3</ele>
        <time>2024-11-23T09:08:29Z</time>
      </trkpt>
      <trkpt lat="45.07019" lon="-0.59694">
        <ele>68.3</ele>
        <time>2024-11-23T09:08:30Z</time>
      </trkpt>
      <trkpt lat="45.07018" lon="-0.59696">
        <ele>68.4</ele>
        <time>2024-11-23T09:08:31Z</time>
      </trkpt>
      <trkpt lat="45.07017" lon="-0.59698">
        <ele>68.4</ele>
        <time>2024-11-23T09:08:32Z</time>
      </trkpt>
      <trkpt lat="45.07016" lon="-0.597">
        <ele>68.4</ele>
        <time>2024-11-23T09:08:33Z</time>
      </trkpt>
      <trkpt lat="45.07015" lon="-0.59701">
        <ele>68.6</ele>
        <time>2024-11-23T09:08:34Z</time>
      </trkpt>
      <trkpt lat="45.07014" lon="-0.59703">
        <ele>68.6</ele>
        <time>2024-11-23T09:08:35Z</time>
      </trkpt>
      <trkpt lat="45.07013" lon="-0.59705">
        <ele>68.5</ele>
        <time>2024-11-23T09:08:36Z</time>
      </trkpt>
      <trkpt lat="45.07012" lon="-0.59707">
        <ele>68.7</ele>
        <time>2024-11-23T09:08:37Z</time>
      </trkpt>
      <trkpt lat="45.07011" lon="-0.59709">
        <ele>68.7</ele>
        <time>2024-11-23T09:08:38Z</time>
      </trkpt>
      <trkpt lat="45.07011" lon="-0.5971">
        <ele>68.7</ele>
        <time>2024-11-23T09:08:39Z</time>
      </trkpt>
      <trkpt lat="45.07011" lon="-0.59713">
        <ele>68.6</ele>
        <time>2024-11-23T09:08:40Z</time>
      </trkpt>
      <trkpt lat="45.07012" lon="-0.59714">
        <ele>68.6</ele>
        <time>2024-11-23T09:08:41Z</time>
      </trkpt>
      <trkpt lat="45.07012" lon="-0.59716">
        <ele>68.6</ele>
        <time>2024-11-23T09:08:42Z</time>
      </trkpt>
      <trkpt lat="45.07012" lon="-0.59719">
        <ele>68.6</ele>
        <time>2024-11-23T09:08:43Z</time>
      </trkpt>
      <trkpt lat="45.07012" lon="-0.5972">
        <ele>68.6</ele>
        <time>2024-11-23T09:08:44Z</time>
      </trkpt>
      <trkpt lat="45.07012" lon="-0.59721">
        <ele>68.6</ele>
        <time>2024-11-23T09:08:45Z</time>
      </trkpt>
      <trkpt lat="45.07012" lon="-0.59723">
        <ele>68.6</ele>
        <time>2024-11-23T09:08:46Z</time>
      </trkpt>
      <trkpt lat="45.07011" lon="-0.59725">
        <ele>68.6</ele>
        <time>2024-11-23T09:08:47Z</time>
      </trkpt>
      <trkpt lat="45.0701" lon="-0.59727">
        <ele>68.6</ele>
        <time>2024-11-23T09:08:48Z</time>
      </trkpt>
      <trkpt lat="45.0701" lon="-0.59728">
        <ele>68.6</ele>
        <time>2024-11-23T09:08:49Z</time>
      </trkpt>
      <trkpt lat="45.07009" lon="-0.5973">
        <ele>68.8</ele>
        <time>2024-11-23T09:08:50Z</time>
      </trkpt>
      <trkpt lat="45.07008" lon="-0.59732">
        <ele>68.8</ele>
        <time>2024-11-23T09:08:51Z</time>
      </trkpt>
      <trkpt lat="45.07008" lon="-0.59734">
        <ele>68.8</ele>
        <time>2024-11-23T09:08:52Z</time>
      </trkpt>
      <trkpt lat="45.07007" lon="-0.59736">
        <ele>68.7</ele>
        <time>2024-11-23T09:08:53Z</time>
      </trkpt>
      <trkpt lat="45.07007" lon="-0.59737">
        <ele>68.7</ele>
        <time>2024-11-23T09:08:54Z</time>
      </trkpt>
      <trkpt lat="45.07006" lon="-0.59739">
        <ele>68.8</ele>
        <time>2024-11-23T09:08:55Z</time>
      </trkpt>
      <trkpt lat="45.07005" lon="-0.59741">
        <ele>68.8</ele>
        <time>2024-11-23T09:08:56Z</time>
      </trkpt>
      <trkpt lat="45.07005" lon="-0.59743">
        <ele>68.8</ele>
        <time>2024-11-23T09:08:57Z</time>
      </trkpt>
      <trkpt lat="45.07003" lon="-0.59746">
        <ele>68.9</ele>
        <time>2024-11-23T09:08:58Z</time>
      </trkpt>
      <trkpt lat="45.07003" lon="-0.59747">
        <ele>69</ele>
        <time>2024-11-23T09:08:59Z</time>
      </trkpt>
      <trkpt lat="45.07003" lon="-0.59748">
        <ele>68.9</ele>
        <time>2024-11-23T09:09:00Z</time>
      </trkpt>
      <trkpt lat="45.07002" lon="-0.5975">
        <ele>68.9</ele>
        <time>2024-11-23T09:09:01Z</time>
      </trkpt>
      <trkpt lat="45.07001" lon="-0.59752">
        <ele>68.7</ele>
        <time>2024-11-23T09:09:02Z</time>
      </trkpt>
      <trkpt lat="45.07001" lon="-0.59753">
        <ele>68.7</ele>
        <time>2024-11-23T09:09:03Z</time>
      </trkpt>
      <trkpt lat="45.07" lon="-0.59754">
        <ele>68.9</ele>
        <time>2024-11-23T09:09:04Z</time>
      </trkpt>
      <trkpt lat="45.07" lon="-0.59755">
        <ele>68.9</ele>
        <time>2024-11-23T09:09:05Z</time>
      </trkpt>
      <trkpt lat="45.06999" lon="-0.59757">
        <ele>68.8</ele>
        <time>2024-11-23T09:09:06Z</time>
      </trkpt>
      <trkpt lat="45.06999" lon="-0.59759">
        <ele>68.8</ele>
        <time>2024-11-23T09:09:07Z</time>
      </trkpt>
      <trkpt lat="45.06998" lon="-0.5976">
        <ele>68.7</ele>
        <time>2024-11-23T09:09:08Z</time>
      </trkpt>
      <trkpt lat="45.06998" lon="-0.59761">
        <ele>68.7</ele>
        <time>2024-11-23T09:09:09Z</time>
      </trkpt>
      <trkpt lat="45.06997" lon="-0.59764">
        <ele>68.7</ele>
        <time>2024-11-23T09:09:10Z</time>
      </trkpt>
      <trkpt lat="45.06997" lon="-0.59765">
        <ele>68.7</ele>
        <time>2024-11-23T09:09:11Z</time>
      </trkpt>
      <trkpt lat="45.06997" lon="-0.59766">
        <ele>68.7</ele>
        <time>2024-11-23T09:09:12Z</time>
      </trkpt>
      <trkpt lat="45.06996" lon="-0.59768">
        <ele>68.7</ele>
        <time>2024-11-23T09:09:13Z</time>
      </trkpt>
      <trkpt lat="45.06995" lon="-0.59769">
        <ele>68.5</ele>
        <time>2024-11-23T09:09:14Z</time>
      </trkpt>
      <trkpt lat="45.06995" lon="-0.59771">
        <ele>68.5</ele>
        <time>2024-11-23T09:09:15Z</time>
      </trkpt>
      <trkpt lat="45.06994" lon="-0.59772">
        <ele>68.7</ele>
        <time>2024-11-23T09:09:16Z</time>
      </trkpt>
      <trkpt lat="45.06994" lon="-0.59774">
        <ele>68.5</ele>
        <time>2024-11-23T09:09:17Z</time>
      </trkpt>
      <trkpt lat="45.06993" lon="-0.59775">
        <ele>68.5</ele>
        <time>2024-11-23T09:09:18Z</time>
      </trkpt>
      <trkpt lat="45.06992" lon="-0.59778">
        <ele>68.4</ele>
        <time>2024-11-23T09:09:19Z</time>
      </trkpt>
      <trkpt lat="45.06992" lon="-0.59779">
        <ele>68.4</ele>
        <time>2024-11-23T09:09:20Z</time>
      </trkpt>
      <trkpt lat="45.06992" lon="-0.5978">
        <ele>68.4</ele>
        <time>2024-11-23T09:09:21Z</time>
      </trkpt>
      <trkpt lat="45.06991" lon="-0.59782">
        <ele>68.2</ele>
        <time>2024-11-23T09:09:22Z</time>
      </trkpt>
      <trkpt lat="45.06991" lon="-0.59784">
        <ele>68.3</ele>
        <time>2024-11-23T09:09:23Z</time>
      </trkpt>
      <trkpt lat="45.06991" lon="-0.59786">
        <ele>68.2</ele>
        <time>2024-11-23T09:09:24Z</time>
      </trkpt>
      <trkpt lat="45.0699" lon="-0.59787">
        <ele>68.2</ele>
        <time>2024-11-23T09:09:25Z</time>
      </trkpt>
      <trkpt lat="45.0699" lon="-0.59789">
        <ele>68.2</ele>
        <time>2024-11-23T09:09:26Z</time>
      </trkpt>
      <trkpt lat="45.06989" lon="-0.59792">
        <ele>68</ele>
        <time>2024-11-23T09:09:27Z</time>
      </trkpt>
      <trkpt lat="45.06989" lon="-0.59793">
        <ele>68</ele>
        <time>2024-11-23T09:09:28Z</time>
      </trkpt>
      <trkpt lat="45.06989" lon="-0.59794">
        <ele>68</ele>
        <time>2024-11-23T09:09:29Z</time>
      </trkpt>
      <trkpt lat="45.06988" lon="-0.59796">
        <ele>67.9</ele>
        <time>2024-11-23T09:09:30Z</time>
      </trkpt>
      <trkpt lat="45.06987" lon="-0.59798">
        <ele>67.9</ele>
        <time>2024-11-23T09:09:31Z</time>
      </trkpt>
      <trkpt lat="45.06987" lon="-0.59799">
        <ele>67.7</ele>
        <time>2024-11-23T09:09:32Z</time>
      </trkpt>
      <trkpt lat="45.06986" lon="-0.59802">
        <ele>67.7</ele>
        <time>2024-11-23T09:09:33Z</time>
      </trkpt>
      <trkpt lat="45.06986" lon="-0.59803">
        <ele>67.5</ele>
        <time>2024-11-23T09:09:34Z</time>
      </trkpt>
      <trkpt lat="45.06985" lon="-0.59804">
        <ele>67.6</ele>
        <time>2024-11-23T09:09:35Z</time>
      </trkpt>
      <trkpt lat="45.06984" lon="-0.59806">
        <ele>67.6</ele>
        <time>2024-11-23T09:09:36Z</time>
      </trkpt>
      <trkpt lat="45.06984" lon="-0.59807">
        <ele>67.3</ele>
        <time>2024-11-23T09:09:37Z</time>
      </trkpt>
      <trkpt lat="45.06984" lon="-0.59808">
        <ele>67.3</ele>
        <time>2024-11-23T09:09:38Z</time>
      </trkpt>
      <trkpt lat="45.06983" lon="-0.59809">
        <ele>67.3</ele>
        <time>2024-11-23T09:09:39Z</time>
      </trkpt>
      <trkpt lat="45.06983" lon="-0.59811">
        <ele>67.4</ele>
        <time>2024-11-23T09:09:40Z</time>
      </trkpt>
      <trkpt lat="45.06983" lon="-0.59813">
        <ele>67.1</ele>
        <time>2024-11-23T09:09:41Z</time>
      </trkpt>
      <trkpt lat="45.06982" lon="-0.59814">
        <ele>67.2</ele>
        <time>2024-11-23T09:09:42Z</time>
      </trkpt>
      <trkpt lat="45.06981" lon="-0.59816">
        <ele>66.9</ele>
        <time>2024-11-23T09:09:43Z</time>
      </trkpt>
      <trkpt lat="45.06981" lon="-0.59817">
        <ele>66.9</ele>
        <time>2024-11-23T09:09:44Z</time>
      </trkpt>
      <trkpt lat="45.0698" lon="-0.59819">
        <ele>66.9</ele>
        <time>2024-11-23T09:09:45Z</time>
      </trkpt>
      <trkpt lat="45.0698" lon="-0.5982">
        <ele>66.7</ele>
        <time>2024-11-23T09:09:46Z</time>
      </trkpt>
      <trkpt lat="45.06979" lon="-0.59822">
        <ele>66.7</ele>
        <time>2024-11-23T09:09:47Z</time>
      </trkpt>
      <trkpt lat="45.06979" lon="-0.59824">
        <ele>66.5</ele>
        <time>2024-11-23T09:09:48Z</time>
      </trkpt>
      <trkpt lat="45.06978" lon="-0.59825">
        <ele>66.5</ele>
        <time>2024-11-23T09:09:49Z</time>
      </trkpt>
      <trkpt lat="45.06978" lon="-0.59827">
        <ele>66.5</ele>
        <time>2024-11-23T09:09:50Z</time>
      </trkpt>
      <trkpt lat="45.06978" lon="-0.59828">
        <ele>66.5</ele>
        <time>2024-11-23T09:09:51Z</time>
      </trkpt>
      <trkpt lat="45.06977" lon="-0.5983">
        <ele>66.3</ele>
        <time>2024-11-23T09:09:52Z</time>
      </trkpt>
      <trkpt lat="45.06977" lon="-0.59832">
        <ele>66.3</ele>
        <time>2024-11-23T09:09:53Z</time>
      </trkpt>
      <trkpt lat="45.06977" lon="-0.59833">
        <ele>66</ele>
        <time>2024-11-23T09:09:54Z</time>
      </trkpt>
      <trkpt lat="45.06976" lon="-0.59836">
        <ele>66.1</ele>
        <time>2024-11-23T09:09:55Z</time>
      </trkpt>
      <trkpt lat="45.06976" lon="-0.59837">
        <ele>65.9</ele>
        <time>2024-11-23T09:09:56Z</time>
      </trkpt>
      <trkpt lat="45.06976" lon="-0.59839">
        <ele>65.9</ele>
        <time>2024-11-23T09:09:57Z</time>
      </trkpt>
      <trkpt lat="45.06976" lon="-0.59841">
        <ele>65.6</ele>
        <time>2024-11-23T09:09:58Z</time>
      </trkpt>
      <trkpt lat="45.06975" lon="-0.59843">
        <ele>65.6</ele>
        <time>2024-11-23T09:09:59Z</time>
      </trkpt>
      <trkpt lat="45.06975" lon="-0.59844">
        <ele>65.6</ele>
        <time>2024-11-23T09:10:00Z</time>
      </trkpt>
      <trkpt lat="45.06975" lon="-0.59847">
        <ele>65.3</ele>
        <time>2024-11-23T09:10:01Z</time>
      </trkpt>
      <trkpt lat="45.06975" lon="-0.59848">
        <ele>65.3</ele>
        <time>2024-11-23T09:10:02Z</time>
      </trkpt>
      <trkpt lat="45.06975" lon="-0.5985">
        <ele>65.3</ele>
        <time>2024-11-23T09:10:03Z</time>
      </trkpt>
      <trkpt lat="45.06974" lon="-0.59851">
        <ele>65</ele>
        <time>2024-11-23T09:10:04Z</time>
      </trkpt>
      <trkpt lat="45.06974" lon="-0.59853">
        <ele>65</ele>
        <time>2024-11-23T09:10:05Z</time>
      </trkpt>
      <trkpt lat="45.06974" lon="-0.59855">
        <ele>64.7</ele>
        <time>2024-11-23T09:10:06Z</time>
      </trkpt>
      <trkpt lat="45.06974" lon="-0.59856">
        <ele>64.7</ele>
        <time>2024-11-23T09:10:07Z</time>
      </trkpt>
      <trkpt lat="45.06974" lon="-0.59857">
        <ele>64.7</ele>
        <time>2024-11-23T09:10:08Z</time>
      </trkpt>
      <trkpt lat="45.06974" lon="-0.5986">
        <ele>64.4</ele>
        <time>2024-11-23T09:10:09Z</time>
      </trkpt>
      <trkpt lat="45.06974" lon="-0.59861">
        <ele>64.4</ele>
        <time>2024-11-23T09:10:10Z</time>
      </trkpt>
      <trkpt lat="45.06973" lon="-0.59863">
        <ele>64.2</ele>
        <time>2024-11-23T09:10:11Z</time>
      </trkpt>
      <trkpt lat="45.06973" lon="-0.59864">
        <ele>64.2</ele>
        <time>2024-11-23T09:10:12Z</time>
      </trkpt>
      <trkpt lat="45.06973" lon="-0.59866">
        <ele>64.2</ele>
        <time>2024-11-23T09:10:13Z</time>
      </trkpt>
      <trkpt lat="45.06972" lon="-0.59867">
        <ele>63.9</ele>
        <time>2024-11-23T09:10:14Z</time>
      </trkpt>
      <trkpt lat="45.06972" lon="-0.59869">
        <ele>63.9</ele>
        <time>2024-11-23T09:10:15Z</time>
      </trkpt>
      <trkpt lat="45.06971" lon="-0.5987">
        <ele>63.9</ele>
        <time>2024-11-23T09:10:16Z</time>
      </trkpt>
      <trkpt lat="45.06971" lon="-0.59872">
        <ele>63.6</ele>
        <time>2024-11-23T09:10:17Z</time>
      </trkpt>
      <trkpt lat="45.06971" lon="-0.59873">
        <ele>63.6</ele>
        <time>2024-11-23T09:10:18Z</time>
      </trkpt>
      <trkpt lat="45.0697" lon="-0.59874">
        <ele>63.6</ele>
        <time>2024-11-23T09:10:19Z</time>
      </trkpt>
      <trkpt lat="45.0697" lon="-0.59874">
        <ele>63.7</ele>
        <time>2024-11-23T09:10:20Z</time>
      </trkpt>
      <trkpt lat="45.06969" lon="-0.59874">
        <ele>63.7</ele>
        <time>2024-11-23T09:10:21Z</time>
      </trkpt>
      <trkpt lat="45.06968" lon="-0.59874">
        <ele>63.8</ele>
        <time>2024-11-23T09:10:22Z</time>
      </trkpt>
      <trkpt lat="45.06968" lon="-0.59874">
        <ele>63.8</ele>
        <time>2024-11-23T09:10:23Z</time>
      </trkpt>
      <trkpt lat="45.06967" lon="-0.59874">
        <ele>63.8</ele>
        <time>2024-11-23T09:10:24Z</time>
      </trkpt>
      <trkpt lat="45.06967" lon="-0.59875">
        <ele>63.9</ele>
        <time>2024-11-23T09:10:25Z</time>
      </trkpt>
      <trkpt lat="45.06967" lon="-0.59875">
        <ele>63.9</ele>
        <time>2024-11-23T09:10:26Z</time>
      </trkpt>
      <trkpt lat="45.06966" lon="-0.59875">
        <ele>63.9</ele>
        <time>2024-11-23T09:10:27Z</time>
      </trkpt>
      <trkpt lat="45.06965" lon="-0.59876">
        <ele>63.6</ele>
        <time>2024-11-23T09:10:28Z</time>
      </trkpt>
      <trkpt lat="45.06965" lon="-0.59876">
        <ele>63.6</ele>
        <time>2024-11-23T09:10:29Z</time>
      </trkpt>
      <trkpt lat="45.06965" lon="-0.59876">
        <ele>63.7</ele>
        <time>2024-11-23T09:10:30Z</time>
      </trkpt>
      <trkpt lat="45.06964" lon="-0.59876">
        <ele>63.7</ele>
        <time>2024-11-23T09:10:31Z</time>
      </trkpt>
      <trkpt lat="45.06964" lon="-0.59876">
        <ele>63.8</ele>
        <time>2024-11-23T09:10:32Z</time>
      </trkpt>
      <trkpt lat="45.06964" lon="-0.59876">
        <ele>63.8</ele>
        <time>2024-11-23T09:10:33Z</time>
      </trkpt>
      <trkpt lat="45.06964" lon="-0.59876">
        <ele>63.8</ele>
        <time>2024-11-23T09:10:34Z</time>
      </trkpt>
      <trkpt lat="45.06963" lon="-0.59876">
        <ele>63.8</ele>
        <time>2024-11-23T09:10:35Z</time>
      </trkpt>
      <trkpt lat="45.06963" lon="-0.59876">
        <ele>63.8</ele>
        <time>2024-11-23T09:10:36Z</time>
      </trkpt>
      <trkpt lat="45.06963" lon="-0.59876">
        <ele>63.9</ele>
        <time>2024-11-23T09:10:37Z</time>
      </trkpt>
      <trkpt lat="45.06962" lon="-0.59876">
        <ele>63.9</ele>
        <time>2024-11-23T09:10:38Z</time>
      </trkpt>
      <trkpt lat="45.06962" lon="-0.59876">
        <ele>63.9</ele>
        <time>2024-11-23T09:10:39Z</time>
      </trkpt>
      <trkpt lat="45.06962" lon="-0.59876">
        <ele>63.9</ele>
        <time>2024-11-23T09:10:40Z</time>
      </trkpt>
      <trkpt lat="45.06962" lon="-0.59876">
        <ele>63.9</ele>
        <time>2024-11-23T09:10:41Z</time>
      </trkpt>
      <trkpt lat="45.06961" lon="-0.59876">
        <ele>63.9</ele>
        <time>2024-11-23T09:10:42Z</time>
      </trkpt>
      <trkpt lat="45.06959" lon="-0.59873">
        <ele>64.3</ele>
        <time>2024-11-23T09:10:43Z</time>
      </trkpt>
      <trkpt lat="45.06958" lon="-0.59873">
        <ele>64.5</ele>
        <time>2024-11-23T09:10:44Z</time>
      </trkpt>
      <trkpt lat="45.06954" lon="-0.59875">
        <ele>64.6</ele>
        <time>2024-11-23T09:10:45Z</time>
      </trkpt>
      <trkpt lat="45.06954" lon="-0.59878">
        <ele>64.4</ele>
        <time>2024-11-23T09:10:46Z</time>
      </trkpt>
      <trkpt lat="45.06954" lon="-0.5988">
        <ele>64.1</ele>
        <time>2024-11-23T09:10:47Z</time>
      </trkpt>
      <trkpt lat="45.06955" lon="-0.59882">
        <ele>64.1</ele>
        <time>2024-11-23T09:10:48Z</time>
      </trkpt>
      <trkpt lat="45.06955" lon="-0.59883">
        <ele>64.1</ele>
        <time>2024-11-23T09:10:49Z</time>
      </trkpt>
      <trkpt lat="45.06954" lon="-0.59884">
        <ele>63.8</ele>
        <time>2024-11-23T09:10:50Z</time>
      </trkpt>
      <trkpt lat="45.06954" lon="-0.59886">
        <ele>63.8</ele>
        <time>2024-11-23T09:10:51Z</time>
      </trkpt>
      <trkpt lat="45.06953" lon="-0.59887">
        <ele>63.9</ele>
        <time>2024-11-23T09:10:52Z</time>
      </trkpt>
      <trkpt lat="45.06953" lon="-0.59888">
        <ele>63.9</ele>
        <time>2024-11-23T09:10:53Z</time>
      </trkpt>
      <trkpt lat="45.06954" lon="-0.5989">
        <ele>63.6</ele>
        <time>2024-11-23T09:10:54Z</time>
      </trkpt>
      <trkpt lat="45.06956" lon="-0.59892">
        <ele>63.4</ele>
        <time>2024-11-23T09:10:55Z</time>
      </trkpt>
      <trkpt lat="45.06958" lon="-0.59893">
        <ele>63.1</ele>
        <time>2024-11-23T09:10:56Z</time>
      </trkpt>
      <trkpt lat="45.06959" lon="-0.59895">
        <ele>63</ele>
        <time>2024-11-23T09:11:36Z</time>
      </trkpt>
      <trkpt lat="45.06961" lon="-0.59896">
        <ele>63</ele>
        <time>2024-11-23T09:11:37Z</time>
      </trkpt>
      <trkpt lat="45.06962" lon="-0.59898">
        <ele>62.5</ele>
        <time>2024-11-23T09:11:38Z</time>
      </trkpt>
      <trkpt lat="45.06962" lon="-0.59899">
        <ele>62.5</ele>
        <time>2024-11-23T09:11:39Z</time>
      </trkpt>
      <trkpt lat="45.06962" lon="-0.599">
        <ele>62.5</ele>
        <time>2024-11-23T09:11:40Z</time>
      </trkpt>
      <trkpt lat="45.06962" lon="-0.59901">
        <ele>62.5</ele>
        <time>2024-11-23T09:11:41Z</time>
      </trkpt>
      <trkpt lat="45.06961" lon="-0.59902">
        <ele>62.4</ele>
        <time>2024-11-23T09:11:42Z</time>
      </trkpt>
      <trkpt lat="45.06959" lon="-0.59902">
        <ele>62.5</ele>
        <time>2024-11-23T09:11:43Z</time>
      </trkpt>
      <trkpt lat="45.06958" lon="-0.59902">
        <ele>62.6</ele>
        <time>2024-11-23T09:11:44Z</time>
      </trkpt>
      <trkpt lat="45.06957" lon="-0.59902">
        <ele>62.7</ele>
        <time>2024-11-23T09:11:45Z</time>
      </trkpt>
      <trkpt lat="45.06955" lon="-0.59903">
        <ele>62.7</ele>
        <time>2024-11-23T09:11:46Z</time>
      </trkpt>
      <trkpt lat="45.06954" lon="-0.59903">
        <ele>62.9</ele>
        <time>2024-11-23T09:11:47Z</time>
      </trkpt>
      <trkpt lat="45.06954" lon="-0.59904">
        <ele>62.9</ele>
        <time>2024-11-23T09:11:48Z</time>
      </trkpt>
      <trkpt lat="45.06953" lon="-0.59905">
        <ele>62.9</ele>
        <time>2024-11-23T09:11:49Z</time>
      </trkpt>
      <trkpt lat="45.06953" lon="-0.59907">
        <ele>62.6</ele>
        <time>2024-11-23T09:11:50Z</time>
      </trkpt>
      <trkpt lat="45.06953" lon="-0.59908">
        <ele>62.6</ele>
        <time>2024-11-23T09:11:51Z</time>
      </trkpt>
      <trkpt lat="45.06953" lon="-0.59909">
        <ele>62.7</ele>
        <time>2024-11-23T09:11:52Z</time>
      </trkpt>
      <trkpt lat="45.06952" lon="-0.5991">
        <ele>62.6</ele>
        <time>2024-11-23T09:11:53Z</time>
      </trkpt>
      <trkpt lat="45.06952" lon="-0.59911">
        <ele>62.7</ele>
        <time>2024-11-23T09:11:54Z</time>
      </trkpt>
      <trkpt lat="45.06954" lon="-0.59923">
        <ele>61.9</ele>
        <time>2024-11-23T09:11:55Z</time>
      </trkpt>
      <trkpt lat="45.06955" lon="-0.59934">
        <ele>61.7</ele>
        <time>2024-11-23T09:11:56Z</time>
      </trkpt>
      <trkpt lat="45.06956" lon="-0.59946">
        <ele>61.2</ele>
        <time>2024-11-23T09:11:57Z</time>
      </trkpt>
      <trkpt lat="45.06958" lon="-0.59957">
        <ele>61.2</ele>
        <time>2024-11-23T09:13:13Z</time>
      </trkpt>
      <trkpt lat="45.06959" lon="-0.59969">
        <ele>61</ele>
        <time>2024-11-23T09:13:14Z</time>
      </trkpt>
      <trkpt lat="45.0696" lon="-0.5998">
        <ele>61</ele>
        <time>2024-11-23T09:13:15Z</time>
      </trkpt>
      <trkpt lat="45.06962" lon="-0.59992">
        <ele>60.6</ele>
        <time>2024-11-23T09:13:16Z</time>
      </trkpt>
      <trkpt lat="45.06962" lon="-0.59993">
        <ele>60.6</ele>
        <time>2024-11-23T09:13:17Z</time>
      </trkpt>
      <trkpt lat="45.06963" lon="-0.59993">
        <ele>60.6</ele>
        <time>2024-11-23T09:13:18Z</time>
      </trkpt>
      <trkpt lat="45.06963" lon="-0.59995">
        <ele>60.6</ele>
        <time>2024-11-23T09:13:19Z</time>
      </trkpt>
      <trkpt lat="45.06963" lon="-0.59997">
        <ele>60.6</ele>
        <time>2024-11-23T09:13:20Z</time>
      </trkpt>
      <trkpt lat="45.06963" lon="-0.59998">
        <ele>60.6</ele>
        <time>2024-11-23T09:13:21Z</time>
      </trkpt>
      <trkpt lat="45.06963" lon="-0.6">
        <ele>60.6</ele>
        <time>2024-11-23T09:13:22Z</time>
      </trkpt>
      <trkpt lat="45.06963" lon="-0.60001">
        <ele>60.5</ele>
        <time>2024-11-23T09:13:23Z</time>
      </trkpt>
      <trkpt lat="45.06965" lon="-0.60007">
        <ele>60.2</ele>
        <time>2024-11-23T09:13:24Z</time>
      </trkpt>
      <trkpt lat="45.06966" lon="-0.60014">
        <ele>60.1</ele>
        <time>2024-11-23T09:13:25Z</time>
      </trkpt>
      <trkpt lat="45.06968" lon="-0.6002">
        <ele>59.8</ele>
        <time>2024-11-23T09:13:26Z</time>
      </trkpt>
      <trkpt lat="45.0697" lon="-0.60027">
        <ele>59.8</ele>
        <time>2024-11-23T09:13:27Z</time>
      </trkpt>
      <trkpt lat="45.06972" lon="-0.60033">
        <ele>59.6</ele>
        <time>2024-11-23T09:14:31Z</time>
      </trkpt>
      <trkpt lat="45.06973" lon="-0.6004">
        <ele>59.3</ele>
        <time>2024-11-23T09:14:32Z</time>
      </trkpt>
      <trkpt lat="45.06975" lon="-0.60046">
        <ele>59.4</ele>
        <time>2024-11-23T09:14:33Z</time>
      </trkpt>
      <trkpt lat="45.06976" lon="-0.60048">
        <ele>59.5</ele>
        <time>2024-11-23T09:14:34Z</time>
      </trkpt>
      <trkpt lat="45.06976" lon="-0.60049">
        <ele>59.5</ele>
        <time>2024-11-23T09:14:35Z</time>
      </trkpt>
      <trkpt lat="45.06976" lon="-0.6005">
        <ele>59.5</ele>
        <time>2024-11-23T09:14:36Z</time>
      </trkpt>
      <trkpt lat="45.06976" lon="-0.60051">
        <ele>59.5</ele>
        <time>2024-11-23T09:14:37Z</time>
      </trkpt>
      <trkpt lat="45.06975" lon="-0.60053">
        <ele>59.6</ele>
        <time>2024-11-23T09:14:38Z</time>
      </trkpt>
      <trkpt lat="45.06975" lon="-0.60054">
        <ele>59.6</ele>
        <time>2024-11-23T09:14:39Z</time>
      </trkpt>
      <trkpt lat="45.06975" lon="-0.60055">
        <ele>59.6</ele>
        <time>2024-11-23T09:14:40Z</time>
      </trkpt>
      <trkpt lat="45.0698" lon="-0.60064">
        <ele>58.8</ele>
        <time>2024-11-23T09:14:41Z</time>
      </trkpt>
      <trkpt lat="45.06984" lon="-0.60072">
        <ele>58.3</ele>
        <time>2024-11-23T09:14:42Z</time>
      </trkpt>
      <trkpt lat="45.06989" lon="-0.6008">
        <ele>57.3</ele>
        <time>2024-11-23T09:15:35Z</time>
      </trkpt>
      <trkpt lat="45.06993" lon="-0.60088">
        <ele>56.6</ele>
        <time>2024-11-23T09:15:36Z</time>
      </trkpt>
      <trkpt lat="45.06998" lon="-0.60096">
        <ele>55.2</ele>
        <time>2024-11-23T09:15:37Z</time>
      </trkpt>
      <trkpt lat="45.07002" lon="-0.60104">
        <ele>54.4</ele>
        <time>2024-11-23T09:15:38Z</time>
      </trkpt>
      <trkpt lat="45.07002" lon="-0.60105">
        <ele>54.4</ele>
        <time>2024-11-23T09:15:39Z</time>
      </trkpt>
      <trkpt lat="45.07001" lon="-0.60106">
        <ele>54.4</ele>
        <time>2024-11-23T09:15:40Z</time>
      </trkpt>
      <trkpt lat="45.07001" lon="-0.60107">
        <ele>54.4</ele>
        <time>2024-11-23T09:15:41Z</time>
      </trkpt>
      <trkpt lat="45.07001" lon="-0.60108">
        <ele>54.4</ele>
        <time>2024-11-23T09:15:42Z</time>
      </trkpt>
      <trkpt lat="45.07002" lon="-0.60136">
        <ele>54.1</ele>
        <time>2024-11-23T09:16:27Z</time>
      </trkpt>
      <trkpt lat="45.07002" lon="-0.60137">
        <ele>54.1</ele>
        <time>2024-11-23T09:16:28Z</time>
      </trkpt>
      <trkpt lat="45.07002" lon="-0.60137">
        <ele>54.2</ele>
        <time>2024-11-23T09:16:29Z</time>
      </trkpt>
      <trkpt lat="45.07002" lon="-0.60138">
        <ele>54.1</ele>
        <time>2024-11-23T09:16:30Z</time>
      </trkpt>
      <trkpt lat="45.07002" lon="-0.60139">
        <ele>54.1</ele>
        <time>2024-11-23T09:16:31Z</time>
      </trkpt>
      <trkpt lat="45.07002" lon="-0.6014">
        <ele>54.1</ele>
        <time>2024-11-23T09:16:32Z</time>
      </trkpt>
      <trkpt lat="45.07002" lon="-0.60141">
        <ele>54.1</ele>
        <time>2024-11-23T09:16:33Z</time>
      </trkpt>
      <trkpt lat="45.07002" lon="-0.60142">
        <ele>54.2</ele>
        <time>2024-11-23T09:16:34Z</time>
      </trkpt>
      <trkpt lat="45.07002" lon="-0.60142">
        <ele>54.2</ele>
        <time>2024-11-23T09:16:35Z</time>
      </trkpt>
      <trkpt lat="45.07002" lon="-0.60141">
        <ele>54.2</ele>
        <time>2024-11-23T09:16:36Z</time>
      </trkpt>
      <trkpt lat="45.07001" lon="-0.6014">
        <ele>54.2</ele>
        <time>2024-11-23T09:16:37Z</time>
      </trkpt>
      <trkpt lat="45.07001" lon="-0.6014">
        <ele>54.2</ele>
        <time>2024-11-23T09:16:38Z</time>
      </trkpt>
      <trkpt lat="45.07001" lon="-0.6014">
        <ele>54.2</ele>
        <time>2024-11-23T09:16:39Z</time>
      </trkpt>
      <trkpt lat="45.07001" lon="-0.6014">
        <ele>54.2</ele>
        <time>2024-11-23T09:16:40Z</time>
      </trkpt>
      <trkpt lat="45.07001" lon="-0.6014">
        <ele>54.2</ele>
        <time>2024-11-23T09:16:41Z</time>
      </trkpt>
      <trkpt lat="45.07001" lon="-0.60141">
        <ele>54.2</ele>
        <time>2024-11-23T09:16:42Z</time>
      </trkpt>
      <trkpt lat="45.07002" lon="-0.60143">
        <ele>54.2</ele>
        <time>2024-11-23T09:16:43Z</time>
      </trkpt>
      <trkpt lat="45.07002" lon="-0.60144">
        <ele>54.2</ele>
        <time>2024-11-23T09:16:44Z</time>
      </trkpt>
      <trkpt lat="45.07002" lon="-0.60146">
        <ele>54.2</ele>
        <time>2024-11-23T09:16:45Z</time>
      </trkpt>
      <trkpt lat="45.07002" lon="-0.60147">
        <ele>54.2</ele>
        <time>2024-11-23T09:16:46Z</time>
      </trkpt>
      <trkpt lat="45.07003" lon="-0.60149">
        <ele>54.2</ele>
        <time>2024-11-23T09:16:47Z</time>
      </trkpt>
      <trkpt lat="45.07003" lon="-0.6015">
        <ele>54.2</ele>
        <time>2024-11-23T09:16:48Z</time>
      </trkpt>
      <trkpt lat="45.07003" lon="-0.60151">
        <ele>54.2</ele>
        <time>2024-11-23T09:16:49Z</time>
      </trkpt>
      <trkpt lat="45.07003" lon="-0.60153">
        <ele>54.2</ele>
        <time>2024-11-23T09:16:50Z</time>
      </trkpt>
      <trkpt lat="45.07003" lon="-0.60154">
        <ele>54.2</ele>
        <time>2024-11-23T09:16:51Z</time>
      </trkpt>
      <trkpt lat="45.07003" lon="-0.60155">
        <ele>54.2</ele>
        <time>2024-11-23T09:16:52Z</time>
      </trkpt>
      <trkpt lat="45.07004" lon="-0.60156">
        <ele>54.2</ele>
        <time>2024-11-23T09:16:53Z</time>
      </trkpt>
      <trkpt lat="45.07003" lon="-0.60157">
        <ele>54.2</ele>
        <time>2024-11-23T09:16:54Z</time>
      </trkpt>
      <trkpt lat="45.07003" lon="-0.60158">
        <ele>54.2</ele>
        <time>2024-11-23T09:16:55Z</time>
      </trkpt>
      <trkpt lat="45.07002" lon="-0.60159">
        <ele>54.2</ele>
        <time>2024-11-23T09:16:56Z</time>
      </trkpt>
      <trkpt lat="45.07002" lon="-0.6016">
        <ele>54.2</ele>
        <time>2024-11-23T09:16:57Z</time>
      </trkpt>
      <trkpt lat="45.07001" lon="-0.6016">
        <ele>54.2</ele>
        <time>2024-11-23T09:16:58Z</time>
      </trkpt>
      <trkpt lat="45.07" lon="-0.6016">
        <ele>55.1</ele>
        <time>2024-11-23T09:16:59Z</time>
      </trkpt>
      <trkpt lat="45.06999" lon="-0.6016">
        <ele>55.1</ele>
        <time>2024-11-23T09:17:00Z</time>
      </trkpt>
      <trkpt lat="45.06998" lon="-0.60159">
        <ele>55.1</ele>
        <time>2024-11-23T09:17:01Z</time>
      </trkpt>
      <trkpt lat="45.06997" lon="-0.60158">
        <ele>55.9</ele>
        <time>2024-11-23T09:17:02Z</time>
      </trkpt>
      <trkpt lat="45.06997" lon="-0.60157">
        <ele>56</ele>
        <time>2024-11-23T09:17:03Z</time>
      </trkpt>
      <trkpt lat="45.06997" lon="-0.60156">
        <ele>56</ele>
        <time>2024-11-23T09:17:04Z</time>
      </trkpt>
      <trkpt lat="45.06997" lon="-0.60155">
        <ele>56</ele>
        <time>2024-11-23T09:17:05Z</time>
      </trkpt>
      <trkpt lat="45.06998" lon="-0.60154">
        <ele>55.2</ele>
        <time>2024-11-23T09:17:06Z</time>
      </trkpt>
      <trkpt lat="45.06998" lon="-0.60154">
        <ele>55.2</ele>
        <time>2024-11-23T09:17:07Z</time>
      </trkpt>
      <trkpt lat="45.06998" lon="-0.60154">
        <ele>55.2</ele>
        <time>2024-11-23T09:17:08Z</time>
      </trkpt>
      <trkpt lat="45.06999" lon="-0.60153">
        <ele>55.2</ele>
        <time>2024-11-23T09:17:09Z</time>
      </trkpt>
      <trkpt lat="45.06998" lon="-0.60152">
        <ele>55.2</ele>
        <time>2024-11-23T09:17:10Z</time>
      </trkpt>
      <trkpt lat="45.06997" lon="-0.60152">
        <ele>56</ele>
        <time>2024-11-23T09:17:11Z</time>
      </trkpt>
      <trkpt lat="45.06997" lon="-0.60151">
        <ele>56</ele>
        <time>2024-11-23T09:17:12Z</time>
      </trkpt>
      <trkpt lat="45.06996" lon="-0.60149">
        <ele>56.1</ele>
        <time>2024-11-23T09:17:13Z</time>
      </trkpt>
      <trkpt lat="45.06996" lon="-0.60149">
        <ele>56.1</ele>
        <time>2024-11-23T09:17:14Z</time>
      </trkpt>
      <trkpt lat="45.06995" lon="-0.60148">
        <ele>56.1</ele>
        <time>2024-11-23T09:17:15Z</time>
      </trkpt>
      <trkpt lat="45.06994" lon="-0.60148">
        <ele>56.8</ele>
        <time>2024-11-23T09:17:16Z</time>
      </trkpt>
      <trkpt lat="45.06993" lon="-0.60148">
        <ele>56.8</ele>
        <time>2024-11-23T09:17:17Z</time>
      </trkpt>
      <trkpt lat="45.06991" lon="-0.60148">
        <ele>57.5</ele>
        <time>2024-11-23T09:17:18Z</time>
      </trkpt>
      <trkpt lat="45.0699" lon="-0.60148">
        <ele>57.5</ele>
        <time>2024-11-23T09:17:19Z</time>
      </trkpt>
      <trkpt lat="45.0699" lon="-0.60148">
        <ele>57.5</ele>
        <time>2024-11-23T09:17:20Z</time>
      </trkpt>
      <trkpt lat="45.06988" lon="-0.60149">
        <ele>57.5</ele>
        <time>2024-11-23T09:17:21Z</time>
      </trkpt>
      <trkpt lat="45.06987" lon="-0.60149">
        <ele>58.2</ele>
        <time>2024-11-23T09:17:22Z</time>
      </trkpt>
      <trkpt lat="45.06986" lon="-0.6015">
        <ele>58.2</ele>
        <time>2024-11-23T09:17:23Z</time>
      </trkpt>
      <trkpt lat="45.06986" lon="-0.6015">
        <ele>58.2</ele>
        <time>2024-11-23T09:17:24Z</time>
      </trkpt>
      <trkpt lat="45.06985" lon="-0.60151">
        <ele>58.8</ele>
        <time>2024-11-23T09:17:25Z</time>
      </trkpt>
      <trkpt lat="45.06984" lon="-0.60151">
        <ele>58.8</ele>
        <time>2024-11-23T09:17:26Z</time>
      </trkpt>
      <trkpt lat="45.06984" lon="-0.6015">
        <ele>58.8</ele>
        <time>2024-11-23T09:17:27Z</time>
      </trkpt>
      <trkpt lat="45.06983" lon="-0.6015">
        <ele>58.8</ele>
        <time>2024-11-23T09:17:28Z</time>
      </trkpt>
      <trkpt lat="45.06983" lon="-0.60149">
        <ele>58.8</ele>
        <time>2024-11-23T09:17:29Z</time>
      </trkpt>
      <trkpt lat="45.06982" lon="-0.60149">
        <ele>59.4</ele>
        <time>2024-11-23T09:17:30Z</time>
      </trkpt>
      <trkpt lat="45.06982" lon="-0.60149">
        <ele>59.4</ele>
        <time>2024-11-23T09:17:31Z</time>
      </trkpt>
      <trkpt lat="45.06981" lon="-0.60148">
        <ele>59.4</ele>
        <time>2024-11-23T09:17:32Z</time>
      </trkpt>
      <trkpt lat="45.06981" lon="-0.60147">
        <ele>59.5</ele>
        <time>2024-11-23T09:17:33Z</time>
      </trkpt>
      <trkpt lat="45.06982" lon="-0.60148">
        <ele>59.5</ele>
        <time>2024-11-23T09:17:34Z</time>
      </trkpt>
      <trkpt lat="45.06982" lon="-0.60148">
        <ele>59.5</ele>
        <time>2024-11-23T09:17:35Z</time>
      </trkpt>
      <trkpt lat="45.06982" lon="-0.60148">
        <ele>59.5</ele>
        <time>2024-11-23T09:17:36Z</time>
      </trkpt>
      <trkpt lat="45.06981" lon="-0.60148">
        <ele>59.5</ele>
        <time>2024-11-23T09:17:37Z</time>
      </trkpt>
      <trkpt lat="45.06981" lon="-0.60148">
        <ele>59.5</ele>
        <time>2024-11-23T09:17:38Z</time>
      </trkpt>
      <trkpt lat="45.0698" lon="-0.60148">
        <ele>59.5</ele>
        <time>2024-11-23T09:17:39Z</time>
      </trkpt>
      <trkpt lat="45.0698" lon="-0.60149">
        <ele>59.5</ele>
        <time>2024-11-23T09:17:40Z</time>
      </trkpt>
      <trkpt lat="45.06979" lon="-0.60149">
        <ele>60.1</ele>
        <time>2024-11-23T09:17:41Z</time>
      </trkpt>
      <trkpt lat="45.06979" lon="-0.60149">
        <ele>60.1</ele>
        <time>2024-11-23T09:17:42Z</time>
      </trkpt>
      <trkpt lat="45.06979" lon="-0.60149">
        <ele>60.1</ele>
        <time>2024-11-23T09:17:43Z</time>
      </trkpt>
      <trkpt lat="45.0698" lon="-0.60148">
        <ele>59.5</ele>
        <time>2024-11-23T09:17:44Z</time>
      </trkpt>
      <trkpt lat="45.0698" lon="-0.60148">
        <ele>59.6</ele>
        <time>2024-11-23T09:17:45Z</time>
      </trkpt>
      <trkpt lat="45.0698" lon="-0.60148">
        <ele>59.6</ele>
        <time>2024-11-23T09:17:46Z</time>
      </trkpt>
      <trkpt lat="45.0698" lon="-0.60148">
        <ele>59.6</ele>
        <time>2024-11-23T09:17:47Z</time>
      </trkpt>
      <trkpt lat="45.06981" lon="-0.60148">
        <ele>59.6</ele>
        <time>2024-11-23T09:17:48Z</time>
      </trkpt>
      <trkpt lat="45.0698" lon="-0.60148">
        <ele>59.6</ele>
        <time>2024-11-23T09:17:49Z</time>
      </trkpt>
      <trkpt lat="45.0698" lon="-0.60149">
        <ele>59.6</ele>
        <time>2024-11-23T09:17:50Z</time>
      </trkpt>
      <trkpt lat="45.06979" lon="-0.60149">
        <ele>60.2</ele>
        <time>2024-11-23T09:17:51Z</time>
      </trkpt>
      <trkpt lat="45.06979" lon="-0.60151">
        <ele>60.2</ele>
        <time>2024-11-23T09:17:52Z</time>
      </trkpt>
      <trkpt lat="45.06979" lon="-0.60152">
        <ele>60.2</ele>
        <time>2024-11-23T09:17:53Z</time>
      </trkpt>
      <trkpt lat="45.06979" lon="-0.60153">
        <ele>60.3</ele>
        <time>2024-11-23T09:17:54Z</time>
      </trkpt>
      <trkpt lat="45.0698" lon="-0.60154">
        <ele>59.7</ele>
        <time>2024-11-23T09:17:55Z</time>
      </trkpt>
      <trkpt lat="45.0698" lon="-0.60155">
        <ele>59.7</ele>
        <time>2024-11-23T09:17:56Z</time>
      </trkpt>
      <trkpt lat="45.06981" lon="-0.60156">
        <ele>59.7</ele>
        <time>2024-11-23T09:17:57Z</time>
      </trkpt>
      <trkpt lat="45.06982" lon="-0.60157">
        <ele>59.7</ele>
        <time>2024-11-23T09:17:58Z</time>
      </trkpt>
      <trkpt lat="45.06982" lon="-0.60158">
        <ele>59.7</ele>
        <time>2024-11-23T09:17:59Z</time>
      </trkpt>
      <trkpt lat="45.06983" lon="-0.60159">
        <ele>59.1</ele>
        <time>2024-11-23T09:18:00Z</time>
      </trkpt>
      <trkpt lat="45.06983" lon="-0.60159">
        <ele>59.1</ele>
        <time>2024-11-23T09:18:01Z</time>
      </trkpt>
      <trkpt lat="45.06983" lon="-0.6016">
        <ele>59.1</ele>
        <time>2024-11-23T09:18:02Z</time>
      </trkpt>
      <trkpt lat="45.06984" lon="-0.60161">
        <ele>59.1</ele>
        <time>2024-11-23T09:18:03Z</time>
      </trkpt>
      <trkpt lat="45.06984" lon="-0.60161">
        <ele>59.1</ele>
        <time>2024-11-23T09:18:04Z</time>
      </trkpt>
      <trkpt lat="45.06984" lon="-0.60161">
        <ele>59.2</ele>
        <time>2024-11-23T09:18:05Z</time>
      </trkpt>
      <trkpt lat="45.06984" lon="-0.60161">
        <ele>59.2</ele>
        <time>2024-11-23T09:18:06Z</time>
      </trkpt>
      <trkpt lat="45.06984" lon="-0.60161">
        <ele>59.2</ele>
        <time>2024-11-23T09:18:07Z</time>
      </trkpt>
      <trkpt lat="45.06984" lon="-0.6016">
        <ele>59.2</ele>
        <time>2024-11-23T09:18:08Z</time>
      </trkpt>
      <trkpt lat="45.06984" lon="-0.6016">
        <ele>59.2</ele>
        <time>2024-11-23T09:18:09Z</time>
      </trkpt>
      <trkpt lat="45.06985" lon="-0.6016">
        <ele>59.2</ele>
        <time>2024-11-23T09:18:10Z</time>
      </trkpt>
      <trkpt lat="45.06985" lon="-0.6016">
        <ele>59.2</ele>
        <time>2024-11-23T09:18:11Z</time>
      </trkpt>
      <trkpt lat="45.06986" lon="-0.60159">
        <ele>58.6</ele>
        <time>2024-11-23T09:18:12Z</time>
      </trkpt>
      <trkpt lat="45.06987" lon="-0.60159">
        <ele>58.6</ele>
        <time>2024-11-23T09:18:13Z</time>
      </trkpt>
      <trkpt lat="45.06988" lon="-0.60158">
        <ele>58.6</ele>
        <time>2024-11-23T09:18:14Z</time>
      </trkpt>
      <trkpt lat="45.06989" lon="-0.60158">
        <ele>58</ele>
        <time>2024-11-23T09:18:15Z</time>
      </trkpt>
      <trkpt lat="45.06989" lon="-0.60157">
        <ele>58</ele>
        <time>2024-11-23T09:18:16Z</time>
      </trkpt>
      <trkpt lat="45.0699" lon="-0.60156">
        <ele>58</ele>
        <time>2024-11-23T09:18:17Z</time>
      </trkpt>
      <trkpt lat="45.0699" lon="-0.60156">
        <ele>58</ele>
        <time>2024-11-23T09:18:18Z</time>
      </trkpt>
      <trkpt lat="45.06991" lon="-0.60156">
        <ele>58</ele>
        <time>2024-11-23T09:18:19Z</time>
      </trkpt>
      <trkpt lat="45.06992" lon="-0.60156">
        <ele>57.4</ele>
        <time>2024-11-23T09:18:20Z</time>
      </trkpt>
      <trkpt lat="45.06992" lon="-0.60156">
        <ele>57.4</ele>
        <time>2024-11-23T09:18:21Z</time>
      </trkpt>
      <trkpt lat="45.06993" lon="-0.60157">
        <ele>57.4</ele>
        <time>2024-11-23T09:18:22Z</time>
      </trkpt>
      <trkpt lat="45.06994" lon="-0.60157">
        <ele>57.4</ele>
        <time>2024-11-23T09:18:23Z</time>
      </trkpt>
      <trkpt lat="45.06994" lon="-0.60158">
        <ele>57.4</ele>
        <time>2024-11-23T09:18:24Z</time>
      </trkpt>
      <trkpt lat="45.06995" lon="-0.6016">
        <ele>56.7</ele>
        <time>2024-11-23T09:18:25Z</time>
      </trkpt>
      <trkpt lat="45.06995" lon="-0.60161">
        <ele>56.7</ele>
        <time>2024-11-23T09:18:26Z</time>
      </trkpt>
      <trkpt lat="45.06996" lon="-0.60162">
        <ele>56.7</ele>
        <time>2024-11-23T09:18:27Z</time>
      </trkpt>
      <trkpt lat="45.06996" lon="-0.60163">
        <ele>56.7</ele>
        <time>2024-11-23T09:18:28Z</time>
      </trkpt>
      <trkpt lat="45.06996" lon="-0.60164">
        <ele>56.7</ele>
        <time>2024-11-23T09:18:29Z</time>
      </trkpt>
      <trkpt lat="45.06996" lon="-0.60165">
        <ele>56.7</ele>
        <time>2024-11-23T09:18:30Z</time>
      </trkpt>
      <trkpt lat="45.06996" lon="-0.60167">
        <ele>56.7</ele>
        <time>2024-11-23T09:18:31Z</time>
      </trkpt>
      <trkpt lat="45.06996" lon="-0.60168">
        <ele>56.7</ele>
        <time>2024-11-23T09:18:32Z</time>
      </trkpt>
      <trkpt lat="45.06995" lon="-0.6017">
        <ele>56.8</ele>
        <time>2024-11-23T09:18:33Z</time>
      </trkpt>
      <trkpt lat="45.06994" lon="-0.60171">
        <ele>57.5</ele>
        <time>2024-11-23T09:18:34Z</time>
      </trkpt>
      <trkpt lat="45.06994" lon="-0.60172">
        <ele>57.5</ele>
        <time>2024-11-23T09:18:35Z</time>
      </trkpt>
      <trkpt lat="45.06994" lon="-0.60173">
        <ele>57.5</ele>
        <time>2024-11-23T09:18:36Z</time>
      </trkpt>
      <trkpt lat="45.06994" lon="-0.60174">
        <ele>57.6</ele>
        <time>2024-11-23T09:18:37Z</time>
      </trkpt>
      <trkpt lat="45.06994" lon="-0.60175">
        <ele>57.6</ele>
        <time>2024-11-23T09:18:38Z</time>
      </trkpt>
      <trkpt lat="45.06994" lon="-0.60177">
        <ele>57.6</ele>
        <time>2024-11-23T09:18:39Z</time>
      </trkpt>
      <trkpt lat="45.06994" lon="-0.60178">
        <ele>57.6</ele>
        <time>2024-11-23T09:18:40Z</time>
      </trkpt>
      <trkpt lat="45.06995" lon="-0.60179">
        <ele>56.9</ele>
        <time>2024-11-23T09:18:41Z</time>
      </trkpt>
      <trkpt lat="45.06995" lon="-0.6018">
        <ele>56.9</ele>
        <time>2024-11-23T09:18:42Z</time>
      </trkpt>
      <trkpt lat="45.06995" lon="-0.60181">
        <ele>56.9</ele>
        <time>2024-11-23T09:18:43Z</time>
      </trkpt>
      <trkpt lat="45.06995" lon="-0.60183">
        <ele>56.9</ele>
        <time>2024-11-23T09:18:44Z</time>
      </trkpt>
      <trkpt lat="45.06996" lon="-0.60184">
        <ele>56.9</ele>
        <time>2024-11-23T09:18:45Z</time>
      </trkpt>
      <trkpt lat="45.06996" lon="-0.60184">
        <ele>56.9</ele>
        <time>2024-11-23T09:18:46Z</time>
      </trkpt>
      <trkpt lat="45.06996" lon="-0.60185">
        <ele>56.9</ele>
        <time>2024-11-23T09:18:47Z</time>
      </trkpt>
      <trkpt lat="45.06997" lon="-0.60185">
        <ele>57</ele>
        <time>2024-11-23T09:18:48Z</time>
      </trkpt>
      <trkpt lat="45.06997" lon="-0.60186">
        <ele>57</ele>
        <time>2024-11-23T09:18:49Z</time>
      </trkpt>
      <trkpt lat="45.06998" lon="-0.60186">
        <ele>56.2</ele>
        <time>2024-11-23T09:18:50Z</time>
      </trkpt>
      <trkpt lat="45.06998" lon="-0.60187">
        <ele>56.2</ele>
        <time>2024-11-23T09:18:51Z</time>
      </trkpt>
      <trkpt lat="45.06999" lon="-0.60189">
        <ele>56.2</ele>
        <time>2024-11-23T09:18:52Z</time>
      </trkpt>
      <trkpt lat="45.06999" lon="-0.60189">
        <ele>56.2</ele>
        <time>2024-11-23T09:18:53Z</time>
      </trkpt>
      <trkpt lat="45.07" lon="-0.6019">
        <ele>56.2</ele>
        <time>2024-11-23T09:18:54Z</time>
      </trkpt>
      <trkpt lat="45.07" lon="-0.60191">
        <ele>56.2</ele>
        <time>2024-11-23T09:18:55Z</time>
      </trkpt>
      <trkpt lat="45.07" lon="-0.60192">
        <ele>56.2</ele>
        <time>2024-11-23T09:18:56Z</time>
      </trkpt>
      <trkpt lat="45.07001" lon="-0.60193">
        <ele>55.4</ele>
        <time>2024-11-23T09:18:57Z</time>
      </trkpt>
      <trkpt lat="45.07001" lon="-0.60193">
        <ele>55.4</ele>
        <time>2024-11-23T09:18:58Z</time>
      </trkpt>
      <trkpt lat="45.07001" lon="-0.60194">
        <ele>55.5</ele>
        <time>2024-11-23T09:18:59Z</time>
      </trkpt>
      <trkpt lat="45.07002" lon="-0.60195">
        <ele>55.5</ele>
        <time>2024-11-23T09:19:00Z</time>
      </trkpt>
      <trkpt lat="45.07002" lon="-0.60196">
        <ele>55.5</ele>
        <time>2024-11-23T09:19:01Z</time>
      </trkpt>
      <trkpt lat="45.07003" lon="-0.60197">
        <ele>55.5</ele>
        <time>2024-11-23T09:19:02Z</time>
      </trkpt>
      <trkpt lat="45.07003" lon="-0.60199">
        <ele>55.6</ele>
        <time>2024-11-23T09:19:03Z</time>
      </trkpt>
      <trkpt lat="45.07003" lon="-0.602">
        <ele>55.6</ele>
        <time>2024-11-23T09:19:04Z</time>
      </trkpt>
      <trkpt lat="45.07004" lon="-0.60201">
        <ele>54.8</ele>
        <time>2024-11-23T09:19:05Z</time>
      </trkpt>
      <trkpt lat="45.07004" lon="-0.60202">
        <ele>54.9</ele>
        <time>2024-11-23T09:19:06Z</time>
      </trkpt>
      <trkpt lat="45.07005" lon="-0.60202">
        <ele>54.9</ele>
        <time>2024-11-23T09:19:07Z</time>
      </trkpt>
      <trkpt lat="45.07005" lon="-0.60203">
        <ele>54.9</ele>
        <time>2024-11-23T09:19:08Z</time>
      </trkpt>
      <trkpt lat="45.07005" lon="-0.60203">
        <ele>54.9</ele>
        <time>2024-11-23T09:19:09Z</time>
      </trkpt>
      <trkpt lat="45.07005" lon="-0.60203">
        <ele>54.9</ele>
        <time>2024-11-23T09:19:10Z</time>
      </trkpt>
      <trkpt lat="45.07005" lon="-0.60203">
        <ele>54.9</ele>
        <time>2024-11-23T09:19:11Z</time>
      </trkpt>
      <trkpt lat="45.07005" lon="-0.60204">
        <ele>54.9</ele>
        <time>2024-11-23T09:19:12Z</time>
      </trkpt>
      <trkpt lat="45.07005" lon="-0.60204">
        <ele>54.9</ele>
        <time>2024-11-23T09:19:13Z</time>
      </trkpt>
      <trkpt lat="45.07005" lon="-0.60204">
        <ele>54.9</ele>
        <time>2024-11-23T09:19:14Z</time>
      </trkpt>
      <trkpt lat="45.07005" lon="-0.60204">
        <ele>54.9</ele>
        <time>2024-11-23T09:19:15Z</time>
      </trkpt>
      <trkpt lat="45.07005" lon="-0.60205">
        <ele>55</ele>
        <time>2024-11-23T09:19:16Z</time>
      </trkpt>
      <trkpt lat="45.07006" lon="-0.60205">
        <ele>55</ele>
        <time>2024-11-23T09:19:17Z</time>
      </trkpt>
      <trkpt lat="45.07006" lon="-0.60205">
        <ele>55</ele>
        <time>2024-11-23T09:19:18Z</time>
      </trkpt>
      <trkpt lat="45.07006" lon="-0.60205">
        <ele>55</ele>
        <time>2024-11-23T09:19:19Z</time>
      </trkpt>
      <trkpt lat="45.07006" lon="-0.60206">
        <ele>55</ele>
        <time>2024-11-23T09:19:20Z</time>
      </trkpt>
      <trkpt lat="45.07006" lon="-0.60207">
        <ele>55.1</ele>
        <time>2024-11-23T09:19:21Z</time>
      </trkpt>
      <trkpt lat="45.07006" lon="-0.60208">
        <ele>55.1</ele>
        <time>2024-11-23T09:19:22Z</time>
      </trkpt>
      <trkpt lat="45.07007" lon="-0.60209">
        <ele>54.3</ele>
        <time>2024-11-23T09:19:23Z</time>
      </trkpt>
      <trkpt lat="45.07008" lon="-0.6021">
        <ele>54.3</ele>
        <time>2024-11-23T09:19:24Z</time>
      </trkpt>
      <trkpt lat="45.07008" lon="-0.6021">
        <ele>54.4</ele>
        <time>2024-11-23T09:19:25Z</time>
      </trkpt>
      <trkpt lat="45.07008" lon="-0.6021">
        <ele>54.4</ele>
        <time>2024-11-23T09:19:26Z</time>
      </trkpt>
      <trkpt lat="45.07009" lon="-0.60211">
        <ele>54.5</ele>
        <time>2024-11-23T09:19:27Z</time>
      </trkpt>
      <trkpt lat="45.07009" lon="-0.60211">
        <ele>54.5</ele>
        <time>2024-11-23T09:19:28Z</time>
      </trkpt>
      <trkpt lat="45.07009" lon="-0.60212">
        <ele>54.5</ele>
        <time>2024-11-23T09:19:29Z</time>
      </trkpt>
      <trkpt lat="45.0701" lon="-0.60214">
        <ele>53.8</ele>
        <time>2024-11-23T09:19:30Z</time>
      </trkpt>
      <trkpt lat="45.0701" lon="-0.60216">
        <ele>54</ele>
        <time>2024-11-23T09:19:31Z</time>
      </trkpt>
      <trkpt lat="45.07011" lon="-0.60218">
        <ele>54</ele>
        <time>2024-11-23T09:19:32Z</time>
      </trkpt>
      <trkpt lat="45.07011" lon="-0.6022">
        <ele>54.2</ele>
        <time>2024-11-23T09:19:33Z</time>
      </trkpt>
      <trkpt lat="45.07012" lon="-0.60223">
        <ele>54.2</ele>
        <time>2024-11-23T09:19:34Z</time>
      </trkpt>
      <trkpt lat="45.07013" lon="-0.60224">
        <ele>53.7</ele>
        <time>2024-11-23T09:19:35Z</time>
      </trkpt>
      <trkpt lat="45.07013" lon="-0.60226">
        <ele>53.7</ele>
        <time>2024-11-23T09:19:36Z</time>
      </trkpt>
      <trkpt lat="45.07014" lon="-0.60229">
        <ele>53.9</ele>
        <time>2024-11-23T09:19:37Z</time>
      </trkpt>
      <trkpt lat="45.07014" lon="-0.6023">
        <ele>53.9</ele>
        <time>2024-11-23T09:19:38Z</time>
      </trkpt>
      <trkpt lat="45.07015" lon="-0.60232">
        <ele>54.1</ele>
        <time>2024-11-23T09:19:39Z</time>
      </trkpt>
      <trkpt lat="45.07015" lon="-0.60234">
        <ele>54.1</ele>
        <time>2024-11-23T09:19:40Z</time>
      </trkpt>
      <trkpt lat="45.07016" lon="-0.60236">
        <ele>53.5</ele>
        <time>2024-11-23T09:19:41Z</time>
      </trkpt>
      <trkpt lat="45.07016" lon="-0.60239">
        <ele>53.5</ele>
        <time>2024-11-23T09:19:42Z</time>
      </trkpt>
      <trkpt lat="45.07016" lon="-0.6024">
        <ele>53.5</ele>
        <time>2024-11-23T09:19:43Z</time>
      </trkpt>
      <trkpt lat="45.07017" lon="-0.60241">
        <ele>53.7</ele>
        <time>2024-11-23T09:19:44Z</time>
      </trkpt>
      <trkpt lat="45.07017" lon="-0.60242">
        <ele>53.8</ele>
        <time>2024-11-23T09:19:45Z</time>
      </trkpt>
      <trkpt lat="45.07017" lon="-0.60244">
        <ele>53.8</ele>
        <time>2024-11-23T09:19:46Z</time>
      </trkpt>
      <trkpt lat="45.07017" lon="-0.60245">
        <ele>54</ele>
        <time>2024-11-23T09:19:47Z</time>
      </trkpt>
      <trkpt lat="45.07017" lon="-0.60246">
        <ele>54</ele>
        <time>2024-11-23T09:19:48Z</time>
      </trkpt>
      <trkpt lat="45.07018" lon="-0.60248">
        <ele>54</ele>
        <time>2024-11-23T09:19:49Z</time>
      </trkpt>
      <trkpt lat="45.07018" lon="-0.60248">
        <ele>54</ele>
        <time>2024-11-23T09:19:50Z</time>
      </trkpt>
      <trkpt lat="45.07018" lon="-0.6025">
        <ele>54.3</ele>
        <time>2024-11-23T09:19:51Z</time>
      </trkpt>
      <trkpt lat="45.07019" lon="-0.6025">
        <ele>54.3</ele>
        <time>2024-11-23T09:19:52Z</time>
      </trkpt>
      <trkpt lat="45.07019" lon="-0.60252">
        <ele>53.5</ele>
        <time>2024-11-23T09:19:53Z</time>
      </trkpt>
      <trkpt lat="45.0702" lon="-0.60253">
        <ele>53.5</ele>
        <time>2024-11-23T09:19:54Z</time>
      </trkpt>
      <trkpt lat="45.0702" lon="-0.60254">
        <ele>53.8</ele>
        <time>2024-11-23T09:19:55Z</time>
      </trkpt>
      <trkpt lat="45.07021" lon="-0.60255">
        <ele>53.8</ele>
        <time>2024-11-23T09:19:56Z</time>
      </trkpt>
      <trkpt lat="45.07021" lon="-0.60256">
        <ele>53.8</ele>
        <time>2024-11-23T09:19:57Z</time>
      </trkpt>
      <trkpt lat="45.07022" lon="-0.60257">
        <ele>53.1</ele>
        <time>2024-11-23T09:19:58Z</time>
      </trkpt>
      <trkpt lat="45.07023" lon="-0.60257">
        <ele>53.1</ele>
        <time>2024-11-23T09:19:59Z</time>
      </trkpt>
      <trkpt lat="45.07024" lon="-0.60259">
        <ele>53.4</ele>
        <time>2024-11-23T09:20:00Z</time>
      </trkpt>
      <trkpt lat="45.07024" lon="-0.6026">
        <ele>53.4</ele>
        <time>2024-11-23T09:20:01Z</time>
      </trkpt>
      <trkpt lat="45.07025" lon="-0.6026">
        <ele>52.6</ele>
        <time>2024-11-23T09:20:02Z</time>
      </trkpt>
      <trkpt lat="45.07025" lon="-0.60261">
        <ele>52.6</ele>
        <time>2024-11-23T09:20:03Z</time>
      </trkpt>
      <trkpt lat="45.07027" lon="-0.60263">
        <ele>52.9</ele>
        <time>2024-11-23T09:20:04Z</time>
      </trkpt>
      <trkpt lat="45.07027" lon="-0.60264">
        <ele>52.9</ele>
        <time>2024-11-23T09:20:05Z</time>
      </trkpt>
      <trkpt lat="45.07028" lon="-0.60265">
        <ele>52.2</ele>
        <time>2024-11-23T09:20:06Z</time>
      </trkpt>
      <trkpt lat="45.07029" lon="-0.60267">
        <ele>52.5</ele>
        <time>2024-11-23T09:20:07Z</time>
      </trkpt>
      <trkpt lat="45.0703" lon="-0.60268">
        <ele>52.5</ele>
        <time>2024-11-23T09:20:08Z</time>
      </trkpt>
      <trkpt lat="45.0703" lon="-0.60269">
        <ele>52.5</ele>
        <time>2024-11-23T09:20:09Z</time>
      </trkpt>
      <trkpt lat="45.07031" lon="-0.60269">
        <ele>51.8</ele>
        <time>2024-11-23T09:20:10Z</time>
      </trkpt>
      <trkpt lat="45.07032" lon="-0.6027">
        <ele>52.1</ele>
        <time>2024-11-23T09:20:11Z</time>
      </trkpt>
      <trkpt lat="45.07033" lon="-0.60272">
        <ele>52.1</ele>
        <time>2024-11-23T09:20:12Z</time>
      </trkpt>
      <trkpt lat="45.07033" lon="-0.60273">
        <ele>52.1</ele>
        <time>2024-11-23T09:20:13Z</time>
      </trkpt>
      <trkpt lat="45.07034" lon="-0.60274">
        <ele>51.4</ele>
        <time>2024-11-23T09:20:14Z</time>
      </trkpt>
      <trkpt lat="45.07035" lon="-0.60275">
        <ele>51.7</ele>
        <time>2024-11-23T09:20:15Z</time>
      </trkpt>
      <trkpt lat="45.07035" lon="-0.60277">
        <ele>51.7</ele>
        <time>2024-11-23T09:20:16Z</time>
      </trkpt>
      <trkpt lat="45.07035" lon="-0.60278">
        <ele>51.7</ele>
        <time>2024-11-23T09:20:17Z</time>
      </trkpt>
      <trkpt lat="45.07036" lon="-0.6028">
        <ele>51.9</ele>
        <time>2024-11-23T09:20:18Z</time>
      </trkpt>
      <trkpt lat="45.07036" lon="-0.60283">
        <ele>52.2</ele>
        <time>2024-11-23T09:20:19Z</time>
      </trkpt>
      <trkpt lat="45.07036" lon="-0.60284">
        <ele>52.2</ele>
        <time>2024-11-23T09:20:20Z</time>
      </trkpt>
      <trkpt lat="45.07037" lon="-0.60286">
        <ele>52.2</ele>
        <time>2024-11-23T09:20:21Z</time>
      </trkpt>
      <trkpt lat="45.07038" lon="-0.60289">
        <ele>51.8</ele>
        <time>2024-11-23T09:20:22Z</time>
      </trkpt>
      <trkpt lat="45.07038" lon="-0.6029">
        <ele>51.8</ele>
        <time>2024-11-23T09:20:23Z</time>
      </trkpt>
      <trkpt lat="45.07039" lon="-0.60291">
        <ele>51.8</ele>
        <time>2024-11-23T09:20:24Z</time>
      </trkpt>
      <trkpt lat="45.07039" lon="-0.60292">
        <ele>52.1</ele>
        <time>2024-11-23T09:20:25Z</time>
      </trkpt>
      <trkpt lat="45.0704" lon="-0.60293">
        <ele>52.1</ele>
        <time>2024-11-23T09:20:26Z</time>
      </trkpt>
      <trkpt lat="45.0704" lon="-0.60294">
        <ele>51.4</ele>
        <time>2024-11-23T09:20:27Z</time>
      </trkpt>
      <trkpt lat="45.07041" lon="-0.60294">
        <ele>51.4</ele>
        <time>2024-11-23T09:20:28Z</time>
      </trkpt>
      <trkpt lat="45.07041" lon="-0.60294">
        <ele>51.4</ele>
        <time>2024-11-23T09:20:29Z</time>
      </trkpt>
      <trkpt lat="45.07041" lon="-0.60294">
        <ele>51.5</ele>
        <time>2024-11-23T09:20:30Z</time>
      </trkpt>
      <trkpt lat="45.07041" lon="-0.60294">
        <ele>51.5</ele>
        <time>2024-11-23T09:20:31Z</time>
      </trkpt>
      <trkpt lat="45.07041" lon="-0.60294">
        <ele>51.5</ele>
        <time>2024-11-23T09:20:32Z</time>
      </trkpt>
      <trkpt lat="45.07041" lon="-0.60294">
        <ele>51.5</ele>
        <time>2024-11-23T09:20:33Z</time>
      </trkpt>
      <trkpt lat="45.07041" lon="-0.60294">
        <ele>51.5</ele>
        <time>2024-11-23T09:20:34Z</time>
      </trkpt>
      <trkpt lat="45.07041" lon="-0.60295">
        <ele>51.5</ele>
        <time>2024-11-23T09:20:35Z</time>
      </trkpt>
      <trkpt lat="45.07042" lon="-0.60296">
        <ele>51.5</ele>
        <time>2024-11-23T09:20:36Z</time>
      </trkpt>
      <trkpt lat="45.07042" lon="-0.60297">
        <ele>51.8</ele>
        <time>2024-11-23T09:20:37Z</time>
      </trkpt>
      <trkpt lat="45.07043" lon="-0.60299">
        <ele>51.2</ele>
        <time>2024-11-23T09:20:38Z</time>
      </trkpt>
      <trkpt lat="45.07044" lon="-0.60301">
        <ele>51.5</ele>
        <time>2024-11-23T09:20:39Z</time>
      </trkpt>
      <trkpt lat="45.07046" lon="-0.60304">
        <ele>51.5</ele>
        <time>2024-11-23T09:20:40Z</time>
      </trkpt>
      <trkpt lat="45.07046" lon="-0.60305">
        <ele>51.3</ele>
        <time>2024-11-23T09:20:41Z</time>
      </trkpt>
      <trkpt lat="45.07047" lon="-0.60306">
        <ele>51.3</ele>
        <time>2024-11-23T09:20:42Z</time>
      </trkpt>
      <trkpt lat="45.07047" lon="-0.60308">
        <ele>51.3</ele>
        <time>2024-11-23T09:20:43Z</time>
      </trkpt>
      <trkpt lat="45.07048" lon="-0.6031">
        <ele>51.7</ele>
        <time>2024-11-23T09:20:44Z</time>
      </trkpt>
      <trkpt lat="45.07049" lon="-0.60312">
        <ele>51.7</ele>
        <time>2024-11-23T09:20:45Z</time>
      </trkpt>
      <trkpt lat="45.07049" lon="-0.60314">
        <ele>51.5</ele>
        <time>2024-11-23T09:20:46Z</time>
      </trkpt>
      <trkpt lat="45.0705" lon="-0.60315">
        <ele>51.5</ele>
        <time>2024-11-23T09:20:47Z</time>
      </trkpt>
      <trkpt lat="45.0705" lon="-0.60316">
        <ele>51.5</ele>
        <time>2024-11-23T09:20:48Z</time>
      </trkpt>
      <trkpt lat="45.07051" lon="-0.60318">
        <ele>51.8</ele>
        <time>2024-11-23T09:20:49Z</time>
      </trkpt>
      <trkpt lat="45.07052" lon="-0.6032">
        <ele>51.8</ele>
        <time>2024-11-23T09:20:50Z</time>
      </trkpt>
      <trkpt lat="45.07052" lon="-0.60321">
        <ele>51.3</ele>
        <time>2024-11-23T09:20:51Z</time>
      </trkpt>
      <trkpt lat="45.07053" lon="-0.60323">
        <ele>51.6</ele>
        <time>2024-11-23T09:20:52Z</time>
      </trkpt>
      <trkpt lat="45.07054" lon="-0.60324">
        <ele>51.6</ele>
        <time>2024-11-23T09:20:53Z</time>
      </trkpt>
      <trkpt lat="45.07054" lon="-0.60326">
        <ele>51.6</ele>
        <time>2024-11-23T09:20:54Z</time>
      </trkpt>
      <trkpt lat="45.07055" lon="-0.60327">
        <ele>52</ele>
        <time>2024-11-23T09:20:55Z</time>
      </trkpt>
      <trkpt lat="45.07055" lon="-0.60328">
        <ele>51.4</ele>
        <time>2024-11-23T09:20:56Z</time>
      </trkpt>
      <trkpt lat="45.07056" lon="-0.60329">
        <ele>51.4</ele>
        <time>2024-11-23T09:20:57Z</time>
      </trkpt>
      <trkpt lat="45.07056" lon="-0.6033">
        <ele>51.4</ele>
        <time>2024-11-23T09:20:58Z</time>
      </trkpt>
      <trkpt lat="45.07056" lon="-0.60329">
        <ele>51.5</ele>
        <time>2024-11-23T09:20:59Z</time>
      </trkpt>
      <trkpt lat="45.07056" lon="-0.60329">
        <ele>51.5</ele>
        <time>2024-11-23T09:21:00Z</time>
      </trkpt>
      <trkpt lat="45.07056" lon="-0.6033">
        <ele>51.5</ele>
        <time>2024-11-23T09:21:01Z</time>
      </trkpt>
      <trkpt lat="45.07056" lon="-0.6033">
        <ele>51.5</ele>
        <time>2024-11-23T09:21:02Z</time>
      </trkpt>
      <trkpt lat="45.07056" lon="-0.6033">
        <ele>51.5</ele>
        <time>2024-11-23T09:21:03Z</time>
      </trkpt>
      <trkpt lat="45.07056" lon="-0.60331">
        <ele>51.8</ele>
        <time>2024-11-23T09:21:04Z</time>
      </trkpt>
      <trkpt lat="45.07057" lon="-0.60332">
        <ele>51.8</ele>
        <time>2024-11-23T09:21:05Z</time>
      </trkpt>
      <trkpt lat="45.07057" lon="-0.60332">
        <ele>51.8</ele>
        <time>2024-11-23T09:21:06Z</time>
      </trkpt>
      <trkpt lat="45.07057" lon="-0.60333">
        <ele>51.9</ele>
        <time>2024-11-23T09:21:07Z</time>
      </trkpt>
      <trkpt lat="45.07057" lon="-0.60333">
        <ele>51.9</ele>
        <time>2024-11-23T09:21:08Z</time>
      </trkpt>
      <trkpt lat="45.07059" lon="-0.60335">
        <ele>51.7</ele>
        <time>2024-11-23T09:21:09Z</time>
      </trkpt>
      <trkpt lat="45.07059" lon="-0.60336">
        <ele>51.7</ele>
        <time>2024-11-23T09:21:10Z</time>
      </trkpt>
      <trkpt lat="45.0706" lon="-0.60337">
        <ele>51.7</ele>
        <time>2024-11-23T09:21:11Z</time>
      </trkpt>
      <trkpt lat="45.07061" lon="-0.60338">
        <ele>51.7</ele>
        <time>2024-11-23T09:21:12Z</time>
      </trkpt>
      <trkpt lat="45.07063" lon="-0.60342">
        <ele>51.5</ele>
        <time>2024-11-23T09:21:13Z</time>
      </trkpt>
      <trkpt lat="45.07063" lon="-0.60343">
        <ele>51.5</ele>
        <time>2024-11-23T09:21:14Z</time>
      </trkpt>
      <trkpt lat="45.07064" lon="-0.60344">
        <ele>51.9</ele>
        <time>2024-11-23T09:21:15Z</time>
      </trkpt>
      <trkpt lat="45.07065" lon="-0.60345">
        <ele>51.4</ele>
        <time>2024-11-23T09:21:16Z</time>
      </trkpt>
      <trkpt lat="45.07066" lon="-0.60345">
        <ele>51.4</ele>
        <time>2024-11-23T09:21:17Z</time>
      </trkpt>
      <trkpt lat="45.07066" lon="-0.60345">
        <ele>51.4</ele>
        <time>2024-11-23T09:21:18Z</time>
      </trkpt>
      <trkpt lat="45.07069" lon="-0.60348">
        <ele>51</ele>
        <time>2024-11-23T09:21:19Z</time>
      </trkpt>
      <trkpt lat="45.0707" lon="-0.60349">
        <ele>51.3</ele>
        <time>2024-11-23T09:21:20Z</time>
      </trkpt>
      <trkpt lat="45.0707" lon="-0.6035">
        <ele>51.3</ele>
        <time>2024-11-23T09:21:21Z</time>
      </trkpt>
      <trkpt lat="45.07071" lon="-0.6035">
        <ele>50.9</ele>
        <time>2024-11-23T09:21:22Z</time>
      </trkpt>
      <trkpt lat="45.07071" lon="-0.60351">
        <ele>50.9</ele>
        <time>2024-11-23T09:21:23Z</time>
      </trkpt>
      <trkpt lat="45.07072" lon="-0.60351">
        <ele>50.9</ele>
        <time>2024-11-23T09:21:24Z</time>
      </trkpt>
      <trkpt lat="45.07072" lon="-0.60353">
        <ele>51.2</ele>
        <time>2024-11-23T09:21:25Z</time>
      </trkpt>
      <trkpt lat="45.07073" lon="-0.60354">
        <ele>51.2</ele>
        <time>2024-11-23T09:21:26Z</time>
      </trkpt>
      <trkpt lat="45.07074" lon="-0.60355">
        <ele>50.8</ele>
        <time>2024-11-23T09:21:27Z</time>
      </trkpt>
      <trkpt lat="45.07074" lon="-0.60356">
        <ele>51.1</ele>
        <time>2024-11-23T09:21:28Z</time>
      </trkpt>
      <trkpt lat="45.07075" lon="-0.60358">
        <ele>51.1</ele>
        <time>2024-11-23T09:21:29Z</time>
      </trkpt>
      <trkpt lat="45.07075" lon="-0.60359">
        <ele>51.2</ele>
        <time>2024-11-23T09:21:30Z</time>
      </trkpt>
      <trkpt lat="45.07076" lon="-0.6036">
        <ele>51.2</ele>
        <time>2024-11-23T09:21:31Z</time>
      </trkpt>
      <trkpt lat="45.07077" lon="-0.60361">
        <ele>51.1</ele>
        <time>2024-11-23T09:21:32Z</time>
      </trkpt>
      <trkpt lat="45.07078" lon="-0.60362">
        <ele>51.1</ele>
        <time>2024-11-23T09:21:33Z</time>
      </trkpt>
      <trkpt lat="45.07079" lon="-0.60364">
        <ele>51.1</ele>
        <time>2024-11-23T09:21:34Z</time>
      </trkpt>
      <trkpt lat="45.07079" lon="-0.60364">
        <ele>51</ele>
        <time>2024-11-23T09:21:35Z</time>
      </trkpt>
      <trkpt lat="45.07079" lon="-0.60364">
        <ele>51</ele>
        <time>2024-11-23T09:21:36Z</time>
      </trkpt>
      <trkpt lat="45.0708" lon="-0.60365">
        <ele>50.9</ele>
        <time>2024-11-23T09:21:37Z</time>
      </trkpt>
      <trkpt lat="45.07081" lon="-0.60366">
        <ele>50.8</ele>
        <time>2024-11-23T09:21:38Z</time>
      </trkpt>
      <trkpt lat="45.07082" lon="-0.60366">
        <ele>50.7</ele>
        <time>2024-11-23T09:21:39Z</time>
      </trkpt>
      <trkpt lat="45.07082" lon="-0.60367">
        <ele>50.7</ele>
        <time>2024-11-23T09:21:40Z</time>
      </trkpt>
      <trkpt lat="45.07083" lon="-0.60367">
        <ele>50.6</ele>
        <time>2024-11-23T09:21:41Z</time>
      </trkpt>
      <trkpt lat="45.07084" lon="-0.60368">
        <ele>50.5</ele>
        <time>2024-11-23T09:21:42Z</time>
      </trkpt>
      <trkpt lat="45.07085" lon="-0.60369">
        <ele>50.4</ele>
        <time>2024-11-23T09:21:43Z</time>
      </trkpt>
      <trkpt lat="45.07086" lon="-0.6037">
        <ele>50.3</ele>
        <time>2024-11-23T09:21:44Z</time>
      </trkpt>
      <trkpt lat="45.07087" lon="-0.60371">
        <ele>50.2</ele>
        <time>2024-11-23T09:21:45Z</time>
      </trkpt>
      <trkpt lat="45.07087" lon="-0.60372">
        <ele>50.1</ele>
        <time>2024-11-23T09:21:46Z</time>
      </trkpt>
      <trkpt lat="45.07088" lon="-0.60372">
        <ele>50</ele>
        <time>2024-11-23T09:21:47Z</time>
      </trkpt>
      <trkpt lat="45.07089" lon="-0.60374">
        <ele>49.9</ele>
        <time>2024-11-23T09:21:48Z</time>
      </trkpt>
      <trkpt lat="45.0709" lon="-0.60375">
        <ele>49.8</ele>
        <time>2024-11-23T09:21:49Z</time>
      </trkpt>
      <trkpt lat="45.07091" lon="-0.60376">
        <ele>49.7</ele>
        <time>2024-11-23T09:21:50Z</time>
      </trkpt>
      <trkpt lat="45.07092" lon="-0.60377">
        <ele>49.6</ele>
        <time>2024-11-23T09:21:51Z</time>
      </trkpt>
      <trkpt lat="45.07093" lon="-0.60377">
        <ele>49.4</ele>
        <time>2024-11-23T09:21:52Z</time>
      </trkpt>
      <trkpt lat="45.07093" lon="-0.60378">
        <ele>49.3</ele>
        <time>2024-11-23T09:21:53Z</time>
      </trkpt>
      <trkpt lat="45.07094" lon="-0.60379">
        <ele>49.3</ele>
        <time>2024-11-23T09:21:54Z</time>
      </trkpt>
      <trkpt lat="45.07094" lon="-0.60378">
        <ele>49.2</ele>
        <time>2024-11-23T09:21:55Z</time>
      </trkpt>
      <trkpt lat="45.07094" lon="-0.60378">
        <ele>49.2</ele>
        <time>2024-11-23T09:21:56Z</time>
      </trkpt>
      <trkpt lat="45.07093" lon="-0.60378">
        <ele>49.1</ele>
        <time>2024-11-23T09:21:57Z</time>
      </trkpt>
      <trkpt lat="45.07093" lon="-0.60377">
        <ele>49.1</ele>
        <time>2024-11-23T09:21:58Z</time>
      </trkpt>
      <trkpt lat="45.07093" lon="-0.60377">
        <ele>49.1</ele>
        <time>2024-11-23T09:21:59Z</time>
      </trkpt>
      <trkpt lat="45.07093" lon="-0.60377">
        <ele>49.1</ele>
        <time>2024-11-23T09:22:00Z</time>
      </trkpt>
      <trkpt lat="45.07093" lon="-0.60377">
        <ele>49.1</ele>
        <time>2024-11-23T09:22:01Z</time>
      </trkpt>
      <trkpt lat="45.07093" lon="-0.60377">
        <ele>49</ele>
        <time>2024-11-23T09:22:02Z</time>
      </trkpt>
      <trkpt lat="45.07093" lon="-0.60377">
        <ele>49</ele>
        <time>2024-11-23T09:22:03Z</time>
      </trkpt>
      <trkpt lat="45.07094" lon="-0.60378">
        <ele>48.9</ele>
        <time>2024-11-23T09:22:04Z</time>
      </trkpt>
      <trkpt lat="45.07096" lon="-0.60379">
        <ele>48.7</ele>
        <time>2024-11-23T09:22:05Z</time>
      </trkpt>
      <trkpt lat="45.07099" lon="-0.60382">
        <ele>48.4</ele>
        <time>2024-11-23T09:22:06Z</time>
      </trkpt>
      <trkpt lat="45.07099" lon="-0.60382">
        <ele>48.3</ele>
        <time>2024-11-23T09:22:07Z</time>
      </trkpt>
      <trkpt lat="45.07102" lon="-0.60385">
        <ele>48</ele>
        <time>2024-11-23T09:22:08Z</time>
      </trkpt>
      <trkpt lat="45.07102" lon="-0.60386">
        <ele>47.9</ele>
        <time>2024-11-23T09:22:09Z</time>
      </trkpt>
      <trkpt lat="45.07103" lon="-0.60387">
        <ele>47.8</ele>
        <time>2024-11-23T09:22:10Z</time>
      </trkpt>
      <trkpt lat="45.07104" lon="-0.60388">
        <ele>47.7</ele>
        <time>2024-11-23T09:22:11Z</time>
      </trkpt>
      <trkpt lat="45.07105" lon="-0.60389">
        <ele>47.6</ele>
        <time>2024-11-23T09:22:12Z</time>
      </trkpt>
      <trkpt lat="45.07106" lon="-0.60391">
        <ele>47.4</ele>
        <time>2024-11-23T09:22:13Z</time>
      </trkpt>
      <trkpt lat="45.07106" lon="-0.60393">
        <ele>47.3</ele>
        <time>2024-11-23T09:22:14Z</time>
      </trkpt>
      <trkpt lat="45.07107" lon="-0.60394">
        <ele>47.2</ele>
        <time>2024-11-23T09:22:15Z</time>
      </trkpt>
      <trkpt lat="45.07108" lon="-0.60394">
        <ele>47.1</ele>
        <time>2024-11-23T09:22:16Z</time>
      </trkpt>
      <trkpt lat="45.07108" lon="-0.60395">
        <ele>47</ele>
        <time>2024-11-23T09:22:17Z</time>
      </trkpt>
      <trkpt lat="45.07109" lon="-0.60396">
        <ele>46.9</ele>
        <time>2024-11-23T09:22:18Z</time>
      </trkpt>
      <trkpt lat="45.07109" lon="-0.60396">
        <ele>46.9</ele>
        <time>2024-11-23T09:22:19Z</time>
      </trkpt>
      <trkpt lat="45.07109" lon="-0.60395">
        <ele>46.9</ele>
        <time>2024-11-23T09:22:20Z</time>
      </trkpt>
      <trkpt lat="45.07109" lon="-0.60395">
        <ele>46.8</ele>
        <time>2024-11-23T09:22:21Z</time>
      </trkpt>
      <trkpt lat="45.07109" lon="-0.60394">
        <ele>46.8</ele>
        <time>2024-11-23T09:22:22Z</time>
      </trkpt>
      <trkpt lat="45.07109" lon="-0.60394">
        <ele>46.8</ele>
        <time>2024-11-23T09:22:23Z</time>
      </trkpt>
      <trkpt lat="45.07109" lon="-0.60394">
        <ele>46.8</ele>
        <time>2024-11-23T09:22:24Z</time>
      </trkpt>
      <trkpt lat="45.07108" lon="-0.60394">
        <ele>46.7</ele>
        <time>2024-11-23T09:22:25Z</time>
      </trkpt>
      <trkpt lat="45.07108" lon="-0.60394">
        <ele>46.7</ele>
        <time>2024-11-23T09:22:26Z</time>
      </trkpt>
      <trkpt lat="45.07108" lon="-0.60394">
        <ele>46.7</ele>
        <time>2024-11-23T09:22:27Z</time>
      </trkpt>
      <trkpt lat="45.07108" lon="-0.60394">
        <ele>46.7</ele>
        <time>2024-11-23T09:22:28Z</time>
      </trkpt>
      <trkpt lat="45.07108" lon="-0.60394">
        <ele>46.7</ele>
        <time>2024-11-23T09:22:29Z</time>
      </trkpt>
      <trkpt lat="45.07109" lon="-0.60395">
        <ele>46.7</ele>
        <time>2024-11-23T09:22:30Z</time>
      </trkpt>
      <trkpt lat="45.07109" lon="-0.60395">
        <ele>46.6</ele>
        <time>2024-11-23T09:22:31Z</time>
      </trkpt>
      <trkpt lat="45.0711" lon="-0.60395">
        <ele>46.6</ele>
        <time>2024-11-23T09:22:32Z</time>
      </trkpt>
      <trkpt lat="45.07111" lon="-0.60395">
        <ele>46.5</ele>
        <time>2024-11-23T09:22:33Z</time>
      </trkpt>
      <trkpt lat="45.07112" lon="-0.60395">
        <ele>46.4</ele>
        <time>2024-11-23T09:22:34Z</time>
      </trkpt>
      <trkpt lat="45.07112" lon="-0.60395">
        <ele>46.4</ele>
        <time>2024-11-23T09:22:35Z</time>
      </trkpt>
      <trkpt lat="45.07112" lon="-0.60395">
        <ele>46.4</ele>
        <time>2024-11-23T09:22:36Z</time>
      </trkpt>
      <trkpt lat="45.07112" lon="-0.60395">
        <ele>46.3</ele>
        <time>2024-11-23T09:22:37Z</time>
      </trkpt>
      <trkpt lat="45.07112" lon="-0.60396">
        <ele>46.3</ele>
        <time>2024-11-23T09:22:38Z</time>
      </trkpt>
      <trkpt lat="45.07112" lon="-0.60396">
        <ele>46.3</ele>
        <time>2024-11-23T09:22:39Z</time>
      </trkpt>
      <trkpt lat="45.07112" lon="-0.60396">
        <ele>46.3</ele>
        <time>2024-11-23T09:22:40Z</time>
      </trkpt>
      <trkpt lat="45.07113" lon="-0.60396">
        <ele>46.2</ele>
        <time>2024-11-23T09:22:41Z</time>
      </trkpt>
      <trkpt lat="45.07113" lon="-0.60397">
        <ele>46.2</ele>
        <time>2024-11-23T09:22:42Z</time>
      </trkpt>
      <trkpt lat="45.07113" lon="-0.60397">
        <ele>46.2</ele>
        <time>2024-11-23T09:22:43Z</time>
      </trkpt>
      <trkpt lat="45.07113" lon="-0.60397">
        <ele>46.2</ele>
        <time>2024-11-23T09:22:44Z</time>
      </trkpt>
      <trkpt lat="45.07113" lon="-0.60397">
        <ele>46.2</ele>
        <time>2024-11-23T09:22:45Z</time>
      </trkpt>
      <trkpt lat="45.07113" lon="-0.60397">
        <ele>46.2</ele>
        <time>2024-11-23T09:22:46Z</time>
      </trkpt>
      <trkpt lat="45.07113" lon="-0.60397">
        <ele>46.2</ele>
        <time>2024-11-23T09:22:47Z</time>
      </trkpt>
      <trkpt lat="45.07113" lon="-0.60397">
        <ele>46.2</ele>
        <time>2024-11-23T09:22:48Z</time>
      </trkpt>
      <trkpt lat="45.07113" lon="-0.60397">
        <ele>46.2</ele>
        <time>2024-11-23T09:22:49Z</time>
      </trkpt>
      <trkpt lat="45.07113" lon="-0.60397">
        <ele>46.2</ele>
        <time>2024-11-23T09:22:50Z</time>
      </trkpt>
      <trkpt lat="45.07113" lon="-0.60397">
        <ele>46.2</ele>
        <time>2024-11-23T09:22:51Z</time>
      </trkpt>
      <trkpt lat="45.07113" lon="-0.60397">
        <ele>46.2</ele>
        <time>2024-11-23T09:22:52Z</time>
      </trkpt>
      <trkpt lat="45.07113" lon="-0.60397">
        <ele>46.2</ele>
        <time>2024-11-23T09:22:53Z</time>
      </trkpt>
      <trkpt lat="45.07113" lon="-0.60397">
        <ele>46.1</ele>
        <time>2024-11-23T09:22:54Z</time>
      </trkpt>
      <trkpt lat="45.07113" lon="-0.60397">
        <ele>46.1</ele>
        <time>2024-11-23T09:22:55Z</time>
      </trkpt>
      <trkpt lat="45.07113" lon="-0.60398">
        <ele>46.1</ele>
        <time>2024-11-23T09:22:56Z</time>
      </trkpt>
      <trkpt lat="45.07113" lon="-0.60398">
        <ele>46.1</ele>
        <time>2024-11-23T09:22:57Z</time>
      </trkpt>
      <trkpt lat="45.07113" lon="-0.60398">
        <ele>46.1</ele>
        <time>2024-11-23T09:22:58Z</time>
      </trkpt>
      <trkpt lat="45.07113" lon="-0.60398">
        <ele>46.1</ele>
        <time>2024-11-23T09:22:59Z</time>
      </trkpt>
      <trkpt lat="45.07113" lon="-0.60398">
        <ele>46.1</ele>
        <time>2024-11-23T09:23:00Z</time>
      </trkpt>
      <trkpt lat="45.07113" lon="-0.60398">
        <ele>46.1</ele>
        <time>2024-11-23T09:23:01Z</time>
      </trkpt>
      <trkpt lat="45.07113" lon="-0.60398">
        <ele>46.1</ele>
        <time>2024-11-23T09:23:02Z</time>
      </trkpt>
      <trkpt lat="45.07113" lon="-0.60398">
        <ele>46.1</ele>
        <time>2024-11-23T09:23:03Z</time>
      </trkpt>
      <trkpt lat="45.07113" lon="-0.60398">
        <ele>46.1</ele>
        <time>2024-11-23T09:23:04Z</time>
      </trkpt>
      <trkpt lat="45.07113" lon="-0.60398">
        <ele>46.1</ele>
        <time>2024-11-23T09:23:05Z</time>
      </trkpt>
      <trkpt lat="45.07113" lon="-0.60398">
        <ele>46.1</ele>
        <time>2024-11-23T09:23:06Z</time>
      </trkpt>
      <trkpt lat="45.07113" lon="-0.60399">
        <ele>46</ele>
        <time>2024-11-23T09:23:07Z</time>
      </trkpt>
      <trkpt lat="45.07113" lon="-0.604">
        <ele>46</ele>
        <time>2024-11-23T09:23:08Z</time>
      </trkpt>
      <trkpt lat="45.07113" lon="-0.604">
        <ele>45.9</ele>
        <time>2024-11-23T09:23:09Z</time>
      </trkpt>
      <trkpt lat="45.07111" lon="-0.60397">
        <ele>45.7</ele>
        <time>2024-11-23T09:23:10Z</time>
      </trkpt>
      <trkpt lat="45.07112" lon="-0.60398">
        <ele>45.6</ele>
        <time>2024-11-23T09:23:11Z</time>
      </trkpt>
      <trkpt lat="45.07112" lon="-0.60398">
        <ele>45.6</ele>
        <time>2024-11-23T09:23:12Z</time>
      </trkpt>
      <trkpt lat="45.07112" lon="-0.60398">
        <ele>45.5</ele>
        <time>2024-11-23T09:23:13Z</time>
      </trkpt>
      <trkpt lat="45.07113" lon="-0.604">
        <ele>45.4</ele>
        <time>2024-11-23T09:23:14Z</time>
      </trkpt>
      <trkpt lat="45.07115" lon="-0.60402">
        <ele>45.3</ele>
        <time>2024-11-23T09:23:15Z</time>
      </trkpt>
      <trkpt lat="45.07115" lon="-0.60402">
        <ele>45.2</ele>
        <time>2024-11-23T09:23:16Z</time>
      </trkpt>
      <trkpt lat="45.07116" lon="-0.60403">
        <ele>45.1</ele>
        <time>2024-11-23T09:23:17Z</time>
      </trkpt>
      <trkpt lat="45.07117" lon="-0.60403">
        <ele>45</ele>
        <time>2024-11-23T09:23:18Z</time>
      </trkpt>
      <trkpt lat="45.07119" lon="-0.60404">
        <ele>44.9</ele>
        <time>2024-11-23T09:23:19Z</time>
      </trkpt>
      <trkpt lat="45.0712" lon="-0.60404">
        <ele>44.8</ele>
        <time>2024-11-23T09:23:20Z</time>
      </trkpt>
      <trkpt lat="45.07121" lon="-0.60404">
        <ele>44.8</ele>
        <time>2024-11-23T09:23:21Z</time>
      </trkpt>
      <trkpt lat="45.07122" lon="-0.60405">
        <ele>44.7</ele>
        <time>2024-11-23T09:23:22Z</time>
      </trkpt>
      <trkpt lat="45.07123" lon="-0.60406">
        <ele>44.6</ele>
        <time>2024-11-23T09:23:23Z</time>
      </trkpt>
      <trkpt lat="45.07124" lon="-0.60407">
        <ele>44.4</ele>
        <time>2024-11-23T09:23:24Z</time>
      </trkpt>
      <trkpt lat="45.07125" lon="-0.60408">
        <ele>44.3</ele>
        <time>2024-11-23T09:23:25Z</time>
      </trkpt>
      <trkpt lat="45.07126" lon="-0.60409">
        <ele>44.2</ele>
        <time>2024-11-23T09:23:26Z</time>
      </trkpt>
      <trkpt lat="45.07127" lon="-0.6041">
        <ele>44.1</ele>
        <time>2024-11-23T09:23:27Z</time>
      </trkpt>
      <trkpt lat="45.07128" lon="-0.60412">
        <ele>44</ele>
        <time>2024-11-23T09:23:28Z</time>
      </trkpt>
      <trkpt lat="45.07128" lon="-0.60413">
        <ele>43.9</ele>
        <time>2024-11-23T09:23:29Z</time>
      </trkpt>
      <trkpt lat="45.07129" lon="-0.60414">
        <ele>43.8</ele>
        <time>2024-11-23T09:23:30Z</time>
      </trkpt>
      <trkpt lat="45.0713" lon="-0.60415">
        <ele>43.7</ele>
        <time>2024-11-23T09:23:31Z</time>
      </trkpt>
      <trkpt lat="45.07131" lon="-0.60415">
        <ele>43.6</ele>
        <time>2024-11-23T09:23:32Z</time>
      </trkpt>
      <trkpt lat="45.07132" lon="-0.60416">
        <ele>43.5</ele>
        <time>2024-11-23T09:23:33Z</time>
      </trkpt>
      <trkpt lat="45.07133" lon="-0.60417">
        <ele>43.4</ele>
        <time>2024-11-23T09:23:34Z</time>
      </trkpt>
      <trkpt lat="45.07134" lon="-0.60418">
        <ele>43.2</ele>
        <time>2024-11-23T09:23:35Z</time>
      </trkpt>
      <trkpt lat="45.07135" lon="-0.60418">
        <ele>43.1</ele>
        <time>2024-11-23T09:23:36Z</time>
      </trkpt>
      <trkpt lat="45.07136" lon="-0.60418">
        <ele>43</ele>
        <time>2024-11-23T09:23:37Z</time>
      </trkpt>
      <trkpt lat="45.07137" lon="-0.60419">
        <ele>42.9</ele>
        <time>2024-11-23T09:23:38Z</time>
      </trkpt>
      <trkpt lat="45.07138" lon="-0.60419">
        <ele>42.8</ele>
        <time>2024-11-23T09:23:39Z</time>
      </trkpt>
      <trkpt lat="45.07139" lon="-0.60419">
        <ele>42.7</ele>
        <time>2024-11-23T09:23:40Z</time>
      </trkpt>
      <trkpt lat="45.07141" lon="-0.60419">
        <ele>42.5</ele>
        <time>2024-11-23T09:23:41Z</time>
      </trkpt>
      <trkpt lat="45.07142" lon="-0.6042">
        <ele>42.4</ele>
        <time>2024-11-23T09:23:42Z</time>
      </trkpt>
      <trkpt lat="45.07143" lon="-0.6042">
        <ele>42.3</ele>
        <time>2024-11-23T09:23:43Z</time>
      </trkpt>
      <trkpt lat="45.07144" lon="-0.60421">
        <ele>42.1</ele>
        <time>2024-11-23T09:23:44Z</time>
      </trkpt>
      <trkpt lat="45.07145" lon="-0.60421">
        <ele>42</ele>
        <time>2024-11-23T09:23:45Z</time>
      </trkpt>
      <trkpt lat="45.07146" lon="-0.60422">
        <ele>41.9</ele>
        <time>2024-11-23T09:23:46Z</time>
      </trkpt>
      <trkpt lat="45.07147" lon="-0.60422">
        <ele>41.8</ele>
        <time>2024-11-23T09:23:47Z</time>
      </trkpt>
      <trkpt lat="45.07149" lon="-0.60423">
        <ele>41.6</ele>
        <time>2024-11-23T09:23:48Z</time>
      </trkpt>
      <trkpt lat="45.0715" lon="-0.60423">
        <ele>41.5</ele>
        <time>2024-11-23T09:23:49Z</time>
      </trkpt>
      <trkpt lat="45.0715" lon="-0.60423">
        <ele>41.4</ele>
        <time>2024-11-23T09:23:50Z</time>
      </trkpt>
      <trkpt lat="45.07152" lon="-0.60423">
        <ele>41.3</ele>
        <time>2024-11-23T09:23:51Z</time>
      </trkpt>
      <trkpt lat="45.07153" lon="-0.60423">
        <ele>41.2</ele>
        <time>2024-11-23T09:23:52Z</time>
      </trkpt>
      <trkpt lat="45.07154" lon="-0.60423">
        <ele>41.1</ele>
        <time>2024-11-23T09:23:53Z</time>
      </trkpt>
      <trkpt lat="45.07155" lon="-0.60423">
        <ele>41</ele>
        <time>2024-11-23T09:23:54Z</time>
      </trkpt>
      <trkpt lat="45.07156" lon="-0.60423">
        <ele>40.9</ele>
        <time>2024-11-23T09:23:55Z</time>
      </trkpt>
      <trkpt lat="45.07157" lon="-0.60423">
        <ele>40.8</ele>
        <time>2024-11-23T09:23:56Z</time>
      </trkpt>
      <trkpt lat="45.07158" lon="-0.60423">
        <ele>40.7</ele>
        <time>2024-11-23T09:23:57Z</time>
      </trkpt>
      <trkpt lat="45.07159" lon="-0.60423">
        <ele>40.6</ele>
        <time>2024-11-23T09:23:58Z</time>
      </trkpt>
      <trkpt lat="45.0716" lon="-0.60423">
        <ele>40.5</ele>
        <time>2024-11-23T09:23:59Z</time>
      </trkpt>
      <trkpt lat="45.07161" lon="-0.60422">
        <ele>40.4</ele>
        <time>2024-11-23T09:24:00Z</time>
      </trkpt>
      <trkpt lat="45.07162" lon="-0.60422">
        <ele>40.3</ele>
        <time>2024-11-23T09:24:01Z</time>
      </trkpt>
      <trkpt lat="45.07164" lon="-0.60423">
        <ele>40.1</ele>
        <time>2024-11-23T09:24:02Z</time>
      </trkpt>
      <trkpt lat="45.07165" lon="-0.60423">
        <ele>40.1</ele>
        <time>2024-11-23T09:24:03Z</time>
      </trkpt>
      <trkpt lat="45.07166" lon="-0.60424">
        <ele>40</ele>
        <time>2024-11-23T09:24:04Z</time>
      </trkpt>
      <trkpt lat="45.07168" lon="-0.60425">
        <ele>39.8</ele>
        <time>2024-11-23T09:24:05Z</time>
      </trkpt>
      <trkpt lat="45.07169" lon="-0.60425">
        <ele>39.8</ele>
        <time>2024-11-23T09:24:06Z</time>
      </trkpt>
      <trkpt lat="45.07169" lon="-0.60425">
        <ele>39.7</ele>
        <time>2024-11-23T09:24:07Z</time>
      </trkpt>
      <trkpt lat="45.07171" lon="-0.60426">
        <ele>39.5</ele>
        <time>2024-11-23T09:24:08Z</time>
      </trkpt>
      <trkpt lat="45.07172" lon="-0.60426">
        <ele>39.5</ele>
        <time>2024-11-23T09:24:09Z</time>
      </trkpt>
      <trkpt lat="45.07173" lon="-0.60427">
        <ele>39.4</ele>
        <time>2024-11-23T09:24:10Z</time>
      </trkpt>
      <trkpt lat="45.07174" lon="-0.60427">
        <ele>39.3</ele>
        <time>2024-11-23T09:24:11Z</time>
      </trkpt>
      <trkpt lat="45.07175" lon="-0.60428">
        <ele>39.2</ele>
        <time>2024-11-23T09:24:12Z</time>
      </trkpt>
      <trkpt lat="45.07176" lon="-0.60428">
        <ele>39.1</ele>
        <time>2024-11-23T09:24:13Z</time>
      </trkpt>
      <trkpt lat="45.07179" lon="-0.60428">
        <ele>39</ele>
        <time>2024-11-23T09:24:14Z</time>
      </trkpt>
      <trkpt lat="45.07179" lon="-0.60428">
        <ele>38.9</ele>
        <time>2024-11-23T09:24:15Z</time>
      </trkpt>
      <trkpt lat="45.0718" lon="-0.60428">
        <ele>38.9</ele>
        <time>2024-11-23T09:24:16Z</time>
      </trkpt>
      <trkpt lat="45.07182" lon="-0.60427">
        <ele>38.7</ele>
        <time>2024-11-23T09:24:17Z</time>
      </trkpt>
      <trkpt lat="45.07183" lon="-0.60427">
        <ele>38.7</ele>
        <time>2024-11-23T09:24:18Z</time>
      </trkpt>
      <trkpt lat="45.07184" lon="-0.60427">
        <ele>38.6</ele>
        <time>2024-11-23T09:24:19Z</time>
      </trkpt>
      <trkpt lat="45.07185" lon="-0.60427">
        <ele>38.5</ele>
        <time>2024-11-23T09:24:20Z</time>
      </trkpt>
      <trkpt lat="45.07187" lon="-0.60426">
        <ele>38.4</ele>
        <time>2024-11-23T09:24:21Z</time>
      </trkpt>
      <trkpt lat="45.07188" lon="-0.60426">
        <ele>38.3</ele>
        <time>2024-11-23T09:24:22Z</time>
      </trkpt>
      <trkpt lat="45.07189" lon="-0.60425">
        <ele>38.2</ele>
        <time>2024-11-23T09:24:23Z</time>
      </trkpt>
      <trkpt lat="45.0719" lon="-0.60425">
        <ele>38.1</ele>
        <time>2024-11-23T09:24:24Z</time>
      </trkpt>
      <trkpt lat="45.07191" lon="-0.60425">
        <ele>38.1</ele>
        <time>2024-11-23T09:24:25Z</time>
      </trkpt>
      <trkpt lat="45.07193" lon="-0.60426">
        <ele>37.9</ele>
        <time>2024-11-23T09:24:26Z</time>
      </trkpt>
      <trkpt lat="45.07194" lon="-0.60426">
        <ele>37.8</ele>
        <time>2024-11-23T09:24:27Z</time>
      </trkpt>
      <trkpt lat="45.07195" lon="-0.60426">
        <ele>37.8</ele>
        <time>2024-11-23T09:24:28Z</time>
      </trkpt>
      <trkpt lat="45.07196" lon="-0.60427">
        <ele>37.7</ele>
        <time>2024-11-23T09:24:29Z</time>
      </trkpt>
      <trkpt lat="45.07198" lon="-0.60428">
        <ele>37.5</ele>
        <time>2024-11-23T09:24:30Z</time>
      </trkpt>
      <trkpt lat="45.072" lon="-0.60429">
        <ele>37.4</ele>
        <time>2024-11-23T09:24:31Z</time>
      </trkpt>
      <trkpt lat="45.072" lon="-0.6043">
        <ele>37.3</ele>
        <time>2024-11-23T09:24:32Z</time>
      </trkpt>
      <trkpt lat="45.07201" lon="-0.6043">
        <ele>37.2</ele>
        <time>2024-11-23T09:24:33Z</time>
      </trkpt>
      <trkpt lat="45.07202" lon="-0.60431">
        <ele>37.1</ele>
        <time>2024-11-23T09:24:34Z</time>
      </trkpt>
      <trkpt lat="45.07203" lon="-0.60432">
        <ele>37</ele>
        <time>2024-11-23T09:24:35Z</time>
      </trkpt>
      <trkpt lat="45.07205" lon="-0.60434">
        <ele>36.8</ele>
        <time>2024-11-23T09:24:36Z</time>
      </trkpt>
      <trkpt lat="45.07206" lon="-0.60435">
        <ele>36.8</ele>
        <time>2024-11-23T09:24:37Z</time>
      </trkpt>
      <trkpt lat="45.07206" lon="-0.60435">
        <ele>36.7</ele>
        <time>2024-11-23T09:24:38Z</time>
      </trkpt>
      <trkpt lat="45.07209" lon="-0.60436">
        <ele>36.5</ele>
        <time>2024-11-23T09:24:39Z</time>
      </trkpt>
      <trkpt lat="45.07209" lon="-0.60436">
        <ele>36.5</ele>
        <time>2024-11-23T09:24:40Z</time>
      </trkpt>
      <trkpt lat="45.0721" lon="-0.60437">
        <ele>36.4</ele>
        <time>2024-11-23T09:24:41Z</time>
      </trkpt>
      <trkpt lat="45.07211" lon="-0.60437">
        <ele>36.3</ele>
        <time>2024-11-23T09:24:42Z</time>
      </trkpt>
      <trkpt lat="45.07212" lon="-0.60438">
        <ele>36.2</ele>
        <time>2024-11-23T09:24:43Z</time>
      </trkpt>
      <trkpt lat="45.07214" lon="-0.60438">
        <ele>36.1</ele>
        <time>2024-11-23T09:24:44Z</time>
      </trkpt>
      <trkpt lat="45.07216" lon="-0.60438">
        <ele>35.9</ele>
        <time>2024-11-23T09:24:45Z</time>
      </trkpt>
      <trkpt lat="45.07216" lon="-0.60438">
        <ele>35.9</ele>
        <time>2024-11-23T09:24:46Z</time>
      </trkpt>
      <trkpt lat="45.07217" lon="-0.60439">
        <ele>35.8</ele>
        <time>2024-11-23T09:24:47Z</time>
      </trkpt>
      <trkpt lat="45.07218" lon="-0.60438">
        <ele>35.7</ele>
        <time>2024-11-23T09:24:48Z</time>
      </trkpt>
      <trkpt lat="45.07219" lon="-0.60438">
        <ele>35.6</ele>
        <time>2024-11-23T09:24:49Z</time>
      </trkpt>
      <trkpt lat="45.0722" lon="-0.60437">
        <ele>35.5</ele>
        <time>2024-11-23T09:24:50Z</time>
      </trkpt>
      <trkpt lat="45.07221" lon="-0.60436">
        <ele>35.5</ele>
        <time>2024-11-23T09:24:51Z</time>
      </trkpt>
      <trkpt lat="45.07222" lon="-0.60435">
        <ele>35.4</ele>
        <time>2024-11-23T09:24:52Z</time>
      </trkpt>
      <trkpt lat="45.07222" lon="-0.60434">
        <ele>35.3</ele>
        <time>2024-11-23T09:24:53Z</time>
      </trkpt>
      <trkpt lat="45.07223" lon="-0.60434">
        <ele>35.2</ele>
        <time>2024-11-23T09:24:54Z</time>
      </trkpt>
      <trkpt lat="45.07224" lon="-0.60433">
        <ele>35.1</ele>
        <time>2024-11-23T09:24:55Z</time>
      </trkpt>
      <trkpt lat="45.07225" lon="-0.60433">
        <ele>35</ele>
        <time>2024-11-23T09:24:56Z</time>
      </trkpt>
      <trkpt lat="45.07226" lon="-0.60432">
        <ele>34.8</ele>
        <time>2024-11-23T09:24:57Z</time>
      </trkpt>
      <trkpt lat="45.07227" lon="-0.60432">
        <ele>34.7</ele>
        <time>2024-11-23T09:24:58Z</time>
      </trkpt>
      <trkpt lat="45.07228" lon="-0.60432">
        <ele>34.6</ele>
        <time>2024-11-23T09:24:59Z</time>
      </trkpt>
      <trkpt lat="45.07229" lon="-0.60431">
        <ele>34.4</ele>
        <time>2024-11-23T09:25:00Z</time>
      </trkpt>
      <trkpt lat="45.0723" lon="-0.60431">
        <ele>34.3</ele>
        <time>2024-11-23T09:25:01Z</time>
      </trkpt>
      <trkpt lat="45.07231" lon="-0.60431">
        <ele>34.2</ele>
        <time>2024-11-23T09:25:02Z</time>
      </trkpt>
      <trkpt lat="45.07232" lon="-0.6043">
        <ele>34</ele>
        <time>2024-11-23T09:25:03Z</time>
      </trkpt>
      <trkpt lat="45.07233" lon="-0.6043">
        <ele>33.9</ele>
        <time>2024-11-23T09:25:04Z</time>
      </trkpt>
      <trkpt lat="45.07235" lon="-0.60429">
        <ele>33.7</ele>
        <time>2024-11-23T09:25:05Z</time>
      </trkpt>
      <trkpt lat="45.07279" lon="-0.60371">
        <ele>27.8</ele>
        <time>2024-11-23T09:25:55Z</time>
      </trkpt>
      <trkpt lat="45.0728" lon="-0.60369">
        <ele>27.7</ele>
        <time>2024-11-23T09:25:56Z</time>
      </trkpt>
      <trkpt lat="45.07281" lon="-0.60367">
        <ele>27.6</ele>
        <time>2024-11-23T09:25:57Z</time>
      </trkpt>
      <trkpt lat="45.07282" lon="-0.60365">
        <ele>27.4</ele>
        <time>2024-11-23T09:25:58Z</time>
      </trkpt>
      <trkpt lat="45.07283" lon="-0.60364">
        <ele>27.4</ele>
        <time>2024-11-23T09:25:59Z</time>
      </trkpt>
      <trkpt lat="45.07284" lon="-0.60362">
        <ele>27.2</ele>
        <time>2024-11-23T09:26:00Z</time>
      </trkpt>
      <trkpt lat="45.07285" lon="-0.60361">
        <ele>27.2</ele>
        <time>2024-11-23T09:26:01Z</time>
      </trkpt>
      <trkpt lat="45.07286" lon="-0.6036">
        <ele>27.1</ele>
        <time>2024-11-23T09:26:02Z</time>
      </trkpt>
      <trkpt lat="45.07287" lon="-0.60359">
        <ele>27</ele>
        <time>2024-11-23T09:26:03Z</time>
      </trkpt>
      <trkpt lat="45.07287" lon="-0.60357">
        <ele>26.9</ele>
        <time>2024-11-23T09:26:04Z</time>
      </trkpt>
      <trkpt lat="45.07289" lon="-0.60356">
        <ele>26.7</ele>
        <time>2024-11-23T09:26:05Z</time>
      </trkpt>
      <trkpt lat="45.07327" lon="-0.60312">
        <ele>23.8</ele>
        <time>2024-11-23T09:26:54Z</time>
      </trkpt>
      <trkpt lat="45.0733" lon="-0.60313">
        <ele>23.7</ele>
        <time>2024-11-23T09:26:55Z</time>
      </trkpt>
      <trkpt lat="45.07333" lon="-0.60314">
        <ele>23.6</ele>
        <time>2024-11-23T09:26:56Z</time>
      </trkpt>
      <trkpt lat="45.07336" lon="-0.60315">
        <ele>23.4</ele>
        <time>2024-11-23T09:26:57Z</time>
      </trkpt>
      <trkpt lat="45.07338" lon="-0.60315">
        <ele>23.3</ele>
        <time>2024-11-23T09:26:58Z</time>
      </trkpt>
      <trkpt lat="45.07339" lon="-0.60316">
        <ele>23.3</ele>
        <time>2024-11-23T09:26:59Z</time>
      </trkpt>
      <trkpt lat="45.0734" lon="-0.60316">
        <ele>23.2</ele>
        <time>2024-11-23T09:27:00Z</time>
      </trkpt>
      <trkpt lat="45.07341" lon="-0.60316">
        <ele>23.2</ele>
        <time>2024-11-23T09:27:01Z</time>
      </trkpt>
      <trkpt lat="45.07342" lon="-0.60317">
        <ele>23.1</ele>
        <time>2024-11-23T09:27:02Z</time>
      </trkpt>
      <trkpt lat="45.07343" lon="-0.60317">
        <ele>23</ele>
        <time>2024-11-23T09:27:03Z</time>
      </trkpt>
      <trkpt lat="45.07345" lon="-0.60318">
        <ele>23</ele>
        <time>2024-11-23T09:27:04Z</time>
      </trkpt>
      <trkpt lat="45.07346" lon="-0.60318">
        <ele>22.9</ele>
        <time>2024-11-23T09:27:05Z</time>
      </trkpt>
      <trkpt lat="45.07347" lon="-0.60319">
        <ele>22.8</ele>
        <time>2024-11-23T09:27:06Z</time>
      </trkpt>
      <trkpt lat="45.07348" lon="-0.60319">
        <ele>22.7</ele>
        <time>2024-11-23T09:27:07Z</time>
      </trkpt>
      <trkpt lat="45.0735" lon="-0.6032">
        <ele>22.7</ele>
        <time>2024-11-23T09:27:08Z</time>
      </trkpt>
      <trkpt lat="45.07351" lon="-0.6032">
        <ele>22.6</ele>
        <time>2024-11-23T09:27:09Z</time>
      </trkpt>
      <trkpt lat="45.07352" lon="-0.60321">
        <ele>22.5</ele>
        <time>2024-11-23T09:27:10Z</time>
      </trkpt>
      <trkpt lat="45.07353" lon="-0.60321">
        <ele>22.4</ele>
        <time>2024-11-23T09:27:11Z</time>
      </trkpt>
      <trkpt lat="45.07354" lon="-0.60321">
        <ele>22.3</ele>
        <time>2024-11-23T09:27:12Z</time>
      </trkpt>
      <trkpt lat="45.07355" lon="-0.60322">
        <ele>22.3</ele>
        <time>2024-11-23T09:27:13Z</time>
      </trkpt>
      <trkpt lat="45.07356" lon="-0.60323">
        <ele>22.2</ele>
        <time>2024-11-23T09:27:14Z</time>
      </trkpt>
      <trkpt lat="45.07357" lon="-0.60322">
        <ele>22.1</ele>
        <time>2024-11-23T09:27:15Z</time>
      </trkpt>
      <trkpt lat="45.07358" lon="-0.60323">
        <ele>22.1</ele>
        <time>2024-11-23T09:27:16Z</time>
      </trkpt>
      <trkpt lat="45.07359" lon="-0.60324">
        <ele>22</ele>
        <time>2024-11-23T09:27:17Z</time>
      </trkpt>
      <trkpt lat="45.0736" lon="-0.60325">
        <ele>21.9</ele>
        <time>2024-11-23T09:27:18Z</time>
      </trkpt>
      <trkpt lat="45.0736" lon="-0.60326">
        <ele>21.9</ele>
        <time>2024-11-23T09:27:19Z</time>
      </trkpt>
      <trkpt lat="45.07366" lon="-0.60332">
        <ele>21.5</ele>
        <time>2024-11-23T09:27:20Z</time>
      </trkpt>
      <trkpt lat="45.07371" lon="-0.60338">
        <ele>21.2</ele>
        <time>2024-11-23T09:27:52Z</time>
      </trkpt>
      <trkpt lat="45.07376" lon="-0.60345">
        <ele>21</ele>
        <time>2024-11-23T09:27:53Z</time>
      </trkpt>
      <trkpt lat="45.07382" lon="-0.60351">
        <ele>20.9</ele>
        <time>2024-11-23T09:27:54Z</time>
      </trkpt>
      <trkpt lat="45.07387" lon="-0.60357">
        <ele>20.8</ele>
        <time>2024-11-23T09:27:55Z</time>
      </trkpt>
      <trkpt lat="45.07388" lon="-0.60358">
        <ele>20.8</ele>
        <time>2024-11-23T09:27:56Z</time>
      </trkpt>
      <trkpt lat="45.07389" lon="-0.60359">
        <ele>20.8</ele>
        <time>2024-11-23T09:27:57Z</time>
      </trkpt>
      <trkpt lat="45.0739" lon="-0.60359">
        <ele>20.8</ele>
        <time>2024-11-23T09:27:58Z</time>
      </trkpt>
      <trkpt lat="45.07391" lon="-0.6036">
        <ele>20.8</ele>
        <time>2024-11-23T09:27:59Z</time>
      </trkpt>
      <trkpt lat="45.07392" lon="-0.60361">
        <ele>20.8</ele>
        <time>2024-11-23T09:28:00Z</time>
      </trkpt>
      <trkpt lat="45.07393" lon="-0.60362">
        <ele>20.7</ele>
        <time>2024-11-23T09:28:01Z</time>
      </trkpt>
      <trkpt lat="45.07393" lon="-0.60363">
        <ele>20.7</ele>
        <time>2024-11-23T09:28:02Z</time>
      </trkpt>
      <trkpt lat="45.07394" lon="-0.60364">
        <ele>20.7</ele>
        <time>2024-11-23T09:28:03Z</time>
      </trkpt>
      <trkpt lat="45.07395" lon="-0.60364">
        <ele>20.7</ele>
        <time>2024-11-23T09:28:04Z</time>
      </trkpt>
      <trkpt lat="45.07405" lon="-0.60374">
        <ele>20.4</ele>
        <time>2024-11-23T09:28:05Z</time>
      </trkpt>
      <trkpt lat="45.07413" lon="-0.60383">
        <ele>20.1</ele>
        <time>2024-11-23T09:28:55Z</time>
      </trkpt>
      <trkpt lat="45.07422" lon="-0.60392">
        <ele>19.8</ele>
        <time>2024-11-23T09:28:56Z</time>
      </trkpt>
      <trkpt lat="45.0743" lon="-0.60401">
        <ele>19.5</ele>
        <time>2024-11-23T09:28:57Z</time>
      </trkpt>
      <trkpt lat="45.07439" lon="-0.6041">
        <ele>19.2</ele>
        <time>2024-11-23T09:28:58Z</time>
      </trkpt>
      <trkpt lat="45.07439" lon="-0.60411">
        <ele>19.2</ele>
        <time>2024-11-23T09:28:59Z</time>
      </trkpt>
      <trkpt lat="45.0744" lon="-0.60412">
        <ele>19.2</ele>
        <time>2024-11-23T09:29:00Z</time>
      </trkpt>
      <trkpt lat="45.07441" lon="-0.60413">
        <ele>19.1</ele>
        <time>2024-11-23T09:29:01Z</time>
      </trkpt>
      <trkpt lat="45.07442" lon="-0.60414">
        <ele>19.1</ele>
        <time>2024-11-23T09:29:02Z</time>
      </trkpt>
      <trkpt lat="45.07443" lon="-0.60415">
        <ele>19.1</ele>
        <time>2024-11-23T09:29:03Z</time>
      </trkpt>
      <trkpt lat="45.07444" lon="-0.60416">
        <ele>19.1</ele>
        <time>2024-11-23T09:29:04Z</time>
      </trkpt>
      <trkpt lat="45.0745" lon="-0.60424">
        <ele>18.8</ele>
        <time>2024-11-23T09:29:05Z</time>
      </trkpt>
      <trkpt lat="45.07455" lon="-0.60432">
        <ele>18.6</ele>
        <time>2024-11-23T09:29:06Z</time>
      </trkpt>
      <trkpt lat="45.07461" lon="-0.6044">
        <ele>18.3</ele>
        <time>2024-11-23T09:29:40Z</time>
      </trkpt>
      <trkpt lat="45.07466" lon="-0.60448">
        <ele>18.1</ele>
        <time>2024-11-23T09:29:41Z</time>
      </trkpt>
      <trkpt lat="45.07471" lon="-0.60456">
        <ele>17.9</ele>
        <time>2024-11-23T09:29:42Z</time>
      </trkpt>
      <trkpt lat="45.07472" lon="-0.60459">
        <ele>17.8</ele>
        <time>2024-11-23T09:29:43Z</time>
      </trkpt>
      <trkpt lat="45.07473" lon="-0.6046">
        <ele>17.8</ele>
        <time>2024-11-23T09:29:44Z</time>
      </trkpt>
      <trkpt lat="45.07473" lon="-0.60461">
        <ele>17.8</ele>
        <time>2024-11-23T09:29:45Z</time>
      </trkpt>
      <trkpt lat="45.07474" lon="-0.60463">
        <ele>17.8</ele>
        <time>2024-11-23T09:29:46Z</time>
      </trkpt>
      <trkpt lat="45.07474" lon="-0.60464">
        <ele>17.7</ele>
        <time>2024-11-23T09:29:47Z</time>
      </trkpt>
      <trkpt lat="45.07475" lon="-0.60466">
        <ele>17.7</ele>
        <time>2024-11-23T09:29:48Z</time>
      </trkpt>
      <trkpt lat="45.07476" lon="-0.60468">
        <ele>17.7</ele>
        <time>2024-11-23T09:29:49Z</time>
      </trkpt>
      <trkpt lat="45.07476" lon="-0.6047">
        <ele>17.6</ele>
        <time>2024-11-23T09:29:50Z</time>
      </trkpt>
      <trkpt lat="45.07477" lon="-0.60472">
        <ele>17.6</ele>
        <time>2024-11-23T09:29:51Z</time>
      </trkpt>
      <trkpt lat="45.07494" lon="-0.6052">
        <ele>17.1</ele>
        <time>2024-11-23T09:30:21Z</time>
      </trkpt>
      <trkpt lat="45.07494" lon="-0.60522">
        <ele>17.1</ele>
        <time>2024-11-23T09:30:22Z</time>
      </trkpt>
      <trkpt lat="45.07495" lon="-0.60523">
        <ele>17.1</ele>
        <time>2024-11-23T09:30:23Z</time>
      </trkpt>
      <trkpt lat="45.07495" lon="-0.60525">
        <ele>17</ele>
        <time>2024-11-23T09:30:24Z</time>
      </trkpt>
      <trkpt lat="45.07497" lon="-0.60528">
        <ele>17</ele>
        <time>2024-11-23T09:30:25Z</time>
      </trkpt>
      <trkpt lat="45.07497" lon="-0.60529">
        <ele>17</ele>
        <time>2024-11-23T09:30:26Z</time>
      </trkpt>
      <trkpt lat="45.07498" lon="-0.6053">
        <ele>17</ele>
        <time>2024-11-23T09:30:27Z</time>
      </trkpt>
      <trkpt lat="45.07498" lon="-0.60531">
        <ele>17</ele>
        <time>2024-11-23T09:30:28Z</time>
      </trkpt>
      <trkpt lat="45.07499" lon="-0.60532">
        <ele>17</ele>
        <time>2024-11-23T09:30:29Z</time>
      </trkpt>
      <trkpt lat="45.07499" lon="-0.60534">
        <ele>17</ele>
        <time>2024-11-23T09:30:30Z</time>
      </trkpt>
      <trkpt lat="45.075" lon="-0.60537">
        <ele>16.9</ele>
        <time>2024-11-23T09:30:31Z</time>
      </trkpt>
      <trkpt lat="45.075" lon="-0.60539">
        <ele>16.9</ele>
        <time>2024-11-23T09:30:32Z</time>
      </trkpt>
      <trkpt lat="45.07501" lon="-0.60541">
        <ele>16.9</ele>
        <time>2024-11-23T09:30:33Z</time>
      </trkpt>
      <trkpt lat="45.07501" lon="-0.60543">
        <ele>16.9</ele>
        <time>2024-11-23T09:30:34Z</time>
      </trkpt>
      <trkpt lat="45.07501" lon="-0.60544">
        <ele>16.9</ele>
        <time>2024-11-23T09:30:35Z</time>
      </trkpt>
      <trkpt lat="45.07501" lon="-0.60545">
        <ele>16.9</ele>
        <time>2024-11-23T09:30:36Z</time>
      </trkpt>
      <trkpt lat="45.07501" lon="-0.60546">
        <ele>16.9</ele>
        <time>2024-11-23T09:30:37Z</time>
      </trkpt>
      <trkpt lat="45.07502" lon="-0.60547">
        <ele>16.9</ele>
        <time>2024-11-23T09:30:38Z</time>
      </trkpt>
      <trkpt lat="45.07502" lon="-0.60548">
        <ele>16.9</ele>
        <time>2024-11-23T09:30:39Z</time>
      </trkpt>
      <trkpt lat="45.07502" lon="-0.60548">
        <ele>16.9</ele>
        <time>2024-11-23T09:30:40Z</time>
      </trkpt>
      <trkpt lat="45.07502" lon="-0.60548">
        <ele>16.9</ele>
        <time>2024-11-23T09:30:41Z</time>
      </trkpt>
      <trkpt lat="45.07502" lon="-0.60548">
        <ele>16.9</ele>
        <time>2024-11-23T09:30:42Z</time>
      </trkpt>
      <trkpt lat="45.07502" lon="-0.60548">
        <ele>16.9</ele>
        <time>2024-11-23T09:30:43Z</time>
      </trkpt>
      <trkpt lat="45.07502" lon="-0.60548">
        <ele>16.9</ele>
        <time>2024-11-23T09:30:44Z</time>
      </trkpt>
      <trkpt lat="45.07502" lon="-0.60548">
        <ele>16.9</ele>
        <time>2024-11-23T09:30:45Z</time>
      </trkpt>
      <trkpt lat="45.07502" lon="-0.60549">
        <ele>16.9</ele>
        <time>2024-11-23T09:30:46Z</time>
      </trkpt>
      <trkpt lat="45.07502" lon="-0.60549">
        <ele>16.9</ele>
        <time>2024-11-23T09:30:47Z</time>
      </trkpt>
      <trkpt lat="45.07502" lon="-0.6055">
        <ele>16.9</ele>
        <time>2024-11-23T09:30:48Z</time>
      </trkpt>
      <trkpt lat="45.07502" lon="-0.6055">
        <ele>16.9</ele>
        <time>2024-11-23T09:30:49Z</time>
      </trkpt>
      <trkpt lat="45.07502" lon="-0.6055">
        <ele>16.9</ele>
        <time>2024-11-23T09:30:50Z</time>
      </trkpt>
      <trkpt lat="45.07502" lon="-0.6055">
        <ele>16.9</ele>
        <time>2024-11-23T09:30:51Z</time>
      </trkpt>
      <trkpt lat="45.07502" lon="-0.6055">
        <ele>16.9</ele>
        <time>2024-11-23T09:30:52Z</time>
      </trkpt>
      <trkpt lat="45.07502" lon="-0.6055">
        <ele>16.9</ele>
        <time>2024-11-23T09:30:53Z</time>
      </trkpt>
      <trkpt lat="45.07502" lon="-0.60551">
        <ele>16.9</ele>
        <time>2024-11-23T09:30:54Z</time>
      </trkpt>
      <trkpt lat="45.07503" lon="-0.60551">
        <ele>16.9</ele>
        <time>2024-11-23T09:30:55Z</time>
      </trkpt>
      <trkpt lat="45.07503" lon="-0.60551">
        <ele>16.9</ele>
        <time>2024-11-23T09:30:56Z</time>
      </trkpt>
      <trkpt lat="45.07502" lon="-0.60552">
        <ele>16.9</ele>
        <time>2024-11-23T09:30:57Z</time>
      </trkpt>
      <trkpt lat="45.07502" lon="-0.60553">
        <ele>17</ele>
        <time>2024-11-23T09:30:58Z</time>
      </trkpt>
      <trkpt lat="45.07502" lon="-0.60554">
        <ele>17</ele>
        <time>2024-11-23T09:30:59Z</time>
      </trkpt>
      <trkpt lat="45.07502" lon="-0.60555">
        <ele>17</ele>
        <time>2024-11-23T09:31:00Z</time>
      </trkpt>
      <trkpt lat="45.07502" lon="-0.60556">
        <ele>17</ele>
        <time>2024-11-23T09:31:01Z</time>
      </trkpt>
      <trkpt lat="45.07502" lon="-0.60558">
        <ele>17</ele>
        <time>2024-11-23T09:31:02Z</time>
      </trkpt>
      <trkpt lat="45.07502" lon="-0.6056">
        <ele>17.1</ele>
        <time>2024-11-23T09:31:03Z</time>
      </trkpt>
      <trkpt lat="45.07502" lon="-0.60562">
        <ele>17.1</ele>
        <time>2024-11-23T09:31:04Z</time>
      </trkpt>
      <trkpt lat="45.07502" lon="-0.60564">
        <ele>17.1</ele>
        <time>2024-11-23T09:31:05Z</time>
      </trkpt>
      <trkpt lat="45.07502" lon="-0.60566">
        <ele>17.1</ele>
        <time>2024-11-23T09:31:06Z</time>
      </trkpt>
      <trkpt lat="45.07502" lon="-0.60568">
        <ele>17.2</ele>
        <time>2024-11-23T09:31:07Z</time>
      </trkpt>
      <trkpt lat="45.07501" lon="-0.60569">
        <ele>17.2</ele>
        <time>2024-11-23T09:31:08Z</time>
      </trkpt>
      <trkpt lat="45.07501" lon="-0.60571">
        <ele>17.2</ele>
        <time>2024-11-23T09:31:09Z</time>
      </trkpt>
      <trkpt lat="45.075" lon="-0.60573">
        <ele>17.3</ele>
        <time>2024-11-23T09:31:10Z</time>
      </trkpt>
      <trkpt lat="45.07499" lon="-0.60575">
        <ele>17.3</ele>
        <time>2024-11-23T09:31:11Z</time>
      </trkpt>
      <trkpt lat="45.07499" lon="-0.60576">
        <ele>17.3</ele>
        <time>2024-11-23T09:31:12Z</time>
      </trkpt>
      <trkpt lat="45.07498" lon="-0.60577">
        <ele>17.3</ele>
        <time>2024-11-23T09:31:13Z</time>
      </trkpt>
      <trkpt lat="45.07497" lon="-0.6058">
        <ele>17.4</ele>
        <time>2024-11-23T09:31:14Z</time>
      </trkpt>
      <trkpt lat="45.07496" lon="-0.60581">
        <ele>17.4</ele>
        <time>2024-11-23T09:31:15Z</time>
      </trkpt>
      <trkpt lat="45.07496" lon="-0.60581">
        <ele>17.4</ele>
        <time>2024-11-23T09:31:16Z</time>
      </trkpt>
      <trkpt lat="45.07495" lon="-0.60583">
        <ele>17.4</ele>
        <time>2024-11-23T09:31:17Z</time>
      </trkpt>
      <trkpt lat="45.07494" lon="-0.60584">
        <ele>17.4</ele>
        <time>2024-11-23T09:31:18Z</time>
      </trkpt>
      <trkpt lat="45.07494" lon="-0.60585">
        <ele>17.5</ele>
        <time>2024-11-23T09:31:19Z</time>
      </trkpt>
      <trkpt lat="45.07493" lon="-0.60587">
        <ele>17.5</ele>
        <time>2024-11-23T09:31:20Z</time>
      </trkpt>
      <trkpt lat="45.07492" lon="-0.60588">
        <ele>17.5</ele>
        <time>2024-11-23T09:31:21Z</time>
      </trkpt>
      <trkpt lat="45.07492" lon="-0.60589">
        <ele>17.5</ele>
        <time>2024-11-23T09:31:22Z</time>
      </trkpt>
      <trkpt lat="45.07491" lon="-0.6059">
        <ele>17.5</ele>
        <time>2024-11-23T09:31:23Z</time>
      </trkpt>
      <trkpt lat="45.0749" lon="-0.60592">
        <ele>17.5</ele>
        <time>2024-11-23T09:31:24Z</time>
      </trkpt>
      <trkpt lat="45.0749" lon="-0.60593">
        <ele>17.5</ele>
        <time>2024-11-23T09:31:25Z</time>
      </trkpt>
      <trkpt lat="45.0749" lon="-0.60594">
        <ele>17.6</ele>
        <time>2024-11-23T09:31:26Z</time>
      </trkpt>
      <trkpt lat="45.0749" lon="-0.60596">
        <ele>17.6</ele>
        <time>2024-11-23T09:31:27Z</time>
      </trkpt>
      <trkpt lat="45.0749" lon="-0.60598">
        <ele>17.6</ele>
        <time>2024-11-23T09:31:28Z</time>
      </trkpt>
      <trkpt lat="45.0749" lon="-0.60599">
        <ele>17.6</ele>
        <time>2024-11-23T09:31:29Z</time>
      </trkpt>
      <trkpt lat="45.0749" lon="-0.60601">
        <ele>17.6</ele>
        <time>2024-11-23T09:31:30Z</time>
      </trkpt>
      <trkpt lat="45.0749" lon="-0.60602">
        <ele>17.6</ele>
        <time>2024-11-23T09:31:31Z</time>
      </trkpt>
      <trkpt lat="45.07491" lon="-0.60604">
        <ele>17.6</ele>
        <time>2024-11-23T09:31:32Z</time>
      </trkpt>
      <trkpt lat="45.07491" lon="-0.60606">
        <ele>17.7</ele>
        <time>2024-11-23T09:31:33Z</time>
      </trkpt>
      <trkpt lat="45.07491" lon="-0.60607">
        <ele>17.7</ele>
        <time>2024-11-23T09:31:34Z</time>
      </trkpt>
      <trkpt lat="45.07491" lon="-0.60609">
        <ele>17.7</ele>
        <time>2024-11-23T09:31:35Z</time>
      </trkpt>
      <trkpt lat="45.07492" lon="-0.6061">
        <ele>17.7</ele>
        <time>2024-11-23T09:31:36Z</time>
      </trkpt>
      <trkpt lat="45.07492" lon="-0.60612">
        <ele>17.7</ele>
        <time>2024-11-23T09:31:37Z</time>
      </trkpt>
      <trkpt lat="45.07492" lon="-0.60613">
        <ele>17.7</ele>
        <time>2024-11-23T09:31:38Z</time>
      </trkpt>
      <trkpt lat="45.07492" lon="-0.60615">
        <ele>17.7</ele>
        <time>2024-11-23T09:31:39Z</time>
      </trkpt>
      <trkpt lat="45.07492" lon="-0.60617">
        <ele>17.7</ele>
        <time>2024-11-23T09:31:40Z</time>
      </trkpt>
      <trkpt lat="45.07492" lon="-0.6062">
        <ele>17.7</ele>
        <time>2024-11-23T09:31:41Z</time>
      </trkpt>
      <trkpt lat="45.07492" lon="-0.60621">
        <ele>17.7</ele>
        <time>2024-11-23T09:31:42Z</time>
      </trkpt>
      <trkpt lat="45.07492" lon="-0.60622">
        <ele>17.7</ele>
        <time>2024-11-23T09:31:43Z</time>
      </trkpt>
      <trkpt lat="45.07492" lon="-0.60624">
        <ele>17.7</ele>
        <time>2024-11-23T09:31:44Z</time>
      </trkpt>
      <trkpt lat="45.07492" lon="-0.60626">
        <ele>17.7</ele>
        <time>2024-11-23T09:31:45Z</time>
      </trkpt>
      <trkpt lat="45.07492" lon="-0.60628">
        <ele>17.7</ele>
        <time>2024-11-23T09:31:46Z</time>
      </trkpt>
      <trkpt lat="45.07492" lon="-0.60629">
        <ele>17.7</ele>
        <time>2024-11-23T09:31:47Z</time>
      </trkpt>
      <trkpt lat="45.07492" lon="-0.60631">
        <ele>17.7</ele>
        <time>2024-11-23T09:31:48Z</time>
      </trkpt>
      <trkpt lat="45.07492" lon="-0.60632">
        <ele>17.7</ele>
        <time>2024-11-23T09:31:49Z</time>
      </trkpt>
      <trkpt lat="45.07491" lon="-0.60632">
        <ele>17.7</ele>
        <time>2024-11-23T09:31:50Z</time>
      </trkpt>
      <trkpt lat="45.07491" lon="-0.60632">
        <ele>17.7</ele>
        <time>2024-11-23T09:31:51Z</time>
      </trkpt>
      <trkpt lat="45.07491" lon="-0.60632">
        <ele>17.7</ele>
        <time>2024-11-23T09:31:52Z</time>
      </trkpt>
      <trkpt lat="45.07491" lon="-0.60632">
        <ele>17.7</ele>
        <time>2024-11-23T09:31:53Z</time>
      </trkpt>
      <trkpt lat="45.07491" lon="-0.60632">
        <ele>17.7</ele>
        <time>2024-11-23T09:31:54Z</time>
      </trkpt>
      <trkpt lat="45.07492" lon="-0.60633">
        <ele>17.7</ele>
        <time>2024-11-23T09:31:55Z</time>
      </trkpt>
      <trkpt lat="45.07492" lon="-0.60634">
        <ele>17.7</ele>
        <time>2024-11-23T09:31:56Z</time>
      </trkpt>
      <trkpt lat="45.07492" lon="-0.60635">
        <ele>17.7</ele>
        <time>2024-11-23T09:31:57Z</time>
      </trkpt>
      <trkpt lat="45.07492" lon="-0.60638">
        <ele>17.7</ele>
        <time>2024-11-23T09:31:58Z</time>
      </trkpt>
      <trkpt lat="45.07493" lon="-0.6064">
        <ele>17.7</ele>
        <time>2024-11-23T09:31:59Z</time>
      </trkpt>
      <trkpt lat="45.07494" lon="-0.6064">
        <ele>17.7</ele>
        <time>2024-11-23T09:32:00Z</time>
      </trkpt>
      <trkpt lat="45.07494" lon="-0.60642">
        <ele>17.7</ele>
        <time>2024-11-23T09:32:01Z</time>
      </trkpt>
      <trkpt lat="45.07494" lon="-0.60643">
        <ele>17.7</ele>
        <time>2024-11-23T09:32:02Z</time>
      </trkpt>
      <trkpt lat="45.07495" lon="-0.60645">
        <ele>17.7</ele>
        <time>2024-11-23T09:32:03Z</time>
      </trkpt>
      <trkpt lat="45.07496" lon="-0.60646">
        <ele>17.7</ele>
        <time>2024-11-23T09:32:04Z</time>
      </trkpt>
      <trkpt lat="45.07496" lon="-0.60648">
        <ele>17.7</ele>
        <time>2024-11-23T09:32:05Z</time>
      </trkpt>
      <trkpt lat="45.07496" lon="-0.60649">
        <ele>17.7</ele>
        <time>2024-11-23T09:32:06Z</time>
      </trkpt>
      <trkpt lat="45.07496" lon="-0.60651">
        <ele>17.7</ele>
        <time>2024-11-23T09:32:07Z</time>
      </trkpt>
      <trkpt lat="45.07496" lon="-0.60653">
        <ele>17.6</ele>
        <time>2024-11-23T09:32:08Z</time>
      </trkpt>
      <trkpt lat="45.07496" lon="-0.60654">
        <ele>17.6</ele>
        <time>2024-11-23T09:32:09Z</time>
      </trkpt>
      <trkpt lat="45.07495" lon="-0.60655">
        <ele>17.6</ele>
        <time>2024-11-23T09:32:10Z</time>
      </trkpt>
      <trkpt lat="45.07494" lon="-0.60656">
        <ele>17.6</ele>
        <time>2024-11-23T09:32:11Z</time>
      </trkpt>
      <trkpt lat="45.07494" lon="-0.60657">
        <ele>17.6</ele>
        <time>2024-11-23T09:32:12Z</time>
      </trkpt>
      <trkpt lat="45.07493" lon="-0.60657">
        <ele>17.6</ele>
        <time>2024-11-23T09:32:13Z</time>
      </trkpt>
      <trkpt lat="45.07492" lon="-0.60658">
        <ele>17.6</ele>
        <time>2024-11-23T09:32:14Z</time>
      </trkpt>
      <trkpt lat="45.07491" lon="-0.60659">
        <ele>17.6</ele>
        <time>2024-11-23T09:32:15Z</time>
      </trkpt>
      <trkpt lat="45.0749" lon="-0.60659">
        <ele>17.6</ele>
        <time>2024-11-23T09:32:16Z</time>
      </trkpt>
      <trkpt lat="45.07489" lon="-0.60661">
        <ele>17.6</ele>
        <time>2024-11-23T09:32:17Z</time>
      </trkpt>
      <trkpt lat="45.07489" lon="-0.60661">
        <ele>17.6</ele>
        <time>2024-11-23T09:32:18Z</time>
      </trkpt>
      <trkpt lat="45.07488" lon="-0.60662">
        <ele>17.6</ele>
        <time>2024-11-23T09:32:19Z</time>
      </trkpt>
      <trkpt lat="45.07488" lon="-0.60662">
        <ele>17.6</ele>
        <time>2024-11-23T09:32:20Z</time>
      </trkpt>
      <trkpt lat="45.07487" lon="-0.60663">
        <ele>17.6</ele>
        <time>2024-11-23T09:32:21Z</time>
      </trkpt>
      <trkpt lat="45.07486" lon="-0.60664">
        <ele>17.6</ele>
        <time>2024-11-23T09:32:22Z</time>
      </trkpt>
      <trkpt lat="45.07485" lon="-0.60665">
        <ele>17.6</ele>
        <time>2024-11-23T09:32:23Z</time>
      </trkpt>
      <trkpt lat="45.07484" lon="-0.60666">
        <ele>17.6</ele>
        <time>2024-11-23T09:32:24Z</time>
      </trkpt>
      <trkpt lat="45.07484" lon="-0.60667">
        <ele>17.7</ele>
        <time>2024-11-23T09:32:25Z</time>
      </trkpt>
      <trkpt lat="45.07483" lon="-0.60668">
        <ele>17.7</ele>
        <time>2024-11-23T09:32:26Z</time>
      </trkpt>
      <trkpt lat="45.07482" lon="-0.60668">
        <ele>17.7</ele>
        <time>2024-11-23T09:32:27Z</time>
      </trkpt>
      <trkpt lat="45.07481" lon="-0.60669">
        <ele>17.7</ele>
        <time>2024-11-23T09:32:28Z</time>
      </trkpt>
      <trkpt lat="45.0748" lon="-0.60669">
        <ele>17.7</ele>
        <time>2024-11-23T09:32:29Z</time>
      </trkpt>
      <trkpt lat="45.0748" lon="-0.6067">
        <ele>17.7</ele>
        <time>2024-11-23T09:32:30Z</time>
      </trkpt>
      <trkpt lat="45.07479" lon="-0.6067">
        <ele>17.7</ele>
        <time>2024-11-23T09:32:31Z</time>
      </trkpt>
      <trkpt lat="45.07478" lon="-0.6067">
        <ele>17.7</ele>
        <time>2024-11-23T09:32:32Z</time>
      </trkpt>
      <trkpt lat="45.07478" lon="-0.6067">
        <ele>17.7</ele>
        <time>2024-11-23T09:32:33Z</time>
      </trkpt>
      <trkpt lat="45.07478" lon="-0.6067">
        <ele>17.7</ele>
        <time>2024-11-23T09:32:34Z</time>
      </trkpt>
      <trkpt lat="45.07478" lon="-0.60669">
        <ele>17.7</ele>
        <time>2024-11-23T09:32:35Z</time>
      </trkpt>
      <trkpt lat="45.07478" lon="-0.60669">
        <ele>17.7</ele>
        <time>2024-11-23T09:32:36Z</time>
      </trkpt>
      <trkpt lat="45.07478" lon="-0.60669">
        <ele>17.7</ele>
        <time>2024-11-23T09:32:37Z</time>
      </trkpt>
      <trkpt lat="45.07478" lon="-0.60669">
        <ele>17.7</ele>
        <time>2024-11-23T09:32:38Z</time>
      </trkpt>
      <trkpt lat="45.07478" lon="-0.60669">
        <ele>17.7</ele>
        <time>2024-11-23T09:32:39Z</time>
      </trkpt>
      <trkpt lat="45.07478" lon="-0.60669">
        <ele>17.7</ele>
        <time>2024-11-23T09:32:40Z</time>
      </trkpt>
      <trkpt lat="45.07477" lon="-0.60669">
        <ele>17.7</ele>
        <time>2024-11-23T09:32:41Z</time>
      </trkpt>
      <trkpt lat="45.07476" lon="-0.6067">
        <ele>17.7</ele>
        <time>2024-11-23T09:32:42Z</time>
      </trkpt>
      <trkpt lat="45.07475" lon="-0.6067">
        <ele>17.7</ele>
        <time>2024-11-23T09:32:43Z</time>
      </trkpt>
      <trkpt lat="45.07474" lon="-0.6067">
        <ele>17.8</ele>
        <time>2024-11-23T09:32:44Z</time>
      </trkpt>
      <trkpt lat="45.07474" lon="-0.6067">
        <ele>17.8</ele>
        <time>2024-11-23T09:32:45Z</time>
      </trkpt>
      <trkpt lat="45.07473" lon="-0.6067">
        <ele>17.8</ele>
        <time>2024-11-23T09:32:46Z</time>
      </trkpt>
      <trkpt lat="45.07473" lon="-0.6067">
        <ele>17.8</ele>
        <time>2024-11-23T09:32:47Z</time>
      </trkpt>
      <trkpt lat="45.07473" lon="-0.6067">
        <ele>17.8</ele>
        <time>2024-11-23T09:32:48Z</time>
      </trkpt>
      <trkpt lat="45.07473" lon="-0.6067">
        <ele>17.8</ele>
        <time>2024-11-23T09:32:49Z</time>
      </trkpt>
      <trkpt lat="45.07473" lon="-0.6067">
        <ele>17.8</ele>
        <time>2024-11-23T09:32:50Z</time>
      </trkpt>
      <trkpt lat="45.07473" lon="-0.6067">
        <ele>17.8</ele>
        <time>2024-11-23T09:32:51Z</time>
      </trkpt>
      <trkpt lat="45.07473" lon="-0.6067">
        <ele>17.8</ele>
        <time>2024-11-23T09:32:52Z</time>
      </trkpt>
      <trkpt lat="45.07473" lon="-0.6067">
        <ele>17.8</ele>
        <time>2024-11-23T09:32:53Z</time>
      </trkpt>
      <trkpt lat="45.07472" lon="-0.6067">
        <ele>17.8</ele>
        <time>2024-11-23T09:32:54Z</time>
      </trkpt>
      <trkpt lat="45.07471" lon="-0.6067">
        <ele>17.8</ele>
        <time>2024-11-23T09:32:55Z</time>
      </trkpt>
      <trkpt lat="45.07471" lon="-0.60671">
        <ele>17.8</ele>
        <time>2024-11-23T09:32:56Z</time>
      </trkpt>
      <trkpt lat="45.0747" lon="-0.60671">
        <ele>17.8</ele>
        <time>2024-11-23T09:32:57Z</time>
      </trkpt>
      <trkpt lat="45.07469" lon="-0.60671">
        <ele>17.8</ele>
        <time>2024-11-23T09:32:58Z</time>
      </trkpt>
      <trkpt lat="45.07469" lon="-0.60671">
        <ele>17.9</ele>
        <time>2024-11-23T09:32:59Z</time>
      </trkpt>
      <trkpt lat="45.07468" lon="-0.60672">
        <ele>17.9</ele>
        <time>2024-11-23T09:33:00Z</time>
      </trkpt>
      <trkpt lat="45.07468" lon="-0.60672">
        <ele>17.9</ele>
        <time>2024-11-23T09:33:01Z</time>
      </trkpt>
      <trkpt lat="45.07467" lon="-0.60672">
        <ele>17.9</ele>
        <time>2024-11-23T09:33:02Z</time>
      </trkpt>
      <trkpt lat="45.07466" lon="-0.60672">
        <ele>17.9</ele>
        <time>2024-11-23T09:33:03Z</time>
      </trkpt>
      <trkpt lat="45.07465" lon="-0.60673">
        <ele>17.9</ele>
        <time>2024-11-23T09:33:04Z</time>
      </trkpt>
      <trkpt lat="45.07465" lon="-0.60673">
        <ele>17.9</ele>
        <time>2024-11-23T09:33:05Z</time>
      </trkpt>
      <trkpt lat="45.07464" lon="-0.60673">
        <ele>18</ele>
        <time>2024-11-23T09:33:06Z</time>
      </trkpt>
      <trkpt lat="45.07464" lon="-0.60673">
        <ele>18</ele>
        <time>2024-11-23T09:33:07Z</time>
      </trkpt>
      <trkpt lat="45.07463" lon="-0.60674">
        <ele>18</ele>
        <time>2024-11-23T09:33:08Z</time>
      </trkpt>
      <trkpt lat="45.07462" lon="-0.60674">
        <ele>18</ele>
        <time>2024-11-23T09:33:09Z</time>
      </trkpt>
      <trkpt lat="45.07461" lon="-0.60675">
        <ele>18</ele>
        <time>2024-11-23T09:33:10Z</time>
      </trkpt>
      <trkpt lat="45.0746" lon="-0.60675">
        <ele>18.1</ele>
        <time>2024-11-23T09:33:11Z</time>
      </trkpt>
      <trkpt lat="45.07459" lon="-0.60675">
        <ele>18.1</ele>
        <time>2024-11-23T09:33:12Z</time>
      </trkpt>
      <trkpt lat="45.07458" lon="-0.60676">
        <ele>18.1</ele>
        <time>2024-11-23T09:33:13Z</time>
      </trkpt>
      <trkpt lat="45.07457" lon="-0.60676">
        <ele>18.2</ele>
        <time>2024-11-23T09:33:14Z</time>
      </trkpt>
      <trkpt lat="45.07456" lon="-0.60677">
        <ele>18.2</ele>
        <time>2024-11-23T09:33:15Z</time>
      </trkpt>
      <trkpt lat="45.07455" lon="-0.60678">
        <ele>18.2</ele>
        <time>2024-11-23T09:33:16Z</time>
      </trkpt>
      <trkpt lat="45.07454" lon="-0.60678">
        <ele>18.2</ele>
        <time>2024-11-23T09:33:17Z</time>
      </trkpt>
      <trkpt lat="45.07453" lon="-0.60679">
        <ele>18.3</ele>
        <time>2024-11-23T09:33:18Z</time>
      </trkpt>
      <trkpt lat="45.07452" lon="-0.6068">
        <ele>18.3</ele>
        <time>2024-11-23T09:33:19Z</time>
      </trkpt>
      <trkpt lat="45.07452" lon="-0.60681">
        <ele>18.3</ele>
        <time>2024-11-23T09:33:20Z</time>
      </trkpt>
      <trkpt lat="45.07451" lon="-0.60681">
        <ele>18.4</ele>
        <time>2024-11-23T09:33:21Z</time>
      </trkpt>
      <trkpt lat="45.0745" lon="-0.60682">
        <ele>18.4</ele>
        <time>2024-11-23T09:33:22Z</time>
      </trkpt>
      <trkpt lat="45.07449" lon="-0.60683">
        <ele>18.4</ele>
        <time>2024-11-23T09:33:23Z</time>
      </trkpt>
      <trkpt lat="45.07448" lon="-0.60684">
        <ele>18.5</ele>
        <time>2024-11-23T09:33:24Z</time>
      </trkpt>
      <trkpt lat="45.07447" lon="-0.60685">
        <ele>18.5</ele>
        <time>2024-11-23T09:33:25Z</time>
      </trkpt>
      <trkpt lat="45.07447" lon="-0.60685">
        <ele>18.5</ele>
        <time>2024-11-23T09:33:26Z</time>
      </trkpt>
      <trkpt lat="45.07446" lon="-0.60686">
        <ele>18.6</ele>
        <time>2024-11-23T09:33:27Z</time>
      </trkpt>
      <trkpt lat="45.07445" lon="-0.60687">
        <ele>18.6</ele>
        <time>2024-11-23T09:33:28Z</time>
      </trkpt>
      <trkpt lat="45.07444" lon="-0.60687">
        <ele>18.7</ele>
        <time>2024-11-23T09:33:29Z</time>
      </trkpt>
      <trkpt lat="45.07443" lon="-0.60687">
        <ele>18.7</ele>
        <time>2024-11-23T09:33:30Z</time>
      </trkpt>
      <trkpt lat="45.07442" lon="-0.60687">
        <ele>18.7</ele>
        <time>2024-11-23T09:33:31Z</time>
      </trkpt>
      <trkpt lat="45.07442" lon="-0.60686">
        <ele>18.7</ele>
        <time>2024-11-23T09:33:32Z</time>
      </trkpt>
      <trkpt lat="45.07441" lon="-0.60685">
        <ele>18.7</ele>
        <time>2024-11-23T09:33:33Z</time>
      </trkpt>
      <trkpt lat="45.07446" lon="-0.60691">
        <ele>18.8</ele>
        <time>2024-11-23T09:33:34Z</time>
      </trkpt>
      <trkpt lat="45.0745" lon="-0.607">
        <ele>18.9</ele>
        <time>2024-11-23T09:33:35Z</time>
      </trkpt>
      <trkpt lat="45.07455" lon="-0.60709">
        <ele>19.2</ele>
        <time>2024-11-23T09:33:36Z</time>
      </trkpt>
      <trkpt lat="45.0746" lon="-0.60718">
        <ele>19.7</ele>
        <time>2024-11-23T09:34:27Z</time>
      </trkpt>
      <trkpt lat="45.07464" lon="-0.60727">
        <ele>20.1</ele>
        <time>2024-11-23T09:34:28Z</time>
      </trkpt>
      <trkpt lat="45.07469" lon="-0.60736">
        <ele>20.4</ele>
        <time>2024-11-23T09:34:29Z</time>
      </trkpt>
      <trkpt lat="45.07474" lon="-0.60745">
        <ele>20.5</ele>
        <time>2024-11-23T09:34:30Z</time>
      </trkpt>
      <trkpt lat="45.07475" lon="-0.60746">
        <ele>20.5</ele>
        <time>2024-11-23T09:34:31Z</time>
      </trkpt>
      <trkpt lat="45.07475" lon="-0.60748">
        <ele>20.5</ele>
        <time>2024-11-23T09:34:32Z</time>
      </trkpt>
      <trkpt lat="45.07476" lon="-0.60749">
        <ele>20.5</ele>
        <time>2024-11-23T09:34:33Z</time>
      </trkpt>
      <trkpt lat="45.07477" lon="-0.6075">
        <ele>20.5</ele>
        <time>2024-11-23T09:34:34Z</time>
      </trkpt>
      <trkpt lat="45.07478" lon="-0.60751">
        <ele>20.4</ele>
        <time>2024-11-23T09:34:35Z</time>
      </trkpt>
      <trkpt lat="45.07478" lon="-0.60752">
        <ele>20.4</ele>
        <time>2024-11-23T09:34:36Z</time>
      </trkpt>
      <trkpt lat="45.075" lon="-0.60809">
        <ele>18.8</ele>
        <time>2024-11-23T09:35:13Z</time>
      </trkpt>
      <trkpt lat="45.075" lon="-0.6081">
        <ele>18.7</ele>
        <time>2024-11-23T09:35:14Z</time>
      </trkpt>
      <trkpt lat="45.075" lon="-0.60812">
        <ele>18.7</ele>
        <time>2024-11-23T09:35:15Z</time>
      </trkpt>
      <trkpt lat="45.075" lon="-0.60813">
        <ele>18.6</ele>
        <time>2024-11-23T09:35:16Z</time>
      </trkpt>
      <trkpt lat="45.075" lon="-0.60816">
        <ele>18.6</ele>
        <time>2024-11-23T09:35:17Z</time>
      </trkpt>
      <trkpt lat="45.075" lon="-0.60817">
        <ele>18.5</ele>
        <time>2024-11-23T09:35:18Z</time>
      </trkpt>
      <trkpt lat="45.075" lon="-0.60819">
        <ele>18.4</ele>
        <time>2024-11-23T09:35:19Z</time>
      </trkpt>
      <trkpt lat="45.07501" lon="-0.60821">
        <ele>18.4</ele>
        <time>2024-11-23T09:35:20Z</time>
      </trkpt>
      <trkpt lat="45.07501" lon="-0.60823">
        <ele>18.3</ele>
        <time>2024-11-23T09:35:21Z</time>
      </trkpt>
      <trkpt lat="45.07501" lon="-0.60825">
        <ele>18.2</ele>
        <time>2024-11-23T09:35:22Z</time>
      </trkpt>
      <trkpt lat="45.07515" lon="-0.60887">
        <ele>16</ele>
        <time>2024-11-23T09:35:53Z</time>
      </trkpt>
      <trkpt lat="45.07516" lon="-0.60888">
        <ele>15.9</ele>
        <time>2024-11-23T09:35:54Z</time>
      </trkpt>
      <trkpt lat="45.07516" lon="-0.60889">
        <ele>15.9</ele>
        <time>2024-11-23T09:35:55Z</time>
      </trkpt>
      <trkpt lat="45.07516" lon="-0.60891">
        <ele>15.8</ele>
        <time>2024-11-23T09:35:56Z</time>
      </trkpt>
      <trkpt lat="45.07516" lon="-0.60893">
        <ele>15.8</ele>
        <time>2024-11-23T09:35:57Z</time>
      </trkpt>
      <trkpt lat="45.07516" lon="-0.60894">
        <ele>15.7</ele>
        <time>2024-11-23T09:35:58Z</time>
      </trkpt>
      <trkpt lat="45.07516" lon="-0.60896">
        <ele>15.7</ele>
        <time>2024-11-23T09:35:59Z</time>
      </trkpt>
      <trkpt lat="45.07517" lon="-0.60899">
        <ele>15.6</ele>
        <time>2024-11-23T09:36:00Z</time>
      </trkpt>
      <trkpt lat="45.07517" lon="-0.609">
        <ele>15.6</ele>
        <time>2024-11-23T09:36:01Z</time>
      </trkpt>
      <trkpt lat="45.07517" lon="-0.60902">
        <ele>15.5</ele>
        <time>2024-11-23T09:36:02Z</time>
      </trkpt>
      <trkpt lat="45.07517" lon="-0.60903">
        <ele>15.5</ele>
        <time>2024-11-23T09:36:03Z</time>
      </trkpt>
      <trkpt lat="45.07517" lon="-0.60905">
        <ele>15.5</ele>
        <time>2024-11-23T09:36:04Z</time>
      </trkpt>
      <trkpt lat="45.07517" lon="-0.60906">
        <ele>15.4</ele>
        <time>2024-11-23T09:36:05Z</time>
      </trkpt>
      <trkpt lat="45.07518" lon="-0.60908">
        <ele>15.4</ele>
        <time>2024-11-23T09:36:06Z</time>
      </trkpt>
      <trkpt lat="45.07518" lon="-0.6091">
        <ele>15.3</ele>
        <time>2024-11-23T09:36:07Z</time>
      </trkpt>
      <trkpt lat="45.07531" lon="-0.61001">
        <ele>13.7</ele>
        <time>2024-11-23T09:36:46Z</time>
      </trkpt>
      <trkpt lat="45.07531" lon="-0.61003">
        <ele>13.7</ele>
        <time>2024-11-23T09:36:47Z</time>
      </trkpt>
      <trkpt lat="45.07531" lon="-0.61005">
        <ele>13.7</ele>
        <time>2024-11-23T09:36:48Z</time>
      </trkpt>
      <trkpt lat="45.07531" lon="-0.61006">
        <ele>13.7</ele>
        <time>2024-11-23T09:36:49Z</time>
      </trkpt>
      <trkpt lat="45.07531" lon="-0.61009">
        <ele>13.7</ele>
        <time>2024-11-23T09:36:50Z</time>
      </trkpt>
      <trkpt lat="45.07532" lon="-0.61011">
        <ele>13.7</ele>
        <time>2024-11-23T09:36:51Z</time>
      </trkpt>
      <trkpt lat="45.07533" lon="-0.61029">
        <ele>13.6</ele>
        <time>2024-11-23T09:36:52Z</time>
      </trkpt>
      <trkpt lat="45.07534" lon="-0.61045">
        <ele>13.6</ele>
        <time>2024-11-23T09:37:27Z</time>
      </trkpt>
      <trkpt lat="45.07534" lon="-0.61061">
        <ele>13.5</ele>
        <time>2024-11-23T09:37:28Z</time>
      </trkpt>
      <trkpt lat="45.07535" lon="-0.61077">
        <ele>13.5</ele>
        <time>2024-11-23T09:37:29Z</time>
      </trkpt>
      <trkpt lat="45.07534" lon="-0.6108">
        <ele>13.5</ele>
        <time>2024-11-23T09:37:30Z</time>
      </trkpt>
      <trkpt lat="45.07534" lon="-0.61082">
        <ele>13.5</ele>
        <time>2024-11-23T09:37:31Z</time>
      </trkpt>
      <trkpt lat="45.07534" lon="-0.61083">
        <ele>13.5</ele>
        <time>2024-11-23T09:37:32Z</time>
      </trkpt>
      <trkpt lat="45.07534" lon="-0.61085">
        <ele>13.5</ele>
        <time>2024-11-23T09:37:33Z</time>
      </trkpt>
      <trkpt lat="45.07534" lon="-0.61088">
        <ele>13.5</ele>
        <time>2024-11-23T09:37:34Z</time>
      </trkpt>
      <trkpt lat="45.07535" lon="-0.61092">
        <ele>13.5</ele>
        <time>2024-11-23T09:37:35Z</time>
      </trkpt>
      <trkpt lat="45.07535" lon="-0.61094">
        <ele>13.5</ele>
        <time>2024-11-23T09:37:36Z</time>
      </trkpt>
      <trkpt lat="45.07536" lon="-0.61099">
        <ele>13.5</ele>
        <time>2024-11-23T09:37:37Z</time>
      </trkpt>
      <trkpt lat="45.07523" lon="-0.61197">
        <ele>13.5</ele>
        <time>2024-11-23T09:38:25Z</time>
      </trkpt>
      <trkpt lat="45.07522" lon="-0.61197">
        <ele>13.5</ele>
        <time>2024-11-23T09:38:26Z</time>
      </trkpt>
      <trkpt lat="45.07522" lon="-0.61197">
        <ele>13.5</ele>
        <time>2024-11-23T09:38:27Z</time>
      </trkpt>
      <trkpt lat="45.07522" lon="-0.61197">
        <ele>13.5</ele>
        <time>2024-11-23T09:38:28Z</time>
      </trkpt>
      <trkpt lat="45.07521" lon="-0.61197">
        <ele>13.5</ele>
        <time>2024-11-23T09:38:29Z</time>
      </trkpt>
      <trkpt lat="45.0752" lon="-0.61196">
        <ele>13.5</ele>
        <time>2024-11-23T09:38:30Z</time>
      </trkpt>
      <trkpt lat="45.0752" lon="-0.61196">
        <ele>13.5</ele>
        <time>2024-11-23T09:38:31Z</time>
      </trkpt>
      <trkpt lat="45.07519" lon="-0.61195">
        <ele>13.5</ele>
        <time>2024-11-23T09:38:32Z</time>
      </trkpt>
      <trkpt lat="45.07518" lon="-0.61195">
        <ele>13.5</ele>
        <time>2024-11-23T09:38:33Z</time>
      </trkpt>
      <trkpt lat="45.07518" lon="-0.61195">
        <ele>13.5</ele>
        <time>2024-11-23T09:38:34Z</time>
      </trkpt>
      <trkpt lat="45.07518" lon="-0.61195">
        <ele>13.5</ele>
        <time>2024-11-23T09:38:35Z</time>
      </trkpt>
      <trkpt lat="45.07518" lon="-0.61195">
        <ele>13.5</ele>
        <time>2024-11-23T09:38:36Z</time>
      </trkpt>
      <trkpt lat="45.07518" lon="-0.61195">
        <ele>13.5</ele>
        <time>2024-11-23T09:42:04Z</time>
      </trkpt>
      <trkpt lat="45.07505" lon="-0.61194">
        <ele>13.5</ele>
        <time>2024-11-23T09:42:05Z</time>
      </trkpt>
      <trkpt lat="45.07505" lon="-0.61198">
        <ele>13.5</ele>
        <time>2024-11-23T09:42:06Z</time>
      </trkpt>
      <trkpt lat="45.07505" lon="-0.61199">
        <ele>13.5</ele>
        <time>2024-11-23T09:42:07Z</time>
      </trkpt>
      <trkpt lat="45.07505" lon="-0.61201">
        <ele>13.5</ele>
        <time>2024-11-23T09:42:08Z</time>
      </trkpt>
      <trkpt lat="45.07505" lon="-0.61201">
        <ele>13.5</ele>
        <time>2024-11-23T09:42:09Z</time>
      </trkpt>
      <trkpt lat="45.07505" lon="-0.612">
        <ele>13.6</ele>
        <time>2024-11-23T09:42:10Z</time>
      </trkpt>
      <trkpt lat="45.07505" lon="-0.61199">
        <ele>13.6</ele>
        <time>2024-11-23T09:42:11Z</time>
      </trkpt>
      <trkpt lat="45.07505" lon="-0.61199">
        <ele>13.6</ele>
        <time>2024-11-23T09:42:12Z</time>
      </trkpt>
      <trkpt lat="45.07506" lon="-0.61199">
        <ele>13.6</ele>
        <time>2024-11-23T09:42:13Z</time>
      </trkpt>
      <trkpt lat="45.07506" lon="-0.61199">
        <ele>13.6</ele>
        <time>2024-11-23T09:42:14Z</time>
      </trkpt>
      <trkpt lat="45.07506" lon="-0.61198">
        <ele>13.6</ele>
        <time>2024-11-23T09:42:15Z</time>
      </trkpt>
      <trkpt lat="45.07506" lon="-0.61198">
        <ele>13.6</ele>
        <time>2024-11-23T09:42:16Z</time>
      </trkpt>
      <trkpt lat="45.07506" lon="-0.61197">
        <ele>13.6</ele>
        <time>2024-11-23T09:42:17Z</time>
      </trkpt>
      <trkpt lat="45.07506" lon="-0.61197">
        <ele>13.7</ele>
        <time>2024-11-23T09:42:18Z</time>
      </trkpt>
      <trkpt lat="45.07506" lon="-0.61197">
        <ele>13.7</ele>
        <time>2024-11-23T09:42:19Z</time>
      </trkpt>
      <trkpt lat="45.07506" lon="-0.61197">
        <ele>13.7</ele>
        <time>2024-11-23T09:42:20Z</time>
      </trkpt>
      <trkpt lat="45.07506" lon="-0.61197">
        <ele>13.7</ele>
        <time>2024-11-23T09:42:21Z</time>
      </trkpt>
      <trkpt lat="45.07506" lon="-0.61197">
        <ele>13.7</ele>
        <time>2024-11-23T09:42:22Z</time>
      </trkpt>
      <trkpt lat="45.07506" lon="-0.61197">
        <ele>13.7</ele>
        <time>2024-11-23T09:42:23Z</time>
      </trkpt>
      <trkpt lat="45.07505" lon="-0.61198">
        <ele>13.7</ele>
        <time>2024-11-23T09:42:24Z</time>
      </trkpt>
      <trkpt lat="45.07505" lon="-0.61198">
        <ele>13.7</ele>
        <time>2024-11-23T09:42:25Z</time>
      </trkpt>
      <trkpt lat="45.07503" lon="-0.61198">
        <ele>13.7</ele>
        <time>2024-11-23T09:42:26Z</time>
      </trkpt>
      <trkpt lat="45.07501" lon="-0.61198">
        <ele>13.8</ele>
        <time>2024-11-23T09:42:27Z</time>
      </trkpt>
      <trkpt lat="45.075" lon="-0.61197">
        <ele>13.8</ele>
        <time>2024-11-23T09:42:28Z</time>
      </trkpt>
      <trkpt lat="45.07499" lon="-0.61198">
        <ele>13.9</ele>
        <time>2024-11-23T09:42:29Z</time>
      </trkpt>
      <trkpt lat="45.07497" lon="-0.61198">
        <ele>13.9</ele>
        <time>2024-11-23T09:42:30Z</time>
      </trkpt>
      <trkpt lat="45.07496" lon="-0.61198">
        <ele>13.9</ele>
        <time>2024-11-23T09:42:31Z</time>
      </trkpt>
      <trkpt lat="45.07494" lon="-0.61198">
        <ele>14</ele>
        <time>2024-11-23T09:42:32Z</time>
      </trkpt>
      <trkpt lat="45.07493" lon="-0.61198">
        <ele>14</ele>
        <time>2024-11-23T09:42:33Z</time>
      </trkpt>
      <trkpt lat="45.07493" lon="-0.61199">
        <ele>14</ele>
        <time>2024-11-23T09:42:34Z</time>
      </trkpt>
      <trkpt lat="45.07491" lon="-0.61199">
        <ele>14.1</ele>
        <time>2024-11-23T09:42:35Z</time>
      </trkpt>
      <trkpt lat="45.0749" lon="-0.612">
        <ele>14.1</ele>
        <time>2024-11-23T09:42:36Z</time>
      </trkpt>
      <trkpt lat="45.07489" lon="-0.612">
        <ele>14.1</ele>
        <time>2024-11-23T09:42:37Z</time>
      </trkpt>
      <trkpt lat="45.07488" lon="-0.612">
        <ele>14.2</ele>
        <time>2024-11-23T09:42:38Z</time>
      </trkpt>
      <trkpt lat="45.07487" lon="-0.612">
        <ele>14.2</ele>
        <time>2024-11-23T09:42:39Z</time>
      </trkpt>
      <trkpt lat="45.07485" lon="-0.612">
        <ele>14.2</ele>
        <time>2024-11-23T09:42:40Z</time>
      </trkpt>
      <trkpt lat="45.07484" lon="-0.612">
        <ele>14.3</ele>
        <time>2024-11-23T09:42:41Z</time>
      </trkpt>
      <trkpt lat="45.07483" lon="-0.612">
        <ele>14.3</ele>
        <time>2024-11-23T09:42:42Z</time>
      </trkpt>
      <trkpt lat="45.07482" lon="-0.612">
        <ele>14.3</ele>
        <time>2024-11-23T09:42:43Z</time>
      </trkpt>
      <trkpt lat="45.07481" lon="-0.61201">
        <ele>14.4</ele>
        <time>2024-11-23T09:42:44Z</time>
      </trkpt>
      <trkpt lat="45.0748" lon="-0.61201">
        <ele>14.4</ele>
        <time>2024-11-23T09:42:45Z</time>
      </trkpt>
      <trkpt lat="45.07479" lon="-0.612">
        <ele>14.4</ele>
        <time>2024-11-23T09:42:46Z</time>
      </trkpt>
      <trkpt lat="45.07478" lon="-0.612">
        <ele>14.5</ele>
        <time>2024-11-23T09:42:47Z</time>
      </trkpt>
      <trkpt lat="45.07477" lon="-0.61201">
        <ele>14.5</ele>
        <time>2024-11-23T09:42:48Z</time>
      </trkpt>
      <trkpt lat="45.07476" lon="-0.61201">
        <ele>14.5</ele>
        <time>2024-11-23T09:42:49Z</time>
      </trkpt>
      <trkpt lat="45.07474" lon="-0.61201">
        <ele>14.6</ele>
        <time>2024-11-23T09:42:50Z</time>
      </trkpt>
      <trkpt lat="45.07473" lon="-0.61201">
        <ele>14.6</ele>
        <time>2024-11-23T09:42:51Z</time>
      </trkpt>
      <trkpt lat="45.07472" lon="-0.61201">
        <ele>14.7</ele>
        <time>2024-11-23T09:42:52Z</time>
      </trkpt>
      <trkpt lat="45.0747" lon="-0.61202">
        <ele>14.7</ele>
        <time>2024-11-23T09:42:53Z</time>
      </trkpt>
      <trkpt lat="45.07469" lon="-0.61202">
        <ele>14.8</ele>
        <time>2024-11-23T09:42:54Z</time>
      </trkpt>
      <trkpt lat="45.07467" lon="-0.61202">
        <ele>14.9</ele>
        <time>2024-11-23T09:42:55Z</time>
      </trkpt>
      <trkpt lat="45.07466" lon="-0.61202">
        <ele>14.9</ele>
        <time>2024-11-23T09:42:56Z</time>
      </trkpt>
      <trkpt lat="45.07465" lon="-0.61202">
        <ele>14.9</ele>
        <time>2024-11-23T09:42:57Z</time>
      </trkpt>
      <trkpt lat="45.07465" lon="-0.61201">
        <ele>15</ele>
        <time>2024-11-23T09:42:58Z</time>
      </trkpt>
      <trkpt lat="45.07464" lon="-0.612">
        <ele>15</ele>
        <time>2024-11-23T09:42:59Z</time>
      </trkpt>
      <trkpt lat="45.07463" lon="-0.612">
        <ele>15</ele>
        <time>2024-11-23T09:43:00Z</time>
      </trkpt>
      <trkpt lat="45.07463" lon="-0.612">
        <ele>15.1</ele>
        <time>2024-11-23T09:43:01Z</time>
      </trkpt>
      <trkpt lat="45.07462" lon="-0.612">
        <ele>15.1</ele>
        <time>2024-11-23T09:43:02Z</time>
      </trkpt>
      <trkpt lat="45.0746" lon="-0.61201">
        <ele>15.2</ele>
        <time>2024-11-23T09:43:03Z</time>
      </trkpt>
      <trkpt lat="45.07459" lon="-0.61201">
        <ele>15.2</ele>
        <time>2024-11-23T09:43:04Z</time>
      </trkpt>
      <trkpt lat="45.07457" lon="-0.61202">
        <ele>15.4</ele>
        <time>2024-11-23T09:43:05Z</time>
      </trkpt>
      <trkpt lat="45.07456" lon="-0.61202">
        <ele>15.4</ele>
        <time>2024-11-23T09:43:06Z</time>
      </trkpt>
      <trkpt lat="45.07456" lon="-0.61202">
        <ele>15.4</ele>
        <time>2024-11-23T09:43:07Z</time>
      </trkpt>
      <trkpt lat="45.07454" lon="-0.61202">
        <ele>15.5</ele>
        <time>2024-11-23T09:43:08Z</time>
      </trkpt>
      <trkpt lat="45.07454" lon="-0.61202">
        <ele>15.5</ele>
        <time>2024-11-23T09:43:09Z</time>
      </trkpt>
      <trkpt lat="45.07453" lon="-0.61202">
        <ele>15.6</ele>
        <time>2024-11-23T09:43:10Z</time>
      </trkpt>
      <trkpt lat="45.07453" lon="-0.61202">
        <ele>15.6</ele>
        <time>2024-11-23T09:43:11Z</time>
      </trkpt>
      <trkpt lat="45.07452" lon="-0.61202">
        <ele>15.6</ele>
        <time>2024-11-23T09:43:12Z</time>
      </trkpt>
      <trkpt lat="45.07451" lon="-0.61202">
        <ele>15.7</ele>
        <time>2024-11-23T09:43:13Z</time>
      </trkpt>
      <trkpt lat="45.0745" lon="-0.61203">
        <ele>15.8</ele>
        <time>2024-11-23T09:43:14Z</time>
      </trkpt>
      <trkpt lat="45.07449" lon="-0.61203">
        <ele>15.8</ele>
        <time>2024-11-23T09:43:15Z</time>
      </trkpt>
      <trkpt lat="45.07448" lon="-0.61203">
        <ele>15.9</ele>
        <time>2024-11-23T09:43:16Z</time>
      </trkpt>
      <trkpt lat="45.07447" lon="-0.61203">
        <ele>15.9</ele>
        <time>2024-11-23T09:43:17Z</time>
      </trkpt>
      <trkpt lat="45.07446" lon="-0.61203">
        <ele>16</ele>
        <time>2024-11-23T09:43:18Z</time>
      </trkpt>
      <trkpt lat="45.07445" lon="-0.61203">
        <ele>16.1</ele>
        <time>2024-11-23T09:43:19Z</time>
      </trkpt>
      <trkpt lat="45.07444" lon="-0.61203">
        <ele>16.2</ele>
        <time>2024-11-23T09:43:20Z</time>
      </trkpt>
      <trkpt lat="45.07442" lon="-0.61203">
        <ele>16.3</ele>
        <time>2024-11-23T09:43:21Z</time>
      </trkpt>
      <trkpt lat="45.07441" lon="-0.61203">
        <ele>16.3</ele>
        <time>2024-11-23T09:43:22Z</time>
      </trkpt>
      <trkpt lat="45.0744" lon="-0.61204">
        <ele>16.4</ele>
        <time>2024-11-23T09:43:23Z</time>
      </trkpt>
      <trkpt lat="45.07439" lon="-0.61204">
        <ele>16.5</ele>
        <time>2024-11-23T09:43:24Z</time>
      </trkpt>
      <trkpt lat="45.07438" lon="-0.61204">
        <ele>16.6</ele>
        <time>2024-11-23T09:43:25Z</time>
      </trkpt>
      <trkpt lat="45.07437" lon="-0.61204">
        <ele>16.6</ele>
        <time>2024-11-23T09:43:26Z</time>
      </trkpt>
      <trkpt lat="45.07436" lon="-0.61204">
        <ele>16.7</ele>
        <time>2024-11-23T09:43:27Z</time>
      </trkpt>
      <trkpt lat="45.07435" lon="-0.61205">
        <ele>16.8</ele>
        <time>2024-11-23T09:43:28Z</time>
      </trkpt>
      <trkpt lat="45.07434" lon="-0.61205">
        <ele>16.8</ele>
        <time>2024-11-23T09:43:29Z</time>
      </trkpt>
      <trkpt lat="45.07433" lon="-0.61205">
        <ele>16.9</ele>
        <time>2024-11-23T09:43:30Z</time>
      </trkpt>
      <trkpt lat="45.07432" lon="-0.61206">
        <ele>17</ele>
        <time>2024-11-23T09:43:31Z</time>
      </trkpt>
      <trkpt lat="45.07431" lon="-0.61207">
        <ele>17</ele>
        <time>2024-11-23T09:43:32Z</time>
      </trkpt>
      <trkpt lat="45.0743" lon="-0.61207">
        <ele>17.1</ele>
        <time>2024-11-23T09:43:33Z</time>
      </trkpt>
      <trkpt lat="45.07429" lon="-0.61208">
        <ele>17.1</ele>
        <time>2024-11-23T09:43:34Z</time>
      </trkpt>
      <trkpt lat="45.07429" lon="-0.61208">
        <ele>17.1</ele>
        <time>2024-11-23T09:43:35Z</time>
      </trkpt>
      <trkpt lat="45.07429" lon="-0.61209">
        <ele>17.1</ele>
        <time>2024-11-23T09:43:36Z</time>
      </trkpt>
      <trkpt lat="45.07429" lon="-0.61209">
        <ele>17.2</ele>
        <time>2024-11-23T09:43:37Z</time>
      </trkpt>
      <trkpt lat="45.07429" lon="-0.61209">
        <ele>17.2</ele>
        <time>2024-11-23T09:43:38Z</time>
      </trkpt>
      <trkpt lat="45.07428" lon="-0.61209">
        <ele>17.2</ele>
        <time>2024-11-23T09:43:39Z</time>
      </trkpt>
      <trkpt lat="45.07428" lon="-0.61209">
        <ele>17.2</ele>
        <time>2024-11-23T09:43:40Z</time>
      </trkpt>
      <trkpt lat="45.07427" lon="-0.6121">
        <ele>17.3</ele>
        <time>2024-11-23T09:43:41Z</time>
      </trkpt>
      <trkpt lat="45.07426" lon="-0.61211">
        <ele>17.3</ele>
        <time>2024-11-23T09:43:42Z</time>
      </trkpt>
      <trkpt lat="45.07425" lon="-0.61211">
        <ele>17.4</ele>
        <time>2024-11-23T09:43:43Z</time>
      </trkpt>
      <trkpt lat="45.07424" lon="-0.61211">
        <ele>17.4</ele>
        <time>2024-11-23T09:43:44Z</time>
      </trkpt>
      <trkpt lat="45.07424" lon="-0.61212">
        <ele>17.4</ele>
        <time>2024-11-23T09:43:45Z</time>
      </trkpt>
      <trkpt lat="45.07423" lon="-0.61212">
        <ele>17.5</ele>
        <time>2024-11-23T09:43:46Z</time>
      </trkpt>
      <trkpt lat="45.07423" lon="-0.61212">
        <ele>17.5</ele>
        <time>2024-11-23T09:43:47Z</time>
      </trkpt>
      <trkpt lat="45.07423" lon="-0.61213">
        <ele>17.5</ele>
        <time>2024-11-23T09:43:48Z</time>
      </trkpt>
      <trkpt lat="45.07422" lon="-0.61213">
        <ele>17.5</ele>
        <time>2024-11-23T09:43:49Z</time>
      </trkpt>
      <trkpt lat="45.07422" lon="-0.61214">
        <ele>17.5</ele>
        <time>2024-11-23T09:43:50Z</time>
      </trkpt>
      <trkpt lat="45.07422" lon="-0.61215">
        <ele>17.5</ele>
        <time>2024-11-23T09:43:51Z</time>
      </trkpt>
      <trkpt lat="45.07423" lon="-0.61216">
        <ele>17.6</ele>
        <time>2024-11-23T09:43:52Z</time>
      </trkpt>
      <trkpt lat="45.07423" lon="-0.61216">
        <ele>17.6</ele>
        <time>2024-11-23T09:43:53Z</time>
      </trkpt>
      <trkpt lat="45.07423" lon="-0.61217">
        <ele>17.6</ele>
        <time>2024-11-23T09:43:54Z</time>
      </trkpt>
      <trkpt lat="45.07422" lon="-0.61218">
        <ele>17.7</ele>
        <time>2024-11-23T09:43:55Z</time>
      </trkpt>
      <trkpt lat="45.07421" lon="-0.61219">
        <ele>17.7</ele>
        <time>2024-11-23T09:43:56Z</time>
      </trkpt>
      <trkpt lat="45.07421" lon="-0.6122">
        <ele>17.7</ele>
        <time>2024-11-23T09:43:57Z</time>
      </trkpt>
      <trkpt lat="45.07421" lon="-0.61221">
        <ele>17.7</ele>
        <time>2024-11-23T09:43:58Z</time>
      </trkpt>
      <trkpt lat="45.07421" lon="-0.61222">
        <ele>17.7</ele>
        <time>2024-11-23T09:43:59Z</time>
      </trkpt>
      <trkpt lat="45.07421" lon="-0.61223">
        <ele>17.8</ele>
        <time>2024-11-23T09:44:00Z</time>
      </trkpt>
      <trkpt lat="45.0742" lon="-0.61224">
        <ele>17.8</ele>
        <time>2024-11-23T09:44:01Z</time>
      </trkpt>
      <trkpt lat="45.0742" lon="-0.61225">
        <ele>17.8</ele>
        <time>2024-11-23T09:44:02Z</time>
      </trkpt>
      <trkpt lat="45.0742" lon="-0.61226">
        <ele>17.8</ele>
        <time>2024-11-23T09:44:03Z</time>
      </trkpt>
      <trkpt lat="45.0742" lon="-0.61228">
        <ele>17.9</ele>
        <time>2024-11-23T09:44:04Z</time>
      </trkpt>
      <trkpt lat="45.0742" lon="-0.61229">
        <ele>17.9</ele>
        <time>2024-11-23T09:44:05Z</time>
      </trkpt>
      <trkpt lat="45.0742" lon="-0.6123">
        <ele>17.9</ele>
        <time>2024-11-23T09:44:06Z</time>
      </trkpt>
      <trkpt lat="45.0742" lon="-0.61231">
        <ele>17.9</ele>
        <time>2024-11-23T09:44:07Z</time>
      </trkpt>
      <trkpt lat="45.0742" lon="-0.61232">
        <ele>17.9</ele>
        <time>2024-11-23T09:44:08Z</time>
      </trkpt>
      <trkpt lat="45.07421" lon="-0.61233">
        <ele>18</ele>
        <time>2024-11-23T09:44:09Z</time>
      </trkpt>
      <trkpt lat="45.07422" lon="-0.61232">
        <ele>18</ele>
        <time>2024-11-23T09:44:10Z</time>
      </trkpt>
      <trkpt lat="45.07422" lon="-0.61232">
        <ele>18</ele>
        <time>2024-11-23T09:44:11Z</time>
      </trkpt>
      <trkpt lat="45.07423" lon="-0.61231">
        <ele>18</ele>
        <time>2024-11-23T09:44:12Z</time>
      </trkpt>
      <trkpt lat="45.07423" lon="-0.61231">
        <ele>18</ele>
        <time>2024-11-23T09:44:13Z</time>
      </trkpt>
      <trkpt lat="45.07423" lon="-0.61232">
        <ele>18.1</ele>
        <time>2024-11-23T09:44:14Z</time>
      </trkpt>
      <trkpt lat="45.07424" lon="-0.61231">
        <ele>18.1</ele>
        <time>2024-11-23T09:44:15Z</time>
      </trkpt>
      <trkpt lat="45.07424" lon="-0.61232">
        <ele>18.1</ele>
        <time>2024-11-23T09:44:16Z</time>
      </trkpt>
      <trkpt lat="45.07424" lon="-0.61232">
        <ele>18.1</ele>
        <time>2024-11-23T09:44:17Z</time>
      </trkpt>
      <trkpt lat="45.07424" lon="-0.61231">
        <ele>18.1</ele>
        <time>2024-11-23T09:44:18Z</time>
      </trkpt>
      <trkpt lat="45.07424" lon="-0.61231">
        <ele>18.1</ele>
        <time>2024-11-23T09:44:19Z</time>
      </trkpt>
      <trkpt lat="45.07423" lon="-0.61231">
        <ele>18.1</ele>
        <time>2024-11-23T09:44:20Z</time>
      </trkpt>
      <trkpt lat="45.07423" lon="-0.61231">
        <ele>18.1</ele>
        <time>2024-11-23T09:44:21Z</time>
      </trkpt>
      <trkpt lat="45.07423" lon="-0.61231">
        <ele>18.2</ele>
        <time>2024-11-23T09:44:22Z</time>
      </trkpt>
      <trkpt lat="45.07423" lon="-0.61231">
        <ele>18.2</ele>
        <time>2024-11-23T09:44:23Z</time>
      </trkpt>
      <trkpt lat="45.07423" lon="-0.61231">
        <ele>18.2</ele>
        <time>2024-11-23T09:44:24Z</time>
      </trkpt>
      <trkpt lat="45.07423" lon="-0.61231">
        <ele>18.2</ele>
        <time>2024-11-23T09:44:25Z</time>
      </trkpt>
      <trkpt lat="45.07423" lon="-0.61232">
        <ele>18.2</ele>
        <time>2024-11-23T09:44:26Z</time>
      </trkpt>
      <trkpt lat="45.07423" lon="-0.61233">
        <ele>18.2</ele>
        <time>2024-11-23T09:44:27Z</time>
      </trkpt>
      <trkpt lat="45.07423" lon="-0.61234">
        <ele>18.2</ele>
        <time>2024-11-23T09:44:28Z</time>
      </trkpt>
      <trkpt lat="45.07423" lon="-0.61235">
        <ele>18.3</ele>
        <time>2024-11-23T09:44:29Z</time>
      </trkpt>
      <trkpt lat="45.07422" lon="-0.61236">
        <ele>18.3</ele>
        <time>2024-11-23T09:44:30Z</time>
      </trkpt>
      <trkpt lat="45.07421" lon="-0.61236">
        <ele>18.3</ele>
        <time>2024-11-23T09:44:31Z</time>
      </trkpt>
      <trkpt lat="45.0742" lon="-0.61237">
        <ele>18.4</ele>
        <time>2024-11-23T09:44:32Z</time>
      </trkpt>
      <trkpt lat="45.0742" lon="-0.61238">
        <ele>18.4</ele>
        <time>2024-11-23T09:44:33Z</time>
      </trkpt>
      <trkpt lat="45.0742" lon="-0.61239">
        <ele>18.5</ele>
        <time>2024-11-23T09:44:34Z</time>
      </trkpt>
      <trkpt lat="45.0742" lon="-0.61241">
        <ele>18.5</ele>
        <time>2024-11-23T09:44:35Z</time>
      </trkpt>
      <trkpt lat="45.07419" lon="-0.61243">
        <ele>18.6</ele>
        <time>2024-11-23T09:44:36Z</time>
      </trkpt>
      <trkpt lat="45.07419" lon="-0.61244">
        <ele>18.6</ele>
        <time>2024-11-23T09:44:37Z</time>
      </trkpt>
      <trkpt lat="45.07419" lon="-0.61246">
        <ele>18.7</ele>
        <time>2024-11-23T09:44:38Z</time>
      </trkpt>
      <trkpt lat="45.07419" lon="-0.61247">
        <ele>18.7</ele>
        <time>2024-11-23T09:44:39Z</time>
      </trkpt>
      <trkpt lat="45.07419" lon="-0.61248">
        <ele>18.8</ele>
        <time>2024-11-23T09:44:40Z</time>
      </trkpt>
      <trkpt lat="45.07419" lon="-0.6125">
        <ele>18.8</ele>
        <time>2024-11-23T09:44:41Z</time>
      </trkpt>
      <trkpt lat="45.07419" lon="-0.61251">
        <ele>18.9</ele>
        <time>2024-11-23T09:44:42Z</time>
      </trkpt>
      <trkpt lat="45.07418" lon="-0.61253">
        <ele>19</ele>
        <time>2024-11-23T09:44:43Z</time>
      </trkpt>
      <trkpt lat="45.07418" lon="-0.61254">
        <ele>19</ele>
        <time>2024-11-23T09:44:44Z</time>
      </trkpt>
      <trkpt lat="45.07418" lon="-0.61256">
        <ele>19.1</ele>
        <time>2024-11-23T09:44:45Z</time>
      </trkpt>
      <trkpt lat="45.07417" lon="-0.61257">
        <ele>19.2</ele>
        <time>2024-11-23T09:44:46Z</time>
      </trkpt>
      <trkpt lat="45.07417" lon="-0.61258">
        <ele>19.2</ele>
        <time>2024-11-23T09:44:47Z</time>
      </trkpt>
      <trkpt lat="45.07417" lon="-0.6126">
        <ele>19.3</ele>
        <time>2024-11-23T09:44:48Z</time>
      </trkpt>
      <trkpt lat="45.07417" lon="-0.61261">
        <ele>19.4</ele>
        <time>2024-11-23T09:44:49Z</time>
      </trkpt>
      <trkpt lat="45.07416" lon="-0.61262">
        <ele>19.4</ele>
        <time>2024-11-23T09:44:50Z</time>
      </trkpt>
      <trkpt lat="45.07416" lon="-0.61264">
        <ele>19.5</ele>
        <time>2024-11-23T09:44:51Z</time>
      </trkpt>
      <trkpt lat="45.07416" lon="-0.61265">
        <ele>19.6</ele>
        <time>2024-11-23T09:44:52Z</time>
      </trkpt>
      <trkpt lat="45.07415" lon="-0.61266">
        <ele>19.6</ele>
        <time>2024-11-23T09:44:53Z</time>
      </trkpt>
      <trkpt lat="45.07415" lon="-0.61268">
        <ele>19.7</ele>
        <time>2024-11-23T09:44:54Z</time>
      </trkpt>
      <trkpt lat="45.07415" lon="-0.61269">
        <ele>19.8</ele>
        <time>2024-11-23T09:44:55Z</time>
      </trkpt>
      <trkpt lat="45.07415" lon="-0.61271">
        <ele>19.9</ele>
        <time>2024-11-23T09:44:56Z</time>
      </trkpt>
      <trkpt lat="45.07415" lon="-0.61272">
        <ele>19.9</ele>
        <time>2024-11-23T09:44:57Z</time>
      </trkpt>
      <trkpt lat="45.07415" lon="-0.61273">
        <ele>20</ele>
        <time>2024-11-23T09:44:58Z</time>
      </trkpt>
      <trkpt lat="45.07415" lon="-0.61274">
        <ele>20.1</ele>
        <time>2024-11-23T09:44:59Z</time>
      </trkpt>
      <trkpt lat="45.07416" lon="-0.61275">
        <ele>20.1</ele>
        <time>2024-11-23T09:45:00Z</time>
      </trkpt>
      <trkpt lat="45.07415" lon="-0.61276">
        <ele>20.2</ele>
        <time>2024-11-23T09:45:01Z</time>
      </trkpt>
      <trkpt lat="45.07415" lon="-0.61278">
        <ele>20.3</ele>
        <time>2024-11-23T09:45:02Z</time>
      </trkpt>
      <trkpt lat="45.07415" lon="-0.61279">
        <ele>20.4</ele>
        <time>2024-11-23T09:45:03Z</time>
      </trkpt>
      <trkpt lat="45.07415" lon="-0.61281">
        <ele>20.5</ele>
        <time>2024-11-23T09:45:04Z</time>
      </trkpt>
      <trkpt lat="45.07415" lon="-0.61282">
        <ele>20.5</ele>
        <time>2024-11-23T09:45:05Z</time>
      </trkpt>
      <trkpt lat="45.07415" lon="-0.61284">
        <ele>20.7</ele>
        <time>2024-11-23T09:45:06Z</time>
      </trkpt>
      <trkpt lat="45.07415" lon="-0.61286">
        <ele>20.8</ele>
        <time>2024-11-23T09:45:07Z</time>
      </trkpt>
      <trkpt lat="45.07414" lon="-0.61287">
        <ele>20.9</ele>
        <time>2024-11-23T09:45:08Z</time>
      </trkpt>
      <trkpt lat="45.07414" lon="-0.61289">
        <ele>21</ele>
        <time>2024-11-23T09:45:09Z</time>
      </trkpt>
      <trkpt lat="45.07414" lon="-0.6129">
        <ele>21.1</ele>
        <time>2024-11-23T09:45:10Z</time>
      </trkpt>
      <trkpt lat="45.07413" lon="-0.61292">
        <ele>21.2</ele>
        <time>2024-11-23T09:45:11Z</time>
      </trkpt>
      <trkpt lat="45.07412" lon="-0.61294">
        <ele>21.3</ele>
        <time>2024-11-23T09:45:12Z</time>
      </trkpt>
      <trkpt lat="45.07411" lon="-0.61295">
        <ele>21.4</ele>
        <time>2024-11-23T09:45:13Z</time>
      </trkpt>
      <trkpt lat="45.07411" lon="-0.61296">
        <ele>21.5</ele>
        <time>2024-11-23T09:45:14Z</time>
      </trkpt>
      <trkpt lat="45.07411" lon="-0.61298">
        <ele>21.6</ele>
        <time>2024-11-23T09:45:15Z</time>
      </trkpt>
      <trkpt lat="45.0741" lon="-0.61299">
        <ele>21.7</ele>
        <time>2024-11-23T09:45:16Z</time>
      </trkpt>
      <trkpt lat="45.0741" lon="-0.613">
        <ele>21.8</ele>
        <time>2024-11-23T09:45:17Z</time>
      </trkpt>
      <trkpt lat="45.0741" lon="-0.61302">
        <ele>21.9</ele>
        <time>2024-11-23T09:45:18Z</time>
      </trkpt>
      <trkpt lat="45.0741" lon="-0.61303">
        <ele>22</ele>
        <time>2024-11-23T09:45:19Z</time>
      </trkpt>
      <trkpt lat="45.0741" lon="-0.61305">
        <ele>22</ele>
        <time>2024-11-23T09:45:20Z</time>
      </trkpt>
      <trkpt lat="45.0741" lon="-0.61306">
        <ele>22.1</ele>
        <time>2024-11-23T09:45:21Z</time>
      </trkpt>
      <trkpt lat="45.0741" lon="-0.61308">
        <ele>22.2</ele>
        <time>2024-11-23T09:45:22Z</time>
      </trkpt>
      <trkpt lat="45.0741" lon="-0.61309">
        <ele>22.3</ele>
        <time>2024-11-23T09:45:23Z</time>
      </trkpt>
      <trkpt lat="45.0741" lon="-0.61311">
        <ele>22.4</ele>
        <time>2024-11-23T09:45:24Z</time>
      </trkpt>
      <trkpt lat="45.0741" lon="-0.61312">
        <ele>22.6</ele>
        <time>2024-11-23T09:45:25Z</time>
      </trkpt>
      <trkpt lat="45.0741" lon="-0.61314">
        <ele>22.7</ele>
        <time>2024-11-23T09:45:26Z</time>
      </trkpt>
      <trkpt lat="45.0741" lon="-0.61315">
        <ele>22.8</ele>
        <time>2024-11-23T09:45:27Z</time>
      </trkpt>
      <trkpt lat="45.0741" lon="-0.61317">
        <ele>22.9</ele>
        <time>2024-11-23T09:45:28Z</time>
      </trkpt>
      <trkpt lat="45.0741" lon="-0.61319">
        <ele>23</ele>
        <time>2024-11-23T09:45:29Z</time>
      </trkpt>
      <trkpt lat="45.0741" lon="-0.6132">
        <ele>23.1</ele>
        <time>2024-11-23T09:45:30Z</time>
      </trkpt>
      <trkpt lat="45.0741" lon="-0.61322">
        <ele>23.2</ele>
        <time>2024-11-23T09:45:31Z</time>
      </trkpt>
      <trkpt lat="45.0741" lon="-0.61323">
        <ele>23.3</ele>
        <time>2024-11-23T09:45:32Z</time>
      </trkpt>
      <trkpt lat="45.07409" lon="-0.61325">
        <ele>23.4</ele>
        <time>2024-11-23T09:45:33Z</time>
      </trkpt>
      <trkpt lat="45.07409" lon="-0.61326">
        <ele>23.5</ele>
        <time>2024-11-23T09:45:34Z</time>
      </trkpt>
      <trkpt lat="45.07409" lon="-0.61328">
        <ele>23.6</ele>
        <time>2024-11-23T09:45:35Z</time>
      </trkpt>
      <trkpt lat="45.07409" lon="-0.61329">
        <ele>23.7</ele>
        <time>2024-11-23T09:45:36Z</time>
      </trkpt>
      <trkpt lat="45.07409" lon="-0.61331">
        <ele>23.8</ele>
        <time>2024-11-23T09:45:37Z</time>
      </trkpt>
      <trkpt lat="45.07409" lon="-0.61332">
        <ele>23.9</ele>
        <time>2024-11-23T09:45:38Z</time>
      </trkpt>
      <trkpt lat="45.07409" lon="-0.61333">
        <ele>24</ele>
        <time>2024-11-23T09:45:39Z</time>
      </trkpt>
      <trkpt lat="45.07409" lon="-0.61334">
        <ele>24.1</ele>
        <time>2024-11-23T09:45:40Z</time>
      </trkpt>
      <trkpt lat="45.07407" lon="-0.61336">
        <ele>24.2</ele>
        <time>2024-11-23T09:45:41Z</time>
      </trkpt>
      <trkpt lat="45.07407" lon="-0.61337">
        <ele>24.3</ele>
        <time>2024-11-23T09:45:42Z</time>
      </trkpt>
      <trkpt lat="45.07405" lon="-0.61338">
        <ele>24.5</ele>
        <time>2024-11-23T09:45:43Z</time>
      </trkpt>
      <trkpt lat="45.07402" lon="-0.61341">
        <ele>24.8</ele>
        <time>2024-11-23T09:45:44Z</time>
      </trkpt>
      <trkpt lat="45.07401" lon="-0.61342">
        <ele>24.9</ele>
        <time>2024-11-23T09:45:45Z</time>
      </trkpt>
      <trkpt lat="45.07399" lon="-0.61344">
        <ele>25.2</ele>
        <time>2024-11-23T09:45:46Z</time>
      </trkpt>
      <trkpt lat="45.07398" lon="-0.61344">
        <ele>25.3</ele>
        <time>2024-11-23T09:45:47Z</time>
      </trkpt>
      <trkpt lat="45.07396" lon="-0.61345">
        <ele>25.5</ele>
        <time>2024-11-23T09:45:48Z</time>
      </trkpt>
      <trkpt lat="45.07395" lon="-0.61346">
        <ele>25.6</ele>
        <time>2024-11-23T09:45:49Z</time>
      </trkpt>
      <trkpt lat="45.07393" lon="-0.61347">
        <ele>25.8</ele>
        <time>2024-11-23T09:45:50Z</time>
      </trkpt>
      <trkpt lat="45.07392" lon="-0.61347">
        <ele>25.9</ele>
        <time>2024-11-23T09:45:51Z</time>
      </trkpt>
      <trkpt lat="45.0739" lon="-0.61348">
        <ele>26.1</ele>
        <time>2024-11-23T09:45:52Z</time>
      </trkpt>
      <trkpt lat="45.07389" lon="-0.61349">
        <ele>26.2</ele>
        <time>2024-11-23T09:45:53Z</time>
      </trkpt>
      <trkpt lat="45.07387" lon="-0.6135">
        <ele>26.4</ele>
        <time>2024-11-23T09:45:54Z</time>
      </trkpt>
      <trkpt lat="45.07386" lon="-0.61351">
        <ele>26.5</ele>
        <time>2024-11-23T09:45:55Z</time>
      </trkpt>
      <trkpt lat="45.07384" lon="-0.61353">
        <ele>26.7</ele>
        <time>2024-11-23T09:45:56Z</time>
      </trkpt>
      <trkpt lat="45.07384" lon="-0.61354">
        <ele>26.8</ele>
        <time>2024-11-23T09:45:57Z</time>
      </trkpt>
      <trkpt lat="45.07383" lon="-0.61355">
        <ele>26.9</ele>
        <time>2024-11-23T09:45:58Z</time>
      </trkpt>
      <trkpt lat="45.07382" lon="-0.61357">
        <ele>27.1</ele>
        <time>2024-11-23T09:45:59Z</time>
      </trkpt>
      <trkpt lat="45.07381" lon="-0.61358">
        <ele>27.2</ele>
        <time>2024-11-23T09:46:00Z</time>
      </trkpt>
      <trkpt lat="45.07381" lon="-0.61359">
        <ele>27.3</ele>
        <time>2024-11-23T09:46:01Z</time>
      </trkpt>
      <trkpt lat="45.0738" lon="-0.6136">
        <ele>27.4</ele>
        <time>2024-11-23T09:46:02Z</time>
      </trkpt>
      <trkpt lat="45.07379" lon="-0.61361">
        <ele>27.5</ele>
        <time>2024-11-23T09:46:03Z</time>
      </trkpt>
      <trkpt lat="45.07379" lon="-0.61362">
        <ele>27.6</ele>
        <time>2024-11-23T09:46:04Z</time>
      </trkpt>
      <trkpt lat="45.07378" lon="-0.61364">
        <ele>27.7</ele>
        <time>2024-11-23T09:46:05Z</time>
      </trkpt>
      <trkpt lat="45.07377" lon="-0.61365">
        <ele>27.8</ele>
        <time>2024-11-23T09:46:06Z</time>
      </trkpt>
      <trkpt lat="45.07376" lon="-0.61366">
        <ele>27.9</ele>
        <time>2024-11-23T09:46:07Z</time>
      </trkpt>
      <trkpt lat="45.07375" lon="-0.61366">
        <ele>28.1</ele>
        <time>2024-11-23T09:46:08Z</time>
      </trkpt>
      <trkpt lat="45.07374" lon="-0.61367">
        <ele>28.2</ele>
        <time>2024-11-23T09:46:09Z</time>
      </trkpt>
      <trkpt lat="45.07373" lon="-0.61368">
        <ele>28.3</ele>
        <time>2024-11-23T09:46:10Z</time>
      </trkpt>
      <trkpt lat="45.07372" lon="-0.61369">
        <ele>28.5</ele>
        <time>2024-11-23T09:46:11Z</time>
      </trkpt>
      <trkpt lat="45.07372" lon="-0.61369">
        <ele>28.6</ele>
        <time>2024-11-23T09:46:12Z</time>
      </trkpt>
      <trkpt lat="45.0737" lon="-0.6137">
        <ele>28.7</ele>
        <time>2024-11-23T09:46:13Z</time>
      </trkpt>
      <trkpt lat="45.07369" lon="-0.61372">
        <ele>28.9</ele>
        <time>2024-11-23T09:46:14Z</time>
      </trkpt>
      <trkpt lat="45.07368" lon="-0.61373">
        <ele>29</ele>
        <time>2024-11-23T09:46:15Z</time>
      </trkpt>
      <trkpt lat="45.07368" lon="-0.61374">
        <ele>29.1</ele>
        <time>2024-11-23T09:46:16Z</time>
      </trkpt>
      <trkpt lat="45.07367" lon="-0.61375">
        <ele>29.2</ele>
        <time>2024-11-23T09:46:17Z</time>
      </trkpt>
      <trkpt lat="45.07367" lon="-0.61376">
        <ele>29.4</ele>
        <time>2024-11-23T09:46:18Z</time>
      </trkpt>
      <trkpt lat="45.07366" lon="-0.61377">
        <ele>29.5</ele>
        <time>2024-11-23T09:46:19Z</time>
      </trkpt>
      <trkpt lat="45.07365" lon="-0.61378">
        <ele>29.7</ele>
        <time>2024-11-23T09:46:20Z</time>
      </trkpt>
      <trkpt lat="45.07364" lon="-0.61379">
        <ele>29.8</ele>
        <time>2024-11-23T09:46:21Z</time>
      </trkpt>
      <trkpt lat="45.07363" lon="-0.6138">
        <ele>29.9</ele>
        <time>2024-11-23T09:46:22Z</time>
      </trkpt>
      <trkpt lat="45.07362" lon="-0.6138">
        <ele>30.1</ele>
        <time>2024-11-23T09:46:23Z</time>
      </trkpt>
      <trkpt lat="45.07361" lon="-0.61381">
        <ele>30.2</ele>
        <time>2024-11-23T09:46:24Z</time>
      </trkpt>
      <trkpt lat="45.0736" lon="-0.61382">
        <ele>30.3</ele>
        <time>2024-11-23T09:46:25Z</time>
      </trkpt>
      <trkpt lat="45.07359" lon="-0.61383">
        <ele>30.5</ele>
        <time>2024-11-23T09:46:26Z</time>
      </trkpt>
      <trkpt lat="45.07358" lon="-0.61383">
        <ele>30.6</ele>
        <time>2024-11-23T09:46:27Z</time>
      </trkpt>
      <trkpt lat="45.07357" lon="-0.61384">
        <ele>30.7</ele>
        <time>2024-11-23T09:46:28Z</time>
      </trkpt>
      <trkpt lat="45.07355" lon="-0.61386">
        <ele>31</ele>
        <time>2024-11-23T09:46:29Z</time>
      </trkpt>
      <trkpt lat="45.07354" lon="-0.61386">
        <ele>31.1</ele>
        <time>2024-11-23T09:46:30Z</time>
      </trkpt>
      <trkpt lat="45.07354" lon="-0.61387">
        <ele>31.2</ele>
        <time>2024-11-23T09:46:31Z</time>
      </trkpt>
      <trkpt lat="45.07353" lon="-0.61387">
        <ele>31.3</ele>
        <time>2024-11-23T09:46:32Z</time>
      </trkpt>
      <trkpt lat="45.07352" lon="-0.61388">
        <ele>31.5</ele>
        <time>2024-11-23T09:46:33Z</time>
      </trkpt>
      <trkpt lat="45.07351" lon="-0.61389">
        <ele>31.6</ele>
        <time>2024-11-23T09:46:34Z</time>
      </trkpt>
      <trkpt lat="45.0735" lon="-0.61389">
        <ele>31.7</ele>
        <time>2024-11-23T09:46:35Z</time>
      </trkpt>
      <trkpt lat="45.07349" lon="-0.61391">
        <ele>31.9</ele>
        <time>2024-11-23T09:46:36Z</time>
      </trkpt>
      <trkpt lat="45.07348" lon="-0.61391">
        <ele>32</ele>
        <time>2024-11-23T09:46:37Z</time>
      </trkpt>
      <trkpt lat="45.07347" lon="-0.61392">
        <ele>32.1</ele>
        <time>2024-11-23T09:46:38Z</time>
      </trkpt>
      <trkpt lat="45.07346" lon="-0.61393">
        <ele>32.3</ele>
        <time>2024-11-23T09:46:39Z</time>
      </trkpt>
      <trkpt lat="45.07345" lon="-0.61394">
        <ele>32.4</ele>
        <time>2024-11-23T09:46:40Z</time>
      </trkpt>
      <trkpt lat="45.07344" lon="-0.61395">
        <ele>32.6</ele>
        <time>2024-11-23T09:46:41Z</time>
      </trkpt>
      <trkpt lat="45.07343" lon="-0.61395">
        <ele>32.7</ele>
        <time>2024-11-23T09:46:42Z</time>
      </trkpt>
      <trkpt lat="45.07343" lon="-0.61396">
        <ele>32.8</ele>
        <time>2024-11-23T09:46:43Z</time>
      </trkpt>
      <trkpt lat="45.07342" lon="-0.61397">
        <ele>32.9</ele>
        <time>2024-11-23T09:46:44Z</time>
      </trkpt>
      <trkpt lat="45.07341" lon="-0.61398">
        <ele>33</ele>
        <time>2024-11-23T09:46:45Z</time>
      </trkpt>
      <trkpt lat="45.0734" lon="-0.61399">
        <ele>33.2</ele>
        <time>2024-11-23T09:46:46Z</time>
      </trkpt>
      <trkpt lat="45.07339" lon="-0.61399">
        <ele>33.3</ele>
        <time>2024-11-23T09:46:47Z</time>
      </trkpt>
      <trkpt lat="45.07338" lon="-0.614">
        <ele>33.4</ele>
        <time>2024-11-23T09:46:48Z</time>
      </trkpt>
      <trkpt lat="45.07337" lon="-0.61401">
        <ele>33.6</ele>
        <time>2024-11-23T09:46:49Z</time>
      </trkpt>
      <trkpt lat="45.07336" lon="-0.61402">
        <ele>33.7</ele>
        <time>2024-11-23T09:46:50Z</time>
      </trkpt>
      <trkpt lat="45.07334" lon="-0.61403">
        <ele>33.9</ele>
        <time>2024-11-23T09:46:51Z</time>
      </trkpt>
      <trkpt lat="45.07332" lon="-0.61404">
        <ele>34.1</ele>
        <time>2024-11-23T09:46:52Z</time>
      </trkpt>
      <trkpt lat="45.07331" lon="-0.61404">
        <ele>34.2</ele>
        <time>2024-11-23T09:46:53Z</time>
      </trkpt>
      <trkpt lat="45.0733" lon="-0.61405">
        <ele>34.3</ele>
        <time>2024-11-23T09:46:54Z</time>
      </trkpt>
      <trkpt lat="45.07328" lon="-0.61405">
        <ele>34.5</ele>
        <time>2024-11-23T09:46:55Z</time>
      </trkpt>
      <trkpt lat="45.07327" lon="-0.61406">
        <ele>34.6</ele>
        <time>2024-11-23T09:46:56Z</time>
      </trkpt>
      <trkpt lat="45.07326" lon="-0.61406">
        <ele>34.7</ele>
        <time>2024-11-23T09:46:57Z</time>
      </trkpt>
      <trkpt lat="45.07324" lon="-0.61407">
        <ele>34.9</ele>
        <time>2024-11-23T09:46:58Z</time>
      </trkpt>
      <trkpt lat="45.07322" lon="-0.61408">
        <ele>35.1</ele>
        <time>2024-11-23T09:46:59Z</time>
      </trkpt>
      <trkpt lat="45.07321" lon="-0.61408">
        <ele>35.2</ele>
        <time>2024-11-23T09:47:00Z</time>
      </trkpt>
      <trkpt lat="45.0732" lon="-0.61408">
        <ele>35.2</ele>
        <time>2024-11-23T09:47:01Z</time>
      </trkpt>
      <trkpt lat="45.07318" lon="-0.61408">
        <ele>35.4</ele>
        <time>2024-11-23T09:47:02Z</time>
      </trkpt>
      <trkpt lat="45.07317" lon="-0.61409">
        <ele>35.5</ele>
        <time>2024-11-23T09:47:03Z</time>
      </trkpt>
      <trkpt lat="45.07316" lon="-0.61409">
        <ele>35.6</ele>
        <time>2024-11-23T09:47:04Z</time>
      </trkpt>
      <trkpt lat="45.07315" lon="-0.61409">
        <ele>35.7</ele>
        <time>2024-11-23T09:47:05Z</time>
      </trkpt>
      <trkpt lat="45.07313" lon="-0.6141">
        <ele>35.8</ele>
        <time>2024-11-23T09:47:06Z</time>
      </trkpt>
      <trkpt lat="45.07312" lon="-0.6141">
        <ele>35.9</ele>
        <time>2024-11-23T09:47:07Z</time>
      </trkpt>
      <trkpt lat="45.07311" lon="-0.61411">
        <ele>36</ele>
        <time>2024-11-23T09:47:08Z</time>
      </trkpt>
      <trkpt lat="45.0731" lon="-0.61411">
        <ele>36.1</ele>
        <time>2024-11-23T09:47:09Z</time>
      </trkpt>
      <trkpt lat="45.07308" lon="-0.61412">
        <ele>36.2</ele>
        <time>2024-11-23T09:47:10Z</time>
      </trkpt>
      <trkpt lat="45.07307" lon="-0.61412">
        <ele>36.2</ele>
        <time>2024-11-23T09:47:11Z</time>
      </trkpt>
      <trkpt lat="45.07306" lon="-0.61413">
        <ele>36.3</ele>
        <time>2024-11-23T09:47:12Z</time>
      </trkpt>
      <trkpt lat="45.07305" lon="-0.61414">
        <ele>36.4</ele>
        <time>2024-11-23T09:47:13Z</time>
      </trkpt>
      <trkpt lat="45.07305" lon="-0.61415">
        <ele>36.5</ele>
        <time>2024-11-23T09:47:14Z</time>
      </trkpt>
      <trkpt lat="45.07304" lon="-0.61416">
        <ele>36.5</ele>
        <time>2024-11-23T09:47:15Z</time>
      </trkpt>
      <trkpt lat="45.07303" lon="-0.61417">
        <ele>36.6</ele>
        <time>2024-11-23T09:47:16Z</time>
      </trkpt>
      <trkpt lat="45.07302" lon="-0.61417">
        <ele>36.7</ele>
        <time>2024-11-23T09:47:17Z</time>
      </trkpt>
      <trkpt lat="45.07301" lon="-0.61418">
        <ele>36.7</ele>
        <time>2024-11-23T09:47:18Z</time>
      </trkpt>
      <trkpt lat="45.073" lon="-0.61419">
        <ele>36.8</ele>
        <time>2024-11-23T09:47:19Z</time>
      </trkpt>
      <trkpt lat="45.07299" lon="-0.61419">
        <ele>36.9</ele>
        <time>2024-11-23T09:47:20Z</time>
      </trkpt>
      <trkpt lat="45.07298" lon="-0.6142">
        <ele>36.9</ele>
        <time>2024-11-23T09:47:21Z</time>
      </trkpt>
      <trkpt lat="45.07298" lon="-0.61421">
        <ele>37</ele>
        <time>2024-11-23T09:47:22Z</time>
      </trkpt>
      <trkpt lat="45.07297" lon="-0.61421">
        <ele>37</ele>
        <time>2024-11-23T09:47:23Z</time>
      </trkpt>
      <trkpt lat="45.07296" lon="-0.61421">
        <ele>37.1</ele>
        <time>2024-11-23T09:47:24Z</time>
      </trkpt>
      <trkpt lat="45.07295" lon="-0.6142">
        <ele>37.2</ele>
        <time>2024-11-23T09:47:25Z</time>
      </trkpt>
      <trkpt lat="45.07294" lon="-0.61419">
        <ele>37.2</ele>
        <time>2024-11-23T09:47:26Z</time>
      </trkpt>
      <trkpt lat="45.07293" lon="-0.61418">
        <ele>37.3</ele>
        <time>2024-11-23T09:47:27Z</time>
      </trkpt>
      <trkpt lat="45.07292" lon="-0.61415">
        <ele>37.4</ele>
        <time>2024-11-23T09:47:28Z</time>
      </trkpt>
      <trkpt lat="45.07292" lon="-0.61414">
        <ele>37.5</ele>
        <time>2024-11-23T09:47:29Z</time>
      </trkpt>
      <trkpt lat="45.07291" lon="-0.61413">
        <ele>37.5</ele>
        <time>2024-11-23T09:47:30Z</time>
      </trkpt>
      <trkpt lat="45.0729" lon="-0.61411">
        <ele>37.7</ele>
        <time>2024-11-23T09:47:31Z</time>
      </trkpt>
      <trkpt lat="45.0729" lon="-0.6141">
        <ele>37.7</ele>
        <time>2024-11-23T09:47:32Z</time>
      </trkpt>
      <trkpt lat="45.07288" lon="-0.61408">
        <ele>37.9</ele>
        <time>2024-11-23T09:47:33Z</time>
      </trkpt>
      <trkpt lat="45.07288" lon="-0.61407">
        <ele>38</ele>
        <time>2024-11-23T09:47:34Z</time>
      </trkpt>
      <trkpt lat="45.07287" lon="-0.61406">
        <ele>38</ele>
        <time>2024-11-23T09:47:35Z</time>
      </trkpt>
      <trkpt lat="45.07286" lon="-0.61404">
        <ele>38.2</ele>
        <time>2024-11-23T09:47:36Z</time>
      </trkpt>
      <trkpt lat="45.07285" lon="-0.61404">
        <ele>38.2</ele>
        <time>2024-11-23T09:47:37Z</time>
      </trkpt>
      <trkpt lat="45.07285" lon="-0.61402">
        <ele>38.3</ele>
        <time>2024-11-23T09:47:38Z</time>
      </trkpt>
      <trkpt lat="45.07283" lon="-0.614">
        <ele>38.5</ele>
        <time>2024-11-23T09:47:39Z</time>
      </trkpt>
      <trkpt lat="45.07283" lon="-0.614">
        <ele>38.6</ele>
        <time>2024-11-23T09:47:40Z</time>
      </trkpt>
      <trkpt lat="45.07282" lon="-0.61399">
        <ele>38.7</ele>
        <time>2024-11-23T09:47:41Z</time>
      </trkpt>
      <trkpt lat="45.07281" lon="-0.61398">
        <ele>38.8</ele>
        <time>2024-11-23T09:47:42Z</time>
      </trkpt>
      <trkpt lat="45.0728" lon="-0.61396">
        <ele>38.9</ele>
        <time>2024-11-23T09:47:43Z</time>
      </trkpt>
      <trkpt lat="45.0728" lon="-0.61395">
        <ele>39</ele>
        <time>2024-11-23T09:47:44Z</time>
      </trkpt>
      <trkpt lat="45.07279" lon="-0.61394">
        <ele>39.1</ele>
        <time>2024-11-23T09:47:45Z</time>
      </trkpt>
      <trkpt lat="45.07278" lon="-0.61392">
        <ele>39.2</ele>
        <time>2024-11-23T09:47:46Z</time>
      </trkpt>
      <trkpt lat="45.07277" lon="-0.61391">
        <ele>39.3</ele>
        <time>2024-11-23T09:47:47Z</time>
      </trkpt>
      <trkpt lat="45.07277" lon="-0.6139">
        <ele>39.4</ele>
        <time>2024-11-23T09:47:48Z</time>
      </trkpt>
      <trkpt lat="45.07276" lon="-0.61389">
        <ele>39.5</ele>
        <time>2024-11-23T09:47:49Z</time>
      </trkpt>
      <trkpt lat="45.07275" lon="-0.61389">
        <ele>39.6</ele>
        <time>2024-11-23T09:47:50Z</time>
      </trkpt>
      <trkpt lat="45.07274" lon="-0.61388">
        <ele>39.7</ele>
        <time>2024-11-23T09:47:51Z</time>
      </trkpt>
      <trkpt lat="45.07273" lon="-0.61387">
        <ele>39.8</ele>
        <time>2024-11-23T09:47:52Z</time>
      </trkpt>
      <trkpt lat="45.07272" lon="-0.61385">
        <ele>39.9</ele>
        <time>2024-11-23T09:47:53Z</time>
      </trkpt>
      <trkpt lat="45.07271" lon="-0.61383">
        <ele>40.1</ele>
        <time>2024-11-23T09:47:54Z</time>
      </trkpt>
      <trkpt lat="45.0727" lon="-0.61382">
        <ele>40.1</ele>
        <time>2024-11-23T09:47:55Z</time>
      </trkpt>
      <trkpt lat="45.0727" lon="-0.61381">
        <ele>40.2</ele>
        <time>2024-11-23T09:47:56Z</time>
      </trkpt>
      <trkpt lat="45.07269" lon="-0.6138">
        <ele>40.3</ele>
        <time>2024-11-23T09:47:57Z</time>
      </trkpt>
      <trkpt lat="45.07268" lon="-0.61379">
        <ele>40.4</ele>
        <time>2024-11-23T09:47:58Z</time>
      </trkpt>
      <trkpt lat="45.07268" lon="-0.61377">
        <ele>40.5</ele>
        <time>2024-11-23T09:47:59Z</time>
      </trkpt>
      <trkpt lat="45.07267" lon="-0.61376">
        <ele>40.6</ele>
        <time>2024-11-23T09:48:00Z</time>
      </trkpt>
      <trkpt lat="45.07266" lon="-0.61374">
        <ele>40.8</ele>
        <time>2024-11-23T09:48:01Z</time>
      </trkpt>
      <trkpt lat="45.07265" lon="-0.61373">
        <ele>40.8</ele>
        <time>2024-11-23T09:48:02Z</time>
      </trkpt>
      <trkpt lat="45.07264" lon="-0.61372">
        <ele>41</ele>
        <time>2024-11-23T09:48:03Z</time>
      </trkpt>
      <trkpt lat="45.07263" lon="-0.61371">
        <ele>41.1</ele>
        <time>2024-11-23T09:48:04Z</time>
      </trkpt>
      <trkpt lat="45.07263" lon="-0.61369">
        <ele>41.2</ele>
        <time>2024-11-23T09:48:05Z</time>
      </trkpt>
      <trkpt lat="45.07262" lon="-0.61367">
        <ele>41.3</ele>
        <time>2024-11-23T09:48:06Z</time>
      </trkpt>
      <trkpt lat="45.07261" lon="-0.61367">
        <ele>41.4</ele>
        <time>2024-11-23T09:48:07Z</time>
      </trkpt>
      <trkpt lat="45.0726" lon="-0.61365">
        <ele>41.5</ele>
        <time>2024-11-23T09:48:08Z</time>
      </trkpt>
      <trkpt lat="45.07259" lon="-0.61364">
        <ele>41.6</ele>
        <time>2024-11-23T09:48:09Z</time>
      </trkpt>
      <trkpt lat="45.07259" lon="-0.61363">
        <ele>41.7</ele>
        <time>2024-11-23T09:48:10Z</time>
      </trkpt>
      <trkpt lat="45.07258" lon="-0.61361">
        <ele>41.9</ele>
        <time>2024-11-23T09:48:11Z</time>
      </trkpt>
      <trkpt lat="45.07257" lon="-0.6136">
        <ele>42</ele>
        <time>2024-11-23T09:48:12Z</time>
      </trkpt>
      <trkpt lat="45.07256" lon="-0.61359">
        <ele>42.1</ele>
        <time>2024-11-23T09:48:13Z</time>
      </trkpt>
      <trkpt lat="45.07256" lon="-0.61358">
        <ele>42.2</ele>
        <time>2024-11-23T09:48:14Z</time>
      </trkpt>
      <trkpt lat="45.07255" lon="-0.61356">
        <ele>42.3</ele>
        <time>2024-11-23T09:48:15Z</time>
      </trkpt>
      <trkpt lat="45.07254" lon="-0.61354">
        <ele>42.5</ele>
        <time>2024-11-23T09:48:16Z</time>
      </trkpt>
      <trkpt lat="45.07253" lon="-0.61353">
        <ele>42.6</ele>
        <time>2024-11-23T09:48:17Z</time>
      </trkpt>
      <trkpt lat="45.07253" lon="-0.61352">
        <ele>42.7</ele>
        <time>2024-11-23T09:48:18Z</time>
      </trkpt>
      <trkpt lat="45.07252" lon="-0.61351">
        <ele>42.9</ele>
        <time>2024-11-23T09:48:19Z</time>
      </trkpt>
      <trkpt lat="45.07251" lon="-0.61349">
        <ele>43</ele>
        <time>2024-11-23T09:48:20Z</time>
      </trkpt>
      <trkpt lat="45.0725" lon="-0.61348">
        <ele>43.2</ele>
        <time>2024-11-23T09:48:21Z</time>
      </trkpt>
      <trkpt lat="45.0725" lon="-0.61346">
        <ele>43.3</ele>
        <time>2024-11-23T09:48:22Z</time>
      </trkpt>
      <trkpt lat="45.07249" lon="-0.61345">
        <ele>43.4</ele>
        <time>2024-11-23T09:48:23Z</time>
      </trkpt>
      <trkpt lat="45.07248" lon="-0.61344">
        <ele>43.5</ele>
        <time>2024-11-23T09:48:24Z</time>
      </trkpt>
      <trkpt lat="45.07248" lon="-0.61342">
        <ele>43.7</ele>
        <time>2024-11-23T09:48:25Z</time>
      </trkpt>
      <trkpt lat="45.07247" lon="-0.6134">
        <ele>43.9</ele>
        <time>2024-11-23T09:48:26Z</time>
      </trkpt>
      <trkpt lat="45.07246" lon="-0.6134">
        <ele>44</ele>
        <time>2024-11-23T09:48:27Z</time>
      </trkpt>
      <trkpt lat="45.07245" lon="-0.61338">
        <ele>44.1</ele>
        <time>2024-11-23T09:48:28Z</time>
      </trkpt>
      <trkpt lat="45.07245" lon="-0.61337">
        <ele>44.2</ele>
        <time>2024-11-23T09:48:29Z</time>
      </trkpt>
      <trkpt lat="45.07244" lon="-0.61335">
        <ele>44.4</ele>
        <time>2024-11-23T09:48:30Z</time>
      </trkpt>
      <trkpt lat="45.07243" lon="-0.61333">
        <ele>44.6</ele>
        <time>2024-11-23T09:48:31Z</time>
      </trkpt>
      <trkpt lat="45.07242" lon="-0.61333">
        <ele>44.7</ele>
        <time>2024-11-23T09:48:32Z</time>
      </trkpt>
      <trkpt lat="45.07242" lon="-0.61331">
        <ele>44.8</ele>
        <time>2024-11-23T09:48:33Z</time>
      </trkpt>
      <trkpt lat="45.07241" lon="-0.6133">
        <ele>44.9</ele>
        <time>2024-11-23T09:48:34Z</time>
      </trkpt>
      <trkpt lat="45.0724" lon="-0.61329">
        <ele>45</ele>
        <time>2024-11-23T09:48:35Z</time>
      </trkpt>
      <trkpt lat="45.07239" lon="-0.61327">
        <ele>45.2</ele>
        <time>2024-11-23T09:48:36Z</time>
      </trkpt>
      <trkpt lat="45.07239" lon="-0.61326">
        <ele>45.3</ele>
        <time>2024-11-23T09:48:37Z</time>
      </trkpt>
      <trkpt lat="45.07238" lon="-0.61325">
        <ele>45.4</ele>
        <time>2024-11-23T09:48:38Z</time>
      </trkpt>
      <trkpt lat="45.07238" lon="-0.61323">
        <ele>45.6</ele>
        <time>2024-11-23T09:48:39Z</time>
      </trkpt>
      <trkpt lat="45.07237" lon="-0.61322">
        <ele>45.7</ele>
        <time>2024-11-23T09:48:40Z</time>
      </trkpt>
      <trkpt lat="45.07236" lon="-0.6132">
        <ele>45.9</ele>
        <time>2024-11-23T09:48:41Z</time>
      </trkpt>
      <trkpt lat="45.07236" lon="-0.61319">
        <ele>46</ele>
        <time>2024-11-23T09:48:42Z</time>
      </trkpt>
      <trkpt lat="45.07235" lon="-0.61318">
        <ele>46.1</ele>
        <time>2024-11-23T09:48:43Z</time>
      </trkpt>
      <trkpt lat="45.07234" lon="-0.61317">
        <ele>46.2</ele>
        <time>2024-11-23T09:48:44Z</time>
      </trkpt>
      <trkpt lat="45.07234" lon="-0.61315">
        <ele>46.4</ele>
        <time>2024-11-23T09:48:45Z</time>
      </trkpt>
      <trkpt lat="45.07233" lon="-0.61314">
        <ele>46.5</ele>
        <time>2024-11-23T09:48:46Z</time>
      </trkpt>
      <trkpt lat="45.07232" lon="-0.61313">
        <ele>46.6</ele>
        <time>2024-11-23T09:48:47Z</time>
      </trkpt>
      <trkpt lat="45.07231" lon="-0.61311">
        <ele>46.8</ele>
        <time>2024-11-23T09:48:48Z</time>
      </trkpt>
      <trkpt lat="45.07231" lon="-0.6131">
        <ele>46.9</ele>
        <time>2024-11-23T09:48:49Z</time>
      </trkpt>
      <trkpt lat="45.0723" lon="-0.61308">
        <ele>47</ele>
        <time>2024-11-23T09:48:50Z</time>
      </trkpt>
      <trkpt lat="45.07229" lon="-0.61307">
        <ele>47.2</ele>
        <time>2024-11-23T09:48:51Z</time>
      </trkpt>
      <trkpt lat="45.07228" lon="-0.61306">
        <ele>47.3</ele>
        <time>2024-11-23T09:48:52Z</time>
      </trkpt>
      <trkpt lat="45.07228" lon="-0.61305">
        <ele>47.4</ele>
        <time>2024-11-23T09:48:53Z</time>
      </trkpt>
      <trkpt lat="45.07226" lon="-0.61302">
        <ele>47.6</ele>
        <time>2024-11-23T09:48:54Z</time>
      </trkpt>
      <trkpt lat="45.07226" lon="-0.61302">
        <ele>47.7</ele>
        <time>2024-11-23T09:48:55Z</time>
      </trkpt>
      <trkpt lat="45.07225" lon="-0.61301">
        <ele>47.7</ele>
        <time>2024-11-23T09:48:56Z</time>
      </trkpt>
      <trkpt lat="45.07224" lon="-0.61299">
        <ele>47.9</ele>
        <time>2024-11-23T09:48:57Z</time>
      </trkpt>
      <trkpt lat="45.07223" lon="-0.61298">
        <ele>48</ele>
        <time>2024-11-23T09:48:58Z</time>
      </trkpt>
      <trkpt lat="45.07222" lon="-0.61297">
        <ele>48.1</ele>
        <time>2024-11-23T09:48:59Z</time>
      </trkpt>
      <trkpt lat="45.07222" lon="-0.61296">
        <ele>48.2</ele>
        <time>2024-11-23T09:49:00Z</time>
      </trkpt>
      <trkpt lat="45.07221" lon="-0.61294">
        <ele>48.3</ele>
        <time>2024-11-23T09:49:01Z</time>
      </trkpt>
      <trkpt lat="45.0722" lon="-0.61293">
        <ele>48.4</ele>
        <time>2024-11-23T09:49:02Z</time>
      </trkpt>
      <trkpt lat="45.07219" lon="-0.61292">
        <ele>48.5</ele>
        <time>2024-11-23T09:49:03Z</time>
      </trkpt>
      <trkpt lat="45.07219" lon="-0.6129">
        <ele>48.6</ele>
        <time>2024-11-23T09:49:04Z</time>
      </trkpt>
      <trkpt lat="45.07218" lon="-0.61289">
        <ele>48.7</ele>
        <time>2024-11-23T09:49:05Z</time>
      </trkpt>
      <trkpt lat="45.07217" lon="-0.61287">
        <ele>48.9</ele>
        <time>2024-11-23T09:49:06Z</time>
      </trkpt>
      <trkpt lat="45.07216" lon="-0.61286">
        <ele>49</ele>
        <time>2024-11-23T09:49:07Z</time>
      </trkpt>
      <trkpt lat="45.07216" lon="-0.61284">
        <ele>49.1</ele>
        <time>2024-11-23T09:49:08Z</time>
      </trkpt>
      <trkpt lat="45.07215" lon="-0.61282">
        <ele>49.2</ele>
        <time>2024-11-23T09:49:09Z</time>
      </trkpt>
      <trkpt lat="45.07213" lon="-0.6128">
        <ele>49.4</ele>
        <time>2024-11-23T09:49:10Z</time>
      </trkpt>
      <trkpt lat="45.07213" lon="-0.61279">
        <ele>49.4</ele>
        <time>2024-11-23T09:49:11Z</time>
      </trkpt>
      <trkpt lat="45.07212" lon="-0.61278">
        <ele>49.5</ele>
        <time>2024-11-23T09:49:12Z</time>
      </trkpt>
      <trkpt lat="45.07211" lon="-0.61276">
        <ele>49.6</ele>
        <time>2024-11-23T09:49:13Z</time>
      </trkpt>
      <trkpt lat="45.0721" lon="-0.61275">
        <ele>49.7</ele>
        <time>2024-11-23T09:49:14Z</time>
      </trkpt>
      <trkpt lat="45.0721" lon="-0.61274">
        <ele>49.8</ele>
        <time>2024-11-23T09:49:15Z</time>
      </trkpt>
      <trkpt lat="45.07209" lon="-0.61274">
        <ele>49.8</ele>
        <time>2024-11-23T09:49:16Z</time>
      </trkpt>
      <trkpt lat="45.07208" lon="-0.61272">
        <ele>50</ele>
        <time>2024-11-23T09:49:17Z</time>
      </trkpt>
      <trkpt lat="45.07207" lon="-0.61271">
        <ele>50.1</ele>
        <time>2024-11-23T09:49:18Z</time>
      </trkpt>
      <trkpt lat="45.07207" lon="-0.61269">
        <ele>50.2</ele>
        <time>2024-11-23T09:49:19Z</time>
      </trkpt>
      <trkpt lat="45.07206" lon="-0.61267">
        <ele>50.3</ele>
        <time>2024-11-23T09:49:20Z</time>
      </trkpt>
      <trkpt lat="45.07206" lon="-0.61266">
        <ele>50.4</ele>
        <time>2024-11-23T09:49:21Z</time>
      </trkpt>
      <trkpt lat="45.07205" lon="-0.61264">
        <ele>50.5</ele>
        <time>2024-11-23T09:49:22Z</time>
      </trkpt>
      <trkpt lat="45.07204" lon="-0.61263">
        <ele>50.6</ele>
        <time>2024-11-23T09:49:23Z</time>
      </trkpt>
      <trkpt lat="45.07203" lon="-0.61261">
        <ele>50.7</ele>
        <time>2024-11-23T09:49:24Z</time>
      </trkpt>
      <trkpt lat="45.07203" lon="-0.6126">
        <ele>50.8</ele>
        <time>2024-11-23T09:49:25Z</time>
      </trkpt>
      <trkpt lat="45.07201" lon="-0.61257">
        <ele>50.9</ele>
        <time>2024-11-23T09:49:26Z</time>
      </trkpt>
      <trkpt lat="45.07201" lon="-0.61257">
        <ele>51</ele>
        <time>2024-11-23T09:49:27Z</time>
      </trkpt>
      <trkpt lat="45.072" lon="-0.61256">
        <ele>51.1</ele>
        <time>2024-11-23T09:49:28Z</time>
      </trkpt>
      <trkpt lat="45.07199" lon="-0.61253">
        <ele>51.2</ele>
        <time>2024-11-23T09:49:29Z</time>
      </trkpt>
      <trkpt lat="45.07199" lon="-0.61252">
        <ele>51.3</ele>
        <time>2024-11-23T09:49:30Z</time>
      </trkpt>
      <trkpt lat="45.07198" lon="-0.61251">
        <ele>51.4</ele>
        <time>2024-11-23T09:49:31Z</time>
      </trkpt>
      <trkpt lat="45.07197" lon="-0.61248">
        <ele>51.6</ele>
        <time>2024-11-23T09:49:32Z</time>
      </trkpt>
      <trkpt lat="45.07196" lon="-0.61247">
        <ele>51.6</ele>
        <time>2024-11-23T09:49:33Z</time>
      </trkpt>
      <trkpt lat="45.07196" lon="-0.61246">
        <ele>51.7</ele>
        <time>2024-11-23T09:49:34Z</time>
      </trkpt>
      <trkpt lat="45.07195" lon="-0.61244">
        <ele>51.9</ele>
        <time>2024-11-23T09:49:35Z</time>
      </trkpt>
      <trkpt lat="45.07194" lon="-0.61243">
        <ele>51.9</ele>
        <time>2024-11-23T09:49:36Z</time>
      </trkpt>
      <trkpt lat="45.07194" lon="-0.61242">
        <ele>52</ele>
        <time>2024-11-23T09:49:37Z</time>
      </trkpt>
      <trkpt lat="45.07192" lon="-0.6124">
        <ele>52.2</ele>
        <time>2024-11-23T09:49:38Z</time>
      </trkpt>
      <trkpt lat="45.07192" lon="-0.61239">
        <ele>52.2</ele>
        <time>2024-11-23T09:49:39Z</time>
      </trkpt>
      <trkpt lat="45.07191" lon="-0.61238">
        <ele>52.3</ele>
        <time>2024-11-23T09:49:40Z</time>
      </trkpt>
      <trkpt lat="45.0719" lon="-0.61235">
        <ele>52.4</ele>
        <time>2024-11-23T09:49:41Z</time>
      </trkpt>
      <trkpt lat="45.0719" lon="-0.61234">
        <ele>52.5</ele>
        <time>2024-11-23T09:49:42Z</time>
      </trkpt>
      <trkpt lat="45.07189" lon="-0.61234">
        <ele>52.6</ele>
        <time>2024-11-23T09:49:43Z</time>
      </trkpt>
      <trkpt lat="45.07188" lon="-0.61231">
        <ele>52.7</ele>
        <time>2024-11-23T09:49:44Z</time>
      </trkpt>
      <trkpt lat="45.07188" lon="-0.6123">
        <ele>52.8</ele>
        <time>2024-11-23T09:49:45Z</time>
      </trkpt>
      <trkpt lat="45.07187" lon="-0.61229">
        <ele>52.9</ele>
        <time>2024-11-23T09:49:46Z</time>
      </trkpt>
      <trkpt lat="45.07186" lon="-0.61228">
        <ele>53</ele>
        <time>2024-11-23T09:49:47Z</time>
      </trkpt>
      <trkpt lat="45.07186" lon="-0.61227">
        <ele>53.1</ele>
        <time>2024-11-23T09:49:48Z</time>
      </trkpt>
      <trkpt lat="45.07185" lon="-0.61225">
        <ele>53.2</ele>
        <time>2024-11-23T09:49:49Z</time>
      </trkpt>
      <trkpt lat="45.07184" lon="-0.61223">
        <ele>53.4</ele>
        <time>2024-11-23T09:49:50Z</time>
      </trkpt>
      <trkpt lat="45.07183" lon="-0.61222">
        <ele>53.4</ele>
        <time>2024-11-23T09:49:51Z</time>
      </trkpt>
      <trkpt lat="45.07182" lon="-0.61221">
        <ele>53.5</ele>
        <time>2024-11-23T09:49:52Z</time>
      </trkpt>
      <trkpt lat="45.07181" lon="-0.61218">
        <ele>53.7</ele>
        <time>2024-11-23T09:49:53Z</time>
      </trkpt>
      <trkpt lat="45.07181" lon="-0.61217">
        <ele>53.8</ele>
        <time>2024-11-23T09:49:54Z</time>
      </trkpt>
      <trkpt lat="45.0718" lon="-0.61216">
        <ele>53.8</ele>
        <time>2024-11-23T09:49:55Z</time>
      </trkpt>
      <trkpt lat="45.07179" lon="-0.61215">
        <ele>53.9</ele>
        <time>2024-11-23T09:49:56Z</time>
      </trkpt>
      <trkpt lat="45.07178" lon="-0.61213">
        <ele>54.1</ele>
        <time>2024-11-23T09:49:57Z</time>
      </trkpt>
      <trkpt lat="45.07178" lon="-0.61211">
        <ele>54.2</ele>
        <time>2024-11-23T09:49:58Z</time>
      </trkpt>
      <trkpt lat="45.07177" lon="-0.6121">
        <ele>54.3</ele>
        <time>2024-11-23T09:49:59Z</time>
      </trkpt>
      <trkpt lat="45.07175" lon="-0.6121">
        <ele>54.4</ele>
        <time>2024-11-23T09:50:00Z</time>
      </trkpt>
      <trkpt lat="45.07174" lon="-0.61209">
        <ele>54.5</ele>
        <time>2024-11-23T09:50:01Z</time>
      </trkpt>
      <trkpt lat="45.07173" lon="-0.61208">
        <ele>54.5</ele>
        <time>2024-11-23T09:50:02Z</time>
      </trkpt>
      <trkpt lat="45.07172" lon="-0.61209">
        <ele>54.4</ele>
        <time>2024-11-23T09:50:03Z</time>
      </trkpt>
      <trkpt lat="45.0717" lon="-0.61209">
        <ele>54.4</ele>
        <time>2024-11-23T09:50:04Z</time>
      </trkpt>
      <trkpt lat="45.07169" lon="-0.61209">
        <ele>54.4</ele>
        <time>2024-11-23T09:50:05Z</time>
      </trkpt>
      <trkpt lat="45.07168" lon="-0.6121">
        <ele>54.3</ele>
        <time>2024-11-23T09:50:06Z</time>
      </trkpt>
      <trkpt lat="45.07167" lon="-0.61211">
        <ele>54.3</ele>
        <time>2024-11-23T09:50:07Z</time>
      </trkpt>
      <trkpt lat="45.07167" lon="-0.61213">
        <ele>54.2</ele>
        <time>2024-11-23T09:50:08Z</time>
      </trkpt>
      <trkpt lat="45.07166" lon="-0.61214">
        <ele>54.2</ele>
        <time>2024-11-23T09:50:09Z</time>
      </trkpt>
      <trkpt lat="45.07166" lon="-0.61215">
        <ele>54.1</ele>
        <time>2024-11-23T09:50:10Z</time>
      </trkpt>
      <trkpt lat="45.07165" lon="-0.61216">
        <ele>54.1</ele>
        <time>2024-11-23T09:50:11Z</time>
      </trkpt>
      <trkpt lat="45.07163" lon="-0.61218">
        <ele>54</ele>
        <time>2024-11-23T09:50:12Z</time>
      </trkpt>
      <trkpt lat="45.07162" lon="-0.61219">
        <ele>54</ele>
        <time>2024-11-23T09:50:13Z</time>
      </trkpt>
      <trkpt lat="45.07162" lon="-0.6122">
        <ele>54</ele>
        <time>2024-11-23T09:50:14Z</time>
      </trkpt>
      <trkpt lat="45.07161" lon="-0.61221">
        <ele>53.9</ele>
        <time>2024-11-23T09:50:15Z</time>
      </trkpt>
      <trkpt lat="45.07159" lon="-0.61223">
        <ele>53.9</ele>
        <time>2024-11-23T09:50:16Z</time>
      </trkpt>
      <trkpt lat="45.07158" lon="-0.61224">
        <ele>53.8</ele>
        <time>2024-11-23T09:50:17Z</time>
      </trkpt>
      <trkpt lat="45.07157" lon="-0.61225">
        <ele>53.8</ele>
        <time>2024-11-23T09:50:18Z</time>
      </trkpt>
      <trkpt lat="45.07154" lon="-0.61229">
        <ele>53.7</ele>
        <time>2024-11-23T09:50:19Z</time>
      </trkpt>
      <trkpt lat="45.07152" lon="-0.61231">
        <ele>53.6</ele>
        <time>2024-11-23T09:50:23Z</time>
      </trkpt>
      <trkpt lat="45.07151" lon="-0.61233">
        <ele>53.5</ele>
        <time>2024-11-23T09:50:24Z</time>
      </trkpt>
      <trkpt lat="45.07149" lon="-0.61235">
        <ele>53.5</ele>
        <time>2024-11-23T09:50:25Z</time>
      </trkpt>
      <trkpt lat="45.07149" lon="-0.61236">
        <ele>53.5</ele>
        <time>2024-11-23T09:50:26Z</time>
      </trkpt>
      <trkpt lat="45.07147" lon="-0.61238">
        <ele>53.4</ele>
        <time>2024-11-23T09:50:27Z</time>
      </trkpt>
      <trkpt lat="45.07146" lon="-0.61238">
        <ele>53.4</ele>
        <time>2024-11-23T09:50:28Z</time>
      </trkpt>
      <trkpt lat="45.07145" lon="-0.61239">
        <ele>53.4</ele>
        <time>2024-11-23T09:50:29Z</time>
      </trkpt>
      <trkpt lat="45.07144" lon="-0.61242">
        <ele>53.3</ele>
        <time>2024-11-23T09:50:30Z</time>
      </trkpt>
      <trkpt lat="45.07143" lon="-0.61242">
        <ele>53.3</ele>
        <time>2024-11-23T09:50:31Z</time>
      </trkpt>
      <trkpt lat="45.07142" lon="-0.61243">
        <ele>53.3</ele>
        <time>2024-11-23T09:50:32Z</time>
      </trkpt>
      <trkpt lat="45.07142" lon="-0.61244">
        <ele>53.2</ele>
        <time>2024-11-23T09:50:33Z</time>
      </trkpt>
      <trkpt lat="45.0714" lon="-0.61245">
        <ele>53.2</ele>
        <time>2024-11-23T09:50:34Z</time>
      </trkpt>
      <trkpt lat="45.07092" lon="-0.61314">
        <ele>51.6</ele>
        <time>2024-11-23T09:51:21Z</time>
      </trkpt>
      <trkpt lat="45.0709" lon="-0.61315">
        <ele>51.5</ele>
        <time>2024-11-23T09:51:22Z</time>
      </trkpt>
      <trkpt lat="45.07089" lon="-0.61317">
        <ele>51.5</ele>
        <time>2024-11-23T09:51:23Z</time>
      </trkpt>
      <trkpt lat="45.07088" lon="-0.61318">
        <ele>51.4</ele>
        <time>2024-11-23T09:51:24Z</time>
      </trkpt>
      <trkpt lat="45.07087" lon="-0.61319">
        <ele>51.4</ele>
        <time>2024-11-23T09:51:25Z</time>
      </trkpt>
      <trkpt lat="45.07086" lon="-0.6132">
        <ele>51.3</ele>
        <time>2024-11-23T09:51:26Z</time>
      </trkpt>
      <trkpt lat="45.07084" lon="-0.61321">
        <ele>51.3</ele>
        <time>2024-11-23T09:51:27Z</time>
      </trkpt>
      <trkpt lat="45.07083" lon="-0.61321">
        <ele>51.2</ele>
        <time>2024-11-23T09:51:28Z</time>
      </trkpt>
      <trkpt lat="45.07081" lon="-0.61321">
        <ele>51.1</ele>
        <time>2024-11-23T09:51:29Z</time>
      </trkpt>
      <trkpt lat="45.0708" lon="-0.61321">
        <ele>51.1</ele>
        <time>2024-11-23T09:51:30Z</time>
      </trkpt>
      <trkpt lat="45.07078" lon="-0.61321">
        <ele>51</ele>
        <time>2024-11-23T09:51:31Z</time>
      </trkpt>
      <trkpt lat="45.07077" lon="-0.6132">
        <ele>51</ele>
        <time>2024-11-23T09:51:32Z</time>
      </trkpt>
      <trkpt lat="45.07076" lon="-0.61319">
        <ele>50.9</ele>
        <time>2024-11-23T09:51:33Z</time>
      </trkpt>
      <trkpt lat="45.07075" lon="-0.61318">
        <ele>50.8</ele>
        <time>2024-11-23T09:51:34Z</time>
      </trkpt>
      <trkpt lat="45.07034" lon="-0.6136">
        <ele>47.2</ele>
        <time>2024-11-23T09:52:13Z</time>
      </trkpt>
      <trkpt lat="45.07034" lon="-0.61362">
        <ele>47.1</ele>
        <time>2024-11-23T09:52:14Z</time>
      </trkpt>
      <trkpt lat="45.07033" lon="-0.61363">
        <ele>47</ele>
        <time>2024-11-23T09:52:15Z</time>
      </trkpt>
      <trkpt lat="45.07032" lon="-0.61364">
        <ele>46.9</ele>
        <time>2024-11-23T09:52:16Z</time>
      </trkpt>
      <trkpt lat="45.07031" lon="-0.61365">
        <ele>46.8</ele>
        <time>2024-11-23T09:52:17Z</time>
      </trkpt>
      <trkpt lat="45.07031" lon="-0.61367">
        <ele>46.6</ele>
        <time>2024-11-23T09:52:18Z</time>
      </trkpt>
      <trkpt lat="45.0703" lon="-0.61368">
        <ele>46.5</ele>
        <time>2024-11-23T09:52:19Z</time>
      </trkpt>
      <trkpt lat="45.07011" lon="-0.61397">
        <ele>43.6</ele>
        <time>2024-11-23T09:52:50Z</time>
      </trkpt>
      <trkpt lat="45.07006" lon="-0.61403">
        <ele>43.1</ele>
        <time>2024-11-23T09:52:51Z</time>
      </trkpt>
      <trkpt lat="45.07001" lon="-0.6141">
        <ele>42.5</ele>
        <time>2024-11-23T09:52:52Z</time>
      </trkpt>
      <trkpt lat="45.06996" lon="-0.61416">
        <ele>41.9</ele>
        <time>2024-11-23T09:52:53Z</time>
      </trkpt>
      <trkpt lat="45.06994" lon="-0.61417">
        <ele>41.7</ele>
        <time>2024-11-23T09:52:54Z</time>
      </trkpt>
      <trkpt lat="45.06993" lon="-0.61419">
        <ele>41.5</ele>
        <time>2024-11-23T09:52:55Z</time>
      </trkpt>
      <trkpt lat="45.06992" lon="-0.6142">
        <ele>41.4</ele>
        <time>2024-11-23T09:52:56Z</time>
      </trkpt>
      <trkpt lat="45.06991" lon="-0.61421">
        <ele>41.2</ele>
        <time>2024-11-23T09:52:57Z</time>
      </trkpt>
      <trkpt lat="45.0699" lon="-0.61423">
        <ele>41</ele>
        <time>2024-11-23T09:52:58Z</time>
      </trkpt>
      <trkpt lat="45.06989" lon="-0.61424">
        <ele>40.8</ele>
        <time>2024-11-23T09:52:59Z</time>
      </trkpt>
      <trkpt lat="45.06987" lon="-0.61425">
        <ele>40.6</ele>
        <time>2024-11-23T09:53:00Z</time>
      </trkpt>
      <trkpt lat="45.06986" lon="-0.61425">
        <ele>40.4</ele>
        <time>2024-11-23T09:53:01Z</time>
      </trkpt>
      <trkpt lat="45.06985" lon="-0.61426">
        <ele>40.3</ele>
        <time>2024-11-23T09:53:02Z</time>
      </trkpt>
      <trkpt lat="45.06984" lon="-0.61427">
        <ele>40.1</ele>
        <time>2024-11-23T09:53:03Z</time>
      </trkpt>
      <trkpt lat="45.06983" lon="-0.61428">
        <ele>39.9</ele>
        <time>2024-11-23T09:53:04Z</time>
      </trkpt>
      <trkpt lat="45.06981" lon="-0.61429">
        <ele>39.5</ele>
        <time>2024-11-23T09:53:05Z</time>
      </trkpt>
      <trkpt lat="45.0698" lon="-0.61429">
        <ele>39.4</ele>
        <time>2024-11-23T09:53:06Z</time>
      </trkpt>
      <trkpt lat="45.06979" lon="-0.6143">
        <ele>39.2</ele>
        <time>2024-11-23T09:53:07Z</time>
      </trkpt>
      <trkpt lat="45.06978" lon="-0.61431">
        <ele>39</ele>
        <time>2024-11-23T09:53:08Z</time>
      </trkpt>
      <trkpt lat="45.06977" lon="-0.61431">
        <ele>38.7</ele>
        <time>2024-11-23T09:53:09Z</time>
      </trkpt>
      <trkpt lat="45.06974" lon="-0.61432">
        <ele>38.3</ele>
        <time>2024-11-23T09:53:10Z</time>
      </trkpt>
      <trkpt lat="45.06973" lon="-0.61432">
        <ele>38.1</ele>
        <time>2024-11-23T09:53:11Z</time>
      </trkpt>
      <trkpt lat="45.06973" lon="-0.61433">
        <ele>37.9</ele>
        <time>2024-11-23T09:53:12Z</time>
      </trkpt>
      <trkpt lat="45.06971" lon="-0.61434">
        <ele>37.7</ele>
        <time>2024-11-23T09:53:13Z</time>
      </trkpt>
      <trkpt lat="45.0697" lon="-0.61435">
        <ele>37.4</ele>
        <time>2024-11-23T09:53:14Z</time>
      </trkpt>
      <trkpt lat="45.06969" lon="-0.61435">
        <ele>37.1</ele>
        <time>2024-11-23T09:53:15Z</time>
      </trkpt>
      <trkpt lat="45.06967" lon="-0.61436">
        <ele>36.8</ele>
        <time>2024-11-23T09:53:16Z</time>
      </trkpt>
      <trkpt lat="45.06965" lon="-0.61438">
        <ele>36.2</ele>
        <time>2024-11-23T09:53:17Z</time>
      </trkpt>
      <trkpt lat="45.06965" lon="-0.61439">
        <ele>36</ele>
        <time>2024-11-23T09:53:18Z</time>
      </trkpt>
      <trkpt lat="45.06964" lon="-0.6144">
        <ele>35.8</ele>
        <time>2024-11-23T09:53:19Z</time>
      </trkpt>
      <trkpt lat="45.06952" lon="-0.61492">
        <ele>28.3</ele>
        <time>2024-11-23T09:53:56Z</time>
      </trkpt>
      <trkpt lat="45.06951" lon="-0.61494">
        <ele>28.2</ele>
        <time>2024-11-23T09:53:57Z</time>
      </trkpt>
      <trkpt lat="45.06951" lon="-0.61497">
        <ele>28.1</ele>
        <time>2024-11-23T09:53:58Z</time>
      </trkpt>
      <trkpt lat="45.0695" lon="-0.615">
        <ele>28</ele>
        <time>2024-11-23T09:53:59Z</time>
      </trkpt>
      <trkpt lat="45.0695" lon="-0.61502">
        <ele>28</ele>
        <time>2024-11-23T09:54:00Z</time>
      </trkpt>
      <trkpt lat="45.0695" lon="-0.61504">
        <ele>27.9</ele>
        <time>2024-11-23T09:54:01Z</time>
      </trkpt>
      <trkpt lat="45.0695" lon="-0.61506">
        <ele>27.9</ele>
        <time>2024-11-23T09:54:02Z</time>
      </trkpt>
      <trkpt lat="45.06949" lon="-0.61508">
        <ele>27.9</ele>
        <time>2024-11-23T09:54:03Z</time>
      </trkpt>
      <trkpt lat="45.06942" lon="-0.615">
        <ele>27.7</ele>
        <time>2024-11-23T09:54:04Z</time>
      </trkpt>
      <trkpt lat="45.06934" lon="-0.61491">
        <ele>28</ele>
        <time>2024-11-23T09:54:52Z</time>
      </trkpt>
      <trkpt lat="45.06927" lon="-0.61482">
        <ele>28.3</ele>
        <time>2024-11-23T09:54:53Z</time>
      </trkpt>
      <trkpt lat="45.0692" lon="-0.61472">
        <ele>28.7</ele>
        <time>2024-11-23T09:54:54Z</time>
      </trkpt>
      <trkpt lat="45.06913" lon="-0.61463">
        <ele>29.1</ele>
        <time>2024-11-23T09:54:55Z</time>
      </trkpt>
      <trkpt lat="45.06912" lon="-0.61462">
        <ele>29.2</ele>
        <time>2024-11-23T09:54:56Z</time>
      </trkpt>
      <trkpt lat="45.06911" lon="-0.6146">
        <ele>29.3</ele>
        <time>2024-11-23T09:54:57Z</time>
      </trkpt>
      <trkpt lat="45.0691" lon="-0.61457">
        <ele>29.4</ele>
        <time>2024-11-23T09:54:58Z</time>
      </trkpt>
      <trkpt lat="45.0691" lon="-0.61456">
        <ele>29.5</ele>
        <time>2024-11-23T09:54:59Z</time>
      </trkpt>
      <trkpt lat="45.06909" lon="-0.61455">
        <ele>29.5</ele>
        <time>2024-11-23T09:55:00Z</time>
      </trkpt>
      <trkpt lat="45.06909" lon="-0.61453">
        <ele>29.6</ele>
        <time>2024-11-23T09:55:01Z</time>
      </trkpt>
      <trkpt lat="45.06908" lon="-0.61451">
        <ele>29.7</ele>
        <time>2024-11-23T09:55:02Z</time>
      </trkpt>
      <trkpt lat="45.06907" lon="-0.61448">
        <ele>29.9</ele>
        <time>2024-11-23T09:55:03Z</time>
      </trkpt>
      <trkpt lat="45.06906" lon="-0.61447">
        <ele>30</ele>
        <time>2024-11-23T09:55:04Z</time>
      </trkpt>
      <trkpt lat="45.06906" lon="-0.61446">
        <ele>30</ele>
        <time>2024-11-23T09:55:05Z</time>
      </trkpt>
      <trkpt lat="45.0688" lon="-0.61389">
        <ele>32.8</ele>
        <time>2024-11-23T09:55:38Z</time>
      </trkpt>
      <trkpt lat="45.06879" lon="-0.61388">
        <ele>32.8</ele>
        <time>2024-11-23T09:55:39Z</time>
      </trkpt>
      <trkpt lat="45.06879" lon="-0.61386">
        <ele>32.9</ele>
        <time>2024-11-23T09:55:40Z</time>
      </trkpt>
      <trkpt lat="45.06878" lon="-0.61385">
        <ele>33</ele>
        <time>2024-11-23T09:55:41Z</time>
      </trkpt>
      <trkpt lat="45.06877" lon="-0.61383">
        <ele>33</ele>
        <time>2024-11-23T09:55:42Z</time>
      </trkpt>
      <trkpt lat="45.06877" lon="-0.61382">
        <ele>33.1</ele>
        <time>2024-11-23T09:55:43Z</time>
      </trkpt>
      <trkpt lat="45.06875" lon="-0.61379">
        <ele>33.2</ele>
        <time>2024-11-23T09:55:44Z</time>
      </trkpt>
      <trkpt lat="45.06875" lon="-0.61378">
        <ele>33.2</ele>
        <time>2024-11-23T09:55:45Z</time>
      </trkpt>
      <trkpt lat="45.06874" lon="-0.61377">
        <ele>33.2</ele>
        <time>2024-11-23T09:55:46Z</time>
      </trkpt>
      <trkpt lat="45.06873" lon="-0.61375">
        <ele>33.3</ele>
        <time>2024-11-23T09:55:47Z</time>
      </trkpt>
      <trkpt lat="45.06873" lon="-0.61373">
        <ele>33.4</ele>
        <time>2024-11-23T09:55:48Z</time>
      </trkpt>
      <trkpt lat="45.06872" lon="-0.61371">
        <ele>33.4</ele>
        <time>2024-11-23T09:55:49Z</time>
      </trkpt>
      <trkpt lat="45.06871" lon="-0.61369">
        <ele>33.5</ele>
        <time>2024-11-23T09:55:50Z</time>
      </trkpt>
      <trkpt lat="45.06847" lon="-0.61301">
        <ele>35.7</ele>
        <time>2024-11-23T09:56:29Z</time>
      </trkpt>
      <trkpt lat="45.06847" lon="-0.61299">
        <ele>35.7</ele>
        <time>2024-11-23T09:56:30Z</time>
      </trkpt>
      <trkpt lat="45.06847" lon="-0.61298">
        <ele>35.7</ele>
        <time>2024-11-23T09:56:31Z</time>
      </trkpt>
      <trkpt lat="45.06847" lon="-0.61296">
        <ele>35.8</ele>
        <time>2024-11-23T09:56:32Z</time>
      </trkpt>
      <trkpt lat="45.06847" lon="-0.61294">
        <ele>35.8</ele>
        <time>2024-11-23T09:56:33Z</time>
      </trkpt>
      <trkpt lat="45.06847" lon="-0.61292">
        <ele>35.8</ele>
        <time>2024-11-23T09:56:34Z</time>
      </trkpt>
      <trkpt lat="45.06843" lon="-0.61274">
        <ele>36.2</ele>
        <time>2024-11-23T09:56:35Z</time>
      </trkpt>
      <trkpt lat="45.06839" lon="-0.61258">
        <ele>36.6</ele>
        <time>2024-11-23T09:57:14Z</time>
      </trkpt>
      <trkpt lat="45.06835" lon="-0.61241">
        <ele>36.9</ele>
        <time>2024-11-23T09:57:15Z</time>
      </trkpt>
      <trkpt lat="45.06831" lon="-0.61225">
        <ele>37.1</ele>
        <time>2024-11-23T09:57:16Z</time>
      </trkpt>
      <trkpt lat="45.06826" lon="-0.61209">
        <ele>37.4</ele>
        <time>2024-11-23T09:57:17Z</time>
      </trkpt>
      <trkpt lat="45.06826" lon="-0.61207">
        <ele>37.5</ele>
        <time>2024-11-23T09:57:18Z</time>
      </trkpt>
      <trkpt lat="45.06825" lon="-0.61205">
        <ele>37.5</ele>
        <time>2024-11-23T09:57:19Z</time>
      </trkpt>
      <trkpt lat="45.06819" lon="-0.61186">
        <ele>37.9</ele>
        <time>2024-11-23T09:57:20Z</time>
      </trkpt>
      <trkpt lat="45.06814" lon="-0.61169">
        <ele>38.3</ele>
        <time>2024-11-23T09:58:08Z</time>
      </trkpt>
      <trkpt lat="45.06808" lon="-0.61151">
        <ele>38.7</ele>
        <time>2024-11-23T09:58:09Z</time>
      </trkpt>
      <trkpt lat="45.06802" lon="-0.61134">
        <ele>39.4</ele>
        <time>2024-11-23T09:58:10Z</time>
      </trkpt>
      <trkpt lat="45.06797" lon="-0.61117">
        <ele>40.3</ele>
        <time>2024-11-23T09:58:11Z</time>
      </trkpt>
      <trkpt lat="45.06796" lon="-0.61115">
        <ele>40.4</ele>
        <time>2024-11-23T09:58:12Z</time>
      </trkpt>
      <trkpt lat="45.06796" lon="-0.61113">
        <ele>40.5</ele>
        <time>2024-11-23T09:58:13Z</time>
      </trkpt>
      <trkpt lat="45.06796" lon="-0.6111">
        <ele>40.7</ele>
        <time>2024-11-23T09:58:14Z</time>
      </trkpt>
      <trkpt lat="45.06796" lon="-0.61109">
        <ele>40.8</ele>
        <time>2024-11-23T09:58:15Z</time>
      </trkpt>
      <trkpt lat="45.06796" lon="-0.61108">
        <ele>40.8</ele>
        <time>2024-11-23T09:58:16Z</time>
      </trkpt>
      <trkpt lat="45.06796" lon="-0.61106">
        <ele>40.9</ele>
        <time>2024-11-23T09:58:17Z</time>
      </trkpt>
      <trkpt lat="45.06797" lon="-0.61104">
        <ele>41.1</ele>
        <time>2024-11-23T09:58:18Z</time>
      </trkpt>
      <trkpt lat="45.06797" lon="-0.61103">
        <ele>41.2</ele>
        <time>2024-11-23T09:58:19Z</time>
      </trkpt>
      <trkpt lat="45.06797" lon="-0.611">
        <ele>41.4</ele>
        <time>2024-11-23T09:58:20Z</time>
      </trkpt>
      <trkpt lat="45.06797" lon="-0.61099">
        <ele>41.4</ele>
        <time>2024-11-23T09:58:21Z</time>
      </trkpt>
      <trkpt lat="45.06798" lon="-0.61097">
        <ele>41.5</ele>
        <time>2024-11-23T09:58:22Z</time>
      </trkpt>
      <trkpt lat="45.06798" lon="-0.61096">
        <ele>41.6</ele>
        <time>2024-11-23T09:58:23Z</time>
      </trkpt>
      <trkpt lat="45.06798" lon="-0.61095">
        <ele>41.7</ele>
        <time>2024-11-23T09:58:24Z</time>
      </trkpt>
      <trkpt lat="45.06799" lon="-0.61094">
        <ele>41.8</ele>
        <time>2024-11-23T09:58:25Z</time>
      </trkpt>
      <trkpt lat="45.06799" lon="-0.61092">
        <ele>42</ele>
        <time>2024-11-23T09:58:26Z</time>
      </trkpt>
      <trkpt lat="45.068" lon="-0.6109">
        <ele>42.1</ele>
        <time>2024-11-23T09:58:27Z</time>
      </trkpt>
      <trkpt lat="45.06801" lon="-0.61089">
        <ele>42.2</ele>
        <time>2024-11-23T09:58:28Z</time>
      </trkpt>
      <trkpt lat="45.06802" lon="-0.61088">
        <ele>42.4</ele>
        <time>2024-11-23T09:58:29Z</time>
      </trkpt>
      <trkpt lat="45.06802" lon="-0.61086">
        <ele>42.5</ele>
        <time>2024-11-23T09:58:30Z</time>
      </trkpt>
      <trkpt lat="45.06803" lon="-0.61085">
        <ele>42.6</ele>
        <time>2024-11-23T09:58:31Z</time>
      </trkpt>
      <trkpt lat="45.06804" lon="-0.61084">
        <ele>42.8</ele>
        <time>2024-11-23T09:58:32Z</time>
      </trkpt>
      <trkpt lat="45.06805" lon="-0.61083">
        <ele>42.9</ele>
        <time>2024-11-23T09:58:33Z</time>
      </trkpt>
      <trkpt lat="45.06806" lon="-0.61082">
        <ele>43.1</ele>
        <time>2024-11-23T09:58:34Z</time>
      </trkpt>
      <trkpt lat="45.06807" lon="-0.61081">
        <ele>43.2</ele>
        <time>2024-11-23T09:58:35Z</time>
      </trkpt>
      <trkpt lat="45.06808" lon="-0.61079">
        <ele>43.3</ele>
        <time>2024-11-23T09:58:36Z</time>
      </trkpt>
      <trkpt lat="45.06809" lon="-0.61078">
        <ele>43.5</ele>
        <time>2024-11-23T09:58:37Z</time>
      </trkpt>
      <trkpt lat="45.0681" lon="-0.61077">
        <ele>43.6</ele>
        <time>2024-11-23T09:58:38Z</time>
      </trkpt>
      <trkpt lat="45.0681" lon="-0.61076">
        <ele>43.7</ele>
        <time>2024-11-23T09:58:39Z</time>
      </trkpt>
      <trkpt lat="45.06811" lon="-0.61075">
        <ele>43.8</ele>
        <time>2024-11-23T09:58:40Z</time>
      </trkpt>
      <trkpt lat="45.06813" lon="-0.61073">
        <ele>44.1</ele>
        <time>2024-11-23T09:58:41Z</time>
      </trkpt>
      <trkpt lat="45.06814" lon="-0.61072">
        <ele>44.2</ele>
        <time>2024-11-23T09:58:42Z</time>
      </trkpt>
      <trkpt lat="45.06814" lon="-0.61071">
        <ele>44.3</ele>
        <time>2024-11-23T09:58:43Z</time>
      </trkpt>
      <trkpt lat="45.06816" lon="-0.61069">
        <ele>44.5</ele>
        <time>2024-11-23T09:58:44Z</time>
      </trkpt>
      <trkpt lat="45.06817" lon="-0.61068">
        <ele>44.6</ele>
        <time>2024-11-23T09:58:45Z</time>
      </trkpt>
      <trkpt lat="45.06818" lon="-0.61068">
        <ele>44.7</ele>
        <time>2024-11-23T09:58:46Z</time>
      </trkpt>
      <trkpt lat="45.06819" lon="-0.61066">
        <ele>44.9</ele>
        <time>2024-11-23T09:58:47Z</time>
      </trkpt>
      <trkpt lat="45.0682" lon="-0.61065">
        <ele>45</ele>
        <time>2024-11-23T09:58:48Z</time>
      </trkpt>
      <trkpt lat="45.06821" lon="-0.61065">
        <ele>45.1</ele>
        <time>2024-11-23T09:58:49Z</time>
      </trkpt>
      <trkpt lat="45.06823" lon="-0.61063">
        <ele>45.3</ele>
        <time>2024-11-23T09:58:50Z</time>
      </trkpt>
      <trkpt lat="45.06824" lon="-0.61062">
        <ele>45.5</ele>
        <time>2024-11-23T09:58:51Z</time>
      </trkpt>
      <trkpt lat="45.06825" lon="-0.61061">
        <ele>45.6</ele>
        <time>2024-11-23T09:58:52Z</time>
      </trkpt>
      <trkpt lat="45.06825" lon="-0.61061">
        <ele>45.6</ele>
        <time>2024-11-23T09:58:53Z</time>
      </trkpt>
      <trkpt lat="45.06826" lon="-0.6106">
        <ele>45.8</ele>
        <time>2024-11-23T09:58:54Z</time>
      </trkpt>
      <trkpt lat="45.06827" lon="-0.61059">
        <ele>45.9</ele>
        <time>2024-11-23T09:58:55Z</time>
      </trkpt>
      <trkpt lat="45.06828" lon="-0.61058">
        <ele>46</ele>
        <time>2024-11-23T09:58:56Z</time>
      </trkpt>
      <trkpt lat="45.06829" lon="-0.61057">
        <ele>46.2</ele>
        <time>2024-11-23T09:58:57Z</time>
      </trkpt>
      <trkpt lat="45.0683" lon="-0.61055">
        <ele>46.3</ele>
        <time>2024-11-23T09:58:58Z</time>
      </trkpt>
      <trkpt lat="45.06832" lon="-0.61054">
        <ele>46.5</ele>
        <time>2024-11-23T09:58:59Z</time>
      </trkpt>
      <trkpt lat="45.06832" lon="-0.61053">
        <ele>46.6</ele>
        <time>2024-11-23T09:59:00Z</time>
      </trkpt>
      <trkpt lat="45.06833" lon="-0.61052">
        <ele>46.7</ele>
        <time>2024-11-23T09:59:01Z</time>
      </trkpt>
      <trkpt lat="45.06835" lon="-0.6105">
        <ele>46.9</ele>
        <time>2024-11-23T09:59:02Z</time>
      </trkpt>
      <trkpt lat="45.06835" lon="-0.61049">
        <ele>47</ele>
        <time>2024-11-23T09:59:03Z</time>
      </trkpt>
      <trkpt lat="45.06836" lon="-0.61048">
        <ele>47.1</ele>
        <time>2024-11-23T09:59:04Z</time>
      </trkpt>
      <trkpt lat="45.06837" lon="-0.61046">
        <ele>47.3</ele>
        <time>2024-11-23T09:59:05Z</time>
      </trkpt>
      <trkpt lat="45.06838" lon="-0.61045">
        <ele>47.4</ele>
        <time>2024-11-23T09:59:06Z</time>
      </trkpt>
      <trkpt lat="45.06838" lon="-0.61045">
        <ele>47.5</ele>
        <time>2024-11-23T09:59:07Z</time>
      </trkpt>
      <trkpt lat="45.0684" lon="-0.61042">
        <ele>47.7</ele>
        <time>2024-11-23T09:59:08Z</time>
      </trkpt>
      <trkpt lat="45.06841" lon="-0.61042">
        <ele>47.8</ele>
        <time>2024-11-23T09:59:09Z</time>
      </trkpt>
      <trkpt lat="45.06841" lon="-0.61041">
        <ele>47.9</ele>
        <time>2024-11-23T09:59:10Z</time>
      </trkpt>
      <trkpt lat="45.06843" lon="-0.61039">
        <ele>48.1</ele>
        <time>2024-11-23T09:59:11Z</time>
      </trkpt>
      <trkpt lat="45.06843" lon="-0.61038">
        <ele>48.2</ele>
        <time>2024-11-23T09:59:12Z</time>
      </trkpt>
      <trkpt lat="45.06844" lon="-0.61037">
        <ele>48.2</ele>
        <time>2024-11-23T09:59:13Z</time>
      </trkpt>
      <trkpt lat="45.06846" lon="-0.61035">
        <ele>48.4</ele>
        <time>2024-11-23T09:59:14Z</time>
      </trkpt>
      <trkpt lat="45.06846" lon="-0.61035">
        <ele>48.5</ele>
        <time>2024-11-23T09:59:15Z</time>
      </trkpt>
      <trkpt lat="45.06847" lon="-0.61034">
        <ele>48.6</ele>
        <time>2024-11-23T09:59:16Z</time>
      </trkpt>
      <trkpt lat="45.06849" lon="-0.61032">
        <ele>48.8</ele>
        <time>2024-11-23T09:59:17Z</time>
      </trkpt>
      <trkpt lat="45.06849" lon="-0.61031">
        <ele>48.9</ele>
        <time>2024-11-23T09:59:18Z</time>
      </trkpt>
      <trkpt lat="45.0685" lon="-0.6103">
        <ele>48.9</ele>
        <time>2024-11-23T09:59:19Z</time>
      </trkpt>
      <trkpt lat="45.06852" lon="-0.61028">
        <ele>49.1</ele>
        <time>2024-11-23T09:59:20Z</time>
      </trkpt>
      <trkpt lat="45.06852" lon="-0.61028">
        <ele>49.2</ele>
        <time>2024-11-23T09:59:21Z</time>
      </trkpt>
      <trkpt lat="45.06853" lon="-0.61027">
        <ele>49.3</ele>
        <time>2024-11-23T09:59:22Z</time>
      </trkpt>
      <trkpt lat="45.06854" lon="-0.61025">
        <ele>49.5</ele>
        <time>2024-11-23T09:59:23Z</time>
      </trkpt>
      <trkpt lat="45.06855" lon="-0.61024">
        <ele>49.5</ele>
        <time>2024-11-23T09:59:24Z</time>
      </trkpt>
      <trkpt lat="45.06856" lon="-0.61023">
        <ele>49.6</ele>
        <time>2024-11-23T09:59:25Z</time>
      </trkpt>
      <trkpt lat="45.06857" lon="-0.61022">
        <ele>49.7</ele>
        <time>2024-11-23T09:59:26Z</time>
      </trkpt>
      <trkpt lat="45.06858" lon="-0.61021">
        <ele>49.8</ele>
        <time>2024-11-23T09:59:27Z</time>
      </trkpt>
      <trkpt lat="45.06859" lon="-0.61019">
        <ele>50</ele>
        <time>2024-11-23T09:59:28Z</time>
      </trkpt>
      <trkpt lat="45.0686" lon="-0.61018">
        <ele>50.1</ele>
        <time>2024-11-23T09:59:29Z</time>
      </trkpt>
      <trkpt lat="45.06862" lon="-0.61016">
        <ele>50.2</ele>
        <time>2024-11-23T09:59:30Z</time>
      </trkpt>
      <trkpt lat="45.06862" lon="-0.61015">
        <ele>50.3</ele>
        <time>2024-11-23T09:59:31Z</time>
      </trkpt>
      <trkpt lat="45.06863" lon="-0.61014">
        <ele>50.4</ele>
        <time>2024-11-23T09:59:32Z</time>
      </trkpt>
      <trkpt lat="45.06864" lon="-0.61013">
        <ele>50.5</ele>
        <time>2024-11-23T09:59:33Z</time>
      </trkpt>
      <trkpt lat="45.06865" lon="-0.61012">
        <ele>50.6</ele>
        <time>2024-11-23T09:59:34Z</time>
      </trkpt>
      <trkpt lat="45.06866" lon="-0.6101">
        <ele>50.7</ele>
        <time>2024-11-23T09:59:35Z</time>
      </trkpt>
      <trkpt lat="45.06867" lon="-0.61009">
        <ele>50.8</ele>
        <time>2024-11-23T09:59:36Z</time>
      </trkpt>
      <trkpt lat="45.06868" lon="-0.61007">
        <ele>51</ele>
        <time>2024-11-23T09:59:37Z</time>
      </trkpt>
      <trkpt lat="45.06869" lon="-0.61005">
        <ele>51.1</ele>
        <time>2024-11-23T09:59:38Z</time>
      </trkpt>
      <trkpt lat="45.0687" lon="-0.61004">
        <ele>51.2</ele>
        <time>2024-11-23T09:59:39Z</time>
      </trkpt>
      <trkpt lat="45.0687" lon="-0.61003">
        <ele>51.3</ele>
        <time>2024-11-23T09:59:40Z</time>
      </trkpt>
      <trkpt lat="45.06871" lon="-0.61001">
        <ele>51.4</ele>
        <time>2024-11-23T09:59:41Z</time>
      </trkpt>
      <trkpt lat="45.06871" lon="-0.60999">
        <ele>51.5</ele>
        <time>2024-11-23T09:59:42Z</time>
      </trkpt>
      <trkpt lat="45.06872" lon="-0.60997">
        <ele>51.6</ele>
        <time>2024-11-23T09:59:43Z</time>
      </trkpt>
      <trkpt lat="45.06873" lon="-0.60994">
        <ele>51.8</ele>
        <time>2024-11-23T09:59:44Z</time>
      </trkpt>
      <trkpt lat="45.06873" lon="-0.60993">
        <ele>51.9</ele>
        <time>2024-11-23T09:59:45Z</time>
      </trkpt>
      <trkpt lat="45.06874" lon="-0.60992">
        <ele>52</ele>
        <time>2024-11-23T09:59:46Z</time>
      </trkpt>
      <trkpt lat="45.06874" lon="-0.6099">
        <ele>52.1</ele>
        <time>2024-11-23T09:59:47Z</time>
      </trkpt>
      <trkpt lat="45.06875" lon="-0.60988">
        <ele>52.2</ele>
        <time>2024-11-23T09:59:48Z</time>
      </trkpt>
      <trkpt lat="45.06876" lon="-0.60986">
        <ele>52.3</ele>
        <time>2024-11-23T09:59:49Z</time>
      </trkpt>
      <trkpt lat="45.06877" lon="-0.60985">
        <ele>52.5</ele>
        <time>2024-11-23T09:59:50Z</time>
      </trkpt>
      <trkpt lat="45.06899" lon="-0.60931">
        <ele>56</ele>
        <time>2024-11-23T10:00:23Z</time>
      </trkpt>
      <trkpt lat="45.06899" lon="-0.6093">
        <ele>56.1</ele>
        <time>2024-11-23T10:00:24Z</time>
      </trkpt>
      <trkpt lat="45.06898" lon="-0.60928">
        <ele>56.2</ele>
        <time>2024-11-23T10:00:25Z</time>
      </trkpt>
      <trkpt lat="45.06898" lon="-0.60927">
        <ele>56.3</ele>
        <time>2024-11-23T10:00:26Z</time>
      </trkpt>
      <trkpt lat="45.06899" lon="-0.60925">
        <ele>56.4</ele>
        <time>2024-11-23T10:00:27Z</time>
      </trkpt>
      <trkpt lat="45.06899" lon="-0.60923">
        <ele>56.5</ele>
        <time>2024-11-23T10:00:28Z</time>
      </trkpt>
      <trkpt lat="45.06899" lon="-0.60921">
        <ele>56.6</ele>
        <time>2024-11-23T10:00:29Z</time>
      </trkpt>
      <trkpt lat="45.06898" lon="-0.6092">
        <ele>56.6</ele>
        <time>2024-11-23T10:00:30Z</time>
      </trkpt>
      <trkpt lat="45.06898" lon="-0.60919">
        <ele>56.7</ele>
        <time>2024-11-23T10:00:31Z</time>
      </trkpt>
      <trkpt lat="45.06897" lon="-0.60917">
        <ele>56.8</ele>
        <time>2024-11-23T10:00:32Z</time>
      </trkpt>
      <trkpt lat="45.06896" lon="-0.60916">
        <ele>56.9</ele>
        <time>2024-11-23T10:00:33Z</time>
      </trkpt>
      <trkpt lat="45.06895" lon="-0.60914">
        <ele>57</ele>
        <time>2024-11-23T10:00:34Z</time>
      </trkpt>
      <trkpt lat="45.06894" lon="-0.60913">
        <ele>57</ele>
        <time>2024-11-23T10:00:35Z</time>
      </trkpt>
      <trkpt lat="45.06865" lon="-0.60875">
        <ele>57.2</ele>
        <time>2024-11-23T10:01:12Z</time>
      </trkpt>
      <trkpt lat="45.06864" lon="-0.60872">
        <ele>57.2</ele>
        <time>2024-11-23T10:01:13Z</time>
      </trkpt>
      <trkpt lat="45.06863" lon="-0.60869">
        <ele>57.2</ele>
        <time>2024-11-23T10:01:14Z</time>
      </trkpt>
      <trkpt lat="45.06861" lon="-0.60866">
        <ele>57.1</ele>
        <time>2024-11-23T10:01:15Z</time>
      </trkpt>
      <trkpt lat="45.0686" lon="-0.60865">
        <ele>57.1</ele>
        <time>2024-11-23T10:01:16Z</time>
      </trkpt>
      <trkpt lat="45.06859" lon="-0.60864">
        <ele>57.1</ele>
        <time>2024-11-23T10:01:17Z</time>
      </trkpt>
      <trkpt lat="45.06858" lon="-0.60862">
        <ele>57.1</ele>
        <time>2024-11-23T10:01:18Z</time>
      </trkpt>
      <trkpt lat="45.06857" lon="-0.60861">
        <ele>57.1</ele>
        <time>2024-11-23T10:01:19Z</time>
      </trkpt>
      <trkpt lat="45.06849" lon="-0.60851">
        <ele>56.9</ele>
        <time>2024-11-23T10:01:20Z</time>
      </trkpt>
      <trkpt lat="45.06843" lon="-0.60842">
        <ele>56.7</ele>
        <time>2024-11-23T10:01:43Z</time>
      </trkpt>
      <trkpt lat="45.06836" lon="-0.60833">
        <ele>56.5</ele>
        <time>2024-11-23T10:01:44Z</time>
      </trkpt>
      <trkpt lat="45.06829" lon="-0.60824">
        <ele>56.4</ele>
        <time>2024-11-23T10:01:45Z</time>
      </trkpt>
      <trkpt lat="45.06828" lon="-0.60823">
        <ele>56.4</ele>
        <time>2024-11-23T10:01:46Z</time>
      </trkpt>
      <trkpt lat="45.06827" lon="-0.60822">
        <ele>56.4</ele>
        <time>2024-11-23T10:01:47Z</time>
      </trkpt>
      <trkpt lat="45.06825" lon="-0.60821">
        <ele>56.3</ele>
        <time>2024-11-23T10:01:48Z</time>
      </trkpt>
      <trkpt lat="45.06824" lon="-0.60819">
        <ele>56.3</ele>
        <time>2024-11-23T10:01:49Z</time>
      </trkpt>
      <trkpt lat="45.06822" lon="-0.60817">
        <ele>56.3</ele>
        <time>2024-11-23T10:01:50Z</time>
      </trkpt>
      <trkpt lat="45.06822" lon="-0.60816">
        <ele>56.3</ele>
        <time>2024-11-23T10:01:51Z</time>
      </trkpt>
      <trkpt lat="45.06821" lon="-0.60816">
        <ele>56.3</ele>
        <time>2024-11-23T10:01:52Z</time>
      </trkpt>
      <trkpt lat="45.0682" lon="-0.60814">
        <ele>56.3</ele>
        <time>2024-11-23T10:01:53Z</time>
      </trkpt>
      <trkpt lat="45.06819" lon="-0.60813">
        <ele>56.3</ele>
        <time>2024-11-23T10:01:54Z</time>
      </trkpt>
      <trkpt lat="45.06817" lon="-0.60812">
        <ele>56.3</ele>
        <time>2024-11-23T10:01:55Z</time>
      </trkpt>
      <trkpt lat="45.06816" lon="-0.60811">
        <ele>56.3</ele>
        <time>2024-11-23T10:01:56Z</time>
      </trkpt>
      <trkpt lat="45.06814" lon="-0.6081">
        <ele>56.3</ele>
        <time>2024-11-23T10:01:57Z</time>
      </trkpt>
      <trkpt lat="45.06814" lon="-0.60809">
        <ele>56.3</ele>
        <time>2024-11-23T10:01:58Z</time>
      </trkpt>
      <trkpt lat="45.06813" lon="-0.60808">
        <ele>56.3</ele>
        <time>2024-11-23T10:01:59Z</time>
      </trkpt>
      <trkpt lat="45.06812" lon="-0.60807">
        <ele>56.3</ele>
        <time>2024-11-23T10:02:00Z</time>
      </trkpt>
      <trkpt lat="45.0681" lon="-0.60806">
        <ele>56.3</ele>
        <time>2024-11-23T10:02:01Z</time>
      </trkpt>
      <trkpt lat="45.06809" lon="-0.60805">
        <ele>56.3</ele>
        <time>2024-11-23T10:02:02Z</time>
      </trkpt>
      <trkpt lat="45.06808" lon="-0.60804">
        <ele>56.3</ele>
        <time>2024-11-23T10:02:03Z</time>
      </trkpt>
      <trkpt lat="45.06807" lon="-0.60802">
        <ele>56.3</ele>
        <time>2024-11-23T10:02:04Z</time>
      </trkpt>
      <trkpt lat="45.06805" lon="-0.60801">
        <ele>56.3</ele>
        <time>2024-11-23T10:02:05Z</time>
      </trkpt>
      <trkpt lat="45.06803" lon="-0.60799">
        <ele>56.3</ele>
        <time>2024-11-23T10:02:06Z</time>
      </trkpt>
      <trkpt lat="45.06802" lon="-0.60798">
        <ele>56.3</ele>
        <time>2024-11-23T10:02:08Z</time>
      </trkpt>
      <trkpt lat="45.06801" lon="-0.60797">
        <ele>56.3</ele>
        <time>2024-11-23T10:02:09Z</time>
      </trkpt>
      <trkpt lat="45.06799" lon="-0.60796">
        <ele>56.4</ele>
        <time>2024-11-23T10:02:10Z</time>
      </trkpt>
      <trkpt lat="45.06798" lon="-0.60794">
        <ele>56.4</ele>
        <time>2024-11-23T10:02:11Z</time>
      </trkpt>
      <trkpt lat="45.06797" lon="-0.60793">
        <ele>56.4</ele>
        <time>2024-11-23T10:02:12Z</time>
      </trkpt>
      <trkpt lat="45.06796" lon="-0.60792">
        <ele>56.4</ele>
        <time>2024-11-23T10:02:13Z</time>
      </trkpt>
      <trkpt lat="45.06795" lon="-0.60791">
        <ele>56.4</ele>
        <time>2024-11-23T10:02:14Z</time>
      </trkpt>
      <trkpt lat="45.06793" lon="-0.6079">
        <ele>56.4</ele>
        <time>2024-11-23T10:02:15Z</time>
      </trkpt>
      <trkpt lat="45.06792" lon="-0.60789">
        <ele>56.4</ele>
        <time>2024-11-23T10:02:16Z</time>
      </trkpt>
      <trkpt lat="45.06791" lon="-0.60788">
        <ele>56.4</ele>
        <time>2024-11-23T10:02:17Z</time>
      </trkpt>
      <trkpt lat="45.06789" lon="-0.60786">
        <ele>56.4</ele>
        <time>2024-11-23T10:02:18Z</time>
      </trkpt>
      <trkpt lat="45.06788" lon="-0.60785">
        <ele>56.4</ele>
        <time>2024-11-23T10:02:19Z</time>
      </trkpt>
      <trkpt lat="45.06787" lon="-0.60785">
        <ele>56.5</ele>
        <time>2024-11-23T10:02:20Z</time>
      </trkpt>
      <trkpt lat="45.06726" lon="-0.60757">
        <ele>55.5</ele>
        <time>2024-11-23T10:03:08Z</time>
      </trkpt>
      <trkpt lat="45.06724" lon="-0.60756">
        <ele>55.4</ele>
        <time>2024-11-23T10:03:09Z</time>
      </trkpt>
      <trkpt lat="45.06722" lon="-0.60754">
        <ele>55.4</ele>
        <time>2024-11-23T10:03:10Z</time>
      </trkpt>
      <trkpt lat="45.0672" lon="-0.60752">
        <ele>55.4</ele>
        <time>2024-11-23T10:03:11Z</time>
      </trkpt>
      <trkpt lat="45.0672" lon="-0.60751">
        <ele>55.5</ele>
        <time>2024-11-23T10:03:12Z</time>
      </trkpt>
      <trkpt lat="45.0672" lon="-0.60748">
        <ele>55.5</ele>
        <time>2024-11-23T10:03:13Z</time>
      </trkpt>
      <trkpt lat="45.06719" lon="-0.60746">
        <ele>55.5</ele>
        <time>2024-11-23T10:03:14Z</time>
      </trkpt>
      <trkpt lat="45.06719" lon="-0.60744">
        <ele>55.5</ele>
        <time>2024-11-23T10:03:15Z</time>
      </trkpt>
      <trkpt lat="45.06719" lon="-0.60742">
        <ele>55.5</ele>
        <time>2024-11-23T10:03:16Z</time>
      </trkpt>
      <trkpt lat="45.06718" lon="-0.6074">
        <ele>55.6</ele>
        <time>2024-11-23T10:03:17Z</time>
      </trkpt>
      <trkpt lat="45.06717" lon="-0.60737">
        <ele>55.6</ele>
        <time>2024-11-23T10:03:18Z</time>
      </trkpt>
      <trkpt lat="45.06717" lon="-0.60736">
        <ele>55.6</ele>
        <time>2024-11-23T10:03:19Z</time>
      </trkpt>
      <trkpt lat="45.06716" lon="-0.60735">
        <ele>55.6</ele>
        <time>2024-11-23T10:03:20Z</time>
      </trkpt>
      <trkpt lat="45.06711" lon="-0.60721">
        <ele>55.8</ele>
        <time>2024-11-23T10:03:21Z</time>
      </trkpt>
      <trkpt lat="45.06707" lon="-0.60709">
        <ele>56</ele>
        <time>2024-11-23T10:03:52Z</time>
      </trkpt>
      <trkpt lat="45.06703" lon="-0.60696">
        <ele>56.2</ele>
        <time>2024-11-23T10:03:53Z</time>
      </trkpt>
      <trkpt lat="45.06698" lon="-0.60684">
        <ele>56.5</ele>
        <time>2024-11-23T10:03:54Z</time>
      </trkpt>
      <trkpt lat="45.06694" lon="-0.60672">
        <ele>56.8</ele>
        <time>2024-11-23T10:03:55Z</time>
      </trkpt>
      <trkpt lat="45.06693" lon="-0.6067">
        <ele>56.8</ele>
        <time>2024-11-23T10:03:56Z</time>
      </trkpt>
      <trkpt lat="45.06693" lon="-0.60668">
        <ele>56.9</ele>
        <time>2024-11-23T10:03:57Z</time>
      </trkpt>
      <trkpt lat="45.06692" lon="-0.60666">
        <ele>57</ele>
        <time>2024-11-23T10:03:58Z</time>
      </trkpt>
      <trkpt lat="45.06691" lon="-0.60664">
        <ele>57</ele>
        <time>2024-11-23T10:03:59Z</time>
      </trkpt>
      <trkpt lat="45.0669" lon="-0.60662">
        <ele>57.1</ele>
        <time>2024-11-23T10:04:00Z</time>
      </trkpt>
      <trkpt lat="45.0669" lon="-0.60661">
        <ele>57.2</ele>
        <time>2024-11-23T10:04:01Z</time>
      </trkpt>
      <trkpt lat="45.06689" lon="-0.6066">
        <ele>57.2</ele>
        <time>2024-11-23T10:04:02Z</time>
      </trkpt>
      <trkpt lat="45.06688" lon="-0.60657">
        <ele>57.3</ele>
        <time>2024-11-23T10:04:03Z</time>
      </trkpt>
      <trkpt lat="45.06688" lon="-0.60656">
        <ele>57.3</ele>
        <time>2024-11-23T10:04:04Z</time>
      </trkpt>
      <trkpt lat="45.06687" lon="-0.60655">
        <ele>57.4</ele>
        <time>2024-11-23T10:04:05Z</time>
      </trkpt>
      <trkpt lat="45.06687" lon="-0.60653">
        <ele>57.4</ele>
        <time>2024-11-23T10:04:06Z</time>
      </trkpt>
      <trkpt lat="45.06663" lon="-0.60537">
        <ele>60.1</ele>
        <time>2024-11-23T10:05:03Z</time>
      </trkpt>
      <trkpt lat="45.06662" lon="-0.60534">
        <ele>60.1</ele>
        <time>2024-11-23T10:05:04Z</time>
      </trkpt>
      <trkpt lat="45.06662" lon="-0.60533">
        <ele>60.1</ele>
        <time>2024-11-23T10:05:05Z</time>
      </trkpt>
      <trkpt lat="45.06662" lon="-0.60531">
        <ele>60.1</ele>
        <time>2024-11-23T10:05:06Z</time>
      </trkpt>
      <trkpt lat="45.0665" lon="-0.60445">
        <ele>60.6</ele>
        <time>2024-11-23T10:05:54Z</time>
      </trkpt>
      <trkpt lat="45.06647" lon="-0.6044">
        <ele>60.6</ele>
        <time>2024-11-23T10:05:55Z</time>
      </trkpt>
      <trkpt lat="45.06644" lon="-0.60436">
        <ele>60.7</ele>
        <time>2024-11-23T10:05:56Z</time>
      </trkpt>
      <trkpt lat="45.06642" lon="-0.60431">
        <ele>60.7</ele>
        <time>2024-11-23T10:05:57Z</time>
      </trkpt>
      <trkpt lat="45.06641" lon="-0.60429">
        <ele>60.7</ele>
        <time>2024-11-23T10:05:58Z</time>
      </trkpt>
      <trkpt lat="45.0664" lon="-0.60428">
        <ele>60.7</ele>
        <time>2024-11-23T10:05:59Z</time>
      </trkpt>
      <trkpt lat="45.06638" lon="-0.60426">
        <ele>60.7</ele>
        <time>2024-11-23T10:06:00Z</time>
      </trkpt>
      <trkpt lat="45.06637" lon="-0.60425">
        <ele>60.7</ele>
        <time>2024-11-23T10:06:01Z</time>
      </trkpt>
      <trkpt lat="45.06636" lon="-0.60423">
        <ele>60.7</ele>
        <time>2024-11-23T10:06:02Z</time>
      </trkpt>
      <trkpt lat="45.06635" lon="-0.60422">
        <ele>60.7</ele>
        <time>2024-11-23T10:06:03Z</time>
      </trkpt>
      <trkpt lat="45.06635" lon="-0.60421">
        <ele>60.7</ele>
        <time>2024-11-23T10:06:04Z</time>
      </trkpt>
      <trkpt lat="45.06633" lon="-0.6042">
        <ele>60.7</ele>
        <time>2024-11-23T10:06:05Z</time>
      </trkpt>
      <trkpt lat="45.06632" lon="-0.60418">
        <ele>60.7</ele>
        <time>2024-11-23T10:06:06Z</time>
      </trkpt>
      <trkpt lat="45.06572" lon="-0.60351">
        <ele>60.7</ele>
        <time>2024-11-23T10:06:54Z</time>
      </trkpt>
      <trkpt lat="45.06571" lon="-0.6035">
        <ele>60.7</ele>
        <time>2024-11-23T10:06:55Z</time>
      </trkpt>
      <trkpt lat="45.0657" lon="-0.60349">
        <ele>60.7</ele>
        <time>2024-11-23T10:06:56Z</time>
      </trkpt>
      <trkpt lat="45.06569" lon="-0.60348">
        <ele>60.7</ele>
        <time>2024-11-23T10:06:57Z</time>
      </trkpt>
      <trkpt lat="45.06568" lon="-0.60347">
        <ele>60.7</ele>
        <time>2024-11-23T10:06:58Z</time>
      </trkpt>
      <trkpt lat="45.06567" lon="-0.60345">
        <ele>60.7</ele>
        <time>2024-11-23T10:06:59Z</time>
      </trkpt>
      <trkpt lat="45.06566" lon="-0.60343">
        <ele>60.7</ele>
        <time>2024-11-23T10:07:00Z</time>
      </trkpt>
      <trkpt lat="45.06565" lon="-0.60342">
        <ele>60.7</ele>
        <time>2024-11-23T10:07:01Z</time>
      </trkpt>
      <trkpt lat="45.06563" lon="-0.60341">
        <ele>60.7</ele>
        <time>2024-11-23T10:07:02Z</time>
      </trkpt>
      <trkpt lat="45.06562" lon="-0.60339">
        <ele>60.7</ele>
        <time>2024-11-23T10:07:03Z</time>
      </trkpt>
      <trkpt lat="45.06561" lon="-0.60338">
        <ele>60.7</ele>
        <time>2024-11-23T10:07:04Z</time>
      </trkpt>
      <trkpt lat="45.0656" lon="-0.60337">
        <ele>60.7</ele>
        <time>2024-11-23T10:07:05Z</time>
      </trkpt>
      <trkpt lat="45.06549" lon="-0.60325">
        <ele>60.6</ele>
        <time>2024-11-23T10:07:06Z</time>
      </trkpt>
      <trkpt lat="45.0654" lon="-0.60314">
        <ele>60.6</ele>
        <time>2024-11-23T10:07:51Z</time>
      </trkpt>
      <trkpt lat="45.0653" lon="-0.60303">
        <ele>60.6</ele>
        <time>2024-11-23T10:07:52Z</time>
      </trkpt>
      <trkpt lat="45.06521" lon="-0.60292">
        <ele>60.5</ele>
        <time>2024-11-23T10:07:53Z</time>
      </trkpt>
      <trkpt lat="45.06511" lon="-0.60281">
        <ele>60.5</ele>
        <time>2024-11-23T10:07:54Z</time>
      </trkpt>
      <trkpt lat="45.06502" lon="-0.6027">
        <ele>60.4</ele>
        <time>2024-11-23T10:07:55Z</time>
      </trkpt>
      <trkpt lat="45.06501" lon="-0.60269">
        <ele>60.4</ele>
        <time>2024-11-23T10:07:56Z</time>
      </trkpt>
      <trkpt lat="45.065" lon="-0.60267">
        <ele>60.4</ele>
        <time>2024-11-23T10:07:57Z</time>
      </trkpt>
      <trkpt lat="45.06499" lon="-0.60266">
        <ele>60.4</ele>
        <time>2024-11-23T10:07:58Z</time>
      </trkpt>
      <trkpt lat="45.06498" lon="-0.60264">
        <ele>60.4</ele>
        <time>2024-11-23T10:07:59Z</time>
      </trkpt>
      <trkpt lat="45.06497" lon="-0.60263">
        <ele>60.4</ele>
        <time>2024-11-23T10:08:00Z</time>
      </trkpt>
      <trkpt lat="45.06496" lon="-0.60261">
        <ele>60.4</ele>
        <time>2024-11-23T10:08:01Z</time>
      </trkpt>
      <trkpt lat="45.06495" lon="-0.60258">
        <ele>60.3</ele>
        <time>2024-11-23T10:08:02Z</time>
      </trkpt>
      <trkpt lat="45.06494" lon="-0.60258">
        <ele>60.3</ele>
        <time>2024-11-23T10:08:03Z</time>
      </trkpt>
      <trkpt lat="45.06493" lon="-0.60257">
        <ele>60.3</ele>
        <time>2024-11-23T10:08:04Z</time>
      </trkpt>
      <trkpt lat="45.06492" lon="-0.60255">
        <ele>60.3</ele>
        <time>2024-11-23T10:08:05Z</time>
      </trkpt>
      <trkpt lat="45.06491" lon="-0.60253">
        <ele>60.3</ele>
        <time>2024-11-23T10:08:06Z</time>
      </trkpt>
      <trkpt lat="45.06453" lon="-0.60185">
        <ele>60.5</ele>
        <time>2024-11-23T10:08:46Z</time>
      </trkpt>
      <trkpt lat="45.06452" lon="-0.60184">
        <ele>60.5</ele>
        <time>2024-11-23T10:08:47Z</time>
      </trkpt>
      <trkpt lat="45.06451" lon="-0.60184">
        <ele>60.5</ele>
        <time>2024-11-23T10:08:48Z</time>
      </trkpt>
      <trkpt lat="45.0645" lon="-0.60183">
        <ele>60.5</ele>
        <time>2024-11-23T10:08:49Z</time>
      </trkpt>
      <trkpt lat="45.06448" lon="-0.60182">
        <ele>60.6</ele>
        <time>2024-11-23T10:08:50Z</time>
      </trkpt>
      <trkpt lat="45.06447" lon="-0.6018">
        <ele>60.6</ele>
        <time>2024-11-23T10:08:51Z</time>
      </trkpt>
      <trkpt lat="45.06407" lon="-0.60201">
        <ele>60</ele>
        <time>2024-11-23T10:09:22Z</time>
      </trkpt>
      <trkpt lat="45.06404" lon="-0.60202">
        <ele>60</ele>
        <time>2024-11-23T10:09:23Z</time>
      </trkpt>
      <trkpt lat="45.06402" lon="-0.60204">
        <ele>60</ele>
        <time>2024-11-23T10:09:24Z</time>
      </trkpt>
      <trkpt lat="45.064" lon="-0.60205">
        <ele>60</ele>
        <time>2024-11-23T10:09:25Z</time>
      </trkpt>
      <trkpt lat="45.06398" lon="-0.60206">
        <ele>59.9</ele>
        <time>2024-11-23T10:09:26Z</time>
      </trkpt>
      <trkpt lat="45.06397" lon="-0.60207">
        <ele>59.9</ele>
        <time>2024-11-23T10:09:27Z</time>
      </trkpt>
      <trkpt lat="45.06397" lon="-0.60207">
        <ele>59.9</ele>
        <time>2024-11-23T10:09:28Z</time>
      </trkpt>
      <trkpt lat="45.06395" lon="-0.60207">
        <ele>59.9</ele>
        <time>2024-11-23T10:09:29Z</time>
      </trkpt>
      <trkpt lat="45.06393" lon="-0.60208">
        <ele>59.9</ele>
        <time>2024-11-23T10:09:30Z</time>
      </trkpt>
      <trkpt lat="45.06392" lon="-0.60209">
        <ele>59.9</ele>
        <time>2024-11-23T10:09:31Z</time>
      </trkpt>
      <trkpt lat="45.0639" lon="-0.6021">
        <ele>59.9</ele>
        <time>2024-11-23T10:09:32Z</time>
      </trkpt>
      <trkpt lat="45.06389" lon="-0.60211">
        <ele>59.9</ele>
        <time>2024-11-23T10:09:33Z</time>
      </trkpt>
      <trkpt lat="45.06388" lon="-0.60211">
        <ele>59.9</ele>
        <time>2024-11-23T10:09:34Z</time>
      </trkpt>
      <trkpt lat="45.06386" lon="-0.60212">
        <ele>59.9</ele>
        <time>2024-11-23T10:09:35Z</time>
      </trkpt>
      <trkpt lat="45.06385" lon="-0.60212">
        <ele>59.8</ele>
        <time>2024-11-23T10:09:36Z</time>
      </trkpt>
      <trkpt lat="45.06336" lon="-0.60205">
        <ele>59.7</ele>
        <time>2024-11-23T10:10:07Z</time>
      </trkpt>
      <trkpt lat="45.06335" lon="-0.60204">
        <ele>59.7</ele>
        <time>2024-11-23T10:10:08Z</time>
      </trkpt>
      <trkpt lat="45.06334" lon="-0.60203">
        <ele>59.7</ele>
        <time>2024-11-23T10:10:09Z</time>
      </trkpt>
      <trkpt lat="45.06334" lon="-0.60202">
        <ele>59.7</ele>
        <time>2024-11-23T10:10:10Z</time>
      </trkpt>
      <trkpt lat="45.06332" lon="-0.60201">
        <ele>59.7</ele>
        <time>2024-11-23T10:10:11Z</time>
      </trkpt>
      <trkpt lat="45.06331" lon="-0.60199">
        <ele>59.7</ele>
        <time>2024-11-23T10:10:12Z</time>
      </trkpt>
      <trkpt lat="45.0633" lon="-0.60197">
        <ele>59.7</ele>
        <time>2024-11-23T10:10:13Z</time>
      </trkpt>
      <trkpt lat="45.06328" lon="-0.60196">
        <ele>59.7</ele>
        <time>2024-11-23T10:10:14Z</time>
      </trkpt>
      <trkpt lat="45.06327" lon="-0.60195">
        <ele>59.7</ele>
        <time>2024-11-23T10:10:15Z</time>
      </trkpt>
      <trkpt lat="45.06326" lon="-0.60193">
        <ele>59.7</ele>
        <time>2024-11-23T10:10:16Z</time>
      </trkpt>
      <trkpt lat="45.06325" lon="-0.60192">
        <ele>59.7</ele>
        <time>2024-11-23T10:10:17Z</time>
      </trkpt>
      <trkpt lat="45.06324" lon="-0.6019">
        <ele>59.7</ele>
        <time>2024-11-23T10:10:18Z</time>
      </trkpt>
      <trkpt lat="45.06322" lon="-0.60188">
        <ele>59.7</ele>
        <time>2024-11-23T10:10:19Z</time>
      </trkpt>
      <trkpt lat="45.06322" lon="-0.60187">
        <ele>59.7</ele>
        <time>2024-11-23T10:10:20Z</time>
      </trkpt>
      <trkpt lat="45.06321" lon="-0.60186">
        <ele>59.7</ele>
        <time>2024-11-23T10:10:21Z</time>
      </trkpt>
      <trkpt lat="45.06314" lon="-0.60172">
        <ele>59.7</ele>
        <time>2024-11-23T10:10:22Z</time>
      </trkpt>
      <trkpt lat="45.06309" lon="-0.60159">
        <ele>59.8</ele>
        <time>2024-11-23T10:10:53Z</time>
      </trkpt>
      <trkpt lat="45.06303" lon="-0.60146">
        <ele>59.7</ele>
        <time>2024-11-23T10:10:54Z</time>
      </trkpt>
      <trkpt lat="45.06298" lon="-0.60133">
        <ele>59.6</ele>
        <time>2024-11-23T10:10:55Z</time>
      </trkpt>
      <trkpt lat="45.06292" lon="-0.6012">
        <ele>59.5</ele>
        <time>2024-11-23T10:10:56Z</time>
      </trkpt>
      <trkpt lat="45.06292" lon="-0.60117">
        <ele>59.4</ele>
        <time>2024-11-23T10:10:57Z</time>
      </trkpt>
      <trkpt lat="45.06291" lon="-0.60116">
        <ele>59.4</ele>
        <time>2024-11-23T10:10:58Z</time>
      </trkpt>
      <trkpt lat="45.0629" lon="-0.60114">
        <ele>59.4</ele>
        <time>2024-11-23T10:10:59Z</time>
      </trkpt>
      <trkpt lat="45.0629" lon="-0.60112">
        <ele>59.4</ele>
        <time>2024-11-23T10:11:00Z</time>
      </trkpt>
      <trkpt lat="45.06288" lon="-0.6011">
        <ele>59.3</ele>
        <time>2024-11-23T10:11:01Z</time>
      </trkpt>
      <trkpt lat="45.06288" lon="-0.60108">
        <ele>59.3</ele>
        <time>2024-11-23T10:11:02Z</time>
      </trkpt>
      <trkpt lat="45.06287" lon="-0.60107">
        <ele>59.3</ele>
        <time>2024-11-23T10:11:03Z</time>
      </trkpt>
      <trkpt lat="45.06287" lon="-0.60105">
        <ele>59.3</ele>
        <time>2024-11-23T10:11:04Z</time>
      </trkpt>
      <trkpt lat="45.06286" lon="-0.60103">
        <ele>59.3</ele>
        <time>2024-11-23T10:11:05Z</time>
      </trkpt>
      <trkpt lat="45.06285" lon="-0.60101">
        <ele>59.3</ele>
        <time>2024-11-23T10:11:06Z</time>
      </trkpt>
      <trkpt lat="45.06284" lon="-0.60099">
        <ele>59.2</ele>
        <time>2024-11-23T10:11:07Z</time>
      </trkpt>
      <trkpt lat="45.06255" lon="-0.6001">
        <ele>58.1</ele>
        <time>2024-11-23T10:11:54Z</time>
      </trkpt>
      <trkpt lat="45.06255" lon="-0.60008">
        <ele>58</ele>
        <time>2024-11-23T10:11:55Z</time>
      </trkpt>
      <trkpt lat="45.06255" lon="-0.60007">
        <ele>58</ele>
        <time>2024-11-23T10:11:56Z</time>
      </trkpt>
      <trkpt lat="45.06255" lon="-0.60005">
        <ele>58</ele>
        <time>2024-11-23T10:11:57Z</time>
      </trkpt>
      <trkpt lat="45.06256" lon="-0.60003">
        <ele>57.9</ele>
        <time>2024-11-23T10:11:58Z</time>
      </trkpt>
      <trkpt lat="45.06256" lon="-0.60001">
        <ele>57.9</ele>
        <time>2024-11-23T10:11:59Z</time>
      </trkpt>
      <trkpt lat="45.06257" lon="-0.59999">
        <ele>57.8</ele>
        <time>2024-11-23T10:12:00Z</time>
      </trkpt>
      <trkpt lat="45.06257" lon="-0.59997">
        <ele>57.8</ele>
        <time>2024-11-23T10:12:01Z</time>
      </trkpt>
      <trkpt lat="45.06258" lon="-0.59994">
        <ele>57.8</ele>
        <time>2024-11-23T10:12:02Z</time>
      </trkpt>
      <trkpt lat="45.06258" lon="-0.59992">
        <ele>57.7</ele>
        <time>2024-11-23T10:12:03Z</time>
      </trkpt>
      <trkpt lat="45.06258" lon="-0.5999">
        <ele>57.7</ele>
        <time>2024-11-23T10:12:04Z</time>
      </trkpt>
      <trkpt lat="45.06259" lon="-0.59988">
        <ele>57.7</ele>
        <time>2024-11-23T10:12:05Z</time>
      </trkpt>
      <trkpt lat="45.06259" lon="-0.59986">
        <ele>57.6</ele>
        <time>2024-11-23T10:12:06Z</time>
      </trkpt>
      <trkpt lat="45.0626" lon="-0.59984">
        <ele>57.6</ele>
        <time>2024-11-23T10:12:07Z</time>
      </trkpt>
      <trkpt lat="45.06273" lon="-0.59916">
        <ele>56.9</ele>
        <time>2024-11-23T10:12:38Z</time>
      </trkpt>
      <trkpt lat="45.06274" lon="-0.59914">
        <ele>56.9</ele>
        <time>2024-11-23T10:12:39Z</time>
      </trkpt>
      <trkpt lat="45.06274" lon="-0.59912">
        <ele>56.9</ele>
        <time>2024-11-23T10:12:40Z</time>
      </trkpt>
      <trkpt lat="45.06274" lon="-0.5991">
        <ele>56.9</ele>
        <time>2024-11-23T10:12:41Z</time>
      </trkpt>
      <trkpt lat="45.06274" lon="-0.59908">
        <ele>56.9</ele>
        <time>2024-11-23T10:12:42Z</time>
      </trkpt>
      <trkpt lat="45.06274" lon="-0.59906">
        <ele>56.9</ele>
        <time>2024-11-23T10:12:43Z</time>
      </trkpt>
      <trkpt lat="45.06274" lon="-0.59904">
        <ele>56.8</ele>
        <time>2024-11-23T10:12:44Z</time>
      </trkpt>
      <trkpt lat="45.06274" lon="-0.59902">
        <ele>56.8</ele>
        <time>2024-11-23T10:12:45Z</time>
      </trkpt>
      <trkpt lat="45.06274" lon="-0.599">
        <ele>56.8</ele>
        <time>2024-11-23T10:12:46Z</time>
      </trkpt>
      <trkpt lat="45.06273" lon="-0.59898">
        <ele>56.8</ele>
        <time>2024-11-23T10:12:47Z</time>
      </trkpt>
      <trkpt lat="45.06273" lon="-0.59895">
        <ele>56.8</ele>
        <time>2024-11-23T10:12:48Z</time>
      </trkpt>
      <trkpt lat="45.06273" lon="-0.59893">
        <ele>56.8</ele>
        <time>2024-11-23T10:12:49Z</time>
      </trkpt>
      <trkpt lat="45.06273" lon="-0.59892">
        <ele>56.7</ele>
        <time>2024-11-23T10:12:50Z</time>
      </trkpt>
      <trkpt lat="45.06273" lon="-0.5989">
        <ele>56.7</ele>
        <time>2024-11-23T10:12:51Z</time>
      </trkpt>
      <trkpt lat="45.06272" lon="-0.59888">
        <ele>56.7</ele>
        <time>2024-11-23T10:12:52Z</time>
      </trkpt>
      <trkpt lat="45.06271" lon="-0.59886">
        <ele>56.7</ele>
        <time>2024-11-23T10:12:53Z</time>
      </trkpt>
      <trkpt lat="45.06271" lon="-0.59884">
        <ele>56.7</ele>
        <time>2024-11-23T10:12:54Z</time>
      </trkpt>
      <trkpt lat="45.0627" lon="-0.59883">
        <ele>56.7</ele>
        <time>2024-11-23T10:12:55Z</time>
      </trkpt>
      <trkpt lat="45.0627" lon="-0.59881">
        <ele>56.7</ele>
        <time>2024-11-23T10:12:56Z</time>
      </trkpt>
      <trkpt lat="45.06269" lon="-0.59878">
        <ele>56.6</ele>
        <time>2024-11-23T10:12:57Z</time>
      </trkpt>
      <trkpt lat="45.06269" lon="-0.59876">
        <ele>56.6</ele>
        <time>2024-11-23T10:12:58Z</time>
      </trkpt>
      <trkpt lat="45.06269" lon="-0.59875">
        <ele>56.6</ele>
        <time>2024-11-23T10:12:59Z</time>
      </trkpt>
      <trkpt lat="45.06267" lon="-0.59872">
        <ele>56.6</ele>
        <time>2024-11-23T10:13:00Z</time>
      </trkpt>
      <trkpt lat="45.06267" lon="-0.59871">
        <ele>56.6</ele>
        <time>2024-11-23T10:13:01Z</time>
      </trkpt>
      <trkpt lat="45.06266" lon="-0.59869">
        <ele>56.6</ele>
        <time>2024-11-23T10:13:02Z</time>
      </trkpt>
      <trkpt lat="45.06265" lon="-0.59867">
        <ele>56.5</ele>
        <time>2024-11-23T10:13:03Z</time>
      </trkpt>
      <trkpt lat="45.06264" lon="-0.59865">
        <ele>56.5</ele>
        <time>2024-11-23T10:13:04Z</time>
      </trkpt>
      <trkpt lat="45.06263" lon="-0.59864">
        <ele>56.5</ele>
        <time>2024-11-23T10:13:05Z</time>
      </trkpt>
      <trkpt lat="45.06263" lon="-0.59862">
        <ele>56.5</ele>
        <time>2024-11-23T10:13:06Z</time>
      </trkpt>
      <trkpt lat="45.06262" lon="-0.59861">
        <ele>56.5</ele>
        <time>2024-11-23T10:13:07Z</time>
      </trkpt>
      <trkpt lat="45.0626" lon="-0.59859">
        <ele>56.5</ele>
        <time>2024-11-23T10:13:08Z</time>
      </trkpt>
      <trkpt lat="45.0626" lon="-0.59858">
        <ele>56.4</ele>
        <time>2024-11-23T10:13:09Z</time>
      </trkpt>
      <trkpt lat="45.06259" lon="-0.59857">
        <ele>56.4</ele>
        <time>2024-11-23T10:13:10Z</time>
      </trkpt>
      <trkpt lat="45.06258" lon="-0.59856">
        <ele>56.4</ele>
        <time>2024-11-23T10:13:11Z</time>
      </trkpt>
      <trkpt lat="45.06257" lon="-0.59854">
        <ele>56.4</ele>
        <time>2024-11-23T10:13:12Z</time>
      </trkpt>
      <trkpt lat="45.06256" lon="-0.59852">
        <ele>56.4</ele>
        <time>2024-11-23T10:13:13Z</time>
      </trkpt>
      <trkpt lat="45.06255" lon="-0.59851">
        <ele>56.4</ele>
        <time>2024-11-23T10:13:14Z</time>
      </trkpt>
      <trkpt lat="45.06253" lon="-0.59849">
        <ele>56.3</ele>
        <time>2024-11-23T10:13:15Z</time>
      </trkpt>
      <trkpt lat="45.06253" lon="-0.59848">
        <ele>56.3</ele>
        <time>2024-11-23T10:13:16Z</time>
      </trkpt>
      <trkpt lat="45.06252" lon="-0.59847">
        <ele>56.3</ele>
        <time>2024-11-23T10:13:17Z</time>
      </trkpt>
      <trkpt lat="45.06251" lon="-0.59845">
        <ele>56.3</ele>
        <time>2024-11-23T10:13:18Z</time>
      </trkpt>
      <trkpt lat="45.0625" lon="-0.59844">
        <ele>56.3</ele>
        <time>2024-11-23T10:13:19Z</time>
      </trkpt>
      <trkpt lat="45.06249" lon="-0.59843">
        <ele>56.2</ele>
        <time>2024-11-23T10:13:20Z</time>
      </trkpt>
      <trkpt lat="45.06248" lon="-0.59842">
        <ele>56.2</ele>
        <time>2024-11-23T10:13:21Z</time>
      </trkpt>
      <trkpt lat="45.06247" lon="-0.59841">
        <ele>56.2</ele>
        <time>2024-11-23T10:13:22Z</time>
      </trkpt>
      <trkpt lat="45.06246" lon="-0.5984">
        <ele>56.2</ele>
        <time>2024-11-23T10:13:23Z</time>
      </trkpt>
      <trkpt lat="45.06245" lon="-0.59838">
        <ele>56.2</ele>
        <time>2024-11-23T10:13:24Z</time>
      </trkpt>
      <trkpt lat="45.06244" lon="-0.59836">
        <ele>56.1</ele>
        <time>2024-11-23T10:13:25Z</time>
      </trkpt>
      <trkpt lat="45.06243" lon="-0.59835">
        <ele>56.1</ele>
        <time>2024-11-23T10:13:26Z</time>
      </trkpt>
      <trkpt lat="45.06243" lon="-0.59834">
        <ele>56.1</ele>
        <time>2024-11-23T10:13:27Z</time>
      </trkpt>
      <trkpt lat="45.06241" lon="-0.59832">
        <ele>56.1</ele>
        <time>2024-11-23T10:13:28Z</time>
      </trkpt>
      <trkpt lat="45.0624" lon="-0.59831">
        <ele>56.1</ele>
        <time>2024-11-23T10:13:29Z</time>
      </trkpt>
      <trkpt lat="45.0624" lon="-0.5983">
        <ele>56.1</ele>
        <time>2024-11-23T10:13:30Z</time>
      </trkpt>
      <trkpt lat="45.06238" lon="-0.59829">
        <ele>56.1</ele>
        <time>2024-11-23T10:13:31Z</time>
      </trkpt>
      <trkpt lat="45.06238" lon="-0.59828">
        <ele>56</ele>
        <time>2024-11-23T10:13:32Z</time>
      </trkpt>
      <trkpt lat="45.06237" lon="-0.59826">
        <ele>56</ele>
        <time>2024-11-23T10:13:33Z</time>
      </trkpt>
      <trkpt lat="45.06236" lon="-0.59825">
        <ele>56</ele>
        <time>2024-11-23T10:13:34Z</time>
      </trkpt>
      <trkpt lat="45.06235" lon="-0.59823">
        <ele>56</ele>
        <time>2024-11-23T10:13:35Z</time>
      </trkpt>
      <trkpt lat="45.06234" lon="-0.59822">
        <ele>56</ele>
        <time>2024-11-23T10:13:36Z</time>
      </trkpt>
      <trkpt lat="45.06233" lon="-0.59821">
        <ele>56</ele>
        <time>2024-11-23T10:13:37Z</time>
      </trkpt>
      <trkpt lat="45.06232" lon="-0.59819">
        <ele>55.9</ele>
        <time>2024-11-23T10:13:38Z</time>
      </trkpt>
      <trkpt lat="45.06231" lon="-0.59818">
        <ele>55.9</ele>
        <time>2024-11-23T10:13:39Z</time>
      </trkpt>
      <trkpt lat="45.06231" lon="-0.59816">
        <ele>55.9</ele>
        <time>2024-11-23T10:13:40Z</time>
      </trkpt>
      <trkpt lat="45.0623" lon="-0.59814">
        <ele>55.9</ele>
        <time>2024-11-23T10:13:41Z</time>
      </trkpt>
      <trkpt lat="45.06229" lon="-0.59813">
        <ele>55.9</ele>
        <time>2024-11-23T10:13:42Z</time>
      </trkpt>
      <trkpt lat="45.06227" lon="-0.59811">
        <ele>55.9</ele>
        <time>2024-11-23T10:13:43Z</time>
      </trkpt>
      <trkpt lat="45.06226" lon="-0.59809">
        <ele>55.8</ele>
        <time>2024-11-23T10:13:44Z</time>
      </trkpt>
      <trkpt lat="45.06225" lon="-0.59808">
        <ele>55.8</ele>
        <time>2024-11-23T10:13:45Z</time>
      </trkpt>
      <trkpt lat="45.06224" lon="-0.59806">
        <ele>55.8</ele>
        <time>2024-11-23T10:13:46Z</time>
      </trkpt>
      <trkpt lat="45.06223" lon="-0.59804">
        <ele>55.8</ele>
        <time>2024-11-23T10:13:47Z</time>
      </trkpt>
      <trkpt lat="45.06223" lon="-0.59802">
        <ele>55.8</ele>
        <time>2024-11-23T10:13:48Z</time>
      </trkpt>
      <trkpt lat="45.06222" lon="-0.598">
        <ele>55.7</ele>
        <time>2024-11-23T10:13:49Z</time>
      </trkpt>
      <trkpt lat="45.06221" lon="-0.59799">
        <ele>55.7</ele>
        <time>2024-11-23T10:13:50Z</time>
      </trkpt>
      <trkpt lat="45.0622" lon="-0.59797">
        <ele>55.7</ele>
        <time>2024-11-23T10:13:51Z</time>
      </trkpt>
      <trkpt lat="45.06219" lon="-0.59795">
        <ele>55.7</ele>
        <time>2024-11-23T10:13:52Z</time>
      </trkpt>
      <trkpt lat="45.06218" lon="-0.59794">
        <ele>55.7</ele>
        <time>2024-11-23T10:13:53Z</time>
      </trkpt>
      <trkpt lat="45.06217" lon="-0.59792">
        <ele>55.7</ele>
        <time>2024-11-23T10:13:54Z</time>
      </trkpt>
      <trkpt lat="45.06217" lon="-0.5979">
        <ele>55.7</ele>
        <time>2024-11-23T10:13:55Z</time>
      </trkpt>
      <trkpt lat="45.06216" lon="-0.59788">
        <ele>55.7</ele>
        <time>2024-11-23T10:13:56Z</time>
      </trkpt>
      <trkpt lat="45.06215" lon="-0.59787">
        <ele>55.7</ele>
        <time>2024-11-23T10:13:57Z</time>
      </trkpt>
      <trkpt lat="45.06214" lon="-0.59785">
        <ele>55.6</ele>
        <time>2024-11-23T10:13:58Z</time>
      </trkpt>
      <trkpt lat="45.06213" lon="-0.59784">
        <ele>55.6</ele>
        <time>2024-11-23T10:13:59Z</time>
      </trkpt>
      <trkpt lat="45.06212" lon="-0.59782">
        <ele>55.6</ele>
        <time>2024-11-23T10:14:00Z</time>
      </trkpt>
      <trkpt lat="45.06211" lon="-0.59781">
        <ele>55.6</ele>
        <time>2024-11-23T10:14:01Z</time>
      </trkpt>
      <trkpt lat="45.0621" lon="-0.59779">
        <ele>55.6</ele>
        <time>2024-11-23T10:14:02Z</time>
      </trkpt>
      <trkpt lat="45.06209" lon="-0.59778">
        <ele>55.6</ele>
        <time>2024-11-23T10:14:03Z</time>
      </trkpt>
      <trkpt lat="45.06208" lon="-0.59776">
        <ele>55.6</ele>
        <time>2024-11-23T10:14:04Z</time>
      </trkpt>
      <trkpt lat="45.06207" lon="-0.59774">
        <ele>55.6</ele>
        <time>2024-11-23T10:14:05Z</time>
      </trkpt>
      <trkpt lat="45.06207" lon="-0.59773">
        <ele>55.6</ele>
        <time>2024-11-23T10:14:06Z</time>
      </trkpt>
      <trkpt lat="45.06206" lon="-0.59771">
        <ele>55.6</ele>
        <time>2024-11-23T10:14:07Z</time>
      </trkpt>
      <trkpt lat="45.06205" lon="-0.59769">
        <ele>55.6</ele>
        <time>2024-11-23T10:14:08Z</time>
      </trkpt>
      <trkpt lat="45.06204" lon="-0.59767">
        <ele>55.6</ele>
        <time>2024-11-23T10:14:09Z</time>
      </trkpt>
      <trkpt lat="45.06203" lon="-0.59765">
        <ele>55.6</ele>
        <time>2024-11-23T10:14:10Z</time>
      </trkpt>
      <trkpt lat="45.06202" lon="-0.59763">
        <ele>55.6</ele>
        <time>2024-11-23T10:14:11Z</time>
      </trkpt>
      <trkpt lat="45.06202" lon="-0.59761">
        <ele>55.6</ele>
        <time>2024-11-23T10:14:12Z</time>
      </trkpt>
      <trkpt lat="45.06201" lon="-0.59759">
        <ele>55.6</ele>
        <time>2024-11-23T10:14:13Z</time>
      </trkpt>
      <trkpt lat="45.062" lon="-0.59756">
        <ele>55.6</ele>
        <time>2024-11-23T10:14:14Z</time>
      </trkpt>
      <trkpt lat="45.062" lon="-0.59754">
        <ele>55.6</ele>
        <time>2024-11-23T10:14:15Z</time>
      </trkpt>
      <trkpt lat="45.062" lon="-0.59752">
        <ele>55.6</ele>
        <time>2024-11-23T10:14:16Z</time>
      </trkpt>
      <trkpt lat="45.06199" lon="-0.5975">
        <ele>55.6</ele>
        <time>2024-11-23T10:14:17Z</time>
      </trkpt>
      <trkpt lat="45.06199" lon="-0.59748">
        <ele>55.6</ele>
        <time>2024-11-23T10:14:18Z</time>
      </trkpt>
      <trkpt lat="45.06198" lon="-0.59746">
        <ele>55.6</ele>
        <time>2024-11-23T10:14:19Z</time>
      </trkpt>
      <trkpt lat="45.06198" lon="-0.59744">
        <ele>55.6</ele>
        <time>2024-11-23T10:14:20Z</time>
      </trkpt>
      <trkpt lat="45.06198" lon="-0.59741">
        <ele>55.6</ele>
        <time>2024-11-23T10:14:21Z</time>
      </trkpt>
      <trkpt lat="45.06198" lon="-0.59739">
        <ele>55.6</ele>
        <time>2024-11-23T10:14:22Z</time>
      </trkpt>
      <trkpt lat="45.06198" lon="-0.59736">
        <ele>55.7</ele>
        <time>2024-11-23T10:14:23Z</time>
      </trkpt>
      <trkpt lat="45.06198" lon="-0.59734">
        <ele>55.7</ele>
        <time>2024-11-23T10:14:24Z</time>
      </trkpt>
      <trkpt lat="45.06198" lon="-0.59732">
        <ele>55.7</ele>
        <time>2024-11-23T10:14:25Z</time>
      </trkpt>
      <trkpt lat="45.06197" lon="-0.5973">
        <ele>55.7</ele>
        <time>2024-11-23T10:14:26Z</time>
      </trkpt>
      <trkpt lat="45.06197" lon="-0.59728">
        <ele>55.7</ele>
        <time>2024-11-23T10:14:27Z</time>
      </trkpt>
      <trkpt lat="45.06197" lon="-0.59725">
        <ele>55.7</ele>
        <time>2024-11-23T10:14:28Z</time>
      </trkpt>
      <trkpt lat="45.06197" lon="-0.59723">
        <ele>55.7</ele>
        <time>2024-11-23T10:14:29Z</time>
      </trkpt>
      <trkpt lat="45.06197" lon="-0.59721">
        <ele>55.7</ele>
        <time>2024-11-23T10:14:30Z</time>
      </trkpt>
      <trkpt lat="45.06197" lon="-0.59719">
        <ele>55.7</ele>
        <time>2024-11-23T10:14:31Z</time>
      </trkpt>
      <trkpt lat="45.06197" lon="-0.59717">
        <ele>55.8</ele>
        <time>2024-11-23T10:14:32Z</time>
      </trkpt>
      <trkpt lat="45.06197" lon="-0.59715">
        <ele>55.8</ele>
        <time>2024-11-23T10:14:33Z</time>
      </trkpt>
      <trkpt lat="45.06197" lon="-0.59713">
        <ele>55.8</ele>
        <time>2024-11-23T10:14:34Z</time>
      </trkpt>
      <trkpt lat="45.06197" lon="-0.59711">
        <ele>55.8</ele>
        <time>2024-11-23T10:14:35Z</time>
      </trkpt>
      <trkpt lat="45.06197" lon="-0.59709">
        <ele>55.8</ele>
        <time>2024-11-23T10:14:36Z</time>
      </trkpt>
      <trkpt lat="45.06197" lon="-0.59706">
        <ele>55.8</ele>
        <time>2024-11-23T10:14:37Z</time>
      </trkpt>
      <trkpt lat="45.06197" lon="-0.59704">
        <ele>55.9</ele>
        <time>2024-11-23T10:14:38Z</time>
      </trkpt>
      <trkpt lat="45.06197" lon="-0.59702">
        <ele>55.9</ele>
        <time>2024-11-23T10:14:39Z</time>
      </trkpt>
      <trkpt lat="45.06197" lon="-0.597">
        <ele>55.9</ele>
        <time>2024-11-23T10:14:40Z</time>
      </trkpt>
      <trkpt lat="45.06197" lon="-0.59698">
        <ele>55.9</ele>
        <time>2024-11-23T10:14:41Z</time>
      </trkpt>
      <trkpt lat="45.062" lon="-0.59676">
        <ele>56.1</ele>
        <time>2024-11-23T10:14:42Z</time>
      </trkpt>
      <trkpt lat="45.06202" lon="-0.59656">
        <ele>56.2</ele>
        <time>2024-11-23T10:15:30Z</time>
      </trkpt>
      <trkpt lat="45.06203" lon="-0.59637">
        <ele>56.1</ele>
        <time>2024-11-23T10:15:31Z</time>
      </trkpt>
      <trkpt lat="45.06205" lon="-0.59617">
        <ele>55.7</ele>
        <time>2024-11-23T10:15:32Z</time>
      </trkpt>
      <trkpt lat="45.06207" lon="-0.59597">
        <ele>55.3</ele>
        <time>2024-11-23T10:15:33Z</time>
      </trkpt>
      <trkpt lat="45.06207" lon="-0.59595">
        <ele>55.2</ele>
        <time>2024-11-23T10:15:34Z</time>
      </trkpt>
      <trkpt lat="45.06207" lon="-0.59593">
        <ele>55.2</ele>
        <time>2024-11-23T10:15:35Z</time>
      </trkpt>
      <trkpt lat="45.06207" lon="-0.59592">
        <ele>55.1</ele>
        <time>2024-11-23T10:15:36Z</time>
      </trkpt>
      <trkpt lat="45.06207" lon="-0.5959">
        <ele>55</ele>
        <time>2024-11-23T10:15:37Z</time>
      </trkpt>
      <trkpt lat="45.06207" lon="-0.59587">
        <ele>54.8</ele>
        <time>2024-11-23T10:15:38Z</time>
      </trkpt>
      <trkpt lat="45.06206" lon="-0.59585">
        <ele>54.7</ele>
        <time>2024-11-23T10:15:39Z</time>
      </trkpt>
      <trkpt lat="45.06206" lon="-0.59583">
        <ele>54.5</ele>
        <time>2024-11-23T10:15:40Z</time>
      </trkpt>
      <trkpt lat="45.06206" lon="-0.59581">
        <ele>54.4</ele>
        <time>2024-11-23T10:15:41Z</time>
      </trkpt>
      <trkpt lat="45.06206" lon="-0.59578">
        <ele>54.3</ele>
        <time>2024-11-23T10:15:42Z</time>
      </trkpt>
      <trkpt lat="45.06205" lon="-0.59576">
        <ele>54.1</ele>
        <time>2024-11-23T10:15:43Z</time>
      </trkpt>
      <trkpt lat="45.06205" lon="-0.59574">
        <ele>54</ele>
        <time>2024-11-23T10:15:44Z</time>
      </trkpt>
      <trkpt lat="45.06205" lon="-0.59572">
        <ele>53.9</ele>
        <time>2024-11-23T10:15:45Z</time>
      </trkpt>
      <trkpt lat="45.06205" lon="-0.59569">
        <ele>53.7</ele>
        <time>2024-11-23T10:15:46Z</time>
      </trkpt>
      <trkpt lat="45.06205" lon="-0.59567">
        <ele>53.6</ele>
        <time>2024-11-23T10:15:47Z</time>
      </trkpt>
      <trkpt lat="45.06205" lon="-0.59565">
        <ele>53.5</ele>
        <time>2024-11-23T10:15:48Z</time>
      </trkpt>
      <trkpt lat="45.06204" lon="-0.59563">
        <ele>53.3</ele>
        <time>2024-11-23T10:15:49Z</time>
      </trkpt>
      <trkpt lat="45.06204" lon="-0.59561">
        <ele>53.2</ele>
        <time>2024-11-23T10:15:50Z</time>
      </trkpt>
      <trkpt lat="45.06204" lon="-0.59558">
        <ele>53.1</ele>
        <time>2024-11-23T10:15:51Z</time>
      </trkpt>
      <trkpt lat="45.06204" lon="-0.59556">
        <ele>53</ele>
        <time>2024-11-23T10:15:52Z</time>
      </trkpt>
      <trkpt lat="45.06203" lon="-0.59554">
        <ele>52.9</ele>
        <time>2024-11-23T10:15:53Z</time>
      </trkpt>
      <trkpt lat="45.06203" lon="-0.59552">
        <ele>52.7</ele>
        <time>2024-11-23T10:15:54Z</time>
      </trkpt>
      <trkpt lat="45.06203" lon="-0.5955">
        <ele>52.6</ele>
        <time>2024-11-23T10:15:55Z</time>
      </trkpt>
      <trkpt lat="45.06203" lon="-0.59547">
        <ele>52.5</ele>
        <time>2024-11-23T10:15:56Z</time>
      </trkpt>
      <trkpt lat="45.06203" lon="-0.59545">
        <ele>52.4</ele>
        <time>2024-11-23T10:15:57Z</time>
      </trkpt>
      <trkpt lat="45.06203" lon="-0.59543">
        <ele>52.3</ele>
        <time>2024-11-23T10:15:58Z</time>
      </trkpt>
      <trkpt lat="45.06202" lon="-0.59476">
        <ele>50.2</ele>
        <time>2024-11-23T10:16:30Z</time>
      </trkpt>
      <trkpt lat="45.06202" lon="-0.59474">
        <ele>50.2</ele>
        <time>2024-11-23T10:16:31Z</time>
      </trkpt>
      <trkpt lat="45.06202" lon="-0.59473">
        <ele>50.2</ele>
        <time>2024-11-23T10:16:32Z</time>
      </trkpt>
      <trkpt lat="45.06202" lon="-0.59471">
        <ele>50.2</ele>
        <time>2024-11-23T10:16:33Z</time>
      </trkpt>
      <trkpt lat="45.06202" lon="-0.59469">
        <ele>50.2</ele>
        <time>2024-11-23T10:16:34Z</time>
      </trkpt>
      <trkpt lat="45.06202" lon="-0.59467">
        <ele>50.2</ele>
        <time>2024-11-23T10:16:35Z</time>
      </trkpt>
      <trkpt lat="45.06202" lon="-0.59464">
        <ele>50.2</ele>
        <time>2024-11-23T10:16:36Z</time>
      </trkpt>
      <trkpt lat="45.06202" lon="-0.59462">
        <ele>50.2</ele>
        <time>2024-11-23T10:16:37Z</time>
      </trkpt>
      <trkpt lat="45.06202" lon="-0.5946">
        <ele>50.2</ele>
        <time>2024-11-23T10:16:38Z</time>
      </trkpt>
      <trkpt lat="45.06202" lon="-0.59457">
        <ele>50.2</ele>
        <time>2024-11-23T10:16:39Z</time>
      </trkpt>
      <trkpt lat="45.06202" lon="-0.59455">
        <ele>50.2</ele>
        <time>2024-11-23T10:16:40Z</time>
      </trkpt>
      <trkpt lat="45.06202" lon="-0.59453">
        <ele>50.2</ele>
        <time>2024-11-23T10:16:41Z</time>
      </trkpt>
      <trkpt lat="45.06202" lon="-0.59451">
        <ele>50.2</ele>
        <time>2024-11-23T10:16:42Z</time>
      </trkpt>
      <trkpt lat="45.06202" lon="-0.59449">
        <ele>50.2</ele>
        <time>2024-11-23T10:16:43Z</time>
      </trkpt>
      <trkpt lat="45.0619" lon="-0.5939">
        <ele>52.3</ele>
        <time>2024-11-23T10:17:14Z</time>
      </trkpt>
      <trkpt lat="45.0619" lon="-0.59388">
        <ele>52.4</ele>
        <time>2024-11-23T10:17:15Z</time>
      </trkpt>
      <trkpt lat="45.06189" lon="-0.59386">
        <ele>52.4</ele>
        <time>2024-11-23T10:17:16Z</time>
      </trkpt>
      <trkpt lat="45.06189" lon="-0.59385">
        <ele>52.5</ele>
        <time>2024-11-23T10:17:17Z</time>
      </trkpt>
      <trkpt lat="45.06189" lon="-0.59382">
        <ele>52.7</ele>
        <time>2024-11-23T10:17:18Z</time>
      </trkpt>
      <trkpt lat="45.06189" lon="-0.59381">
        <ele>52.7</ele>
        <time>2024-11-23T10:17:19Z</time>
      </trkpt>
      <trkpt lat="45.06189" lon="-0.59379">
        <ele>52.8</ele>
        <time>2024-11-23T10:17:20Z</time>
      </trkpt>
      <trkpt lat="45.06188" lon="-0.59377">
        <ele>52.9</ele>
        <time>2024-11-23T10:17:21Z</time>
      </trkpt>
      <trkpt lat="45.06188" lon="-0.59375">
        <ele>53</ele>
        <time>2024-11-23T10:17:22Z</time>
      </trkpt>
      <trkpt lat="45.06188" lon="-0.59372">
        <ele>53.2</ele>
        <time>2024-11-23T10:17:23Z</time>
      </trkpt>
      <trkpt lat="45.06188" lon="-0.59371">
        <ele>53.2</ele>
        <time>2024-11-23T10:17:24Z</time>
      </trkpt>
      <trkpt lat="45.06188" lon="-0.5937">
        <ele>53.3</ele>
        <time>2024-11-23T10:17:25Z</time>
      </trkpt>
      <trkpt lat="45.06188" lon="-0.59368">
        <ele>53.4</ele>
        <time>2024-11-23T10:17:26Z</time>
      </trkpt>
      <trkpt lat="45.06188" lon="-0.59366">
        <ele>53.5</ele>
        <time>2024-11-23T10:17:27Z</time>
      </trkpt>
      <trkpt lat="45.06188" lon="-0.59364">
        <ele>53.6</ele>
        <time>2024-11-23T10:17:28Z</time>
      </trkpt>
      <trkpt lat="45.06188" lon="-0.59362">
        <ele>53.7</ele>
        <time>2024-11-23T10:17:29Z</time>
      </trkpt>
      <trkpt lat="45.06187" lon="-0.59359">
        <ele>53.8</ele>
        <time>2024-11-23T10:17:30Z</time>
      </trkpt>
      <trkpt lat="45.06187" lon="-0.59358">
        <ele>53.9</ele>
        <time>2024-11-23T10:17:31Z</time>
      </trkpt>
      <trkpt lat="45.06187" lon="-0.59356">
        <ele>54</ele>
        <time>2024-11-23T10:17:32Z</time>
      </trkpt>
      <trkpt lat="45.06186" lon="-0.59354">
        <ele>54.1</ele>
        <time>2024-11-23T10:17:33Z</time>
      </trkpt>
      <trkpt lat="45.06186" lon="-0.59353">
        <ele>54.2</ele>
        <time>2024-11-23T10:17:34Z</time>
      </trkpt>
      <trkpt lat="45.06185" lon="-0.59351">
        <ele>54.2</ele>
        <time>2024-11-23T10:17:35Z</time>
      </trkpt>
      <trkpt lat="45.06185" lon="-0.59349">
        <ele>54.4</ele>
        <time>2024-11-23T10:17:36Z</time>
      </trkpt>
      <trkpt lat="45.06185" lon="-0.59348">
        <ele>54.5</ele>
        <time>2024-11-23T10:17:37Z</time>
      </trkpt>
      <trkpt lat="45.06185" lon="-0.59346">
        <ele>54.5</ele>
        <time>2024-11-23T10:17:38Z</time>
      </trkpt>
      <trkpt lat="45.06184" lon="-0.59344">
        <ele>54.6</ele>
        <time>2024-11-23T10:17:39Z</time>
      </trkpt>
      <trkpt lat="45.06184" lon="-0.59342">
        <ele>54.7</ele>
        <time>2024-11-23T10:17:40Z</time>
      </trkpt>
      <trkpt lat="45.06184" lon="-0.5934">
        <ele>54.8</ele>
        <time>2024-11-23T10:17:41Z</time>
      </trkpt>
      <trkpt lat="45.06183" lon="-0.59338">
        <ele>54.9</ele>
        <time>2024-11-23T10:17:42Z</time>
      </trkpt>
      <trkpt lat="45.06183" lon="-0.59336">
        <ele>55</ele>
        <time>2024-11-23T10:17:43Z</time>
      </trkpt>
      <trkpt lat="45.06183" lon="-0.59334">
        <ele>55.1</ele>
        <time>2024-11-23T10:17:44Z</time>
      </trkpt>
      <trkpt lat="45.06183" lon="-0.59332">
        <ele>55.2</ele>
        <time>2024-11-23T10:17:45Z</time>
      </trkpt>
      <trkpt lat="45.06183" lon="-0.5933">
        <ele>55.3</ele>
        <time>2024-11-23T10:17:46Z</time>
      </trkpt>
      <trkpt lat="45.06183" lon="-0.59328">
        <ele>55.4</ele>
        <time>2024-11-23T10:17:47Z</time>
      </trkpt>
      <trkpt lat="45.06182" lon="-0.59325">
        <ele>55.5</ele>
        <time>2024-11-23T10:17:48Z</time>
      </trkpt>
      <trkpt lat="45.06182" lon="-0.59323">
        <ele>55.6</ele>
        <time>2024-11-23T10:17:49Z</time>
      </trkpt>
      <trkpt lat="45.06182" lon="-0.59321">
        <ele>55.7</ele>
        <time>2024-11-23T10:17:50Z</time>
      </trkpt>
      <trkpt lat="45.06181" lon="-0.59319">
        <ele>55.8</ele>
        <time>2024-11-23T10:17:51Z</time>
      </trkpt>
      <trkpt lat="45.06181" lon="-0.59316">
        <ele>55.8</ele>
        <time>2024-11-23T10:17:52Z</time>
      </trkpt>
      <trkpt lat="45.06181" lon="-0.59314">
        <ele>55.8</ele>
        <time>2024-11-23T10:17:53Z</time>
      </trkpt>
      <trkpt lat="45.06181" lon="-0.59312">
        <ele>55.9</ele>
        <time>2024-11-23T10:17:54Z</time>
      </trkpt>
      <trkpt lat="45.06181" lon="-0.59309">
        <ele>55.9</ele>
        <time>2024-11-23T10:17:55Z</time>
      </trkpt>
      <trkpt lat="45.06181" lon="-0.59307">
        <ele>55.9</ele>
        <time>2024-11-23T10:17:56Z</time>
      </trkpt>
      <trkpt lat="45.06181" lon="-0.59305">
        <ele>56</ele>
        <time>2024-11-23T10:17:57Z</time>
      </trkpt>
      <trkpt lat="45.06181" lon="-0.59303">
        <ele>56</ele>
        <time>2024-11-23T10:17:58Z</time>
      </trkpt>
      <trkpt lat="45.06169" lon="-0.59206">
        <ele>60.2</ele>
        <time>2024-11-23T10:18:45Z</time>
      </trkpt>
      <trkpt lat="45.06169" lon="-0.59204">
        <ele>60.3</ele>
        <time>2024-11-23T10:18:46Z</time>
      </trkpt>
      <trkpt lat="45.06169" lon="-0.59201">
        <ele>60.5</ele>
        <time>2024-11-23T10:18:47Z</time>
      </trkpt>
      <trkpt lat="45.06169" lon="-0.59199">
        <ele>60.6</ele>
        <time>2024-11-23T10:18:48Z</time>
      </trkpt>
      <trkpt lat="45.06169" lon="-0.59198">
        <ele>60.7</ele>
        <time>2024-11-23T10:18:49Z</time>
      </trkpt>
      <trkpt lat="45.06169" lon="-0.59195">
        <ele>60.9</ele>
        <time>2024-11-23T10:18:50Z</time>
      </trkpt>
      <trkpt lat="45.06169" lon="-0.59194">
        <ele>61</ele>
        <time>2024-11-23T10:18:51Z</time>
      </trkpt>
      <trkpt lat="45.06169" lon="-0.59193">
        <ele>61</ele>
        <time>2024-11-23T10:18:52Z</time>
      </trkpt>
      <trkpt lat="45.06169" lon="-0.5919">
        <ele>61.2</ele>
        <time>2024-11-23T10:18:53Z</time>
      </trkpt>
      <trkpt lat="45.06168" lon="-0.59188">
        <ele>61.3</ele>
        <time>2024-11-23T10:18:54Z</time>
      </trkpt>
      <trkpt lat="45.06168" lon="-0.59187">
        <ele>61.4</ele>
        <time>2024-11-23T10:18:55Z</time>
      </trkpt>
      <trkpt lat="45.06168" lon="-0.59184">
        <ele>61.6</ele>
        <time>2024-11-23T10:18:56Z</time>
      </trkpt>
      <trkpt lat="45.06168" lon="-0.59183">
        <ele>61.7</ele>
        <time>2024-11-23T10:18:57Z</time>
      </trkpt>
      <trkpt lat="45.06168" lon="-0.59182">
        <ele>61.7</ele>
        <time>2024-11-23T10:18:58Z</time>
      </trkpt>
      <trkpt lat="45.06164" lon="-0.59147">
        <ele>63.7</ele>
        <time>2024-11-23T10:19:17Z</time>
      </trkpt>
      <trkpt lat="45.06164" lon="-0.59145">
        <ele>63.8</ele>
        <time>2024-11-23T10:19:18Z</time>
      </trkpt>
      <trkpt lat="45.06164" lon="-0.59143">
        <ele>63.9</ele>
        <time>2024-11-23T10:19:19Z</time>
      </trkpt>
      <trkpt lat="45.06164" lon="-0.59141">
        <ele>64</ele>
        <time>2024-11-23T10:19:20Z</time>
      </trkpt>
      <trkpt lat="45.06163" lon="-0.59139">
        <ele>64.1</ele>
        <time>2024-11-23T10:19:21Z</time>
      </trkpt>
      <trkpt lat="45.06163" lon="-0.59136">
        <ele>64.3</ele>
        <time>2024-11-23T10:19:22Z</time>
      </trkpt>
      <trkpt lat="45.06163" lon="-0.59135">
        <ele>64.3</ele>
        <time>2024-11-23T10:19:23Z</time>
      </trkpt>
      <trkpt lat="45.06163" lon="-0.59134">
        <ele>64.4</ele>
        <time>2024-11-23T10:19:24Z</time>
      </trkpt>
      <trkpt lat="45.06162" lon="-0.59132">
        <ele>64.5</ele>
        <time>2024-11-23T10:19:25Z</time>
      </trkpt>
      <trkpt lat="45.06162" lon="-0.5913">
        <ele>64.6</ele>
        <time>2024-11-23T10:19:26Z</time>
      </trkpt>
      <trkpt lat="45.06162" lon="-0.59128">
        <ele>64.7</ele>
        <time>2024-11-23T10:19:27Z</time>
      </trkpt>
      <trkpt lat="45.06161" lon="-0.59126">
        <ele>64.8</ele>
        <time>2024-11-23T10:19:28Z</time>
      </trkpt>
      <trkpt lat="45.06161" lon="-0.59124">
        <ele>64.9</ele>
        <time>2024-11-23T10:19:29Z</time>
      </trkpt>
      <trkpt lat="45.06161" lon="-0.59122">
        <ele>65</ele>
        <time>2024-11-23T10:19:30Z</time>
      </trkpt>
      <trkpt lat="45.0616" lon="-0.5912">
        <ele>65.1</ele>
        <time>2024-11-23T10:19:31Z</time>
      </trkpt>
      <trkpt lat="45.0616" lon="-0.59118">
        <ele>65.2</ele>
        <time>2024-11-23T10:19:32Z</time>
      </trkpt>
      <trkpt lat="45.0616" lon="-0.59116">
        <ele>65.3</ele>
        <time>2024-11-23T10:19:33Z</time>
      </trkpt>
      <trkpt lat="45.0616" lon="-0.59114">
        <ele>65.4</ele>
        <time>2024-11-23T10:19:34Z</time>
      </trkpt>
      <trkpt lat="45.06159" lon="-0.59112">
        <ele>65.5</ele>
        <time>2024-11-23T10:19:35Z</time>
      </trkpt>
      <trkpt lat="45.06159" lon="-0.5911">
        <ele>65.6</ele>
        <time>2024-11-23T10:19:36Z</time>
      </trkpt>
      <trkpt lat="45.06159" lon="-0.59108">
        <ele>65.7</ele>
        <time>2024-11-23T10:19:37Z</time>
      </trkpt>
      <trkpt lat="45.06159" lon="-0.59106">
        <ele>65.8</ele>
        <time>2024-11-23T10:19:38Z</time>
      </trkpt>
      <trkpt lat="45.06158" lon="-0.59104">
        <ele>65.9</ele>
        <time>2024-11-23T10:19:39Z</time>
      </trkpt>
      <trkpt lat="45.06158" lon="-0.59102">
        <ele>66</ele>
        <time>2024-11-23T10:19:40Z</time>
      </trkpt>
      <trkpt lat="45.06158" lon="-0.591">
        <ele>66.1</ele>
        <time>2024-11-23T10:19:41Z</time>
      </trkpt>
      <trkpt lat="45.06158" lon="-0.59098">
        <ele>66.2</ele>
        <time>2024-11-23T10:19:42Z</time>
      </trkpt>
      <trkpt lat="45.06157" lon="-0.59096">
        <ele>66.3</ele>
        <time>2024-11-23T10:19:43Z</time>
      </trkpt>
      <trkpt lat="45.06157" lon="-0.59094">
        <ele>66.4</ele>
        <time>2024-11-23T10:19:44Z</time>
      </trkpt>
      <trkpt lat="45.06157" lon="-0.59092">
        <ele>66.5</ele>
        <time>2024-11-23T10:19:45Z</time>
      </trkpt>
      <trkpt lat="45.06157" lon="-0.5909">
        <ele>66.5</ele>
        <time>2024-11-23T10:19:46Z</time>
      </trkpt>
      <trkpt lat="45.06156" lon="-0.59087">
        <ele>66.6</ele>
        <time>2024-11-23T10:19:47Z</time>
      </trkpt>
      <trkpt lat="45.06156" lon="-0.59085">
        <ele>66.7</ele>
        <time>2024-11-23T10:19:48Z</time>
      </trkpt>
      <trkpt lat="45.06156" lon="-0.59083">
        <ele>66.8</ele>
        <time>2024-11-23T10:19:49Z</time>
      </trkpt>
      <trkpt lat="45.06156" lon="-0.59082">
        <ele>66.9</ele>
        <time>2024-11-23T10:19:50Z</time>
      </trkpt>
      <trkpt lat="45.06156" lon="-0.59079">
        <ele>67</ele>
        <time>2024-11-23T10:19:51Z</time>
      </trkpt>
      <trkpt lat="45.06156" lon="-0.59077">
        <ele>67</ele>
        <time>2024-11-23T10:19:52Z</time>
      </trkpt>
      <trkpt lat="45.06156" lon="-0.59075">
        <ele>67.1</ele>
        <time>2024-11-23T10:19:53Z</time>
      </trkpt>
      <trkpt lat="45.06156" lon="-0.59073">
        <ele>67.2</ele>
        <time>2024-11-23T10:19:54Z</time>
      </trkpt>
      <trkpt lat="45.06156" lon="-0.59071">
        <ele>67.3</ele>
        <time>2024-11-23T10:19:55Z</time>
      </trkpt>
      <trkpt lat="45.06156" lon="-0.59068">
        <ele>67.3</ele>
        <time>2024-11-23T10:19:56Z</time>
      </trkpt>
      <trkpt lat="45.06156" lon="-0.59063">
        <ele>67.5</ele>
        <time>2024-11-23T10:19:57Z</time>
      </trkpt>
      <trkpt lat="45.06157" lon="-0.59059">
        <ele>67.6</ele>
        <time>2024-11-23T10:19:58Z</time>
      </trkpt>
      <trkpt lat="45.06157" lon="-0.59056">
        <ele>67.7</ele>
        <time>2024-11-23T10:20:02Z</time>
      </trkpt>
      <trkpt lat="45.06157" lon="-0.59052">
        <ele>67.7</ele>
        <time>2024-11-23T10:20:03Z</time>
      </trkpt>
      <trkpt lat="45.06157" lon="-0.59048">
        <ele>67.7</ele>
        <time>2024-11-23T10:20:04Z</time>
      </trkpt>
      <trkpt lat="45.06157" lon="-0.59046">
        <ele>67.7</ele>
        <time>2024-11-23T10:20:05Z</time>
      </trkpt>
      <trkpt lat="45.06157" lon="-0.59045">
        <ele>67.8</ele>
        <time>2024-11-23T10:20:06Z</time>
      </trkpt>
      <trkpt lat="45.06157" lon="-0.59042">
        <ele>67.8</ele>
        <time>2024-11-23T10:20:07Z</time>
      </trkpt>
      <trkpt lat="45.06156" lon="-0.59041">
        <ele>67.8</ele>
        <time>2024-11-23T10:20:08Z</time>
      </trkpt>
      <trkpt lat="45.06155" lon="-0.59038">
        <ele>67.7</ele>
        <time>2024-11-23T10:20:09Z</time>
      </trkpt>
      <trkpt lat="45.06155" lon="-0.59037">
        <ele>67.7</ele>
        <time>2024-11-23T10:20:10Z</time>
      </trkpt>
      <trkpt lat="45.06154" lon="-0.59035">
        <ele>67.6</ele>
        <time>2024-11-23T10:20:11Z</time>
      </trkpt>
      <trkpt lat="45.06148" lon="-0.59024">
        <ele>67.3</ele>
        <time>2024-11-23T10:20:12Z</time>
      </trkpt>
      <trkpt lat="45.06142" lon="-0.59015">
        <ele>67.1</ele>
        <time>2024-11-23T10:20:13Z</time>
      </trkpt>
      <trkpt lat="45.06137" lon="-0.59006">
        <ele>66.9</ele>
        <time>2024-11-23T10:20:44Z</time>
      </trkpt>
      <trkpt lat="45.06131" lon="-0.58996">
        <ele>66.7</ele>
        <time>2024-11-23T10:20:45Z</time>
      </trkpt>
      <trkpt lat="45.06125" lon="-0.58987">
        <ele>66.5</ele>
        <time>2024-11-23T10:20:46Z</time>
      </trkpt>
      <trkpt lat="45.0612" lon="-0.58978">
        <ele>66.3</ele>
        <time>2024-11-23T10:20:47Z</time>
      </trkpt>
      <trkpt lat="45.06119" lon="-0.58976">
        <ele>66.3</ele>
        <time>2024-11-23T10:20:48Z</time>
      </trkpt>
      <trkpt lat="45.06118" lon="-0.58974">
        <ele>66.2</ele>
        <time>2024-11-23T10:20:49Z</time>
      </trkpt>
      <trkpt lat="45.06117" lon="-0.58972">
        <ele>66.2</ele>
        <time>2024-11-23T10:20:50Z</time>
      </trkpt>
      <trkpt lat="45.06116" lon="-0.5897">
        <ele>66.1</ele>
        <time>2024-11-23T10:20:51Z</time>
      </trkpt>
      <trkpt lat="45.06116" lon="-0.58969">
        <ele>66.1</ele>
        <time>2024-11-23T10:20:52Z</time>
      </trkpt>
      <trkpt lat="45.06115" lon="-0.58966">
        <ele>66.1</ele>
        <time>2024-11-23T10:20:53Z</time>
      </trkpt>
      <trkpt lat="45.06114" lon="-0.58965">
        <ele>66</ele>
        <time>2024-11-23T10:20:54Z</time>
      </trkpt>
      <trkpt lat="45.06112" lon="-0.58964">
        <ele>66</ele>
        <time>2024-11-23T10:20:55Z</time>
      </trkpt>
      <trkpt lat="45.06111" lon="-0.58962">
        <ele>66</ele>
        <time>2024-11-23T10:20:56Z</time>
      </trkpt>
      <trkpt lat="45.0611" lon="-0.5896">
        <ele>65.9</ele>
        <time>2024-11-23T10:20:57Z</time>
      </trkpt>
      <trkpt lat="45.06103" lon="-0.58945">
        <ele>65.7</ele>
        <time>2024-11-23T10:20:58Z</time>
      </trkpt>
      <trkpt lat="45.06097" lon="-0.58931">
        <ele>65.5</ele>
        <time>2024-11-23T10:21:34Z</time>
      </trkpt>
      <trkpt lat="45.06091" lon="-0.58917">
        <ele>65.4</ele>
        <time>2024-11-23T10:21:35Z</time>
      </trkpt>
      <trkpt lat="45.06084" lon="-0.58903">
        <ele>65.2</ele>
        <time>2024-11-23T10:21:36Z</time>
      </trkpt>
      <trkpt lat="45.06078" lon="-0.58889">
        <ele>65</ele>
        <time>2024-11-23T10:21:37Z</time>
      </trkpt>
      <trkpt lat="45.06078" lon="-0.58887">
        <ele>65</ele>
        <time>2024-11-23T10:21:38Z</time>
      </trkpt>
      <trkpt lat="45.06077" lon="-0.58885">
        <ele>64.9</ele>
        <time>2024-11-23T10:21:39Z</time>
      </trkpt>
      <trkpt lat="45.06077" lon="-0.58883">
        <ele>64.9</ele>
        <time>2024-11-23T10:21:40Z</time>
      </trkpt>
      <trkpt lat="45.06076" lon="-0.58882">
        <ele>64.9</ele>
        <time>2024-11-23T10:21:41Z</time>
      </trkpt>
      <trkpt lat="45.06075" lon="-0.5888">
        <ele>64.9</ele>
        <time>2024-11-23T10:21:42Z</time>
      </trkpt>
      <trkpt lat="45.06075" lon="-0.58878">
        <ele>64.8</ele>
        <time>2024-11-23T10:21:43Z</time>
      </trkpt>
      <trkpt lat="45.06051" lon="-0.58825">
        <ele>64.1</ele>
        <time>2024-11-23T10:22:12Z</time>
      </trkpt>
      <trkpt lat="45.0605" lon="-0.58823">
        <ele>64.1</ele>
        <time>2024-11-23T10:22:13Z</time>
      </trkpt>
      <trkpt lat="45.06049" lon="-0.58822">
        <ele>64</ele>
        <time>2024-11-23T10:22:14Z</time>
      </trkpt>
      <trkpt lat="45.06048" lon="-0.58821">
        <ele>64</ele>
        <time>2024-11-23T10:22:15Z</time>
      </trkpt>
      <trkpt lat="45.06047" lon="-0.58819">
        <ele>64</ele>
        <time>2024-11-23T10:22:16Z</time>
      </trkpt>
      <trkpt lat="45.06046" lon="-0.58818">
        <ele>64</ele>
        <time>2024-11-23T10:22:17Z</time>
      </trkpt>
      <trkpt lat="45.06045" lon="-0.58816">
        <ele>64</ele>
        <time>2024-11-23T10:22:18Z</time>
      </trkpt>
      <trkpt lat="45.06044" lon="-0.58815">
        <ele>64</ele>
        <time>2024-11-23T10:22:19Z</time>
      </trkpt>
      <trkpt lat="45.06043" lon="-0.58813">
        <ele>64</ele>
        <time>2024-11-23T10:22:20Z</time>
      </trkpt>
      <trkpt lat="45.06042" lon="-0.58811">
        <ele>64</ele>
        <time>2024-11-23T10:22:21Z</time>
      </trkpt>
      <trkpt lat="45.06041" lon="-0.5881">
        <ele>63.9</ele>
        <time>2024-11-23T10:22:22Z</time>
      </trkpt>
      <trkpt lat="45.0604" lon="-0.58808">
        <ele>63.9</ele>
        <time>2024-11-23T10:22:23Z</time>
      </trkpt>
      <trkpt lat="45.0604" lon="-0.58807">
        <ele>63.9</ele>
        <time>2024-11-23T10:22:24Z</time>
      </trkpt>
      <trkpt lat="45.06038" lon="-0.58805">
        <ele>63.9</ele>
        <time>2024-11-23T10:22:25Z</time>
      </trkpt>
      <trkpt lat="45.06037" lon="-0.58803">
        <ele>63.9</ele>
        <time>2024-11-23T10:22:26Z</time>
      </trkpt>
      <trkpt lat="45.06036" lon="-0.58802">
        <ele>63.9</ele>
        <time>2024-11-23T10:22:27Z</time>
      </trkpt>
      <trkpt lat="45.06035" lon="-0.588">
        <ele>63.9</ele>
        <time>2024-11-23T10:22:28Z</time>
      </trkpt>
      <trkpt lat="45.06034" lon="-0.58798">
        <ele>64</ele>
        <time>2024-11-23T10:22:29Z</time>
      </trkpt>
      <trkpt lat="45.06002" lon="-0.58753">
        <ele>63.3</ele>
        <time>2024-11-23T10:22:57Z</time>
      </trkpt>
      <trkpt lat="45.06001" lon="-0.58752">
        <ele>63.2</ele>
        <time>2024-11-23T10:22:58Z</time>
      </trkpt>
      <trkpt lat="45.06" lon="-0.5875">
        <ele>63.2</ele>
        <time>2024-11-23T10:22:59Z</time>
      </trkpt>
      <trkpt lat="45.05999" lon="-0.58749">
        <ele>63.1</ele>
        <time>2024-11-23T10:23:00Z</time>
      </trkpt>
      <trkpt lat="45.05998" lon="-0.58747">
        <ele>63.1</ele>
        <time>2024-11-23T10:23:01Z</time>
      </trkpt>
      <trkpt lat="45.05996" lon="-0.58746">
        <ele>63</ele>
        <time>2024-11-23T10:23:02Z</time>
      </trkpt>
      <trkpt lat="45.05995" lon="-0.58745">
        <ele>63</ele>
        <time>2024-11-23T10:23:03Z</time>
      </trkpt>
      <trkpt lat="45.05994" lon="-0.58743">
        <ele>62.9</ele>
        <time>2024-11-23T10:23:04Z</time>
      </trkpt>
      <trkpt lat="45.05993" lon="-0.58741">
        <ele>62.9</ele>
        <time>2024-11-23T10:23:05Z</time>
      </trkpt>
      <trkpt lat="45.05992" lon="-0.5874">
        <ele>62.8</ele>
        <time>2024-11-23T10:23:06Z</time>
      </trkpt>
      <trkpt lat="45.05991" lon="-0.58739">
        <ele>62.8</ele>
        <time>2024-11-23T10:23:07Z</time>
      </trkpt>
      <trkpt lat="45.05989" lon="-0.58737">
        <ele>62.7</ele>
        <time>2024-11-23T10:23:08Z</time>
      </trkpt>
      <trkpt lat="45.05988" lon="-0.58735">
        <ele>62.6</ele>
        <time>2024-11-23T10:23:09Z</time>
      </trkpt>
      <trkpt lat="45.05987" lon="-0.58734">
        <ele>62.6</ele>
        <time>2024-11-23T10:23:10Z</time>
      </trkpt>
      <trkpt lat="45.05986" lon="-0.58732">
        <ele>62.5</ele>
        <time>2024-11-23T10:23:11Z</time>
      </trkpt>
      <trkpt lat="45.05985" lon="-0.58731">
        <ele>62.4</ele>
        <time>2024-11-23T10:23:12Z</time>
      </trkpt>
      <trkpt lat="45.05983" lon="-0.58729">
        <ele>62.4</ele>
        <time>2024-11-23T10:23:13Z</time>
      </trkpt>
      <trkpt lat="45.05982" lon="-0.58728">
        <ele>62.3</ele>
        <time>2024-11-23T10:23:14Z</time>
      </trkpt>
      <trkpt lat="45.05926" lon="-0.58658">
        <ele>57.4</ele>
        <time>2024-11-23T10:24:02Z</time>
      </trkpt>
      <trkpt lat="45.05925" lon="-0.58657">
        <ele>57.3</ele>
        <time>2024-11-23T10:24:03Z</time>
      </trkpt>
      <trkpt lat="45.05924" lon="-0.58656">
        <ele>57.2</ele>
        <time>2024-11-23T10:24:04Z</time>
      </trkpt>
      <trkpt lat="45.05923" lon="-0.58655">
        <ele>57.2</ele>
        <time>2024-11-23T10:24:05Z</time>
      </trkpt>
      <trkpt lat="45.05922" lon="-0.58653">
        <ele>57.1</ele>
        <time>2024-11-23T10:24:06Z</time>
      </trkpt>
      <trkpt lat="45.05921" lon="-0.58652">
        <ele>57</ele>
        <time>2024-11-23T10:24:07Z</time>
      </trkpt>
      <trkpt lat="45.0592" lon="-0.58651">
        <ele>56.9</ele>
        <time>2024-11-23T10:24:08Z</time>
      </trkpt>
      <trkpt lat="45.05918" lon="-0.5865">
        <ele>56.8</ele>
        <time>2024-11-23T10:24:09Z</time>
      </trkpt>
      <trkpt lat="45.05917" lon="-0.58648">
        <ele>56.7</ele>
        <time>2024-11-23T10:24:10Z</time>
      </trkpt>
      <trkpt lat="45.05916" lon="-0.58647">
        <ele>56.6</ele>
        <time>2024-11-23T10:24:11Z</time>
      </trkpt>
      <trkpt lat="45.05915" lon="-0.58646">
        <ele>56.5</ele>
        <time>2024-11-23T10:24:12Z</time>
      </trkpt>
      <trkpt lat="45.05913" lon="-0.58645">
        <ele>56.5</ele>
        <time>2024-11-23T10:24:13Z</time>
      </trkpt>
      <trkpt lat="45.05912" lon="-0.58644">
        <ele>56.4</ele>
        <time>2024-11-23T10:24:14Z</time>
      </trkpt>
      <trkpt lat="45.05852" lon="-0.58649">
        <ele>55.7</ele>
        <time>2024-11-23T10:24:57Z</time>
      </trkpt>
      <trkpt lat="45.05851" lon="-0.58649">
        <ele>55.8</ele>
        <time>2024-11-23T10:24:58Z</time>
      </trkpt>
      <trkpt lat="45.05849" lon="-0.58651">
        <ele>55.8</ele>
        <time>2024-11-23T10:24:59Z</time>
      </trkpt>
      <trkpt lat="45.05808" lon="-0.5871">
        <ele>56.1</ele>
        <time>2024-11-23T10:25:38Z</time>
      </trkpt>
      <trkpt lat="45.05806" lon="-0.58713">
        <ele>56.1</ele>
        <time>2024-11-23T10:25:39Z</time>
      </trkpt>
      <trkpt lat="45.05806" lon="-0.58714">
        <ele>56.1</ele>
        <time>2024-11-23T10:25:40Z</time>
      </trkpt>
      <trkpt lat="45.05805" lon="-0.58715">
        <ele>56.1</ele>
        <time>2024-11-23T10:25:41Z</time>
      </trkpt>
      <trkpt lat="45.05804" lon="-0.58717">
        <ele>56.1</ele>
        <time>2024-11-23T10:25:42Z</time>
      </trkpt>
      <trkpt lat="45.05803" lon="-0.58719">
        <ele>56.1</ele>
        <time>2024-11-23T10:25:43Z</time>
      </trkpt>
      <trkpt lat="45.05802" lon="-0.5872">
        <ele>56.1</ele>
        <time>2024-11-23T10:25:44Z</time>
      </trkpt>
      <trkpt lat="45.05748" lon="-0.58801">
        <ele>54</ele>
        <time>2024-11-23T10:26:32Z</time>
      </trkpt>
      <trkpt lat="45.05746" lon="-0.58803">
        <ele>53.9</ele>
        <time>2024-11-23T10:26:33Z</time>
      </trkpt>
      <trkpt lat="45.05745" lon="-0.58804">
        <ele>53.9</ele>
        <time>2024-11-23T10:26:34Z</time>
      </trkpt>
      <trkpt lat="45.05745" lon="-0.58805">
        <ele>53.9</ele>
        <time>2024-11-23T10:26:35Z</time>
      </trkpt>
      <trkpt lat="45.05744" lon="-0.58807">
        <ele>53.8</ele>
        <time>2024-11-23T10:26:36Z</time>
      </trkpt>
      <trkpt lat="45.05742" lon="-0.58809">
        <ele>53.7</ele>
        <time>2024-11-23T10:26:37Z</time>
      </trkpt>
      <trkpt lat="45.05741" lon="-0.5881">
        <ele>53.7</ele>
        <time>2024-11-23T10:26:38Z</time>
      </trkpt>
      <trkpt lat="45.0574" lon="-0.58811">
        <ele>53.6</ele>
        <time>2024-11-23T10:26:39Z</time>
      </trkpt>
      <trkpt lat="45.05738" lon="-0.58813">
        <ele>53.5</ele>
        <time>2024-11-23T10:26:40Z</time>
      </trkpt>
      <trkpt lat="45.05737" lon="-0.58814">
        <ele>53.5</ele>
        <time>2024-11-23T10:26:41Z</time>
      </trkpt>
      <trkpt lat="45.05736" lon="-0.58816">
        <ele>53.4</ele>
        <time>2024-11-23T10:26:42Z</time>
      </trkpt>
      <trkpt lat="45.05735" lon="-0.58817">
        <ele>53.3</ele>
        <time>2024-11-23T10:26:43Z</time>
      </trkpt>
      <trkpt lat="45.05733" lon="-0.58819">
        <ele>53.3</ele>
        <time>2024-11-23T10:26:44Z</time>
      </trkpt>
      <trkpt lat="45.05651" lon="-0.58875">
        <ele>49.8</ele>
        <time>2024-11-23T10:27:43Z</time>
      </trkpt>
      <trkpt lat="45.05648" lon="-0.58877">
        <ele>49.6</ele>
        <time>2024-11-23T10:27:44Z</time>
      </trkpt>
      <trkpt lat="45.05647" lon="-0.58878">
        <ele>49.6</ele>
        <time>2024-11-23T10:27:45Z</time>
      </trkpt>
      <trkpt lat="45.05646" lon="-0.58879">
        <ele>49.6</ele>
        <time>2024-11-23T10:27:46Z</time>
      </trkpt>
      <trkpt lat="45.05645" lon="-0.5888">
        <ele>49.5</ele>
        <time>2024-11-23T10:27:47Z</time>
      </trkpt>
      <trkpt lat="45.05644" lon="-0.58881">
        <ele>49.4</ele>
        <time>2024-11-23T10:27:48Z</time>
      </trkpt>
      <trkpt lat="45.05642" lon="-0.58882">
        <ele>49.4</ele>
        <time>2024-11-23T10:27:49Z</time>
      </trkpt>
      <trkpt lat="45.05641" lon="-0.58883">
        <ele>49.3</ele>
        <time>2024-11-23T10:27:50Z</time>
      </trkpt>
      <trkpt lat="45.0564" lon="-0.58884">
        <ele>49.3</ele>
        <time>2024-11-23T10:27:51Z</time>
      </trkpt>
      <trkpt lat="45.05638" lon="-0.58885">
        <ele>49.2</ele>
        <time>2024-11-23T10:27:52Z</time>
      </trkpt>
      <trkpt lat="45.05637" lon="-0.58886">
        <ele>49.2</ele>
        <time>2024-11-23T10:27:53Z</time>
      </trkpt>
      <trkpt lat="45.05635" lon="-0.58888">
        <ele>49.1</ele>
        <time>2024-11-23T10:27:54Z</time>
      </trkpt>
      <trkpt lat="45.05634" lon="-0.58889">
        <ele>49.1</ele>
        <time>2024-11-23T10:27:55Z</time>
      </trkpt>
      <trkpt lat="45.05633" lon="-0.58889">
        <ele>49</ele>
        <time>2024-11-23T10:27:56Z</time>
      </trkpt>
      <trkpt lat="45.05632" lon="-0.5889">
        <ele>49</ele>
        <time>2024-11-23T10:27:57Z</time>
      </trkpt>
      <trkpt lat="45.05631" lon="-0.58891">
        <ele>48.9</ele>
        <time>2024-11-23T10:27:58Z</time>
      </trkpt>
      <trkpt lat="45.05617" lon="-0.58881">
        <ele>48.2</ele>
        <time>2024-11-23T10:27:59Z</time>
      </trkpt>
      <trkpt lat="45.05606" lon="-0.58871">
        <ele>48</ele>
        <time>2024-11-23T10:28:47Z</time>
      </trkpt>
      <trkpt lat="45.05595" lon="-0.5886">
        <ele>48</ele>
        <time>2024-11-23T10:28:48Z</time>
      </trkpt>
      <trkpt lat="45.05583" lon="-0.58849">
        <ele>47.6</ele>
        <time>2024-11-23T10:28:49Z</time>
      </trkpt>
      <trkpt lat="45.05572" lon="-0.58838">
        <ele>46.7</ele>
        <time>2024-11-23T10:28:50Z</time>
      </trkpt>
      <trkpt lat="45.05571" lon="-0.58836">
        <ele>46.6</ele>
        <time>2024-11-23T10:28:51Z</time>
      </trkpt>
      <trkpt lat="45.0557" lon="-0.58834">
        <ele>46.4</ele>
        <time>2024-11-23T10:28:52Z</time>
      </trkpt>
      <trkpt lat="45.05569" lon="-0.58833">
        <ele>46.3</ele>
        <time>2024-11-23T10:28:53Z</time>
      </trkpt>
      <trkpt lat="45.05568" lon="-0.58831">
        <ele>46.2</ele>
        <time>2024-11-23T10:28:54Z</time>
      </trkpt>
      <trkpt lat="45.05567" lon="-0.58829">
        <ele>46</ele>
        <time>2024-11-23T10:28:55Z</time>
      </trkpt>
      <trkpt lat="45.05567" lon="-0.58827">
        <ele>45.9</ele>
        <time>2024-11-23T10:28:56Z</time>
      </trkpt>
      <trkpt lat="45.05566" lon="-0.58826">
        <ele>45.8</ele>
        <time>2024-11-23T10:28:57Z</time>
      </trkpt>
      <trkpt lat="45.05565" lon="-0.58824">
        <ele>45.7</ele>
        <time>2024-11-23T10:28:58Z</time>
      </trkpt>
      <trkpt lat="45.05564" lon="-0.58822">
        <ele>45.5</ele>
        <time>2024-11-23T10:28:59Z</time>
      </trkpt>
      <trkpt lat="45.05518" lon="-0.58749">
        <ele>39.4</ele>
        <time>2024-11-23T10:29:45Z</time>
      </trkpt>
      <trkpt lat="45.05517" lon="-0.58748">
        <ele>39.3</ele>
        <time>2024-11-23T10:29:46Z</time>
      </trkpt>
      <trkpt lat="45.05516" lon="-0.58746">
        <ele>39.2</ele>
        <time>2024-11-23T10:29:47Z</time>
      </trkpt>
      <trkpt lat="45.05515" lon="-0.58744">
        <ele>39</ele>
        <time>2024-11-23T10:29:48Z</time>
      </trkpt>
      <trkpt lat="45.05514" lon="-0.58743">
        <ele>39</ele>
        <time>2024-11-23T10:29:49Z</time>
      </trkpt>
      <trkpt lat="45.05513" lon="-0.58742">
        <ele>38.9</ele>
        <time>2024-11-23T10:29:50Z</time>
      </trkpt>
      <trkpt lat="45.05512" lon="-0.5874">
        <ele>38.8</ele>
        <time>2024-11-23T10:29:51Z</time>
      </trkpt>
      <trkpt lat="45.0551" lon="-0.58739">
        <ele>38.8</ele>
        <time>2024-11-23T10:29:52Z</time>
      </trkpt>
      <trkpt lat="45.05509" lon="-0.58738">
        <ele>38.7</ele>
        <time>2024-11-23T10:29:53Z</time>
      </trkpt>
      <trkpt lat="45.05508" lon="-0.58736">
        <ele>38.6</ele>
        <time>2024-11-23T10:29:54Z</time>
      </trkpt>
      <trkpt lat="45.05507" lon="-0.58735">
        <ele>38.6</ele>
        <time>2024-11-23T10:29:55Z</time>
      </trkpt>
      <trkpt lat="45.05506" lon="-0.58734">
        <ele>38.5</ele>
        <time>2024-11-23T10:29:56Z</time>
      </trkpt>
      <trkpt lat="45.05505" lon="-0.58732">
        <ele>38.4</ele>
        <time>2024-11-23T10:29:57Z</time>
      </trkpt>
      <trkpt lat="45.05503" lon="-0.58731">
        <ele>38.4</ele>
        <time>2024-11-23T10:29:58Z</time>
      </trkpt>
      <trkpt lat="45.05502" lon="-0.58729">
        <ele>38.3</ele>
        <time>2024-11-23T10:29:59Z</time>
      </trkpt>
      <trkpt lat="45.05497" lon="-0.58723">
        <ele>38.1</ele>
        <time>2024-11-23T10:30:00Z</time>
      </trkpt>
      <trkpt lat="45.05493" lon="-0.58719">
        <ele>38</ele>
        <time>2024-11-23T10:30:11Z</time>
      </trkpt>
      <trkpt lat="45.05489" lon="-0.58714">
        <ele>37.9</ele>
        <time>2024-11-23T10:30:12Z</time>
      </trkpt>
      <trkpt lat="45.05485" lon="-0.58709">
        <ele>37.8</ele>
        <time>2024-11-23T10:30:13Z</time>
      </trkpt>
      <trkpt lat="45.05484" lon="-0.58708">
        <ele>37.8</ele>
        <time>2024-11-23T10:30:14Z</time>
      </trkpt>
      <trkpt lat="45.05483" lon="-0.58706">
        <ele>37.8</ele>
        <time>2024-11-23T10:30:15Z</time>
      </trkpt>
      <trkpt lat="45.05482" lon="-0.58705">
        <ele>37.8</ele>
        <time>2024-11-23T10:30:16Z</time>
      </trkpt>
      <trkpt lat="45.0548" lon="-0.58704">
        <ele>37.8</ele>
        <time>2024-11-23T10:30:17Z</time>
      </trkpt>
      <trkpt lat="45.05479" lon="-0.58702">
        <ele>37.8</ele>
        <time>2024-11-23T10:30:18Z</time>
      </trkpt>
      <trkpt lat="45.05478" lon="-0.58701">
        <ele>37.8</ele>
        <time>2024-11-23T10:30:19Z</time>
      </trkpt>
      <trkpt lat="45.05477" lon="-0.58699">
        <ele>37.8</ele>
        <time>2024-11-23T10:30:20Z</time>
      </trkpt>
      <trkpt lat="45.05476" lon="-0.58697">
        <ele>37.8</ele>
        <time>2024-11-23T10:30:21Z</time>
      </trkpt>
      <trkpt lat="45.05475" lon="-0.58696">
        <ele>37.8</ele>
        <time>2024-11-23T10:30:22Z</time>
      </trkpt>
      <trkpt lat="45.05474" lon="-0.58694">
        <ele>37.8</ele>
        <time>2024-11-23T10:30:23Z</time>
      </trkpt>
      <trkpt lat="45.05473" lon="-0.58693">
        <ele>37.9</ele>
        <time>2024-11-23T10:30:24Z</time>
      </trkpt>
      <trkpt lat="45.05472" lon="-0.58691">
        <ele>38</ele>
        <time>2024-11-23T10:30:25Z</time>
      </trkpt>
      <trkpt lat="45.05471" lon="-0.5869">
        <ele>38</ele>
        <time>2024-11-23T10:30:26Z</time>
      </trkpt>
      <trkpt lat="45.05471" lon="-0.58688">
        <ele>38.1</ele>
        <time>2024-11-23T10:30:27Z</time>
      </trkpt>
      <trkpt lat="45.0547" lon="-0.58686">
        <ele>38.1</ele>
        <time>2024-11-23T10:30:28Z</time>
      </trkpt>
      <trkpt lat="45.05469" lon="-0.58685">
        <ele>38.2</ele>
        <time>2024-11-23T10:30:29Z</time>
      </trkpt>
      <trkpt lat="45.05468" lon="-0.58684">
        <ele>38.3</ele>
        <time>2024-11-23T10:30:30Z</time>
      </trkpt>
      <trkpt lat="45.05406" lon="-0.58615">
        <ele>43.1</ele>
        <time>2024-11-23T10:31:31Z</time>
      </trkpt>
      <trkpt lat="45.05404" lon="-0.58615">
        <ele>43.1</ele>
        <time>2024-11-23T10:31:32Z</time>
      </trkpt>
      <trkpt lat="45.05403" lon="-0.58615">
        <ele>43.1</ele>
        <time>2024-11-23T10:31:33Z</time>
      </trkpt>
      <trkpt lat="45.05402" lon="-0.58615">
        <ele>43</ele>
        <time>2024-11-23T10:31:34Z</time>
      </trkpt>
      <trkpt lat="45.054" lon="-0.58614">
        <ele>43</ele>
        <time>2024-11-23T10:31:35Z</time>
      </trkpt>
      <trkpt lat="45.05399" lon="-0.58614">
        <ele>42.9</ele>
        <time>2024-11-23T10:31:36Z</time>
      </trkpt>
      <trkpt lat="45.05397" lon="-0.58614">
        <ele>42.8</ele>
        <time>2024-11-23T10:31:37Z</time>
      </trkpt>
      <trkpt lat="45.05396" lon="-0.58613">
        <ele>42.8</ele>
        <time>2024-11-23T10:31:38Z</time>
      </trkpt>
      <trkpt lat="45.05395" lon="-0.58612">
        <ele>42.8</ele>
        <time>2024-11-23T10:31:39Z</time>
      </trkpt>
      <trkpt lat="45.05394" lon="-0.58611">
        <ele>42.7</ele>
        <time>2024-11-23T10:31:40Z</time>
      </trkpt>
      <trkpt lat="45.05392" lon="-0.58609">
        <ele>42.6</ele>
        <time>2024-11-23T10:31:41Z</time>
      </trkpt>
      <trkpt lat="45.05391" lon="-0.58607">
        <ele>42.5</ele>
        <time>2024-11-23T10:31:42Z</time>
      </trkpt>
      <trkpt lat="45.0539" lon="-0.58606">
        <ele>42.5</ele>
        <time>2024-11-23T10:31:43Z</time>
      </trkpt>
      <trkpt lat="45.05389" lon="-0.58606">
        <ele>42.5</ele>
        <time>2024-11-23T10:31:44Z</time>
      </trkpt>
      <trkpt lat="45.05383" lon="-0.5859">
        <ele>42.4</ele>
        <time>2024-11-23T10:31:45Z</time>
      </trkpt>
      <trkpt lat="45.05378" lon="-0.58576">
        <ele>42.9</ele>
        <time>2024-11-23T10:32:20Z</time>
      </trkpt>
      <trkpt lat="45.05373" lon="-0.58562">
        <ele>43.4</ele>
        <time>2024-11-23T10:32:21Z</time>
      </trkpt>
      <trkpt lat="45.05368" lon="-0.58547">
        <ele>43.8</ele>
        <time>2024-11-23T10:32:22Z</time>
      </trkpt>
      <trkpt lat="45.05363" lon="-0.58533">
        <ele>44.1</ele>
        <time>2024-11-23T10:32:23Z</time>
      </trkpt>
      <trkpt lat="45.05362" lon="-0.58531">
        <ele>44.1</ele>
        <time>2024-11-23T10:32:24Z</time>
      </trkpt>
      <trkpt lat="45.05362" lon="-0.58529">
        <ele>44.2</ele>
        <time>2024-11-23T10:32:25Z</time>
      </trkpt>
      <trkpt lat="45.05361" lon="-0.58528">
        <ele>44.2</ele>
        <time>2024-11-23T10:32:26Z</time>
      </trkpt>
      <trkpt lat="45.0536" lon="-0.58526">
        <ele>44.2</ele>
        <time>2024-11-23T10:32:27Z</time>
      </trkpt>
      <trkpt lat="45.05359" lon="-0.58523">
        <ele>44.2</ele>
        <time>2024-11-23T10:32:28Z</time>
      </trkpt>
      <trkpt lat="45.05359" lon="-0.58522">
        <ele>44.3</ele>
        <time>2024-11-23T10:32:29Z</time>
      </trkpt>
      <trkpt lat="45.05358" lon="-0.5852">
        <ele>44.3</ele>
        <time>2024-11-23T10:32:30Z</time>
      </trkpt>
      <trkpt lat="45.05342" lon="-0.58479">
        <ele>44.1</ele>
        <time>2024-11-23T10:33:02Z</time>
      </trkpt>
      <trkpt lat="45.05339" lon="-0.58471">
        <ele>44</ele>
        <time>2024-11-23T10:33:03Z</time>
      </trkpt>
      <trkpt lat="45.05335" lon="-0.58462">
        <ele>43.8</ele>
        <time>2024-11-23T10:33:04Z</time>
      </trkpt>
      <trkpt lat="45.05331" lon="-0.58454">
        <ele>43.6</ele>
        <time>2024-11-23T10:33:05Z</time>
      </trkpt>
      <trkpt lat="45.0533" lon="-0.58452">
        <ele>43.5</ele>
        <time>2024-11-23T10:33:06Z</time>
      </trkpt>
      <trkpt lat="45.0533" lon="-0.5845">
        <ele>43.4</ele>
        <time>2024-11-23T10:33:07Z</time>
      </trkpt>
      <trkpt lat="45.05329" lon="-0.58448">
        <ele>43.4</ele>
        <time>2024-11-23T10:33:08Z</time>
      </trkpt>
      <trkpt lat="45.05328" lon="-0.58446">
        <ele>43.3</ele>
        <time>2024-11-23T10:33:09Z</time>
      </trkpt>
      <trkpt lat="45.05327" lon="-0.58444">
        <ele>43.2</ele>
        <time>2024-11-23T10:33:10Z</time>
      </trkpt>
      <trkpt lat="45.05326" lon="-0.58442">
        <ele>43.1</ele>
        <time>2024-11-23T10:33:11Z</time>
      </trkpt>
      <trkpt lat="45.05325" lon="-0.5844">
        <ele>43</ele>
        <time>2024-11-23T10:33:12Z</time>
      </trkpt>
      <trkpt lat="45.05325" lon="-0.58438">
        <ele>42.9</ele>
        <time>2024-11-23T10:33:13Z</time>
      </trkpt>
      <trkpt lat="45.05324" lon="-0.58436">
        <ele>42.8</ele>
        <time>2024-11-23T10:33:14Z</time>
      </trkpt>
      <trkpt lat="45.05323" lon="-0.58435">
        <ele>42.7</ele>
        <time>2024-11-23T10:33:15Z</time>
      </trkpt>
      <trkpt lat="45.05305" lon="-0.58394">
        <ele>39.9</ele>
        <time>2024-11-23T10:33:37Z</time>
      </trkpt>
      <trkpt lat="45.05304" lon="-0.58392">
        <ele>39.8</ele>
        <time>2024-11-23T10:33:38Z</time>
      </trkpt>
      <trkpt lat="45.05304" lon="-0.58391">
        <ele>39.7</ele>
        <time>2024-11-23T10:33:39Z</time>
      </trkpt>
      <trkpt lat="45.05303" lon="-0.5839">
        <ele>39.6</ele>
        <time>2024-11-23T10:33:40Z</time>
      </trkpt>
      <trkpt lat="45.05302" lon="-0.58388">
        <ele>39.5</ele>
        <time>2024-11-23T10:33:41Z</time>
      </trkpt>
      <trkpt lat="45.05301" lon="-0.58387">
        <ele>39.3</ele>
        <time>2024-11-23T10:33:42Z</time>
      </trkpt>
      <trkpt lat="45.053" lon="-0.58385">
        <ele>39.2</ele>
        <time>2024-11-23T10:33:43Z</time>
      </trkpt>
      <trkpt lat="45.05299" lon="-0.58384">
        <ele>39.1</ele>
        <time>2024-11-23T10:33:44Z</time>
      </trkpt>
      <trkpt lat="45.05298" lon="-0.58382">
        <ele>38.9</ele>
        <time>2024-11-23T10:33:45Z</time>
      </trkpt>
      <trkpt lat="45.05238" lon="-0.58339">
        <ele>34.2</ele>
        <time>2024-11-23T10:34:31Z</time>
      </trkpt>
      <trkpt lat="45.05237" lon="-0.58338">
        <ele>34.1</ele>
        <time>2024-11-23T10:34:32Z</time>
      </trkpt>
      <trkpt lat="45.05236" lon="-0.58336">
        <ele>34</ele>
        <time>2024-11-23T10:34:33Z</time>
      </trkpt>
      <trkpt lat="45.05235" lon="-0.58334">
        <ele>33.9</ele>
        <time>2024-11-23T10:34:34Z</time>
      </trkpt>
      <trkpt lat="45.05234" lon="-0.58333">
        <ele>33.8</ele>
        <time>2024-11-23T10:34:35Z</time>
      </trkpt>
      <trkpt lat="45.05233" lon="-0.58331">
        <ele>33.7</ele>
        <time>2024-11-23T10:34:36Z</time>
      </trkpt>
      <trkpt lat="45.05231" lon="-0.58329">
        <ele>33.6</ele>
        <time>2024-11-23T10:34:37Z</time>
      </trkpt>
      <trkpt lat="45.0523" lon="-0.58328">
        <ele>33.5</ele>
        <time>2024-11-23T10:34:38Z</time>
      </trkpt>
      <trkpt lat="45.05229" lon="-0.58326">
        <ele>33.4</ele>
        <time>2024-11-23T10:34:39Z</time>
      </trkpt>
      <trkpt lat="45.05228" lon="-0.58325">
        <ele>33.4</ele>
        <time>2024-11-23T10:34:40Z</time>
      </trkpt>
      <trkpt lat="45.05227" lon="-0.58324">
        <ele>33.3</ele>
        <time>2024-11-23T10:34:41Z</time>
      </trkpt>
      <trkpt lat="45.05226" lon="-0.58322">
        <ele>33.2</ele>
        <time>2024-11-23T10:34:42Z</time>
      </trkpt>
      <trkpt lat="45.05225" lon="-0.5832">
        <ele>33.1</ele>
        <time>2024-11-23T10:34:43Z</time>
      </trkpt>
      <trkpt lat="45.05224" lon="-0.58318">
        <ele>33</ele>
        <time>2024-11-23T10:34:44Z</time>
      </trkpt>
      <trkpt lat="45.05222" lon="-0.58316">
        <ele>32.9</ele>
        <time>2024-11-23T10:34:45Z</time>
      </trkpt>
      <trkpt lat="45.05221" lon="-0.58315">
        <ele>32.8</ele>
        <time>2024-11-23T10:34:46Z</time>
      </trkpt>
      <trkpt lat="45.05221" lon="-0.58315">
        <ele>32.8</ele>
        <time>2024-11-23T10:34:47Z</time>
      </trkpt>
      <trkpt lat="45.05219" lon="-0.58313">
        <ele>32.7</ele>
        <time>2024-11-23T10:34:48Z</time>
      </trkpt>
      <trkpt lat="45.05218" lon="-0.58311">
        <ele>32.6</ele>
        <time>2024-11-23T10:34:49Z</time>
      </trkpt>
      <trkpt lat="45.05217" lon="-0.5831">
        <ele>32.5</ele>
        <time>2024-11-23T10:34:50Z</time>
      </trkpt>
      <trkpt lat="45.05216" lon="-0.58308">
        <ele>32.4</ele>
        <time>2024-11-23T10:34:51Z</time>
      </trkpt>
      <trkpt lat="45.05215" lon="-0.58306">
        <ele>32.3</ele>
        <time>2024-11-23T10:34:52Z</time>
      </trkpt>
      <trkpt lat="45.05214" lon="-0.58305">
        <ele>32.3</ele>
        <time>2024-11-23T10:34:53Z</time>
      </trkpt>
      <trkpt lat="45.05213" lon="-0.58303">
        <ele>32.2</ele>
        <time>2024-11-23T10:34:54Z</time>
      </trkpt>
      <trkpt lat="45.05212" lon="-0.58301">
        <ele>32.1</ele>
        <time>2024-11-23T10:34:55Z</time>
      </trkpt>
      <trkpt lat="45.05211" lon="-0.583">
        <ele>32</ele>
        <time>2024-11-23T10:34:56Z</time>
      </trkpt>
      <trkpt lat="45.0521" lon="-0.58298">
        <ele>31.9</ele>
        <time>2024-11-23T10:34:57Z</time>
      </trkpt>
      <trkpt lat="45.05209" lon="-0.58296">
        <ele>31.8</ele>
        <time>2024-11-23T10:34:58Z</time>
      </trkpt>
      <trkpt lat="45.05208" lon="-0.58295">
        <ele>31.8</ele>
        <time>2024-11-23T10:34:59Z</time>
      </trkpt>
      <trkpt lat="45.05196" lon="-0.58292">
        <ele>31.2</ele>
        <time>2024-11-23T10:35:00Z</time>
      </trkpt>
      <trkpt lat="45.05186" lon="-0.58291">
        <ele>30.9</ele>
        <time>2024-11-23T10:35:38Z</time>
      </trkpt>
      <trkpt lat="45.05175" lon="-0.5829">
        <ele>30.7</ele>
        <time>2024-11-23T10:35:39Z</time>
      </trkpt>
      <trkpt lat="45.05165" lon="-0.58289">
        <ele>30.6</ele>
        <time>2024-11-23T10:35:40Z</time>
      </trkpt>
      <trkpt lat="45.05155" lon="-0.58288">
        <ele>30.6</ele>
        <time>2024-11-23T10:35:41Z</time>
      </trkpt>
      <trkpt lat="45.05153" lon="-0.58289">
        <ele>30.5</ele>
        <time>2024-11-23T10:35:42Z</time>
      </trkpt>
      <trkpt lat="45.05152" lon="-0.5829">
        <ele>30.5</ele>
        <time>2024-11-23T10:35:43Z</time>
      </trkpt>
      <trkpt lat="45.05151" lon="-0.5829">
        <ele>30.5</ele>
        <time>2024-11-23T10:35:44Z</time>
      </trkpt>
      <trkpt lat="45.05148" lon="-0.58293">
        <ele>30.4</ele>
        <time>2024-11-23T10:35:45Z</time>
      </trkpt>
      <trkpt lat="45.05145" lon="-0.58294">
        <ele>30.3</ele>
        <time>2024-11-23T10:35:48Z</time>
      </trkpt>
      <trkpt lat="45.05143" lon="-0.58295">
        <ele>30.3</ele>
        <time>2024-11-23T10:35:49Z</time>
      </trkpt>
      <trkpt lat="45.0514" lon="-0.58296">
        <ele>30.3</ele>
        <time>2024-11-23T10:35:50Z</time>
      </trkpt>
      <trkpt lat="45.05139" lon="-0.58296">
        <ele>30.2</ele>
        <time>2024-11-23T10:35:51Z</time>
      </trkpt>
      <trkpt lat="45.05138" lon="-0.58298">
        <ele>30.2</ele>
        <time>2024-11-23T10:35:52Z</time>
      </trkpt>
      <trkpt lat="45.05136" lon="-0.58298">
        <ele>30.2</ele>
        <time>2024-11-23T10:35:53Z</time>
      </trkpt>
      <trkpt lat="45.05135" lon="-0.58298">
        <ele>30.2</ele>
        <time>2024-11-23T10:35:54Z</time>
      </trkpt>
      <trkpt lat="45.05133" lon="-0.58297">
        <ele>30.2</ele>
        <time>2024-11-23T10:35:55Z</time>
      </trkpt>
      <trkpt lat="45.05132" lon="-0.58295">
        <ele>30.1</ele>
        <time>2024-11-23T10:35:56Z</time>
      </trkpt>
      <trkpt lat="45.05132" lon="-0.58294">
        <ele>30.1</ele>
        <time>2024-11-23T10:35:57Z</time>
      </trkpt>
    </trkseg>
  </trk>
</gpx>